ftp/pub/mcmurdo/arrivalheights/2019/05192019.txt

Download

		Temp	Hi	Low	Wind	Wind	Wind	Hi	Wind		Heat	Cool	In 	In	Arc.
Date	Time	Out	Temp	Temp	Speed	Dir	Run	Speed	Chill	Bar  	D-D 	D-D 	Temp	Hum	Int.
05/18/19	12:01 a	-22.4	-22.4	-22.4	26.1	ESE	0.43	27.8	-38.3	722.2	0.028	0.000	16.6	33	1
05/18/19	12:02 a	-22.4	-22.4	-22.4	26.1	ESE	0.43	27.8	-38.4	722.1	0.028	0.000	16.6	33	1
05/18/19	12:03 a	-22.4	-22.4	-22.4	26.1	SE	0.43	27.8	-38.4	722.1	0.028	0.000	16.6	33	1
05/18/19	12:04 a	-22.4	-22.4	-22.4	27.0	SE	0.45	27.8	-38.6	722.2	0.028	0.000	16.6	33	1
05/18/19	12:05 a	-22.4	-22.4	-22.4	23.5	SE	0.39	26.1	-37.7	722.2	0.028	0.000	16.6	33	1
05/18/19	12:06 a	-22.4	-22.4	-22.4	25.2	SE	0.42	27.8	-38.2	722.1	0.028	0.000	16.6	33	1
05/18/19	12:07 a	-22.4	-22.4	-22.4	27.0	SE	0.45	28.7	-38.6	722.1	0.028	0.000	16.6	33	1
05/18/19	12:08 a	-22.4	-22.4	-22.4	26.1	SE	0.43	28.7	-38.4	722.1	0.028	0.000	16.6	33	1
05/18/19	12:09 a	-22.4	-22.4	-22.4	27.0	SE	0.45	28.7	-38.6	722.1	0.028	0.000	16.6	32	1
05/18/19	12:10 a	-22.4	-22.4	-22.4	27.0	SE	0.45	33.0	-38.6	722.0	0.028	0.000	16.6	33	1
05/18/19	12:11 a	-22.4	-22.4	-22.4	26.1	ESE	0.43	29.6	-38.4	722.0	0.028	0.000	16.6	35	1
05/18/19	12:12 a	-22.4	-22.4	-22.4	27.0	ESE	0.45	28.7	-38.6	722.1	0.028	0.000	16.6	35	1
05/18/19	12:13 a	-22.4	-22.4	-22.4	27.8	ESE	0.46	30.4	-38.8	722.0	0.028	0.000	16.6	34	1
05/18/19	12:14 a	-22.4	-22.4	-22.4	28.7	ESE	0.48	31.3	-38.9	721.9	0.028	0.000	16.6	34	1
05/18/19	12:15 a	-22.4	-22.4	-22.4	27.0	ESE	0.45	32.2	-38.6	722.2	0.028	0.000	16.6	34	1
05/18/19	12:16 a	-22.4	-22.4	-22.4	27.0	ESE	0.45	33.9	-38.6	722.0	0.028	0.000	16.6	34	1
05/18/19	12:17 a	-22.4	-22.4	-22.4	26.1	ESE	0.43	28.7	-38.4	722.1	0.028	0.000	16.6	34	1
05/18/19	12:18 a	-22.4	-22.4	-22.4	27.0	ESE	0.45	29.6	-38.6	722.0	0.028	0.000	16.6	33	1
05/18/19	12:19 a	-22.4	-22.4	-22.4	27.0	ESE	0.45	29.6	-38.6	722.0	0.028	0.000	16.6	34	1
05/18/19	12:20 a	-22.3	-22.3	-22.4	28.7	ESE	0.48	33.0	-38.8	721.9	0.028	0.000	16.6	34	1
05/18/19	12:21 a	-22.4	-22.3	-22.4	27.0	ESE	0.45	30.4	-38.6	722.0	0.028	0.000	16.6	34	1
05/18/19	12:22 a	-22.3	-22.3	-22.3	27.0	ESE	0.45	31.3	-38.5	722.0	0.028	0.000	16.6	34	1
05/18/19	12:23 a	-22.3	-22.3	-22.3	26.1	SE	0.43	29.6	-38.3	722.0	0.028	0.000	16.6	34	1
05/18/19	12:24 a	-22.3	-22.3	-22.3	27.8	SE	0.46	31.3	-38.7	722.1	0.028	0.000	16.6	36	1
05/18/19	12:25 a	-22.3	-22.3	-22.3	27.0	ESE	0.45	29.6	-38.5	722.1	0.028	0.000	16.6	35	1
05/18/19	12:26 a	-22.3	-22.3	-22.3	27.8	ESE	0.46	30.4	-38.7	722.0	0.028	0.000	16.6	34	1
05/18/19	12:27 a	-22.3	-22.3	-22.3	27.8	ESE	0.46	30.4	-38.6	722.0	0.028	0.000	16.6	35	1
05/18/19	12:28 a	-22.3	-22.2	-22.3	28.7	ESE	0.48	32.2	-38.8	722.0	0.028	0.000	16.6	35	1
05/18/19	12:29 a	-22.3	-22.2	-22.3	28.7	ESE	0.48	33.9	-38.8	722.1	0.028	0.000	16.6	35	1
05/18/19	12:30 a	-22.3	-22.3	-22.3	27.8	ESE	0.46	30.4	-38.6	722.0	0.028	0.000	16.6	34	1
05/18/19	12:31 a	-22.2	-22.2	-22.3	26.1	ESE	0.43	28.7	-38.1	722.2	0.028	0.000	16.6	34	1
05/18/19	12:32 a	-22.2	-22.2	-22.2	27.8	ESE	0.46	30.4	-38.5	722.1	0.028	0.000	16.6	34	1
05/18/19	12:33 a	-22.2	-22.2	-22.2	27.8	ESE	0.46	31.3	-38.5	722.2	0.028	0.000	16.6	33	1
05/18/19	12:34 a	-22.2	-22.2	-22.2	27.0	SE	0.45	29.6	-38.3	722.2	0.028	0.000	16.6	33	1
05/18/19	12:35 a	-22.2	-22.2	-22.2	27.0	SE	0.45	33.9	-38.3	722.3	0.028	0.000	16.6	33	1
05/18/19	12:36 a	-22.2	-22.2	-22.2	26.1	ESE	0.43	28.7	-38.1	722.3	0.028	0.000	16.6	34	1
05/18/19	12:37 a	-22.2	-22.2	-22.2	26.1	SE	0.43	33.0	-38.1	722.3	0.028	0.000	16.6	35	1
05/18/19	12:38 a	-22.2	-22.2	-22.2	30.4	SE	0.51	34.8	-39.0	722.2	0.028	0.000	16.6	36	1
05/18/19	12:39 a	-22.2	-22.2	-22.2	28.7	SE	0.48	30.4	-38.6	722.2	0.028	0.000	16.6	34	1
05/18/19	12:40 a	-22.2	-22.2	-22.2	25.2	SE	0.42	27.8	-37.8	722.4	0.028	0.000	16.6	34	1
05/18/19	12:41 a	-22.2	-22.2	-22.2	24.3	SE	0.41	28.7	-37.7	722.4	0.028	0.000	16.6	34	1
05/18/19	12:42 a	-22.2	-22.2	-22.2	24.3	ESE	0.41	28.7	-37.7	722.4	0.028	0.000	16.6	34	1
05/18/19	12:43 a	-22.2	-22.2	-22.2	24.3	ESE	0.41	33.0	-37.7	722.3	0.028	0.000	16.6	34	1
05/18/19	12:44 a	-22.2	-22.2	-22.2	25.2	ESE	0.42	27.8	-37.8	722.3	0.028	0.000	16.6	35	1
05/18/19	12:45 a	-22.2	-22.1	-22.2	25.2	ESE	0.42	27.0	-37.8	722.4	0.028	0.000	16.6	36	1
05/18/19	12:46 a	-22.2	-22.2	-22.2	26.1	ESE	0.43	28.7	-38.1	722.2	0.028	0.000	16.6	35	1
05/18/19	12:47 a	-22.2	-22.2	-22.2	27.0	ESE	0.45	28.7	-38.3	722.4	0.028	0.000	16.6	36	1
05/18/19	12:48 a	-22.2	-22.2	-22.2	26.1	SE	0.43	28.7	-38.1	722.4	0.028	0.000	16.6	35	1
05/18/19	12:49 a	-22.2	-22.2	-22.2	25.2	SE	0.42	27.8	-37.9	722.5	0.028	0.000	16.6	36	1
05/18/19	12:50 a	-22.2	-22.2	-22.2	23.5	ESE	0.39	26.1	-37.5	722.4	0.028	0.000	16.6	36	1
05/18/19	12:51 a	-22.2	-22.2	-22.2	25.2	SE	0.42	27.0	-37.9	722.4	0.028	0.000	16.6	36	1
05/18/19	12:52 a	-22.3	-22.2	-22.3	25.2	SE	0.42	27.8	-38.0	722.4	0.028	0.000	16.6	36	1
05/18/19	12:53 a	-22.3	-22.3	-22.3	25.2	SE	0.42	27.0	-38.0	722.4	0.028	0.000	16.6	36	1
05/18/19	12:54 a	-22.3	-22.3	-22.3	26.1	SE	0.43	27.8	-38.3	722.4	0.028	0.000	16.6	36	1
05/18/19	12:55 a	-22.3	-22.3	-22.3	26.1	SE	0.43	28.7	-38.3	722.4	0.028	0.000	16.6	36	1
05/18/19	12:56 a	-22.3	-22.3	-22.3	26.1	ESE	0.43	27.0	-38.3	722.4	0.028	0.000	16.6	36	1
05/18/19	12:57 a	-22.4	-22.3	-22.4	26.1	SE	0.43	27.8	-38.3	722.4	0.028	0.000	16.6	36	1
05/18/19	12:58 a	-22.4	-22.4	-22.4	27.0	SE	0.45	27.8	-38.6	722.4	0.028	0.000	16.6	36	1
05/18/19	12:59 a	-22.4	-22.4	-22.4	26.1	SE	0.43	27.8	-38.4	722.4	0.028	0.000	16.6	36	1
05/18/19	1:00 a	-22.4	-22.4	-22.4	27.8	SE	0.46	29.6	-38.8	722.4	0.028	0.000	16.6	36	1
05/18/19	1:01 a	-22.4	-22.4	-22.5	27.8	SE	0.46	30.4	-38.8	722.2	0.028	0.000	16.6	36	1
05/18/19	1:02 a	-22.5	-22.5	-22.5	27.8	SE	0.46	29.6	-38.9	722.2	0.028	0.000	16.6	36	1
05/18/19	1:03 a	-22.5	-22.5	-22.5	27.8	SE	0.46	32.2	-38.9	722.2	0.028	0.000	16.6	37	1
05/18/19	1:04 a	-22.5	-22.5	-22.5	27.0	SE	0.45	28.7	-38.7	722.2	0.028	0.000	16.6	37	1
05/18/19	1:05 a	-22.5	-22.5	-22.6	27.0	SE	0.45	29.6	-38.7	722.3	0.028	0.000	16.6	36	1
05/18/19	1:06 a	-22.6	-22.6	-22.6	27.0	SE	0.45	28.7	-38.8	722.4	0.028	0.000	16.6	37	1
05/18/19	1:07 a	-22.6	-22.6	-22.6	28.7	SE	0.48	30.4	-39.2	722.3	0.028	0.000	16.6	37	1
05/18/19	1:08 a	-22.6	-22.6	-22.6	29.6	SE	0.49	33.0	-39.4	722.2	0.028	0.000	16.6	37	1
05/18/19	1:09 a	-22.6	-22.6	-22.6	29.6	SE	0.49	32.2	-39.4	722.4	0.028	0.000	16.6	36	1
05/18/19	1:10 a	-22.6	-22.6	-22.7	27.0	SE	0.45	27.8	-38.8	722.3	0.028	0.000	16.6	36	1
05/18/19	1:11 a	-22.7	-22.7	-22.7	27.8	SE	0.46	30.4	-39.1	722.2	0.028	0.000	16.6	36	1
05/18/19	1:12 a	-22.7	-22.7	-22.7	27.8	SE	0.46	29.6	-39.1	722.3	0.028	0.000	16.6	37	1
05/18/19	1:13 a	-22.7	-22.7	-22.7	31.3	SE	0.52	33.9	-39.8	722.2	0.028	0.000	16.6	37	1
05/18/19	1:14 a	-22.7	-22.7	-22.7	29.6	SE	0.49	30.4	-39.6	722.3	0.029	0.000	16.6	37	1
05/18/19	1:15 a	-22.7	-22.7	-22.8	28.7	SE	0.48	31.3	-39.4	722.4	0.029	0.000	16.6	37	1
05/18/19	1:16 a	-22.8	-22.8	-22.8	28.7	SE	0.48	30.4	-39.4	722.4	0.029	0.000	16.6	37	1
05/18/19	1:17 a	-22.8	-22.8	-22.8	27.0	SE	0.45	29.6	-39.1	722.4	0.029	0.000	16.6	37	1
05/18/19	1:18 a	-22.8	-22.8	-22.8	27.8	SE	0.46	30.4	-39.3	722.4	0.029	0.000	16.6	37	1
05/18/19	1:19 a	-22.8	-22.8	-22.9	26.1	ESE	0.43	29.6	-38.9	722.4	0.029	0.000	16.6	37	1
05/18/19	1:20 a	-22.9	-22.9	-22.9	26.1	ESE	0.43	27.8	-39.1	722.4	0.029	0.000	16.6	37	1
05/18/19	1:21 a	-22.9	-22.9	-22.9	27.8	ESE	0.46	29.6	-39.4	722.3	0.029	0.000	16.6	37	1
05/18/19	1:22 a	-22.9	-22.9	-22.9	27.0	ESE	0.45	28.7	-39.3	722.4	0.029	0.000	16.6	37	1
05/18/19	1:23 a	-23.0	-23.0	-23.1	25.2	ESE	0.42	27.0	-39.0	722.5	0.029	0.000	16.6	37	1
05/18/19	1:24 a	-23.1	-23.1	-23.1	24.3	ESE	0.41	27.0	-38.8	722.4	0.029	0.000	16.6	37	1
05/18/19	1:25 a	-23.1	-23.1	-23.2	27.0	ESE	0.45	29.6	-39.6	722.4	0.029	0.000	16.6	37	1
05/18/19	1:26 a	-23.2	-23.2	-23.2	26.1	ESE	0.43	28.7	-39.4	722.3	0.029	0.000	16.6	37	1
05/18/19	1:27 a	-23.2	-23.2	-23.3	24.3	ESE	0.41	27.8	-39.1	722.4	0.029	0.000	16.6	37	1
05/18/19	1:28 a	-23.3	-23.3	-23.3	22.6	ESE	0.38	27.0	-38.7	722.5	0.029	0.000	16.6	36	1
05/18/19	1:29 a	-23.3	-23.3	-23.3	21.7	ESE	0.36	24.3	-38.6	722.5	0.029	0.000	16.6	36	1
05/18/19	1:30 a	-23.4	-23.3	-23.4	22.6	ESE	0.38	25.2	-38.8	722.5	0.029	0.000	16.6	36	1
05/18/19	1:31 a	-23.4	-23.4	-23.4	19.1	ESE	0.32	22.6	-37.8	722.5	0.029	0.000	16.6	37	1
05/18/19	1:32 a	-23.5	-23.4	-23.5	20.0	ESE	0.33	21.7	-38.3	722.5	0.029	0.000	16.6	36	1
05/18/19	1:33 a	-23.5	-23.5	-23.5	19.1	ESE	0.32	22.6	-38.0	722.6	0.029	0.000	16.6	36	1
05/18/19	1:34 a	-23.6	-23.5	-23.6	19.1	ESE	0.32	20.9	-38.1	722.6	0.029	0.000	16.6	36	1
05/18/19	1:35 a	-23.6	-23.6	-23.6	17.4	ESE	0.29	20.0	-37.5	722.6	0.029	0.000	16.6	36	1
05/18/19	1:36 a	-23.6	-23.6	-23.6	16.5	SE	0.28	20.9	-37.2	722.7	0.029	0.000	16.6	36	1
05/18/19	1:37 a	-23.6	-23.6	-23.6	17.4	SE	0.29	20.0	-37.6	722.7	0.029	0.000	16.6	36	1
05/18/19	1:38 a	-23.6	-23.6	-23.6	18.3	SE	0.30	20.9	-37.9	722.6	0.029	0.000	16.6	36	1
05/18/19	1:39 a	-23.6	-23.6	-23.6	19.1	SE	0.32	21.7	-38.2	722.7	0.029	0.000	16.6	36	1
05/18/19	1:40 a	-23.6	-23.6	-23.6	19.1	SSE	0.32	22.6	-38.2	722.7	0.029	0.000	16.6	36	1
05/18/19	1:41 a	-23.6	-23.6	-23.6	20.9	SSE	0.35	21.7	-38.7	722.7	0.029	0.000	16.6	36	1
05/18/19	1:42 a	-23.6	-23.6	-23.6	21.7	SSE	0.36	25.2	-38.8	722.7	0.029	0.000	16.6	35	1
05/18/19	1:43 a	-23.6	-23.5	-23.6	22.6	SSE	0.38	27.8	-39.1	722.7	0.029	0.000	16.6	35	1
05/18/19	1:44 a	-23.5	-23.4	-23.5	18.3	SSE	0.30	20.9	-37.7	722.8	0.029	0.000	16.6	35	1
05/18/19	1:45 a	-23.4	-23.4	-23.4	20.9	SSE	0.35	23.5	-38.4	722.6	0.029	0.000	16.6	35	1
05/18/19	1:46 a	-23.4	-23.3	-23.4	21.7	SSE	0.36	30.4	-38.6	722.6	0.029	0.000	16.6	35	1
05/18/19	1:47 a	-23.3	-23.3	-23.3	27.0	SSE	0.45	31.3	-39.8	722.6	0.029	0.000	16.6	35	1
05/18/19	1:48 a	-23.3	-23.3	-23.3	23.5	SSE	0.39	29.6	-38.9	722.7	0.029	0.000	16.6	35	1
05/18/19	1:49 a	-23.2	-23.2	-23.3	19.1	SSE	0.32	26.1	-37.6	722.7	0.029	0.000	16.6	35	1
05/18/19	1:50 a	-23.2	-23.2	-23.2	21.7	SSE	0.36	29.6	-38.4	722.8	0.029	0.000	16.6	35	1
05/18/19	1:51 a	-23.2	-23.2	-23.2	23.5	SSE	0.39	28.7	-38.8	722.6	0.029	0.000	16.6	35	1
05/18/19	1:52 a	-23.2	-23.2	-23.2	24.3	SSE	0.41	29.6	-39.1	722.7	0.029	0.000	16.6	35	1
05/18/19	1:53 a	-23.2	-23.2	-23.2	27.0	SSE	0.45	31.3	-39.6	722.6	0.029	0.000	16.7	35	1
05/18/19	1:54 a	-23.2	-23.2	-23.2	26.1	SSE	0.43	29.6	-39.4	722.6	0.029	0.000	16.7	35	1
05/18/19	1:55 a	-23.2	-23.2	-23.2	28.7	SSE	0.48	33.0	-40.1	722.6	0.029	0.000	16.7	35	1
05/18/19	1:56 a	-23.2	-23.2	-23.3	25.2	SSE	0.42	29.6	-39.3	722.5	0.029	0.000	16.7	35	1
05/18/19	1:57 a	-23.3	-23.3	-23.3	27.8	SSE	0.46	33.9	-39.9	722.5	0.029	0.000	16.7	35	1
05/18/19	1:58 a	-23.3	-23.3	-23.3	27.8	SSE	0.46	32.2	-40.1	722.5	0.029	0.000	16.7	35	1
05/18/19	1:59 a	-23.3	-23.3	-23.3	30.4	SSE	0.51	33.0	-40.6	722.5	0.029	0.000	16.7	35	1
05/18/19	2:00 a	-23.4	-23.4	-23.4	29.6	SSE	0.49	33.0	-40.5	722.4	0.029	0.000	16.7	35	1
05/18/19	2:01 a	-23.4	-23.4	-23.5	29.6	SSE	0.49	32.2	-40.6	722.4	0.029	0.000	16.7	33	1
05/18/19	2:02 a	-23.5	-23.5	-23.6	32.2	SSE	0.54	38.3	-41.2	722.5	0.029	0.000	16.7	34	1
05/18/19	2:03 a	-23.6	-23.6	-23.6	31.3	SSE	0.52	33.9	-41.1	722.5	0.029	0.000	16.7	33	1
05/18/19	2:04 a	-23.6	-23.6	-23.6	33.0	SSE	0.55	37.4	-41.4	722.3	0.029	0.000	16.7	33	1
05/18/19	2:05 a	-23.7	-23.6	-23.7	34.8	SSE	0.58	41.7	-41.9	722.2	0.029	0.000	16.7	33	1
05/18/19	2:06 a	-23.7	-23.6	-23.7	33.9	SSE	0.57	40.0	-41.7	722.3	0.029	0.000	16.7	33	1
05/18/19	2:07 a	-23.7	-23.7	-23.8	33.0	SSE	0.55	40.0	-41.7	722.2	0.029	0.000	16.7	33	1
05/18/19	2:08 a	-23.8	-23.7	-23.8	35.7	SSE	0.59	39.1	-42.2	722.2	0.029	0.000	16.7	33	1
05/18/19	2:09 a	-23.8	-23.8	-23.8	37.4	SSE	0.62	40.9	-42.6	722.2	0.029	0.000	16.7	33	1
05/18/19	2:10 a	-23.8	-23.8	-23.9	35.7	SSE	0.59	37.4	-42.3	722.2	0.029	0.000	16.7	33	1
05/18/19	2:11 a	-23.9	-23.9	-23.9	38.3	SSE	0.64	40.0	-42.9	722.1	0.029	0.000	16.7	33	1
05/18/19	2:12 a	-23.9	-23.9	-24.0	40.0	SE	0.67	44.3	-43.2	722.1	0.029	0.000	16.7	33	1
05/18/19	2:13 a	-24.0	-24.0	-24.1	38.3	SE	0.64	42.6	-43.0	722.2	0.029	0.000	16.7	33	1
05/18/19	2:14 a	-24.1	-24.1	-24.1	37.4	SE	0.62	40.0	-43.0	722.2	0.029	0.000	16.7	34	1
05/18/19	2:15 a	-24.2	-24.1	-24.2	40.0	SE	0.67	44.3	-43.5	722.1	0.030	0.000	16.8	34	1
05/18/19	2:16 a	-24.2	-24.2	-24.2	42.6	SE	0.71	48.7	-43.9	721.9	0.030	0.000	16.8	35	1
05/18/19	2:17 a	-24.2	-24.2	-24.2	44.3	SE	0.74	48.7	-44.3	722.0	0.030	0.000	16.8	34	1
05/18/19	2:18 a	-24.3	-24.2	-24.3	41.7	SE	0.70	46.1	-43.9	722.1	0.030	0.000	16.8	34	1
05/18/19	2:19 a	-24.3	-24.3	-24.3	38.3	SE	0.64	41.7	-43.4	722.0	0.030	0.000	16.8	34	1
05/18/19	2:20 a	-24.4	-24.3	-24.4	40.0	SE	0.67	42.6	-43.8	722.0	0.030	0.000	16.8	33	1
05/18/19	2:21 a	-24.4	-24.4	-24.5	39.1	SE	0.65	40.9	-43.8	722.0	0.030	0.000	16.8	36	1
05/18/19	2:22 a	-24.5	-24.5	-24.6	40.0	ESE	0.67	42.6	-44.0	721.9	0.030	0.000	16.8	36	1
05/18/19	2:23 a	-24.6	-24.6	-24.6	39.1	ESE	0.65	44.3	-44.0	722.0	0.030	0.000	16.8	36	1
05/18/19	2:24 a	-24.7	-24.6	-24.8	39.1	ESE	0.65	45.2	-44.1	722.0	0.030	0.000	16.8	36	1
05/18/19	2:25 a	-24.8	-24.8	-24.8	39.1	ESE	0.65	41.7	-44.2	722.0	0.030	0.000	16.8	36	1
05/18/19	2:26 a	-24.9	-24.9	-24.9	39.1	ESE	0.65	41.7	-44.4	722.0	0.030	0.000	16.8	36	1
05/18/19	2:27 a	-25.0	-25.0	-25.1	39.1	ESE	0.65	41.7	-44.6	722.0	0.030	0.000	16.8	36	1
05/18/19	2:28 a	-25.2	-25.1	-25.3	39.1	ESE	0.65	43.5	-44.8	721.9	0.030	0.000	16.7	36	1
05/18/19	2:29 a	-25.3	-25.3	-25.4	39.1	ESE	0.65	41.7	-45.0	722.0	0.030	0.000	16.7	37	1
05/18/19	2:33 a	-26.0	-25.9	-26.1	40.9	ESE	0.68	44.3	-46.3	721.9	0.031	0.000	17.0	35	1
05/18/19	2:34 a	-26.1	-26.1	-26.2	39.1	ESE	0.65	40.9	-46.1	721.9	0.031	0.000	17.1	38	1
05/18/19	2:35 a	-26.3	-26.2	-26.3	38.3	ESE	0.64	41.7	-46.2	722.0	0.031	0.000	17.1	30	1
05/18/19	2:36 a	-26.4	-26.4	-26.5	39.1	ESE	0.65	41.7	-46.6	722.0	0.031	0.000	17.0	29	1
05/18/19	2:37 a	-26.6	-26.5	-26.6	37.4	ESE	0.62	41.7	-46.4	721.9	0.031	0.000	16.9	30	1
05/18/19	2:38 a	-26.7	-26.7	-26.8	40.0	ESE	0.67	45.2	-47.1	722.0	0.031	0.000	16.9	29	1
05/18/19	2:39 a	-26.8	-26.8	-26.8	39.1	ESE	0.65	41.7	-47.1	721.9	0.031	0.000	16.9	29	1
05/18/19	2:40 a	-26.9	-26.9	-26.9	39.1	ESE	0.65	41.7	-47.3	721.9	0.031	0.000	16.8	38	1
05/18/19	2:41 a	-27.1	-27.0	-27.1	40.0	ESE	0.67	43.5	-47.6	722.0	0.032	0.000	16.8	38	1
05/18/19	2:42 a	-27.2	-27.1	-27.2	39.1	ESE	0.65	43.5	-47.6	721.9	0.032	0.000	16.8	38	1
05/18/19	2:43 a	-27.3	-27.3	-27.3	38.3	ESE	0.64	42.6	-47.6	721.9	0.032	0.000	16.8	37	1
05/18/19	2:44 a	-27.4	-27.4	-27.5	40.0	ESE	0.67	42.6	-48.2	721.9	0.032	0.000	16.8	38	1
05/18/19	2:45 a	-27.5	-27.5	-27.6	40.0	ESE	0.67	44.3	-48.2	722.0	0.032	0.000	16.8	38	1
05/18/19	2:46 a	-27.6	-27.6	-27.7	40.9	ESE	0.68	46.1	-48.6	722.0	0.032	0.000	16.8	38	1
05/18/19	2:47 a	-27.7	-27.7	-27.8	40.9	ESE	0.68	45.2	-48.7	722.1	0.032	0.000	16.7	37	1
05/18/19	2:48 a	-27.8	-27.8	-27.9	36.5	ESE	0.61	43.5	-48.1	722.1	0.032	0.000	16.7	37	1
05/18/19	2:49 a	-27.9	-27.9	-27.9	36.5	ESE	0.61	41.7	-48.2	722.0	0.032	0.000	16.7	38	1
05/18/19	2:50 a	-28.0	-28.0	-28.1	37.4	ESE	0.62	41.7	-48.4	722.1	0.032	0.000	16.7	38	1
05/18/19	2:51 a	-28.1	-28.1	-28.1	37.4	ESE	0.62	43.5	-48.6	721.7	0.032	0.000	16.7	38	1
05/18/19	2:52 a	-28.2	-28.1	-28.2	40.0	ESE	0.67	45.2	-49.2	721.8	0.032	0.000	16.7	38	1
05/18/19	2:53 a	-28.3	-28.2	-28.3	40.9	ESE	0.68	44.3	-49.5	721.8	0.032	0.000	16.7	38	1
05/18/19	2:54 a	-28.3	-28.3	-28.4	40.0	ESE	0.67	46.1	-49.4	721.7	0.032	0.000	16.7	38	1
05/18/19	2:55 a	-28.4	-28.3	-28.4	42.6	ESE	0.71	47.8	-49.9	721.7	0.032	0.000	16.7	38	1
05/18/19	2:56 a	-28.5	-28.4	-28.6	42.6	ESE	0.71	47.8	-50.1	721.6	0.033	0.000	16.7	37	1
05/18/19	2:57 a	-28.6	-28.6	-28.6	41.7	ESE	0.70	46.1	-50.0	721.5	0.033	0.000	16.7	37	1
05/18/19	2:58 a	-28.6	-28.6	-28.7	43.5	ESE	0.72	46.1	-50.4	721.7	0.033	0.000	16.7	38	1
05/18/19	2:59 a	-28.7	-28.7	-28.8	42.6	ESE	0.71	46.1	-50.4	721.6	0.033	0.000	16.7	38	1
05/18/19	3:00 a	-28.8	-28.8	-28.8	41.7	ESE	0.70	44.3	-50.4	721.6	0.033	0.000	16.7	37	1
05/18/19	3:01 a	-28.9	-28.9	-28.9	42.6	ESE	0.71	45.2	-50.7	721.6	0.033	0.000	16.7	38	1
05/18/19	3:02 a	-29.0	-28.9	-29.1	41.7	ESE	0.70	44.3	-50.7	721.7	0.033	0.000	16.7	38	1
05/18/19	3:03 a	-29.1	-29.1	-29.1	40.9	ESE	0.68	47.8	-50.6	721.7	0.033	0.000	16.7	37	1
05/18/19	3:04 a	-29.2	-29.1	-29.2	40.9	ESE	0.68	45.2	-50.7	721.7	0.033	0.000	16.7	38	1
05/18/19	3:05 a	-29.2	-29.2	-29.3	40.0	ESE	0.67	43.5	-50.7	721.6	0.033	0.000	16.7	38	1
05/18/19	3:07 a	-29.4	-29.4	-29.4	40.9	ESE	0.68	45.2	-51.1	721.6	0.033	0.000	16.7	38	1
05/18/19	3:08 a	-29.5	-29.4	-29.6	41.7	ESE	0.70	47.0	-51.3	721.5	0.033	0.000	16.7	37	1
05/18/19	3:09 a	-29.6	-29.6	-29.6	40.0	ESE	0.67	43.5	-51.1	721.6	0.033	0.000	16.7	37	1
05/18/19	3:10 a	-29.7	-29.6	-29.7	40.9	ESE	0.68	43.5	-51.4	721.8	0.033	0.000	16.7	37	1
05/18/19	3:11 a	-29.7	-29.7	-29.8	38.3	ESE	0.64	42.6	-51.1	721.9	0.033	0.000	16.7	38	1
05/18/19	3:12 a	-29.8	-29.8	-29.8	39.1	ESE	0.65	41.7	-51.3	721.8	0.033	0.000	16.7	38	1
05/18/19	3:13 a	-29.9	-29.8	-29.9	40.9	ESE	0.68	44.3	-51.8	721.7	0.033	0.000	16.7	38	1
05/18/19	3:14 a	-29.9	-29.9	-30.0	40.9	ESE	0.68	46.1	-51.8	721.7	0.034	0.000	16.6	38	1
05/18/19	3:15 a	-30.0	-30.0	-30.0	41.7	ESE	0.70	45.2	-52.1	721.7	0.034	0.000	16.6	38	1
05/18/19	3:16 a	-30.1	-30.0	-30.1	41.7	ESE	0.70	45.2	-52.2	721.7	0.034	0.000	16.6	38	1
05/18/19	3:17 a	-30.1	-30.1	-30.2	40.9	ESE	0.68	43.5	-52.1	721.6	0.034	0.000	16.6	38	1
05/18/19	3:18 a	-30.2	-30.2	-30.2	40.9	ESE	0.68	46.1	-52.2	721.8	0.034	0.000	16.6	38	1
05/18/19	3:19 a	-30.2	-30.2	-30.2	38.3	ESE	0.64	41.7	-51.7	721.8	0.034	0.000	16.6	38	1
05/18/19	3:20 a	-30.3	-30.3	-30.3	40.9	ESE	0.68	45.2	-52.3	721.7	0.034	0.000	16.6	38	1
05/18/19	3:21 a	-30.3	-30.3	-30.4	40.9	ESE	0.68	43.5	-52.4	721.7	0.034	0.000	16.6	38	1
05/18/19	3:22 a	-30.4	-30.3	-30.4	41.7	ESE	0.70	43.5	-52.6	721.8	0.034	0.000	16.6	38	1
05/18/19	3:23 a	-30.4	-30.4	-30.4	41.7	ESE	0.70	44.3	-52.7	721.8	0.034	0.000	16.6	38	1
05/18/19	3:24 a	-30.5	-30.5	-30.6	39.1	ESE	0.65	45.2	-52.3	722.0	0.034	0.000	16.6	38	1
05/18/19	3:25 a	-30.6	-30.5	-30.6	38.3	ESE	0.64	41.7	-52.2	721.8	0.034	0.000	16.6	38	1
05/18/19	3:26 a	-30.6	-30.5	-30.7	39.1	ESE	0.65	43.5	-52.4	721.8	0.034	0.000	16.6	38	1
05/18/19	3:27 a	-30.7	-30.6	-30.7	40.9	ESE	0.68	43.5	-52.8	721.6	0.034	0.000	16.6	37	1
05/18/19	3:28 a	-30.7	-30.7	-30.7	41.7	ESE	0.70	45.2	-53.0	721.6	0.034	0.000	16.6	37	1
05/18/19	3:29 a	-30.7	-30.7	-30.7	42.6	ESE	0.71	45.2	-53.2	721.5	0.034	0.000	16.6	38	1
05/18/19	3:30 a	-30.7	-30.7	-30.8	41.7	ESE	0.70	44.3	-53.1	721.5	0.034	0.000	16.6	37	1
05/18/19	3:31 a	-30.8	-30.8	-30.8	41.7	ESE	0.70	45.2	-53.2	721.5	0.034	0.000	16.6	38	1
05/18/19	3:32 a	-30.8	-30.8	-30.8	41.7	ESE	0.70	46.1	-53.2	721.4	0.034	0.000	16.6	38	1
05/18/19	3:33 a	-30.8	-30.8	-30.8	42.6	ESE	0.71	46.1	-53.4	721.5	0.034	0.000	16.6	38	1
05/18/19	3:34 a	-30.8	-30.8	-30.9	39.1	ESE	0.65	44.3	-52.8	721.9	0.034	0.000	16.6	38	1
05/18/19	3:35 a	-30.9	-30.8	-30.9	40.0	ESE	0.67	43.5	-53.0	721.6	0.034	0.000	16.6	38	1
05/18/19	3:36 a	-30.9	-30.9	-30.9	42.6	ESE	0.71	46.1	-53.6	721.5	0.034	0.000	16.6	38	1
05/18/19	3:37 a	-30.9	-30.9	-31.0	43.5	ESE	0.72	46.1	-53.7	721.5	0.034	0.000	16.6	37	1
05/18/19	3:38 a	-31.0	-30.9	-31.1	40.0	ESE	0.67	44.3	-53.2	721.5	0.034	0.000	16.6	37	1
05/18/19	3:39 a	-31.1	-31.0	-31.1	42.6	ESE	0.71	45.2	-53.7	721.5	0.034	0.000	16.6	37	1
05/18/19	3:40 a	-31.1	-31.0	-31.1	41.7	ESE	0.70	44.3	-53.6	721.5	0.034	0.000	16.6	37	1
05/18/19	3:41 a	-31.1	-31.1	-31.1	41.7	ESE	0.70	47.0	-53.6	721.4	0.034	0.000	16.6	37	1
05/18/19	3:42 a	-31.1	-31.1	-31.1	40.9	ESE	0.68	44.3	-53.5	721.6	0.034	0.000	16.6	37	1
05/18/19	3:43 a	-31.1	-31.1	-31.2	39.1	ESE	0.65	42.6	-53.2	721.7	0.034	0.000	16.6	37	1
05/18/19	3:44 a	-31.1	-31.1	-31.2	39.1	ESE	0.65	42.6	-53.2	721.6	0.034	0.000	16.6	36	1
05/18/19	3:45 a	-31.2	-31.1	-31.2	41.7	ESE	0.70	46.1	-53.7	721.4	0.034	0.000	16.6	36	1
05/18/19	3:46 a	-31.2	-31.2	-31.2	40.9	ESE	0.68	46.1	-53.6	721.5	0.034	0.000	16.6	36	1
05/18/19	3:47 a	-31.2	-31.2	-31.3	40.9	ESE	0.68	45.2	-53.6	721.7	0.034	0.000	16.6	38	1
05/18/19	3:48 a	-31.2	-31.2	-31.2	39.1	ESE	0.65	43.5	-53.3	721.7	0.034	0.000	16.6	38	1
05/18/19	3:49 a	-31.2	-31.2	-31.3	38.3	ESE	0.64	43.5	-53.2	721.6	0.034	0.000	16.6	38	1
05/18/19	3:50 a	-31.3	-31.2	-31.3	40.9	ESE	0.68	44.3	-53.7	721.5	0.034	0.000	16.6	37	1
05/18/19	3:51 a	-31.3	-31.3	-31.3	39.1	ESE	0.65	44.3	-53.4	721.5	0.034	0.000	16.6	38	1
05/18/19	3:52 a	-31.3	-31.3	-31.3	40.0	ESE	0.67	43.5	-53.6	721.5	0.034	0.000	16.6	38	1
05/18/19	3:53 a	-31.3	-31.3	-31.3	43.5	ESE	0.72	47.8	-54.3	721.5	0.034	0.000	16.6	38	1
05/18/19	3:54 a	-31.3	-31.3	-31.4	41.7	ESE	0.70	44.3	-53.9	721.5	0.034	0.000	16.6	38	1
05/18/19	3:55 a	-31.4	-31.3	-31.4	41.7	ESE	0.70	45.2	-54.1	721.6	0.035	0.000	16.6	38	1
05/18/19	3:56 a	-31.4	-31.4	-31.4	40.9	ESE	0.68	47.0	-53.9	721.8	0.035	0.000	16.6	38	1
05/18/19	3:57 a	-31.4	-31.4	-31.4	41.7	ESE	0.70	46.1	-54.1	721.4	0.035	0.000	16.6	38	1
05/18/19	3:58 a	-31.4	-31.4	-31.5	41.7	ESE	0.70	47.0	-54.1	721.5	0.035	0.000	16.6	38	1
05/18/19	3:59 a	-31.5	-31.4	-31.5	37.4	ESE	0.62	40.9	-53.3	721.7	0.035	0.000	16.6	38	1
05/18/19	4:00 a	-31.5	-31.5	-31.6	40.0	ESE	0.67	43.5	-53.9	721.6	0.035	0.000	16.6	38	1
05/18/19	4:01 a	-31.6	-31.5	-31.6	41.7	ESE	0.70	44.3	-54.3	721.7	0.035	0.000	16.6	38	1
05/18/19	4:02 a	-31.6	-31.6	-31.6	41.7	ESE	0.70	46.1	-54.3	721.7	0.035	0.000	16.6	38	1
05/18/19	4:03 a	-31.6	-31.6	-31.6	40.9	ESE	0.68	45.2	-54.2	721.6	0.035	0.000	16.6	38	1
05/18/19	4:04 a	-31.6	-31.6	-31.7	40.9	ESE	0.68	43.5	-54.2	721.5	0.035	0.000	16.6	38	1
05/18/19	4:05 a	-31.7	-31.6	-31.7	40.9	ESE	0.68	45.2	-54.3	721.6	0.035	0.000	16.6	38	1
05/18/19	4:06 a	-31.7	-31.6	-31.7	40.9	ESE	0.68	45.2	-54.3	721.6	0.035	0.000	16.5	38	1
05/18/19	4:07 a	-31.7	-31.7	-31.7	39.1	ESE	0.65	41.7	-54.0	721.7	0.035	0.000	16.5	38	1
05/18/19	4:08 a	-31.7	-31.7	-31.7	38.3	ESE	0.64	42.6	-53.8	721.7	0.035	0.000	16.5	38	1
05/18/19	4:09 a	-31.7	-31.7	-31.7	40.0	ESE	0.67	44.3	-54.2	721.6	0.035	0.000	16.5	38	1
05/18/19	4:10 a	-31.8	-31.8	-31.8	41.7	ESE	0.70	45.2	-54.6	721.7	0.035	0.000	16.5	38	1
05/18/19	4:11 a	-31.8	-31.8	-31.8	39.1	ESE	0.65	45.2	-54.2	721.5	0.035	0.000	16.5	38	1
05/18/19	4:12 a	-31.8	-31.8	-31.9	38.3	ESE	0.64	41.7	-54.0	721.8	0.035	0.000	16.5	37	1
05/18/19	4:13 a	-31.8	-31.8	-31.9	39.1	ESE	0.65	43.5	-54.2	721.8	0.035	0.000	16.5	37	1
05/18/19	4:14 a	-31.9	-31.9	-31.9	38.3	ESE	0.64	43.5	-54.1	721.8	0.035	0.000	16.5	37	1
05/18/19	4:15 a	-31.9	-31.9	-31.9	40.0	ESE	0.67	42.6	-54.5	721.7	0.035	0.000	16.5	37	1
05/18/19	4:16 a	-31.9	-31.9	-32.0	40.0	ESE	0.67	42.6	-54.5	721.8	0.035	0.000	16.4	37	1
05/18/19	4:17 a	-32.0	-31.9	-32.1	37.4	ESE	0.62	41.7	-54.1	721.9	0.035	0.000	16.4	37	1
05/18/19	4:18 a	-32.1	-32.0	-32.1	40.0	ESE	0.67	42.6	-54.7	721.8	0.035	0.000	16.4	37	1
05/18/19	4:19 a	-32.1	-32.0	-32.1	40.0	ESE	0.67	43.5	-54.7	721.8	0.035	0.000	16.4	37	1
05/18/19	4:20 a	-32.1	-32.1	-32.1	40.9	ESE	0.68	44.3	-54.8	721.8	0.035	0.000	16.4	37	1
05/18/19	4:21 a	-32.1	-32.1	-32.2	39.1	ESE	0.65	43.5	-54.6	722.0	0.035	0.000	16.4	37	1
05/18/19	4:22 a	-32.2	-32.2	-32.2	40.0	ESE	0.67	43.5	-54.8	721.9	0.035	0.000	16.4	37	1
05/18/19	4:23 a	-32.2	-32.2	-32.2	38.3	ESE	0.64	42.6	-54.4	722.0	0.035	0.000	16.4	37	1
05/18/19	4:24 a	-32.2	-32.2	-32.3	37.4	ESE	0.62	40.0	-54.4	722.0	0.035	0.000	16.4	37	1
05/18/19	4:25 a	-32.3	-32.2	-32.3	39.1	ESE	0.65	42.6	-54.8	721.9	0.035	0.000	16.4	37	1
05/18/19	4:26 a	-32.3	-32.3	-32.3	38.3	ESE	0.64	41.7	-54.7	722.0	0.035	0.000	16.4	37	1
05/18/19	4:27 a	-32.4	-32.3	-32.4	37.4	ESE	0.62	41.7	-54.6	722.0	0.035	0.000	16.4	37	1
05/18/19	4:28 a	-32.4	-32.4	-32.4	36.5	ESE	0.61	40.9	-54.5	722.0	0.035	0.000	16.4	37	1
05/18/19	4:29 a	-32.5	-32.4	-32.5	36.5	ESE	0.61	40.0	-54.6	721.9	0.035	0.000	16.4	37	1
05/18/19	4:30 a	-32.5	-32.5	-32.6	35.7	ESE	0.59	38.3	-54.4	722.0	0.035	0.000	16.4	37	1
05/18/19	4:31 a	-32.6	-32.5	-32.6	36.5	ESE	0.61	40.0	-54.7	721.9	0.035	0.000	16.4	37	1
05/18/19	4:32 a	-32.6	-32.6	-32.6	36.5	ESE	0.61	40.9	-54.7	722.0	0.035	0.000	16.4	37	1
05/18/19	4:33 a	-32.6	-32.6	-32.7	35.7	ESE	0.59	40.0	-54.6	722.1	0.035	0.000	16.4	38	1
05/18/19	4:34 a	-32.7	-32.6	-32.7	33.0	ESE	0.55	37.4	-54.1	722.1	0.035	0.000	16.3	37	1
05/18/19	4:35 a	-32.7	-32.7	-32.7	33.9	ESE	0.57	38.3	-54.3	722.0	0.035	0.000	16.3	37	1
05/18/19	4:36 a	-32.7	-32.7	-32.7	35.7	ESE	0.59	38.3	-54.7	722.1	0.035	0.000	16.3	37	1
05/18/19	4:37 a	-32.7	-32.7	-32.7	35.7	ESE	0.59	39.1	-54.7	722.0	0.035	0.000	16.3	37	1
05/18/19	4:38 a	-32.7	-32.7	-32.7	33.9	ESE	0.57	38.3	-54.3	722.2	0.035	0.000	16.3	37	1
05/18/19	4:39 a	-32.7	-32.7	-32.8	35.7	ESE	0.59	39.1	-54.7	722.1	0.035	0.000	16.3	37	1
05/18/19	4:40 a	-32.7	-32.7	-32.7	35.7	ESE	0.59	38.3	-54.7	722.0	0.035	0.000	16.3	37	1
05/18/19	4:41 a	-32.7	-32.7	-32.8	35.7	ESE	0.59	42.6	-54.7	722.1	0.035	0.000	16.3	37	1
05/18/19	4:42 a	-32.7	-32.7	-32.7	33.9	ESE	0.57	37.4	-54.3	722.0	0.035	0.000	16.3	37	1
05/18/19	4:43 a	-32.7	-32.7	-32.7	37.4	ESE	0.62	40.0	-55.1	721.9	0.035	0.000	16.3	37	1
05/18/19	4:44 a	-32.7	-32.7	-32.8	39.1	ESE	0.65	45.2	-55.4	721.9	0.035	0.000	16.3	37	1
05/18/19	4:45 a	-32.7	-32.7	-32.7	39.1	ESE	0.65	43.5	-55.4	721.8	0.035	0.000	16.3	37	1
05/18/19	4:46 a	-32.7	-32.7	-32.8	37.4	ESE	0.62	45.2	-55.1	722.0	0.035	0.000	16.3	37	1
05/18/19	4:47 a	-32.8	-32.7	-32.8	36.5	ESE	0.61	39.1	-54.9	722.1	0.035	0.000	16.3	37	1
05/18/19	4:48 a	-32.8	-32.7	-32.8	35.7	ESE	0.59	40.9	-54.8	722.1	0.035	0.000	16.3	37	1
05/18/19	4:49 a	-32.8	-32.7	-32.8	36.5	ESE	0.61	40.0	-54.9	721.9	0.035	0.000	16.3	37	1
05/18/19	4:50 a	-32.8	-32.7	-32.8	37.4	ESE	0.62	41.7	-55.2	722.0	0.035	0.000	16.3	37	1
05/18/19	4:51 a	-32.7	-32.7	-32.8	37.4	ESE	0.62	40.9	-55.1	722.1	0.035	0.000	16.3	37	1
05/18/19	4:52 a	-32.7	-32.7	-32.8	34.8	ESE	0.58	37.4	-54.5	722.0	0.035	0.000	16.3	37	1
05/18/19	4:53 a	-32.8	-32.7	-32.8	38.3	ESE	0.64	41.7	-55.3	721.6	0.035	0.000	16.3	37	1
05/18/19	4:54 a	-32.8	-32.8	-32.8	39.1	ESE	0.65	44.3	-55.5	721.9	0.035	0.000	16.3	37	1
05/18/19	4:55 a	-32.8	-32.8	-32.8	37.4	ESE	0.62	41.7	-55.2	721.9	0.035	0.000	16.3	37	1
05/18/19	4:56 a	-32.8	-32.8	-32.8	37.4	ESE	0.62	40.9	-55.2	722.1	0.035	0.000	16.2	37	1
05/18/19	4:57 a	-32.8	-32.8	-32.8	37.4	ESE	0.62	39.1	-55.2	721.9	0.035	0.000	16.2	37	1
05/18/19	4:58 a	-32.8	-32.8	-32.8	38.3	ESE	0.64	43.5	-55.3	722.0	0.035	0.000	16.2	37	1
05/18/19	4:59 a	-32.8	-32.8	-32.8	35.7	ESE	0.59	38.3	-54.8	722.0	0.035	0.000	16.2	37	1
05/18/19	5:00 a	-32.8	-32.8	-32.8	36.5	ESE	0.61	41.7	-54.9	722.0	0.035	0.000	16.2	36	1
05/18/19	5:01 a	-32.8	-32.8	-32.8	37.4	ESE	0.62	39.1	-55.2	721.8	0.035	0.000	16.2	37	1
05/18/19	5:02 a	-32.8	-32.8	-32.8	36.5	ESE	0.61	41.7	-54.9	722.1	0.035	0.000	16.2	37	1
05/18/19	5:03 a	-32.8	-32.8	-32.8	37.4	ESE	0.62	46.1	-55.2	721.8	0.035	0.000	16.2	37	1
05/18/19	5:04 a	-32.8	-32.8	-32.8	36.5	ESE	0.61	40.0	-54.9	722.1	0.035	0.000	16.2	37	1
05/18/19	5:05 a	-32.8	-32.8	-32.8	33.9	ESE	0.57	37.4	-54.4	722.1	0.035	0.000	16.2	37	1
05/18/19	5:06 a	-32.8	-32.8	-32.8	35.7	ESE	0.59	39.1	-54.9	722.1	0.036	0.000	16.2	37	1
05/18/19	5:07 a	-32.8	-32.8	-32.8	37.4	ESE	0.62	40.0	-55.2	722.0	0.036	0.000	16.2	37	1
05/18/19	5:08 a	-32.9	-32.8	-32.9	37.4	ESE	0.62	45.2	-55.3	721.8	0.036	0.000	16.2	37	1
05/18/19	5:09 a	-32.9	-32.9	-32.9	39.1	ESE	0.65	41.7	-55.7	721.9	0.036	0.000	16.2	36	1
05/18/19	5:10 a	-32.9	-32.9	-32.9	36.5	ESE	0.61	39.1	-55.2	722.1	0.036	0.000	16.2	37	1
05/18/19	5:11 a	-32.9	-32.9	-33.0	35.7	ESE	0.59	39.1	-55.0	721.9	0.036	0.000	16.2	37	1
05/18/19	5:12 a	-33.0	-32.9	-33.0	38.3	ESE	0.64	42.6	-55.6	721.7	0.036	0.000	16.2	36	1
05/18/19	5:13 a	-33.0	-33.0	-33.1	38.3	ESE	0.64	40.9	-55.6	722.0	0.036	0.000	16.2	36	1
05/18/19	5:14 a	-33.1	-33.0	-33.1	35.7	ESE	0.59	39.1	-55.2	721.9	0.036	0.000	16.2	36	1
05/18/19	5:15 a	-33.1	-33.1	-33.1	35.7	ESE	0.59	39.1	-55.2	722.0	0.036	0.000	16.2	36	1
05/18/19	5:16 a	-33.1	-33.1	-33.1	36.5	ESE	0.61	39.1	-55.3	722.0	0.036	0.000	16.2	36	1
05/18/19	5:17 a	-33.1	-33.1	-33.1	38.3	ESE	0.64	41.7	-55.7	721.9	0.036	0.000	16.2	36	1
05/18/19	5:18 a	-33.1	-33.1	-33.1	35.7	ESE	0.59	40.0	-55.2	722.0	0.036	0.000	16.2	36	1
05/18/19	5:19 a	-33.1	-33.1	-33.2	36.5	ESE	0.61	40.9	-55.4	721.9	0.036	0.000	16.1	36	1
05/18/19	5:20 a	-33.1	-33.1	-33.1	37.4	ESE	0.62	40.0	-55.6	721.9	0.036	0.000	16.1	36	1
05/18/19	5:21 a	-33.1	-33.1	-33.1	37.4	ESE	0.62	40.9	-55.6	721.9	0.036	0.000	16.1	36	1
05/18/19	5:22 a	-33.1	-33.0	-33.1	37.4	ESE	0.62	40.0	-55.6	721.8	0.036	0.000	16.1	36	1
05/18/19	5:23 a	-33.0	-32.9	-33.1	35.7	ESE	0.59	40.0	-55.1	722.0	0.036	0.000	16.1	36	1
05/18/19	5:24 a	-32.9	-32.9	-33.0	35.7	ESE	0.59	38.3	-55.0	721.9	0.036	0.000	16.1	36	1
05/18/19	5:25 a	-32.9	-32.9	-32.9	36.5	ESE	0.61	39.1	-55.2	721.8	0.036	0.000	16.1	36	1
05/18/19	5:26 a	-32.9	-32.9	-32.9	37.4	ESE	0.62	40.9	-55.3	721.7	0.036	0.000	16.1	36	1
05/18/19	5:27 a	-32.9	-32.8	-32.9	39.1	ESE	0.65	42.6	-55.7	721.8	0.036	0.000	16.1	36	1
05/18/19	5:28 a	-32.8	-32.8	-32.8	36.5	ESE	0.61	39.1	-55.1	721.8	0.036	0.000	16.1	34	1
05/18/19	5:29 a	-32.8	-32.8	-32.8	33.9	ESE	0.57	40.0	-54.4	721.9	0.035	0.000	16.0	34	1
05/18/19	5:30 a	-32.7	-32.7	-32.8	34.8	ESE	0.58	36.5	-54.5	722.0	0.035	0.000	16.0	34	1
05/18/19	5:31 a	-32.7	-32.7	-32.7	36.5	ESE	0.61	40.9	-54.8	722.0	0.035	0.000	16.0	36	1
05/18/19	5:32 a	-32.7	-32.6	-32.7	35.7	ESE	0.59	38.3	-54.6	722.1	0.035	0.000	16.0	35	1
05/18/19	5:33 a	-32.6	-32.6	-32.6	33.0	ESE	0.55	36.5	-53.9	722.1	0.035	0.000	16.0	36	1
05/18/19	5:34 a	-32.6	-32.5	-32.6	34.8	ESE	0.58	39.1	-54.3	722.0	0.035	0.000	16.0	36	1
05/18/19	5:35 a	-32.5	-32.4	-32.6	34.8	ESE	0.58	40.0	-54.2	722.1	0.035	0.000	16.0	36	1
05/18/19	5:36 a	-32.4	-32.4	-32.4	33.9	ESE	0.57	36.5	-53.9	722.1	0.035	0.000	16.0	37	1
05/18/19	5:37 a	-32.4	-32.3	-32.4	32.2	ESE	0.54	37.4	-53.4	722.1	0.035	0.000	15.9	36	1
05/18/19	5:38 a	-32.3	-32.3	-32.4	33.9	ESE	0.57	36.5	-53.8	722.1	0.035	0.000	15.9	34	1
05/18/19	5:39 a	-32.3	-32.3	-32.3	30.4	ESE	0.51	33.9	-53.0	722.2	0.035	0.000	15.9	34	1
05/18/19	5:40 a	-32.3	-32.2	-32.3	33.0	ESE	0.55	36.5	-53.5	722.1	0.035	0.000	15.9	34	1
05/18/19	5:41 a	-32.2	-32.2	-32.3	32.2	ESE	0.54	36.5	-53.2	722.1	0.035	0.000	15.9	34	1
05/18/19	5:42 a	-32.2	-32.2	-32.2	32.2	ESE	0.54	33.9	-53.2	722.2	0.035	0.000	15.9	34	1
05/18/19	5:43 a	-32.2	-32.2	-32.2	32.2	ESE	0.54	35.7	-53.2	722.2	0.035	0.000	15.9	34	1
05/18/19	5:44 a	-32.2	-32.2	-32.2	33.9	ESE	0.57	36.5	-53.6	722.1	0.035	0.000	15.9	34	1
05/18/19	5:45 a	-32.2	-32.1	-32.2	33.9	ESE	0.57	36.5	-53.6	722.1	0.035	0.000	15.9	34	1
05/18/19	5:46 a	-32.1	-32.1	-32.2	32.2	ESE	0.54	37.4	-53.1	722.1	0.035	0.000	15.9	34	1
05/18/19	5:47 a	-32.1	-32.1	-32.1	34.8	ESE	0.58	36.5	-53.7	722.0	0.035	0.000	15.9	34	1
05/18/19	5:48 a	-32.1	-32.1	-32.1	35.7	ESE	0.59	39.1	-53.8	722.2	0.035	0.000	15.9	34	1
05/18/19	5:49 a	-32.1	-32.1	-32.1	33.9	ESE	0.57	37.4	-53.4	721.9	0.035	0.000	15.9	33	1
05/18/19	5:50 a	-32.1	-32.0	-32.1	35.7	ESE	0.59	47.0	-53.8	722.0	0.035	0.000	15.9	33	1
05/18/19	5:51 a	-32.0	-32.0	-32.0	33.0	ESE	0.55	36.5	-53.1	721.9	0.035	0.000	15.9	33	1
05/18/19	5:52 a	-32.0	-32.0	-32.1	33.9	ESE	0.57	35.7	-53.3	722.0	0.035	0.000	15.9	33	1
05/18/19	5:53 a	-32.0	-31.9	-32.0	33.9	ESE	0.57	37.4	-53.3	721.9	0.035	0.000	15.9	33	1
05/18/19	5:54 a	-31.9	-31.9	-32.0	32.2	ESE	0.54	38.3	-52.8	722.0	0.035	0.000	15.9	34	1
05/18/19	5:55 a	-31.9	-31.9	-31.9	31.3	ESE	0.52	40.0	-52.7	722.0	0.035	0.000	15.9	34	1
05/18/19	5:56 a	-31.9	-31.8	-31.9	33.9	ESE	0.57	40.0	-53.2	721.7	0.035	0.000	15.9	34	1
05/18/19	5:57 a	-31.9	-31.8	-31.9	34.8	ESE	0.58	40.0	-53.3	722.0	0.035	0.000	15.9	33	1
05/18/19	5:58 a	-31.9	-31.8	-31.9	33.0	ESE	0.55	41.7	-53.0	722.1	0.035	0.000	15.9	34	1
05/18/19	5:59 a	-31.9	-31.8	-31.9	30.4	ESE	0.51	34.8	-52.4	722.0	0.035	0.000	15.9	33	1
05/18/19	6:00 a	-31.9	-31.8	-31.9	32.2	ESE	0.54	33.9	-52.8	722.0	0.035	0.000	15.9	34	1
05/18/19	6:01 a	-31.8	-31.8	-31.8	33.9	ESE	0.57	38.3	-53.1	722.1	0.035	0.000	15.9	34	1
05/18/19	6:02 a	-31.8	-31.8	-31.8	33.9	ESE	0.57	35.7	-53.1	722.1	0.035	0.000	15.8	34	1
05/18/19	6:03 a	-31.8	-31.8	-31.8	30.4	ESE	0.51	33.9	-52.2	722.1	0.035	0.000	15.8	34	1
05/18/19	6:04 a	-31.8	-31.7	-31.8	32.2	ESE	0.54	35.7	-52.6	722.1	0.035	0.000	15.8	34	1
05/18/19	6:05 a	-31.8	-31.7	-31.8	32.2	ESE	0.54	35.7	-52.6	722.2	0.035	0.000	15.8	35	1
05/18/19	6:06 a	-31.8	-31.8	-31.8	30.4	ESE	0.51	40.0	-52.2	721.9	0.035	0.000	15.8	34	1
05/18/19	6:07 a	-31.8	-31.7	-31.8	31.3	ESE	0.52	34.8	-52.4	722.2	0.035	0.000	15.8	35	1
05/18/19	6:08 a	-31.8	-31.7	-31.8	32.2	ESE	0.54	36.5	-52.6	722.2	0.035	0.000	15.8	33	1
05/18/19	6:09 a	-31.7	-31.7	-31.8	33.9	ESE	0.57	39.1	-52.9	721.9	0.035	0.000	15.8	35	1
05/18/19	6:10 a	-31.7	-31.7	-31.7	36.5	ESE	0.61	40.0	-53.5	721.9	0.035	0.000	15.8	35	1
05/18/19	6:11 a	-31.7	-31.7	-31.8	32.2	ESE	0.54	38.3	-52.6	722.5	0.035	0.000	15.8	34	1
05/18/19	6:12 a	-31.7	-31.7	-31.8	32.2	ESE	0.54	35.7	-52.6	722.2	0.035	0.000	15.8	34	1
05/18/19	6:13 a	-31.7	-31.7	-31.7	32.2	ESE	0.54	34.8	-52.6	722.0	0.035	0.000	15.8	33	1
05/18/19	6:14 a	-31.7	-31.7	-31.8	32.2	ESE	0.54	37.4	-52.6	722.4	0.035	0.000	15.8	33	1
05/18/19	6:15 a	-31.7	-31.7	-31.7	28.7	ESE	0.48	31.3	-51.7	722.5	0.035	0.000	15.8	34	1
05/18/19	6:16 a	-31.7	-31.7	-31.8	27.8	ESE	0.46	30.4	-51.5	722.5	0.035	0.000	15.8	35	1
05/18/19	6:17 a	-31.7	-31.7	-31.8	28.7	ESE	0.48	33.9	-51.7	722.2	0.035	0.000	15.8	35	1
05/18/19	6:18 a	-31.7	-31.7	-31.8	30.4	ESE	0.51	33.0	-52.2	722.2	0.035	0.000	15.8	34	1
05/18/19	6:19 a	-31.7	-31.7	-31.7	30.4	ESE	0.51	34.8	-52.2	722.2	0.035	0.000	15.8	34	1
05/18/19	6:20 a	-31.7	-31.7	-31.7	32.2	ESE	0.54	34.8	-52.6	722.1	0.035	0.000	15.8	34	1
05/18/19	6:21 a	-31.7	-31.6	-31.7	29.6	ESE	0.49	32.2	-51.8	722.3	0.035	0.000	15.8	34	1
05/18/19	6:22 a	-31.7	-31.7	-31.7	29.6	ESE	0.49	33.9	-51.9	722.1	0.035	0.000	15.8	34	1
05/18/19	6:23 a	-31.7	-31.6	-31.7	31.3	ESE	0.52	33.9	-52.3	722.1	0.035	0.000	15.8	34	1
05/18/19	6:24 a	-31.7	-31.6	-31.7	32.2	ESE	0.54	36.5	-52.4	722.1	0.035	0.000	15.8	34	1
05/18/19	6:25 a	-31.7	-31.6	-31.7	32.2	ESE	0.54	34.8	-52.6	722.0	0.035	0.000	15.7	34	1
05/18/19	6:26 a	-31.6	-31.6	-31.7	33.9	ESE	0.57	38.3	-52.8	721.9	0.035	0.000	15.8	35	1
05/18/19	6:27 a	-31.7	-31.6	-31.7	34.8	ESE	0.58	36.5	-53.1	722.0	0.035	0.000	15.8	35	1
05/18/19	6:28 a	-31.6	-31.6	-31.7	32.2	ESE	0.54	34.8	-52.4	722.1	0.035	0.000	15.7	34	1
05/18/19	6:29 a	-31.7	-31.6	-31.7	33.0	ESE	0.55	35.7	-52.7	722.0	0.035	0.000	15.7	34	1
05/18/19	6:30 a	-31.7	-31.6	-31.7	33.0	ESE	0.55	37.4	-52.7	722.0	0.035	0.000	15.7	34	1
05/18/19	6:31 a	-31.6	-31.6	-31.6	33.9	ESE	0.57	35.7	-52.8	722.1	0.035	0.000	15.7	34	1
05/18/19	6:32 a	-31.6	-31.6	-31.7	31.3	ESE	0.52	34.8	-52.2	722.0	0.035	0.000	15.7	34	1
05/18/19	6:33 a	-31.7	-31.6	-31.7	30.4	ESE	0.51	33.9	-52.1	722.1	0.035	0.000	15.7	33	1
05/18/19	6:34 a	-31.6	-31.6	-31.7	31.3	ESE	0.52	33.0	-52.2	722.2	0.035	0.000	15.7	32	1
05/18/19	6:35 a	-31.6	-31.6	-31.7	32.2	ESE	0.54	33.9	-52.4	722.2	0.035	0.000	15.7	33	1
05/18/19	6:36 a	-31.6	-31.6	-31.7	31.3	ESE	0.52	34.8	-52.2	722.2	0.035	0.000	15.7	33	1
05/18/19	6:37 a	-31.7	-31.7	-31.7	32.2	ESE	0.54	34.8	-52.4	722.2	0.035	0.000	15.7	35	1
05/18/19	6:38 a	-31.7	-31.7	-31.7	28.7	ESE	0.48	32.2	-51.6	722.5	0.035	0.000	15.7	35	1
05/18/19	6:39 a	-31.7	-31.7	-31.7	28.7	ESE	0.48	32.2	-51.6	722.4	0.035	0.000	15.7	33	1
05/18/19	6:40 a	-31.7	-31.7	-31.7	29.6	ESE	0.49	31.3	-51.9	722.2	0.035	0.000	15.7	34	1
05/18/19	6:41 a	-31.7	-31.6	-31.7	28.7	ESE	0.48	32.2	-51.6	722.2	0.035	0.000	15.7	33	1
05/18/19	6:42 a	-31.7	-31.7	-31.8	30.4	ESE	0.51	32.2	-52.2	722.2	0.035	0.000	15.7	33	1
05/18/19	6:43 a	-31.8	-31.7	-31.8	31.3	ESE	0.52	33.9	-52.4	722.2	0.035	0.000	15.7	33	1
05/18/19	6:44 a	-31.8	-31.8	-31.8	29.6	ESE	0.49	32.2	-52.0	722.3	0.035	0.000	15.7	33	1
05/18/19	6:45 a	-31.8	-31.8	-31.8	31.3	ESE	0.52	33.9	-52.4	722.3	0.035	0.000	15.7	33	1
05/18/19	6:46 a	-31.8	-31.8	-31.8	29.6	ESE	0.49	32.2	-52.1	722.4	0.035	0.000	15.6	31	1
05/18/19	6:47 a	-31.8	-31.8	-31.9	30.4	ESE	0.51	33.0	-52.3	722.3	0.035	0.000	15.6	33	1
05/18/19	6:48 a	-31.8	-31.8	-31.9	30.4	ESE	0.51	32.2	-52.3	722.4	0.035	0.000	15.6	33	1
05/18/19	6:49 a	-31.9	-31.8	-31.9	29.6	ESE	0.49	32.2	-52.2	722.3	0.035	0.000	15.6	33	1
05/18/19	6:50 a	-31.9	-31.9	-31.9	31.3	ESE	0.52	33.0	-52.7	722.2	0.035	0.000	15.6	32	1
05/18/19	6:51 a	-31.9	-31.9	-32.0	30.4	ESE	0.51	33.0	-52.4	722.2	0.035	0.000	15.6	32	1
05/18/19	6:52 a	-32.0	-32.0	-32.1	30.4	ESE	0.51	33.0	-52.5	722.3	0.035	0.000	15.6	33	1
05/18/19	6:53 a	-32.1	-32.1	-32.1	30.4	ESE	0.51	33.0	-52.6	722.3	0.035	0.000	15.6	33	1
05/18/19	6:54 a	-32.1	-32.1	-32.1	30.4	ESE	0.51	32.2	-52.7	722.3	0.035	0.000	15.6	32	1
05/18/19	6:55 a	-32.2	-32.1	-32.2	27.8	ESE	0.46	30.4	-52.1	722.5	0.035	0.000	15.6	33	1
05/18/19	6:56 a	-32.2	-32.2	-32.2	28.7	ESE	0.48	31.3	-52.4	722.4	0.035	0.000	15.6	33	1
05/18/19	6:57 a	-32.3	-32.2	-32.3	28.7	ESE	0.48	32.2	-52.5	722.4	0.035	0.000	15.6	33	1
05/18/19	6:58 a	-32.3	-32.3	-32.3	29.6	ESE	0.49	31.3	-52.7	722.4	0.035	0.000	15.6	32	1
05/18/19	6:59 a	-32.3	-32.3	-32.4	27.8	ESE	0.46	30.4	-52.3	722.4	0.035	0.000	15.6	32	1
05/18/19	7:00 a	-32.4	-32.4	-32.4	27.0	ESE	0.45	28.7	-52.2	722.4	0.035	0.000	15.6	32	1
05/18/19	7:01 a	-32.4	-32.4	-32.4	27.8	ESE	0.46	29.6	-52.5	722.4	0.035	0.000	15.6	32	1
05/18/19	7:02 a	-32.4	-32.4	-32.5	27.8	ESE	0.46	29.6	-52.5	722.5	0.035	0.000	15.6	32	1
05/18/19	7:03 a	-32.5	-32.4	-32.5	27.0	ESE	0.45	29.6	-52.3	722.5	0.035	0.000	15.6	33	1
05/18/19	7:04 a	-32.4	-32.4	-32.5	27.8	ESE	0.46	28.7	-52.5	722.5	0.035	0.000	15.6	33	1
05/18/19	7:05 a	-32.4	-32.4	-32.5	27.0	ESE	0.45	28.7	-52.2	722.5	0.035	0.000	15.6	33	1
05/18/19	7:06 a	-32.5	-32.4	-32.5	27.0	ESE	0.45	28.7	-52.3	722.4	0.035	0.000	15.6	33	1
05/18/19	7:07 a	-32.4	-32.4	-32.4	28.7	ESE	0.48	30.4	-52.7	722.4	0.035	0.000	15.6	33	1
05/18/19	7:08 a	-32.4	-32.4	-32.5	29.6	ESE	0.49	30.4	-52.9	722.3	0.035	0.000	15.6	33	1
05/18/19	7:09 a	-32.4	-32.3	-32.4	30.4	ESE	0.51	33.0	-53.1	722.3	0.035	0.000	15.6	33	1
05/18/19	7:10 a	-32.3	-32.3	-32.4	29.6	ESE	0.49	31.3	-52.8	722.3	0.035	0.000	15.6	33	1
05/18/19	7:11 a	-32.3	-32.2	-32.3	30.4	ESE	0.51	33.0	-52.9	722.3	0.035	0.000	15.6	33	1
05/18/19	7:12 a	-32.2	-32.2	-32.3	31.3	ESE	0.52	33.9	-53.1	722.3	0.035	0.000	15.6	33	1
05/18/19	7:13 a	-32.2	-32.2	-32.2	30.4	ESE	0.51	33.0	-52.8	722.3	0.035	0.000	15.6	33	1
05/18/19	7:14 a	-32.1	-32.1	-32.2	31.3	ESE	0.52	33.9	-52.9	722.2	0.035	0.000	15.6	33	1
05/18/19	7:15 a	-32.1	-32.0	-32.1	29.6	ESE	0.49	30.4	-52.4	722.2	0.035	0.000	15.6	33	1
05/18/19	7:16 a	-31.9	-31.9	-32.0	30.4	ESE	0.51	34.8	-52.4	722.1	0.035	0.000	15.6	33	1
05/18/19	7:17 a	-31.9	-31.8	-31.9	30.4	ESE	0.51	32.2	-52.4	722.3	0.035	0.000	15.6	32	1
05/18/19	7:18 a	-31.8	-31.8	-31.9	29.6	ESE	0.49	35.7	-52.1	722.4	0.035	0.000	15.6	32	1
05/18/19	7:19 a	-31.8	-31.7	-31.8	28.7	ESE	0.48	30.4	-51.8	722.4	0.035	0.000	15.6	32	1
05/18/19	7:20 a	-31.7	-31.7	-31.7	28.7	ESE	0.48	30.4	-51.6	722.4	0.035	0.000	15.6	32	1
05/18/19	7:21 a	-31.6	-31.6	-31.6	27.8	ESE	0.46	29.6	-51.3	722.5	0.035	0.000	15.6	31	1
05/18/19	7:22 a	-31.5	-31.4	-31.6	26.1	ESE	0.43	27.8	-50.7	722.5	0.035	0.000	15.6	31	1
05/18/19	7:23 a	-31.4	-31.4	-31.4	27.8	ESE	0.46	29.6	-51.1	722.4	0.035	0.000	15.6	31	1
05/18/19	7:24 a	-31.3	-31.3	-31.4	27.0	ESE	0.45	28.7	-50.7	722.4	0.034	0.000	15.6	31	1
05/18/19	7:25 a	-31.3	-31.2	-31.3	27.0	ESE	0.45	28.7	-50.7	722.4	0.034	0.000	15.6	31	1
05/18/19	7:26 a	-31.2	-31.2	-31.2	27.0	ESE	0.45	28.7	-50.6	722.5	0.034	0.000	15.6	31	1
05/18/19	7:27 a	-31.1	-31.1	-31.2	27.0	ESE	0.45	28.7	-50.4	722.5	0.034	0.000	15.5	30	1
05/18/19	7:28 a	-31.0	-30.9	-31.1	26.1	ESE	0.43	28.7	-50.1	722.4	0.034	0.000	15.5	30	1
05/18/19	7:29 a	-30.9	-30.9	-30.9	26.1	ESE	0.43	27.8	-50.0	722.5	0.034	0.000	15.5	30	1
05/18/19	7:30 a	-30.8	-30.8	-30.9	26.1	ESE	0.43	27.8	-49.8	722.5	0.034	0.000	15.5	30	1
05/18/19	7:31 a	-30.8	-30.7	-30.8	26.1	ESE	0.43	27.8	-49.7	722.5	0.034	0.000	15.5	30	1
05/18/19	7:32 a	-30.7	-30.6	-30.7	26.1	ESE	0.43	28.7	-49.6	722.5	0.034	0.000	15.5	33	1
05/18/19	7:33 a	-30.6	-30.5	-30.6	26.1	ESE	0.43	27.8	-49.4	722.6	0.034	0.000	15.5	32	1
05/18/19	7:34 a	-30.5	-30.4	-30.6	24.3	ESE	0.41	26.1	-48.9	722.7	0.034	0.000	15.5	33	1
05/18/19	7:35 a	-30.4	-30.4	-30.4	24.3	ESE	0.41	26.1	-48.7	722.6	0.034	0.000	15.5	32	1
05/18/19	7:36 a	-30.3	-30.3	-30.3	24.3	ESE	0.41	25.2	-48.7	722.6	0.034	0.000	15.5	31	1
05/18/19	7:37 a	-30.3	-30.2	-30.3	24.3	ESE	0.41	25.2	-48.6	722.6	0.034	0.000	15.4	31	1
05/18/19	7:38 a	-30.2	-30.2	-30.3	23.5	ESE	0.39	26.1	-48.3	722.7	0.034	0.000	15.5	32	1
05/18/19	7:39 a	-30.2	-30.2	-30.2	24.3	ESE	0.41	25.2	-48.4	722.7	0.034	0.000	15.4	32	1
05/18/19	7:40 a	-30.2	-30.2	-30.2	24.3	ESE	0.41	25.2	-48.4	722.7	0.034	0.000	15.4	31	1
05/18/19	7:41 a	-30.2	-30.1	-30.2	23.5	ESE	0.39	25.2	-48.2	722.7	0.034	0.000	15.4	32	1
05/18/19	7:42 a	-30.2	-30.1	-30.2	23.5	ESE	0.39	25.2	-48.2	722.8	0.034	0.000	15.4	32	1
05/18/19	7:43 a	-30.1	-30.1	-30.2	23.5	ESE	0.39	25.2	-48.1	722.7	0.034	0.000	15.4	32	1
05/18/19	7:44 a	-30.1	-30.1	-30.1	22.6	ESE	0.38	23.5	-47.9	722.8	0.034	0.000	15.4	32	1
05/18/19	7:45 a	-30.1	-30.1	-30.1	22.6	ESE	0.38	23.5	-47.9	722.8	0.034	0.000	15.4	32	1
05/18/19	7:46 a	-30.1	-30.1	-30.1	22.6	ESE	0.38	24.3	-47.9	722.8	0.034	0.000	15.4	31	1
05/18/19	7:47 a	-30.1	-30.1	-30.1	22.6	ESE	0.38	24.3	-47.9	722.8	0.034	0.000	15.4	33	1
05/18/19	7:48 a	-30.1	-30.1	-30.1	21.7	ESE	0.36	22.6	-47.6	722.8	0.034	0.000	15.4	33	1
05/18/19	7:49 a	-30.1	-30.1	-30.1	21.7	ESE	0.36	23.5	-47.5	722.8	0.034	0.000	15.4	33	1
05/18/19	7:50 a	-30.1	-30.0	-30.1	22.6	ESE	0.38	23.5	-47.8	722.7	0.034	0.000	15.4	34	1
05/18/19	7:51 a	-30.1	-30.0	-30.1	22.6	ESE	0.38	25.2	-47.8	722.8	0.034	0.000	15.4	33	1
05/18/19	7:52 a	-30.0	-29.9	-30.0	22.6	ESE	0.38	23.5	-47.7	722.8	0.034	0.000	15.4	33	1
05/18/19	7:53 a	-29.9	-29.9	-30.0	21.7	ESE	0.36	22.6	-47.4	722.9	0.034	0.000	15.4	33	1
05/18/19	7:54 a	-29.9	-29.9	-29.9	21.7	ESE	0.36	22.6	-47.3	722.8	0.033	0.000	15.4	33	1
05/18/19	7:55 a	-29.9	-29.8	-29.9	20.9	ESE	0.35	22.6	-47.0	722.9	0.033	0.000	15.4	33	1
05/18/19	7:56 a	-29.8	-29.8	-29.8	20.9	ESE	0.35	22.6	-46.9	722.8	0.033	0.000	15.4	33	1
05/18/19	7:57 a	-29.8	-29.7	-29.8	20.9	ESE	0.35	21.7	-46.9	722.8	0.033	0.000	15.4	33	1
05/18/19	7:58 a	-29.7	-29.7	-29.8	21.7	ESE	0.36	23.5	-47.1	722.7	0.033	0.000	15.4	33	1
05/18/19	7:59 a	-29.7	-29.7	-29.7	20.9	ESE	0.35	22.6	-46.7	722.8	0.033	0.000	15.4	32	1
05/18/19	8:00 a	-29.6	-29.6	-29.7	20.9	ESE	0.35	22.6	-46.7	722.8	0.033	0.000	15.4	32	1
05/18/19	8:01 a	-29.6	-29.6	-29.6	20.9	ESE	0.35	22.6	-46.6	722.8	0.033	0.000	15.4	32	1
05/18/19	8:02 a	-29.6	-29.5	-29.6	20.9	ESE	0.35	22.6	-46.6	722.8	0.033	0.000	15.4	33	1
05/18/19	8:03 a	-29.5	-29.4	-29.5	21.7	ESE	0.36	23.5	-46.8	722.8	0.033	0.000	15.4	33	1
05/18/19	8:04 a	-29.4	-29.4	-29.4	21.7	ESE	0.36	23.5	-46.6	722.8	0.033	0.000	15.4	32	1
05/18/19	8:05 a	-29.3	-29.3	-29.4	21.7	ESE	0.36	22.6	-46.6	722.8	0.033	0.000	15.4	32	1
05/18/19	8:07 a	-29.2	-29.2	-29.2	20.0	ESE	0.33	21.7	-45.8	722.8	0.033	0.000	15.4	33	1
05/18/19	8:08 a	-29.2	-29.1	-29.2	20.9	ESE	0.35	22.6	-46.1	722.8	0.033	0.000	15.4	33	1
05/18/19	8:09 a	-29.1	-29.0	-29.1	22.6	ESE	0.38	24.3	-46.5	722.8	0.033	0.000	15.4	33	1
05/18/19	8:10 a	-29.0	-28.9	-29.0	21.7	SE	0.36	23.5	-46.1	722.8	0.033	0.000	15.4	33	1
05/18/19	8:11 a	-28.9	-28.9	-28.9	20.9	SE	0.35	21.7	-45.8	722.9	0.033	0.000	15.4	33	1
05/18/19	8:12 a	-28.8	-28.8	-28.9	20.0	ESE	0.33	20.9	-45.3	723.0	0.033	0.000	15.4	33	1
05/18/19	8:13 a	-28.8	-28.7	-28.8	20.0	ESE	0.33	21.7	-45.3	722.9	0.033	0.000	15.4	33	1
05/18/19	8:14 a	-28.7	-28.7	-28.8	20.9	ESE	0.35	21.7	-45.5	722.9	0.033	0.000	15.4	34	1
05/18/19	8:15 a	-28.7	-28.6	-28.7	20.9	ESE	0.35	22.6	-45.4	722.8	0.033	0.000	15.4	34	1
05/18/19	8:16 a	-28.6	-28.6	-28.6	20.9	ESE	0.35	21.7	-45.3	722.8	0.033	0.000	15.4	34	1
05/18/19	8:17 a	-28.5	-28.5	-28.6	20.0	ESE	0.33	20.9	-44.9	722.9	0.033	0.000	15.4	34	1
05/18/19	8:18 a	-28.4	-28.4	-28.4	19.1	ESE	0.32	21.7	-44.6	722.8	0.032	0.000	15.3	33	1
05/18/19	8:19 a	-28.4	-28.3	-28.4	20.0	ESE	0.33	22.6	-44.8	722.8	0.032	0.000	15.3	33	1
05/18/19	8:20 a	-28.3	-28.3	-28.3	20.9	ESE	0.35	21.7	-44.9	722.9	0.032	0.000	15.3	33	1
05/18/19	8:21 a	-28.2	-28.2	-28.3	20.9	ESE	0.35	22.6	-44.8	722.8	0.032	0.000	15.3	33	1
05/18/19	8:22 a	-28.2	-28.2	-28.2	21.7	ESE	0.36	23.5	-45.1	722.7	0.032	0.000	15.3	33	1
05/18/19	8:23 a	-28.1	-28.1	-28.2	22.6	ESE	0.38	23.5	-45.2	722.7	0.032	0.000	15.3	33	1
05/18/19	8:24 a	-28.1	-28.1	-28.1	21.7	ESE	0.36	23.5	-44.9	722.7	0.032	0.000	15.3	33	1
05/18/19	8:25 a	-28.0	-27.9	-28.1	21.7	ESE	0.36	23.5	-44.8	722.7	0.032	0.000	15.3	33	1
05/18/19	8:26 a	-27.9	-27.9	-28.0	21.7	ESE	0.36	23.5	-44.7	722.7	0.032	0.000	15.3	33	1
05/18/19	8:27 a	-27.9	-27.9	-27.9	20.9	ESE	0.35	22.6	-44.4	722.7	0.032	0.000	15.3	33	1
05/18/19	8:28 a	-27.9	-27.8	-27.9	20.9	ESE	0.35	22.6	-44.4	722.7	0.032	0.000	15.3	33	1
05/18/19	8:29 a	-27.8	-27.8	-27.8	20.9	ESE	0.35	22.6	-44.2	722.7	0.032	0.000	15.3	33	1
05/18/19	8:30 a	-27.7	-27.7	-27.8	20.9	ESE	0.35	22.6	-44.2	722.8	0.032	0.000	15.3	33	1
05/18/19	8:31 a	-27.7	-27.7	-27.7	20.0	ESE	0.33	20.9	-43.9	722.8	0.032	0.000	15.3	33	1
05/18/19	8:32 a	-27.7	-27.6	-27.7	20.9	ESE	0.35	21.7	-44.1	722.8	0.032	0.000	15.3	33	1
05/18/19	8:33 a	-27.6	-27.6	-27.6	20.9	ESE	0.35	21.7	-44.0	722.7	0.032	0.000	15.3	33	1
05/18/19	8:34 a	-27.6	-27.6	-27.6	21.7	ESE	0.36	22.6	-44.2	722.7	0.032	0.000	15.3	32	1
05/18/19	8:35 a	-27.6	-27.5	-27.6	21.7	ESE	0.36	21.7	-44.2	722.8	0.032	0.000	15.3	33	1
05/18/19	8:36 a	-27.5	-27.4	-27.5	20.0	ESE	0.33	20.9	-43.6	722.7	0.032	0.000	15.3	33	1
05/18/19	8:37 a	-27.4	-27.4	-27.4	20.0	ESE	0.33	21.7	-43.5	722.7	0.032	0.000	15.3	33	1
05/18/19	8:38 a	-27.4	-27.3	-27.4	20.9	ESE	0.35	22.6	-43.7	722.8	0.032	0.000	15.3	32	1
05/18/19	8:39 a	-27.3	-27.3	-27.3	20.9	ESE	0.35	22.6	-43.6	722.7	0.032	0.000	15.3	32	1
05/18/19	8:40 a	-27.3	-27.3	-27.3	20.0	ESE	0.33	21.7	-43.3	722.7	0.032	0.000	15.3	32	1
05/18/19	8:41 a	-27.3	-27.3	-27.3	20.9	ESE	0.35	21.7	-43.6	722.6	0.032	0.000	15.3	33	1
05/18/19	8:42 a	-27.3	-27.2	-27.3	20.0	ESE	0.33	20.9	-43.3	722.7	0.032	0.000	15.3	33	1
05/18/19	8:43 a	-27.2	-27.2	-27.2	20.0	ESE	0.33	20.9	-43.2	722.7	0.032	0.000	15.3	33	1
05/18/19	8:44 a	-27.2	-27.2	-27.2	20.0	ESE	0.33	20.9	-43.2	722.7	0.032	0.000	15.3	32	1
05/18/19	8:45 a	-27.2	-27.1	-27.2	18.3	ESE	0.30	19.1	-42.6	722.7	0.032	0.000	15.3	33	1
05/18/19	8:46 a	-27.1	-27.1	-27.2	18.3	ESE	0.30	20.0	-42.5	722.8	0.032	0.000	15.3	33	1
05/18/19	8:47 a	-27.1	-27.1	-27.1	19.1	ESE	0.32	20.0	-42.8	722.7	0.032	0.000	15.3	33	1
05/18/19	8:48 a	-27.1	-27.1	-27.1	19.1	ESE	0.32	20.0	-42.8	722.7	0.032	0.000	15.3	33	1
05/18/19	8:49 a	-27.1	-27.1	-27.1	19.1	ESE	0.32	20.9	-42.7	722.7	0.032	0.000	15.3	32	1
05/18/19	8:50 a	-27.1	-27.0	-27.1	19.1	ESE	0.32	20.0	-42.7	722.8	0.032	0.000	15.3	31	1
05/18/19	8:51 a	-27.0	-27.0	-27.1	18.3	ESE	0.30	20.0	-42.3	722.8	0.031	0.000	15.3	30	1
05/18/19	8:52 a	-27.0	-27.0	-27.0	18.3	ESE	0.30	19.1	-42.3	722.8	0.031	0.000	15.3	30	1
05/18/19	8:53 a	-27.0	-26.9	-27.0	19.1	ESE	0.32	20.9	-42.6	722.8	0.031	0.000	15.3	30	1
05/18/19	8:54 a	-27.0	-26.9	-27.0	19.1	ESE	0.32	20.0	-42.6	722.7	0.031	0.000	15.3	30	1
05/18/19	8:55 a	-26.9	-26.9	-27.0	18.3	ESE	0.30	20.0	-42.3	722.8	0.031	0.000	15.3	30	1
05/18/19	8:56 a	-26.9	-26.9	-26.9	18.3	ESE	0.30	19.1	-42.3	722.8	0.031	0.000	15.3	30	1
05/18/19	8:57 a	-26.9	-26.9	-26.9	18.3	ESE	0.30	20.0	-42.3	722.8	0.031	0.000	15.3	30	1
05/18/19	8:58 a	-26.9	-26.9	-26.9	19.1	ESE	0.32	20.9	-42.6	722.8	0.031	0.000	15.3	30	1
05/18/19	8:59 a	-26.9	-26.9	-26.9	18.3	ESE	0.30	20.0	-42.2	722.8	0.031	0.000	15.3	30	1
05/18/19	9:00 a	-26.9	-26.9	-26.9	18.3	ESE	0.30	19.1	-42.2	722.8	0.031	0.000	15.3	30	1
05/18/19	9:01 a	-26.9	-26.9	-26.9	17.4	ESE	0.29	18.3	-41.9	722.8	0.031	0.000	15.3	30	1
05/18/19	9:02 a	-26.9	-26.9	-26.9	18.3	ESE	0.30	20.0	-42.2	722.8	0.031	0.000	15.3	30	1
05/18/19	9:03 a	-26.9	-26.9	-26.9	18.3	ESE	0.30	20.0	-42.2	722.7	0.031	0.000	15.3	30	1
05/18/19	9:04 a	-26.9	-26.9	-26.9	18.3	ESE	0.30	19.1	-42.2	722.8	0.031	0.000	15.3	29	1
05/18/19	9:05 a	-26.9	-26.9	-26.9	18.3	ESE	0.30	20.0	-42.2	722.7	0.031	0.000	15.3	29	1
05/18/19	9:06 a	-26.9	-26.9	-26.9	19.1	ESE	0.32	20.9	-42.5	722.7	0.031	0.000	15.3	28	1
05/18/19	9:07 a	-26.9	-26.9	-26.9	20.0	ESE	0.33	20.9	-42.8	722.7	0.031	0.000	15.3	29	1
05/18/19	9:08 a	-26.9	-26.9	-26.9	19.1	ESE	0.32	20.0	-42.5	722.7	0.031	0.000	15.3	28	1
05/18/19	9:09 a	-26.9	-26.9	-26.9	19.1	ESE	0.32	20.0	-42.5	722.7	0.031	0.000	15.3	28	1
05/18/19	9:10 a	-26.9	-26.9	-26.9	18.3	SE	0.30	20.9	-42.2	722.6	0.031	0.000	15.3	28	1
05/18/19	9:11 a	-26.9	-26.9	-26.9	19.1	ESE	0.32	20.9	-42.5	722.7	0.031	0.000	15.3	28	1
05/18/19	9:12 a	-26.9	-26.9	-26.9	19.1	ESE	0.32	20.9	-42.5	722.6	0.031	0.000	15.3	28	1
05/18/19	9:13 a	-26.9	-26.9	-26.9	20.0	ESE	0.33	20.9	-42.8	722.6	0.031	0.000	15.3	28	1
05/18/19	9:14 a	-26.9	-26.9	-26.9	20.0	ESE	0.33	21.7	-42.8	722.6	0.031	0.000	15.3	26	1
05/18/19	9:15 a	-26.9	-26.9	-26.9	19.1	ESE	0.32	21.7	-42.5	722.7	0.031	0.000	15.3	25	1
05/18/19	9:16 a	-26.9	-26.8	-26.9	18.3	ESE	0.30	20.9	-42.2	722.6	0.031	0.000	15.3	27	1
05/18/19	9:17 a	-26.8	-26.8	-26.9	20.0	ESE	0.33	21.7	-42.7	722.6	0.031	0.000	15.3	26	1
05/18/19	9:18 a	-26.8	-26.8	-26.8	20.0	ESE	0.33	21.7	-42.7	722.6	0.031	0.000	15.3	24	1
05/18/19	9:19 a	-26.8	-26.8	-26.8	20.0	ESE	0.33	22.6	-42.6	722.6	0.031	0.000	15.3	21	1
05/18/19	9:20 a	-26.8	-26.8	-26.8	19.1	ESE	0.32	20.9	-42.3	722.6	0.031	0.000	15.3	22	1
05/18/19	9:21 a	-26.8	-26.7	-26.8	19.1	ESE	0.32	20.9	-42.3	722.6	0.031	0.000	15.3	23	1
05/18/19	9:22 a	-26.8	-26.7	-26.8	20.0	ESE	0.33	21.7	-42.6	722.6	0.031	0.000	15.3	24	1
05/18/19	9:23 a	-26.7	-26.7	-26.7	20.9	ESE	0.35	22.6	-42.8	722.5	0.031	0.000	15.3	23	1
05/18/19	9:24 a	-26.7	-26.7	-26.7	20.9	ESE	0.35	22.6	-42.8	722.6	0.031	0.000	15.3	22	1
05/18/19	9:25 a	-26.7	-26.7	-26.7	20.0	ESE	0.33	20.9	-42.4	722.6	0.031	0.000	15.3	22	1
05/18/19	9:26 a	-26.7	-26.6	-26.7	20.0	ESE	0.33	21.7	-42.4	722.6	0.031	0.000	15.3	22	1
05/18/19	9:27 a	-26.6	-26.6	-26.7	20.0	ESE	0.33	20.9	-42.4	722.6	0.031	0.000	15.3	22	1
05/18/19	9:28 a	-26.6	-26.6	-26.6	19.1	ESE	0.32	20.0	-42.1	722.6	0.031	0.000	15.3	21	1
05/18/19	9:29 a	-26.6	-26.6	-26.6	17.4	ESE	0.29	19.1	-41.4	722.7	0.031	0.000	15.3	22	1
05/18/19	9:30 a	-26.5	-26.5	-26.6	17.4	ESE	0.29	18.3	-41.4	722.7	0.031	0.000	15.3	21	1
05/18/19	9:31 a	-26.5	-26.4	-26.5	16.5	ESE	0.28	18.3	-41.1	722.7	0.031	0.000	15.3	21	1
05/18/19	9:32 a	-26.4	-26.4	-26.4	16.5	ESE	0.28	17.4	-41.0	722.7	0.031	0.000	15.3	22	1
05/18/19	9:33 a	-26.4	-26.4	-26.4	17.4	ESE	0.29	18.3	-41.3	722.7	0.031	0.000	15.3	21	1
05/18/19	9:34 a	-26.4	-26.4	-26.4	17.4	ESE	0.29	18.3	-41.2	722.7	0.031	0.000	15.3	22	1
05/18/19	9:35 a	-26.4	-26.3	-26.4	18.3	ESE	0.30	19.1	-41.6	722.6	0.031	0.000	15.3	22	1
05/18/19	9:36 a	-26.3	-26.3	-26.4	18.3	ESE	0.30	19.1	-41.4	722.7	0.031	0.000	15.3	24	1
05/18/19	9:37 a	-26.3	-26.3	-26.3	18.3	ESE	0.30	19.1	-41.4	722.6	0.031	0.000	15.3	20	1
05/18/19	9:38 a	-26.3	-26.3	-26.3	17.4	ESE	0.29	19.1	-41.2	722.7	0.031	0.000	15.3	20	1
05/18/19	9:39 a	-26.3	-26.3	-26.3	16.5	ESE	0.28	17.4	-40.8	722.7	0.031	0.000	15.3	22	1
05/18/19	9:40 a	-26.3	-26.3	-26.3	16.5	ESE	0.28	17.4	-40.8	722.7	0.031	0.000	15.3	21	1
05/18/19	9:41 a	-26.3	-26.3	-26.3	17.4	ESE	0.29	18.3	-41.1	722.7	0.031	0.000	15.3	20	1
05/18/19	9:42 a	-26.3	-26.3	-26.3	17.4	ESE	0.29	18.3	-41.1	722.6	0.031	0.000	15.3	24	1
05/18/19	9:43 a	-26.3	-26.3	-26.3	17.4	ESE	0.29	18.3	-41.1	722.6	0.031	0.000	15.3	23	1
05/18/19	9:44 a	-26.3	-26.3	-26.3	17.4	ESE	0.29	18.3	-41.1	722.6	0.031	0.000	15.3	23	1
05/18/19	9:45 a	-26.3	-26.3	-26.3	16.5	ESE	0.28	17.4	-40.8	722.6	0.031	0.000	15.3	23	1
05/18/19	9:46 a	-26.3	-26.2	-26.3	16.5	ESE	0.28	17.4	-40.8	722.6	0.031	0.000	15.3	23	1
05/18/19	9:47 a	-26.2	-26.2	-26.2	15.7	ESE	0.26	17.4	-40.4	722.7	0.031	0.000	15.3	23	1
05/18/19	9:48 a	-26.2	-26.2	-26.2	16.5	ESE	0.28	17.4	-40.7	722.7	0.031	0.000	15.3	23	1
05/18/19	9:49 a	-26.2	-26.2	-26.2	16.5	ESE	0.28	18.3	-40.7	722.7	0.031	0.000	15.3	23	1
05/18/19	9:50 a	-26.2	-26.2	-26.2	16.5	SE	0.28	18.3	-40.7	722.7	0.031	0.000	15.3	23	1
05/18/19	9:51 a	-26.2	-26.2	-26.2	16.5	ESE	0.28	17.4	-40.6	722.7	0.031	0.000	15.3	23	1
05/18/19	9:52 a	-26.2	-26.1	-26.2	16.5	ESE	0.28	17.4	-40.6	722.6	0.031	0.000	15.3	23	1
05/18/19	9:53 a	-26.1	-26.1	-26.2	16.5	ESE	0.28	17.4	-40.6	722.6	0.031	0.000	15.3	23	1
05/18/19	9:54 a	-26.1	-26.1	-26.2	15.7	ESE	0.26	16.5	-40.2	722.7	0.031	0.000	15.3	23	1
05/18/19	9:55 a	-26.1	-26.1	-26.1	16.5	ESE	0.28	18.3	-40.6	722.6	0.031	0.000	15.3	23	1
05/18/19	9:56 a	-26.1	-26.1	-26.1	15.7	ESE	0.26	17.4	-40.2	722.6	0.031	0.000	15.3	24	1
05/18/19	9:57 a	-26.1	-26.1	-26.1	15.7	ESE	0.26	17.4	-40.2	722.6	0.031	0.000	15.3	23	1
05/18/19	9:58 a	-26.1	-26.1	-26.1	14.8	ESE	0.25	16.5	-39.8	722.6	0.031	0.000	15.3	23	1
05/18/19	9:59 a	-26.1	-26.0	-26.1	15.7	ESE	0.26	18.3	-40.2	722.6	0.031	0.000	15.3	23	1
05/18/19	10:00 a	-26.0	-26.0	-26.1	15.7	ESE	0.26	17.4	-40.1	722.7	0.031	0.000	15.3	24	1
05/18/19	10:01 a	-26.0	-26.0	-26.0	15.7	ESE	0.26	17.4	-40.1	722.5	0.031	0.000	15.3	23	1
05/18/19	10:02 a	-25.9	-25.9	-26.0	15.7	ESE	0.26	16.5	-40.0	722.6	0.031	0.000	15.3	23	1
05/18/19	10:03 a	-25.9	-25.9	-25.9	16.5	ESE	0.28	16.5	-40.3	722.6	0.031	0.000	15.3	23	1
05/18/19	10:04 a	-25.9	-25.9	-25.9	16.5	ESE	0.28	18.3	-40.3	722.6	0.031	0.000	15.3	24	1
05/18/19	10:05 a	-25.9	-25.9	-25.9	16.5	ESE	0.28	18.3	-40.3	722.6	0.031	0.000	15.3	23	1
05/18/19	10:06 a	-25.9	-25.9	-25.9	14.8	ESE	0.25	16.5	-39.6	722.6	0.031	0.000	15.3	23	1
05/18/19	10:07 a	-25.9	-25.9	-25.9	15.7	ESE	0.26	16.5	-39.9	722.6	0.031	0.000	15.3	23	1
05/18/19	10:08 a	-25.9	-25.8	-25.9	15.7	ESE	0.26	16.5	-39.9	722.5	0.031	0.000	15.3	23	1
05/18/19	10:09 a	-25.8	-25.8	-25.9	14.8	ESE	0.25	16.5	-39.6	722.6	0.031	0.000	15.3	23	1
05/18/19	10:10 a	-25.8	-25.8	-25.8	14.8	ESE	0.25	16.5	-39.6	722.6	0.031	0.000	15.3	23	1
05/18/19	10:11 a	-25.8	-25.8	-25.8	14.8	ESE	0.25	16.5	-39.6	722.6	0.031	0.000	15.3	23	1
05/18/19	10:12 a	-25.8	-25.8	-25.8	15.7	ESE	0.26	16.5	-39.9	722.5	0.031	0.000	15.3	31	1
05/18/19	10:13 a	-25.8	-25.8	-25.8	14.8	ESE	0.25	16.5	-39.6	722.6	0.031	0.000	15.3	31	1
05/18/19	10:14 a	-25.8	-25.8	-25.8	16.5	ESE	0.28	17.4	-40.1	722.6	0.031	0.000	15.3	31	1
05/18/19	10:15 a	-25.8	-25.8	-25.8	15.7	ESE	0.26	17.4	-39.8	722.5	0.031	0.000	15.3	31	1
05/18/19	10:16 a	-25.8	-25.7	-25.8	15.7	ESE	0.26	16.5	-39.8	722.5	0.031	0.000	15.3	27	1
05/18/19	10:17 a	-25.8	-25.7	-25.8	15.7	ESE	0.26	17.4	-39.8	722.5	0.031	0.000	15.3	30	1
05/18/19	10:18 a	-25.7	-25.7	-25.7	15.7	ESE	0.26	16.5	-39.7	722.5	0.031	0.000	15.3	31	1
05/18/19	10:19 a	-25.7	-25.7	-25.7	15.7	ESE	0.26	16.5	-39.7	722.5	0.031	0.000	15.3	31	1
05/18/19	10:20 a	-25.7	-25.7	-25.7	16.5	ESE	0.28	17.4	-40.1	722.5	0.031	0.000	15.3	31	1
05/18/19	10:21 a	-25.7	-25.7	-25.8	17.4	ESE	0.29	18.3	-40.4	722.4	0.031	0.000	15.3	31	1
05/18/19	10:22 a	-25.7	-25.7	-25.8	17.4	ESE	0.29	18.3	-40.4	722.4	0.031	0.000	15.3	25	1
05/18/19	10:23 a	-25.7	-25.7	-25.7	18.3	ESE	0.30	20.9	-40.7	722.4	0.031	0.000	15.3	29	1
05/18/19	10:24 a	-25.7	-25.7	-25.7	18.3	ESE	0.30	21.7	-40.7	722.3	0.031	0.000	15.3	25	1
05/18/19	10:25 a	-25.7	-25.7	-25.7	17.4	ESE	0.29	19.1	-40.4	722.4	0.031	0.000	15.3	25	1
05/18/19	10:26 a	-25.7	-25.7	-25.7	18.3	ESE	0.30	20.0	-40.7	722.5	0.031	0.000	15.3	26	1
05/18/19	10:27 a	-25.7	-25.7	-25.7	17.4	ESE	0.29	20.9	-40.4	722.3	0.031	0.000	15.3	27	1
05/18/19	10:28 a	-25.7	-25.7	-25.7	20.9	ESE	0.35	24.3	-41.4	722.2	0.031	0.000	15.3	24	1
05/18/19	10:29 a	-25.7	-25.6	-25.7	19.1	ESE	0.32	24.3	-40.9	722.3	0.031	0.000	15.3	28	1
05/18/19	10:30 a	-25.6	-25.6	-25.6	18.3	ESE	0.30	20.9	-40.5	722.3	0.031	0.000	15.3	26	1
05/18/19	10:31 a	-25.6	-25.5	-25.6	24.3	ESE	0.41	27.8	-42.2	722.2	0.030	0.000	15.3	27	1
05/18/19	10:32 a	-25.5	-25.4	-25.5	19.1	SE	0.32	23.5	-40.7	722.4	0.030	0.000	15.3	26	1
05/18/19	10:33 a	-25.4	-25.4	-25.4	18.3	SE	0.30	21.7	-40.3	722.5	0.030	0.000	15.3	27	1
05/18/19	10:34 a	-25.4	-25.3	-25.4	17.4	SE	0.29	24.3	-39.9	722.4	0.030	0.000	15.4	27	1
05/18/19	10:35 a	-25.3	-25.2	-25.3	18.3	SE	0.30	23.5	-40.1	722.4	0.030	0.000	15.4	27	1
05/18/19	10:36 a	-25.2	-25.2	-25.2	16.5	SE	0.28	19.1	-39.3	722.3	0.030	0.000	15.4	25	1
05/18/19	10:37 a	-25.1	-25.1	-25.2	18.3	ESE	0.30	19.1	-39.8	722.4	0.030	0.000	15.4	24	1
05/18/19	10:38 a	-25.0	-25.0	-25.1	16.5	ESE	0.28	23.5	-39.1	722.3	0.030	0.000	15.4	24	1
05/18/19	10:39 a	-24.9	-24.9	-25.0	18.3	ESE	0.30	20.9	-39.6	722.4	0.030	0.000	15.4	25	1
05/18/19	10:40 a	-24.8	-24.8	-24.9	17.4	ESE	0.29	20.0	-39.2	722.3	0.030	0.000	15.4	25	1
05/18/19	10:41 a	-24.8	-24.8	-24.8	15.7	ESE	0.26	18.3	-38.5	722.3	0.030	0.000	15.4	25	1
05/18/19	10:42 a	-24.7	-24.7	-24.8	17.4	ESE	0.29	21.7	-39.1	722.3	0.030	0.000	15.4	25	1
05/18/19	10:43 a	-24.7	-24.6	-24.7	15.7	ESE	0.26	18.3	-38.4	722.4	0.030	0.000	15.4	25	1
05/18/19	10:44 a	-24.6	-24.6	-24.6	16.5	ESE	0.28	19.1	-38.6	722.3	0.030	0.000	15.4	25	1
05/18/19	10:45 a	-24.6	-24.6	-24.6	15.7	ESE	0.26	20.0	-38.2	722.3	0.030	0.000	15.4	25	1
05/18/19	10:46 a	-24.6	-24.6	-24.6	17.4	ESE	0.29	18.3	-38.8	722.3	0.030	0.000	15.4	25	1
05/18/19	10:47 a	-24.5	-24.4	-24.5	16.5	ESE	0.28	20.9	-38.4	722.3	0.030	0.000	15.4	25	1
05/18/19	10:48 a	-24.4	-24.4	-24.5	17.4	ESE	0.29	18.3	-38.7	722.3	0.030	0.000	15.4	24	1
05/18/19	10:49 a	-24.4	-24.4	-24.4	16.5	ESE	0.28	19.1	-38.4	722.3	0.030	0.000	15.4	24	1
05/18/19	10:50 a	-24.4	-24.4	-24.4	16.5	ESE	0.28	18.3	-38.3	722.3	0.030	0.000	15.4	25	1
05/18/19	10:51 a	-24.4	-24.4	-24.4	15.7	ESE	0.26	19.1	-38.0	722.3	0.030	0.000	15.4	25	1
05/18/19	10:52 a	-24.4	-24.4	-24.4	16.5	ESE	0.28	20.0	-38.3	722.3	0.030	0.000	15.4	25	1
05/18/19	10:53 a	-24.3	-24.3	-24.4	16.5	ESE	0.28	18.3	-38.2	722.3	0.030	0.000	15.4	25	1
05/18/19	10:54 a	-24.3	-24.3	-24.4	15.7	ESE	0.26	17.4	-37.9	722.4	0.030	0.000	15.4	32	1
05/18/19	10:55 a	-24.3	-24.3	-24.3	16.5	ESE	0.28	20.9	-38.2	722.3	0.030	0.000	15.4	32	1
05/18/19	10:56 a	-24.3	-24.3	-24.3	18.3	ESE	0.30	19.1	-38.8	722.2	0.030	0.000	15.4	32	1
05/18/19	10:57 a	-24.3	-24.3	-24.3	15.7	ESE	0.26	18.3	-37.9	722.3	0.030	0.000	15.4	32	1
05/18/19	10:58 a	-24.3	-24.3	-24.3	16.5	ESE	0.28	19.1	-38.2	722.2	0.030	0.000	15.4	32	1
05/18/19	10:59 a	-24.3	-24.3	-24.3	15.7	ESE	0.26	18.3	-37.9	722.4	0.030	0.000	15.4	32	1
05/18/19	11:00 a	-24.3	-24.3	-24.3	14.8	ESE	0.25	17.4	-37.6	722.4	0.030	0.000	15.4	32	1
05/18/19	11:01 a	-24.3	-24.3	-24.3	16.5	ESE	0.28	21.7	-38.2	722.3	0.030	0.000	15.4	32	1
05/18/19	11:02 a	-24.3	-24.3	-24.3	16.5	ESE	0.28	19.1	-38.2	722.2	0.030	0.000	15.4	32	1
05/18/19	11:03 a	-24.3	-24.3	-24.3	14.8	ESE	0.25	18.3	-37.6	722.3	0.030	0.000	15.4	31	1
05/18/19	11:04 a	-24.3	-24.2	-24.3	19.1	ESE	0.32	25.2	-39.1	722.1	0.030	0.000	15.4	32	1
05/18/19	11:05 a	-24.2	-24.2	-24.2	16.5	SE	0.28	22.6	-38.1	722.2	0.030	0.000	15.4	32	1
05/18/19	11:06 a	-24.2	-24.2	-24.2	17.4	ESE	0.29	21.7	-38.4	722.2	0.030	0.000	15.4	32	1
05/18/19	11:07 a	-24.2	-24.2	-24.2	16.5	SE	0.28	20.9	-38.1	722.3	0.030	0.000	15.4	32	1
05/18/19	11:08 a	-24.2	-24.2	-24.2	15.7	SE	0.26	17.4	-37.7	722.3	0.030	0.000	15.4	31	1
05/18/19	11:09 a	-24.2	-24.2	-24.2	16.5	SE	0.28	20.9	-38.0	722.3	0.030	0.000	15.4	31	1
05/18/19	11:10 a	-24.1	-24.1	-24.2	16.5	SE	0.28	20.0	-37.9	722.2	0.029	0.000	15.5	32	1
05/18/19	11:11 a	-24.1	-24.0	-24.1	16.5	SE	0.28	18.3	-37.9	722.4	0.029	0.000	15.5	32	1
05/18/19	11:12 a	-24.0	-24.0	-24.1	15.7	SE	0.26	19.1	-37.5	722.3	0.029	0.000	15.5	32	1
05/18/19	11:13 a	-24.0	-23.9	-24.0	16.5	SE	0.28	19.1	-37.8	722.4	0.029	0.000	15.5	32	1
05/18/19	11:14 a	-23.9	-23.9	-23.9	15.7	SE	0.26	16.5	-37.4	722.4	0.029	0.000	15.5	32	1
05/18/19	11:15 a	-23.9	-23.9	-23.9	14.8	SE	0.25	16.5	-37.1	722.3	0.029	0.000	15.5	32	1
05/18/19	11:16 a	-23.9	-23.8	-23.9	13.9	ESE	0.23	15.7	-36.7	722.3	0.029	0.000	15.5	31	1
05/18/19	11:17 a	-23.8	-23.8	-23.8	15.7	ESE	0.26	18.3	-37.3	722.2	0.029	0.000	15.5	32	1
05/18/19	11:18 a	-23.8	-23.8	-23.8	15.7	SE	0.26	17.4	-37.2	722.3	0.029	0.000	15.5	32	1
05/18/19	11:19 a	-23.8	-23.7	-23.8	15.7	SE	0.26	18.3	-37.2	722.3	0.029	0.000	15.5	32	1
05/18/19	11:20 a	-23.7	-23.7	-23.8	14.8	SE	0.25	18.3	-36.8	722.3	0.029	0.000	15.5	32	1
05/18/19	11:21 a	-23.7	-23.7	-23.7	15.7	SE	0.26	20.0	-37.1	722.3	0.029	0.000	15.5	32	1
05/18/19	11:22 a	-23.7	-23.7	-23.7	14.8	SE	0.25	17.4	-36.7	722.3	0.029	0.000	15.5	32	1
05/18/19	11:23 a	-23.7	-23.7	-23.7	13.9	SE	0.23	16.5	-36.4	722.4	0.029	0.000	15.5	32	1
05/18/19	11:24 a	-23.7	-23.7	-23.7	13.9	SE	0.23	15.7	-36.4	722.2	0.029	0.000	15.6	32	1
05/18/19	11:25 a	-23.7	-23.6	-23.7	14.8	SE	0.25	17.4	-36.7	722.3	0.029	0.000	15.6	32	1
05/18/19	11:26 a	-23.6	-23.6	-23.6	15.7	SE	0.26	16.5	-37.0	722.2	0.029	0.000	15.6	32	1
05/18/19	11:27 a	-23.7	-23.6	-23.7	15.7	ESE	0.26	18.3	-37.1	722.2	0.029	0.000	15.6	31	1
05/18/19	11:28 a	-23.6	-23.6	-23.6	17.4	ESE	0.29	19.1	-37.6	722.2	0.029	0.000	15.6	31	1
05/18/19	11:29 a	-23.6	-23.6	-23.6	17.4	SE	0.29	19.1	-37.6	722.2	0.029	0.000	15.6	32	1
05/18/19	11:30 a	-23.6	-23.6	-23.6	17.4	ESE	0.29	19.1	-37.6	722.2	0.029	0.000	15.6	32	1
05/18/19	11:31 a	-23.6	-23.6	-23.6	17.4	ESE	0.29	22.6	-37.6	722.2	0.029	0.000	15.6	32	1
05/18/19	11:32 a	-23.6	-23.6	-23.6	17.4	ESE	0.29	23.5	-37.6	722.2	0.029	0.000	15.6	32	1
05/18/19	11:33 a	-23.6	-23.6	-23.6	15.7	ESE	0.26	18.3	-37.0	722.2	0.029	0.000	15.6	32	1
05/18/19	11:34 a	-23.6	-23.6	-23.6	15.7	SE	0.26	18.3	-37.0	722.2	0.029	0.000	15.6	32	1
05/18/19	11:35 a	-23.6	-23.6	-23.6	17.4	SE	0.29	19.1	-37.5	722.1	0.029	0.000	15.6	32	1
05/18/19	11:36 a	-23.6	-23.6	-23.6	18.3	SE	0.30	20.0	-37.8	722.2	0.029	0.000	15.6	32	1
05/18/19	11:37 a	-23.6	-23.5	-23.6	17.4	SE	0.29	18.3	-37.5	722.2	0.029	0.000	15.6	31	1
05/18/19	11:38 a	-23.6	-23.5	-23.6	17.4	SE	0.29	21.7	-37.5	722.1	0.029	0.000	15.6	31	1
05/18/19	11:39 a	-23.5	-23.5	-23.6	21.7	SE	0.36	23.5	-38.8	722.1	0.029	0.000	15.6	31	1
05/18/19	11:40 a	-23.5	-23.5	-23.5	21.7	SSE	0.36	27.0	-38.8	722.1	0.029	0.000	15.6	31	1
05/18/19	11:41 a	-23.5	-23.5	-23.5	18.3	SE	0.30	21.7	-37.7	722.1	0.029	0.000	15.6	31	1
05/18/19	11:42 a	-23.5	-23.4	-23.5	14.8	SE	0.25	17.4	-36.5	722.2	0.029	0.000	15.6	30	1
05/18/19	11:43 a	-23.5	-23.4	-23.5	13.0	SE	0.22	14.8	-35.8	722.2	0.029	0.000	15.6	31	1
05/18/19	11:44 a	-23.4	-23.4	-23.4	13.9	SSE	0.23	15.7	-36.1	722.2	0.029	0.000	15.6	31	1
05/18/19	11:45 a	-23.4	-23.4	-23.4	14.8	SSE	0.25	18.3	-36.4	722.1	0.029	0.000	15.6	31	1
05/18/19	11:46 a	-23.4	-23.4	-23.4	20.9	SE	0.35	27.8	-38.4	722.0	0.029	0.000	15.6	31	1
05/18/19	11:47 a	-23.4	-23.3	-23.4	16.5	SE	0.28	20.0	-37.0	722.1	0.029	0.000	15.6	31	1
05/18/19	11:48 a	-23.4	-23.4	-23.4	18.3	SE	0.30	21.7	-37.6	722.0	0.029	0.000	15.6	31	1
05/18/19	11:49 a	-23.3	-23.3	-23.4	19.1	SSE	0.32	21.7	-37.8	722.0	0.029	0.000	15.6	31	1
05/18/19	11:50 a	-23.3	-23.3	-23.3	20.9	SE	0.35	22.6	-38.3	721.9	0.029	0.000	15.6	31	1
05/18/19	11:51 a	-23.3	-23.3	-23.3	19.1	SE	0.32	20.9	-37.7	722.1	0.029	0.000	15.6	30	1
05/18/19	11:52 a	-23.3	-23.2	-23.3	20.9	SE	0.35	22.6	-38.2	722.0	0.029	0.000	15.6	31	1
05/18/19	11:53 a	-23.2	-23.2	-23.2	18.3	SE	0.30	22.6	-37.3	722.0	0.029	0.000	15.6	31	1
05/18/19	11:54 a	-23.2	-23.2	-23.2	19.1	SSE	0.32	23.5	-37.6	722.1	0.029	0.000	15.7	31	1
05/18/19	11:55 a	-23.1	-23.1	-23.2	17.4	SE	0.29	18.3	-36.9	722.1	0.029	0.000	15.7	31	1
05/18/19	11:56 a	-23.1	-23.1	-23.1	15.7	SE	0.26	17.4	-36.3	722.2	0.029	0.000	15.7	31	1
05/18/19	11:57 a	-23.1	-23.1	-23.1	16.5	SE	0.28	19.1	-36.6	722.1	0.029	0.000	15.7	30	1
05/18/19	11:58 a	-23.0	-23.0	-23.1	16.5	SE	0.28	18.3	-36.5	722.1	0.029	0.000	15.7	31	1
05/18/19	11:59 a	-23.0	-22.9	-23.1	16.5	SE	0.28	21.7	-36.5	722.0	0.029	0.000	15.7	32	1
05/18/19	12:00 p	-23.0	-22.9	-23.0	18.3	SE	0.30	20.9	-37.1	721.9	0.029	0.000	15.7	32	1
05/18/19	12:01 p	-23.0	-23.0	-23.0	17.4	SE	0.29	20.0	-36.8	722.0	0.029	0.000	15.7	32	1
05/18/19	12:02 p	-22.9	-22.9	-23.0	18.3	ESE	0.30	20.9	-37.0	722.0	0.029	0.000	15.7	32	1
05/18/19	12:03 p	-22.9	-22.9	-23.0	17.4	ESE	0.29	19.1	-36.7	722.0	0.029	0.000	15.7	32	1
05/18/19	12:04 p	-22.9	-22.9	-22.9	18.3	ESE	0.30	21.7	-37.0	722.0	0.029	0.000	15.7	32	1
05/18/19	12:05 p	-22.9	-22.9	-22.9	18.3	SE	0.30	22.6	-37.0	722.0	0.029	0.000	15.7	32	1
05/18/19	12:06 p	-22.9	-22.9	-22.9	20.9	SE	0.35	24.3	-37.8	722.0	0.029	0.000	15.7	32	1
05/18/19	12:07 p	-22.9	-22.9	-22.9	20.0	SE	0.33	21.7	-37.5	721.9	0.029	0.000	15.7	32	1
05/18/19	12:08 p	-22.9	-22.9	-22.9	20.0	SE	0.33	21.7	-37.5	722.0	0.029	0.000	15.7	32	1
05/18/19	12:09 p	-22.9	-22.9	-22.9	18.3	SE	0.30	20.9	-37.0	722.0	0.029	0.000	15.7	32	1
05/18/19	12:10 p	-22.9	-22.9	-22.9	18.3	SE	0.30	21.7	-37.0	722.0	0.029	0.000	15.8	32	1
05/18/19	12:11 p	-22.9	-22.9	-22.9	17.4	SE	0.29	19.1	-36.7	722.0	0.029	0.000	15.8	32	1
05/18/19	12:12 p	-22.9	-22.9	-22.9	18.3	SE	0.30	20.9	-37.0	722.0	0.029	0.000	15.8	32	1
05/18/19	12:13 p	-22.9	-22.9	-22.9	18.3	SE	0.30	23.5	-37.0	722.0	0.029	0.000	15.8	31	1
05/18/19	12:14 p	-22.9	-22.9	-22.9	19.1	SE	0.32	22.6	-37.3	721.9	0.029	0.000	15.8	32	1
05/18/19	12:15 p	-22.9	-22.9	-22.9	20.0	SE	0.33	21.7	-37.5	722.0	0.029	0.000	15.8	31	1
05/18/19	12:16 p	-22.9	-22.9	-22.9	19.1	SE	0.32	20.0	-37.3	721.9	0.029	0.000	15.8	32	1
05/18/19	12:17 p	-22.9	-22.9	-23.0	18.3	SE	0.30	20.0	-37.0	722.0	0.029	0.000	15.8	32	1
05/18/19	12:18 p	-22.9	-22.9	-22.9	17.4	SE	0.29	20.0	-36.7	722.0	0.029	0.000	15.8	32	1
05/18/19	12:19 p	-22.9	-22.9	-23.0	16.5	SE	0.28	19.1	-36.4	722.0	0.029	0.000	15.8	32	1
05/18/19	12:20 p	-22.9	-22.9	-22.9	18.3	SE	0.30	20.9	-37.0	721.9	0.029	0.000	15.8	32	1
05/18/19	12:21 p	-22.9	-22.9	-23.0	17.4	SE	0.29	19.1	-36.7	722.0	0.029	0.000	15.8	32	1
05/18/19	12:22 p	-23.0	-22.9	-23.0	15.7	SE	0.26	17.4	-36.2	722.1	0.029	0.000	15.8	32	1
05/18/19	12:23 p	-23.0	-22.9	-23.0	18.3	SE	0.30	21.7	-37.1	722.0	0.029	0.000	15.8	28	1
05/18/19	12:24 p	-23.0	-22.9	-23.0	20.0	SE	0.33	23.5	-37.6	721.9	0.029	0.000	15.8	29	1
05/18/19	12:25 p	-23.0	-22.9	-23.0	18.3	SSE	0.30	20.9	-37.1	722.0	0.029	0.000	15.8	28	1
05/18/19	12:26 p	-22.9	-22.9	-23.0	17.4	SSE	0.29	20.0	-36.7	722.0	0.029	0.000	15.8	29	1
05/18/19	12:27 p	-22.9	-22.9	-23.0	15.7	SE	0.26	17.4	-36.1	722.0	0.029	0.000	15.8	29	1
05/18/19	12:28 p	-22.9	-22.9	-22.9	15.7	SE	0.26	17.4	-36.1	722.0	0.029	0.000	15.8	29	1
05/18/19	12:29 p	-22.9	-22.9	-22.9	14.8	SE	0.25	17.4	-35.8	721.9	0.029	0.000	15.8	29	1
05/18/19	12:30 p	-22.9	-22.9	-22.9	17.4	SE	0.29	20.9	-36.7	721.9	0.029	0.000	15.8	29	1
05/18/19	12:31 p	-22.9	-22.9	-22.9	20.0	SE	0.33	22.6	-37.4	721.9	0.029	0.000	15.8	29	1
05/18/19	12:32 p	-22.9	-22.9	-22.9	20.0	SE	0.33	22.6	-37.5	721.9	0.029	0.000	15.8	29	1
05/18/19	12:33 p	-22.9	-22.9	-22.9	18.3	SSE	0.30	20.0	-36.9	721.9	0.029	0.000	15.8	29	1
05/18/19	12:34 p	-22.9	-22.9	-22.9	20.9	SE	0.35	25.2	-37.7	721.8	0.029	0.000	15.8	29	1
05/18/19	12:35 p	-22.9	-22.9	-22.9	20.0	SE	0.33	21.7	-37.4	721.9	0.029	0.000	15.8	29	1
05/18/19	12:36 p	-22.9	-22.9	-22.9	17.4	SSE	0.29	20.0	-36.7	721.9	0.029	0.000	15.8	29	1
05/18/19	12:37 p	-22.9	-22.8	-22.9	18.3	SSE	0.30	20.0	-36.9	721.9	0.029	0.000	15.8	29	1
05/18/19	12:38 p	-22.9	-22.9	-22.9	19.1	SE	0.32	20.9	-37.2	721.9	0.029	0.000	15.8	29	1
05/18/19	12:39 p	-22.9	-22.8	-22.9	19.1	SE	0.32	22.6	-37.2	722.0	0.029	0.000	15.8	29	1
05/18/19	12:40 p	-22.9	-22.8	-22.9	17.4	SE	0.29	19.1	-36.7	721.9	0.029	0.000	15.8	28	1
05/18/19	12:41 p	-22.8	-22.8	-22.8	16.5	SE	0.28	20.0	-36.3	722.0	0.029	0.000	15.9	28	1
05/18/19	12:42 p	-22.8	-22.8	-22.9	15.7	SE	0.26	17.4	-36.0	722.0	0.029	0.000	15.8	32	1
05/18/19	12:43 p	-22.8	-22.8	-22.8	14.8	SE	0.25	16.5	-35.7	721.9	0.029	0.000	15.8	32	1
05/18/19	12:44 p	-22.8	-22.8	-22.9	15.7	SE	0.26	18.3	-36.0	722.0	0.029	0.000	15.8	32	1
05/18/19	12:45 p	-22.8	-22.8	-22.8	16.5	SE	0.28	17.4	-36.3	722.0	0.029	0.000	15.9	32	1
05/18/19	12:46 p	-22.8	-22.8	-22.8	16.5	SE	0.28	19.1	-36.3	722.0	0.029	0.000	15.9	32	1
05/18/19	12:47 p	-22.8	-22.8	-22.9	15.7	SE	0.26	17.4	-36.0	722.1	0.029	0.000	15.9	32	1
05/18/19	12:48 p	-22.8	-22.8	-22.8	17.4	SE	0.29	19.1	-36.6	722.0	0.029	0.000	15.9	32	1
05/18/19	12:49 p	-22.9	-22.8	-22.9	16.5	SE	0.28	17.4	-36.3	722.0	0.029	0.000	15.9	32	1
05/18/19	12:50 p	-22.9	-22.9	-22.9	16.5	SE	0.28	18.3	-36.3	722.0	0.029	0.000	15.9	32	1
05/18/19	12:51 p	-22.9	-22.9	-22.9	15.7	SE	0.26	19.1	-36.1	722.1	0.029	0.000	15.9	32	1
05/18/19	12:52 p	-22.9	-22.9	-22.9	16.5	SE	0.28	19.1	-36.3	722.0	0.029	0.000	15.9	32	1
05/18/19	12:53 p	-22.9	-22.9	-22.9	14.8	SE	0.25	16.5	-35.8	721.9	0.029	0.000	15.9	32	1
05/18/19	12:54 p	-22.9	-22.9	-22.9	15.7	SE	0.26	17.4	-36.1	722.0	0.029	0.000	15.9	32	1
05/18/19	12:55 p	-22.9	-22.9	-23.0	17.4	SE	0.29	18.3	-36.7	722.0	0.029	0.000	15.9	32	1
05/18/19	12:56 p	-23.0	-22.9	-23.0	17.4	SE	0.29	19.1	-36.8	722.0	0.029	0.000	15.9	32	1
05/18/19	12:57 p	-23.0	-23.0	-23.0	18.3	SE	0.30	20.0	-37.1	721.9	0.029	0.000	15.9	32	1
05/18/19	12:58 p	-23.0	-23.0	-23.0	18.3	SE	0.30	19.1	-37.1	722.0	0.029	0.000	15.9	32	1
05/18/19	12:59 p	-23.1	-23.0	-23.1	16.5	SE	0.28	18.3	-36.6	721.9	0.029	0.000	15.9	29	1
05/18/19	1:00 p	-23.1	-23.1	-23.1	16.5	SE	0.28	17.4	-36.6	721.9	0.029	0.000	15.9	30	1
05/18/19	1:01 p	-23.1	-23.1	-23.1	15.7	SE	0.26	16.5	-36.3	721.9	0.029	0.000	16.0	29	1
05/18/19	1:02 p	-23.1	-23.1	-23.1	16.5	SE	0.28	17.4	-36.7	721.9	0.029	0.000	16.0	28	1
05/18/19	1:03 p	-23.1	-23.1	-23.1	17.4	SE	0.29	17.4	-36.9	722.0	0.029	0.000	16.0	31	1
05/18/19	1:04 p	-23.1	-23.1	-23.2	17.4	SE	0.29	18.3	-36.9	721.9	0.029	0.000	16.0	30	1
05/18/19	1:05 p	-23.2	-23.2	-23.2	18.3	SE	0.30	20.0	-37.3	721.9	0.029	0.000	16.1	32	1
05/18/19	1:06 p	-23.2	-23.2	-23.2	19.1	SE	0.32	22.6	-37.6	721.9	0.029	0.000	16.1	32	1
05/18/19	1:07 p	-23.2	-23.2	-23.2	19.1	SE	0.32	20.0	-37.6	721.9	0.029	0.000	16.1	32	1
05/18/19	1:08 p	-23.2	-23.2	-23.2	20.0	SE	0.33	20.9	-37.9	721.9	0.029	0.000	16.1	33	1
05/18/19	1:09 p	-23.2	-23.2	-23.3	19.1	SE	0.32	21.7	-37.6	721.9	0.029	0.000	16.1	33	1
05/18/19	1:10 p	-23.3	-23.2	-23.3	19.1	SE	0.32	20.9	-37.7	721.9	0.029	0.000	16.1	32	1
05/18/19	1:11 p	-23.2	-23.2	-23.3	19.1	SE	0.32	20.0	-37.6	721.9	0.029	0.000	16.1	32	1
05/18/19	1:12 p	-23.3	-23.2	-23.3	19.1	SE	0.32	21.7	-37.7	721.9	0.029	0.000	16.1	32	1
05/18/19	1:13 p	-23.3	-23.3	-23.3	18.3	SE	0.30	20.0	-37.4	722.0	0.029	0.000	16.1	33	1
05/18/19	1:14 p	-23.3	-23.3	-23.3	17.4	SE	0.29	18.3	-37.2	722.0	0.029	0.000	16.1	31	1
05/18/19	1:15 p	-23.3	-23.3	-23.3	18.3	SE	0.30	20.0	-37.5	721.9	0.029	0.000	16.1	32	1
05/18/19	1:16 p	-23.3	-23.3	-23.3	20.0	SE	0.33	22.6	-38.1	721.9	0.029	0.000	16.1	32	1
05/18/19	1:17 p	-23.3	-23.3	-23.3	20.0	SE	0.33	21.7	-38.1	721.9	0.029	0.000	16.1	33	1
05/18/19	1:18 p	-23.3	-23.3	-23.3	20.0	SE	0.33	21.7	-38.1	721.9	0.029	0.000	16.1	32	1
05/18/19	1:19 p	-23.3	-23.3	-23.3	19.1	SE	0.32	20.9	-37.8	722.0	0.029	0.000	16.1	32	1
05/18/19	1:20 p	-23.3	-23.3	-23.3	20.0	SE	0.33	20.9	-38.1	722.0	0.029	0.000	16.1	32	1
05/18/19	1:21 p	-23.3	-23.3	-23.3	19.1	SE	0.32	20.0	-37.8	722.0	0.029	0.000	16.1	32	1
05/18/19	1:22 p	-23.3	-23.3	-23.3	18.3	SSE	0.30	20.0	-37.4	722.0	0.029	0.000	16.1	33	1
05/18/19	1:23 p	-23.3	-23.2	-23.3	17.4	SSE	0.29	19.1	-37.2	722.0	0.029	0.000	16.2	33	1
05/18/19	1:24 p	-23.3	-23.2	-23.3	17.4	SE	0.29	19.1	-37.2	722.0	0.029	0.000	16.2	33	1
05/18/19	1:25 p	-23.2	-23.2	-23.2	17.4	SE	0.29	19.1	-37.1	722.0	0.029	0.000	16.2	32	1
05/18/19	1:26 p	-23.3	-23.2	-23.3	18.3	SE	0.30	20.0	-37.4	721.9	0.029	0.000	16.2	32	1
05/18/19	1:27 p	-23.2	-23.2	-23.2	16.5	SE	0.28	18.3	-36.8	721.9	0.029	0.000	16.2	30	1
05/18/19	1:28 p	-23.2	-23.2	-23.2	16.5	SE	0.28	18.3	-36.8	721.9	0.029	0.000	16.2	33	1
05/18/19	1:29 p	-23.2	-23.2	-23.2	16.5	SE	0.28	18.3	-36.8	721.9	0.029	0.000	16.2	34	1
05/18/19	1:30 p	-23.2	-23.2	-23.2	15.7	SE	0.26	17.4	-36.4	722.0	0.029	0.000	16.2	33	1
05/18/19	1:31 p	-23.2	-23.1	-23.2	14.8	SE	0.25	15.7	-36.1	722.0	0.029	0.000	16.2	29	1
05/18/19	1:32 p	-23.1	-23.1	-23.2	15.7	SE	0.26	16.5	-36.3	721.9	0.029	0.000	16.2	33	1
05/18/19	1:33 p	-23.2	-23.1	-23.2	14.8	SE	0.25	16.5	-36.1	722.0	0.029	0.000	16.2	33	1
05/18/19	1:34 p	-23.1	-23.1	-23.1	14.8	SE	0.25	16.5	-36.0	722.0	0.029	0.000	16.2	32	1
05/18/19	1:35 p	-23.1	-23.1	-23.1	14.8	SE	0.25	15.7	-36.0	722.0	0.029	0.000	16.2	33	1
05/18/19	1:36 p	-23.1	-23.1	-23.2	13.9	SE	0.23	14.8	-35.7	722.0	0.029	0.000	16.2	33	1
05/18/19	1:37 p	-23.1	-23.1	-23.1	14.8	SE	0.25	15.7	-36.0	722.0	0.029	0.000	16.2	33	1
05/18/19	1:38 p	-23.1	-23.1	-23.1	14.8	SE	0.25	15.7	-36.0	722.1	0.029	0.000	16.2	33	1
05/18/19	1:39 p	-23.1	-23.1	-23.1	14.8	SE	0.25	15.7	-36.0	722.0	0.029	0.000	16.2	33	1
05/18/19	1:40 p	-23.1	-23.1	-23.2	14.8	SE	0.25	15.7	-36.0	722.0	0.029	0.000	16.2	33	1
05/18/19	1:41 p	-23.2	-23.2	-23.2	15.7	SE	0.26	15.7	-36.4	721.9	0.029	0.000	16.2	33	1
05/18/19	1:42 p	-23.2	-23.1	-23.2	15.7	SE	0.26	15.7	-36.4	721.9	0.029	0.000	16.2	33	1
05/18/19	1:43 p	-23.1	-23.1	-23.1	14.8	SE	0.25	15.7	-36.0	721.9	0.029	0.000	16.3	33	1
05/18/19	1:44 p	-23.2	-23.1	-23.2	14.8	SE	0.25	15.7	-36.1	721.9	0.029	0.000	16.2	32	1
05/18/19	1:45 p	-23.2	-23.2	-23.2	14.8	SE	0.25	15.7	-36.1	722.0	0.029	0.000	16.2	31	1
05/18/19	1:46 p	-23.2	-23.2	-23.2	15.7	SE	0.26	15.7	-36.4	722.0	0.029	0.000	16.2	30	1
05/18/19	1:47 p	-23.2	-23.2	-23.2	14.8	SE	0.25	15.7	-36.2	721.9	0.029	0.000	16.2	33	1
05/18/19	1:48 p	-23.2	-23.2	-23.3	14.8	SE	0.25	15.7	-36.2	721.8	0.029	0.000	16.2	33	1
05/18/19	1:49 p	-23.3	-23.2	-23.3	15.7	SE	0.26	15.7	-36.6	721.9	0.029	0.000	16.2	33	1
05/18/19	1:50 p	-23.3	-23.2	-23.3	15.7	SE	0.26	16.5	-36.6	721.9	0.029	0.000	16.3	33	1
05/18/19	1:51 p	-23.3	-23.2	-23.3	14.8	SE	0.25	15.7	-36.2	721.8	0.029	0.000	16.3	33	1
05/18/19	1:52 p	-23.3	-23.3	-23.3	15.7	SE	0.26	15.7	-36.6	721.8	0.029	0.000	16.3	32	1
05/18/19	1:53 p	-23.3	-23.3	-23.3	16.5	SE	0.28	16.5	-36.9	721.8	0.029	0.000	16.3	33	1
05/18/19	1:54 p	-23.3	-23.3	-23.3	16.5	SE	0.28	16.5	-36.9	721.7	0.029	0.000	16.3	33	1
05/18/19	1:55 p	-23.3	-23.3	-23.3	17.4	SE	0.29	18.3	-37.2	721.7	0.029	0.000	16.3	33	1
05/18/19	1:56 p	-23.3	-23.3	-23.3	17.4	SE	0.29	18.3	-37.2	721.7	0.029	0.000	16.3	33	1
05/18/19	1:57 p	-23.4	-23.3	-23.4	18.3	SE	0.30	19.1	-37.6	721.6	0.029	0.000	16.3	33	1
05/18/19	1:58 p	-23.4	-23.3	-23.4	17.4	SE	0.29	18.3	-37.3	721.7	0.029	0.000	16.3	34	1
05/18/19	1:59 p	-23.4	-23.4	-23.4	17.4	SE	0.29	18.3	-37.3	721.6	0.029	0.000	16.3	34	1
05/18/19	2:00 p	-23.4	-23.4	-23.4	16.5	SE	0.28	17.4	-37.0	721.6	0.029	0.000	16.3	33	1
05/18/19	2:01 p	-23.4	-23.4	-23.4	18.3	SE	0.30	19.1	-37.6	721.6	0.029	0.000	16.3	34	1
05/18/19	2:02 p	-23.4	-23.4	-23.4	19.1	SE	0.32	20.9	-37.8	721.5	0.029	0.000	16.3	34	1
05/18/19	2:03 p	-23.4	-23.4	-23.4	18.3	ESE	0.30	20.0	-37.6	721.6	0.029	0.000	16.3	34	1
05/18/19	2:04 p	-23.4	-23.4	-23.4	19.1	SE	0.32	20.0	-37.8	721.6	0.029	0.000	16.3	34	1
05/18/19	2:05 p	-23.4	-23.4	-23.4	19.1	SE	0.32	20.0	-37.8	721.5	0.029	0.000	16.3	34	1
05/18/19	2:06 p	-23.4	-23.4	-23.4	20.0	SE	0.33	20.9	-38.1	721.5	0.029	0.000	16.3	34	1
05/18/19	2:07 p	-23.4	-23.4	-23.4	19.1	ESE	0.32	20.9	-37.8	721.5	0.029	0.000	16.3	34	1
05/18/19	2:08 p	-23.4	-23.4	-23.4	18.3	ESE	0.30	20.0	-37.7	721.5	0.029	0.000	16.3	33	1
05/18/19	2:09 p	-23.4	-23.4	-23.4	18.3	ESE	0.30	20.9	-37.7	721.5	0.029	0.000	16.3	33	1
05/18/19	2:10 p	-23.4	-23.4	-23.4	18.3	ESE	0.30	20.0	-37.7	721.6	0.029	0.000	16.3	33	1
05/18/19	2:11 p	-23.4	-23.4	-23.4	19.1	ESE	0.32	20.9	-37.9	721.6	0.029	0.000	16.3	33	1
05/18/19	2:12 p	-23.4	-23.4	-23.5	19.1	ESE	0.32	20.9	-37.9	721.6	0.029	0.000	16.3	34	1
05/18/19	2:13 p	-23.5	-23.5	-23.5	19.1	ESE	0.32	20.0	-38.0	721.6	0.029	0.000	16.3	33	1
05/18/19	2:14 p	-23.6	-23.5	-23.6	18.3	ESE	0.30	20.0	-37.8	721.6	0.029	0.000	16.3	34	1
05/18/19	2:15 p	-23.6	-23.6	-23.6	19.1	ESE	0.32	20.0	-38.1	721.6	0.029	0.000	16.3	34	1
05/18/19	2:16 p	-23.6	-23.6	-23.6	19.1	ESE	0.32	20.9	-38.2	721.6	0.029	0.000	16.3	34	1
05/18/19	2:17 p	-23.7	-23.6	-23.7	19.1	ESE	0.32	20.0	-38.2	721.6	0.029	0.000	16.3	34	1
05/18/19	2:18 p	-23.7	-23.7	-23.7	18.3	ESE	0.30	20.0	-38.0	721.6	0.029	0.000	16.3	33	1
05/18/19	2:19 p	-23.8	-23.7	-23.8	18.3	ESE	0.30	20.0	-38.1	721.6	0.029	0.000	16.3	33	1
05/18/19	2:20 p	-23.8	-23.8	-23.8	19.1	ESE	0.32	20.0	-38.4	721.6	0.029	0.000	16.3	33	1
05/18/19	2:21 p	-23.8	-23.8	-23.9	19.1	ESE	0.32	20.9	-38.4	721.5	0.029	0.000	16.3	33	1
05/18/19	2:22 p	-23.9	-23.9	-23.9	20.0	ESE	0.33	20.9	-38.8	721.5	0.029	0.000	16.3	33	1
05/18/19	2:23 p	-23.9	-23.9	-24.0	20.0	ESE	0.33	21.7	-38.8	721.5	0.029	0.000	16.4	33	1
05/18/19	2:24 p	-24.0	-24.0	-24.1	19.1	ESE	0.32	21.7	-38.7	721.5	0.029	0.000	16.3	33	1
05/18/19	2:25 p	-24.1	-24.1	-24.1	20.0	ESE	0.33	20.9	-39.0	721.5	0.029	0.000	16.3	33	1
05/18/19	2:26 p	-24.2	-24.1	-24.2	20.0	ESE	0.33	21.7	-39.2	721.5	0.030	0.000	16.3	33	1
05/18/19	2:27 p	-24.2	-24.2	-24.2	19.1	ESE	0.32	20.9	-38.9	721.5	0.030	0.000	16.3	33	1
05/18/19	2:28 p	-24.2	-24.2	-24.3	20.0	ESE	0.33	20.9	-39.2	721.4	0.030	0.000	16.3	33	1
05/18/19	2:29 p	-24.3	-24.3	-24.3	20.0	ESE	0.33	21.7	-39.3	721.5	0.030	0.000	16.3	33	1
05/18/19	2:30 p	-24.3	-24.3	-24.3	20.0	ESE	0.33	20.9	-39.4	721.5	0.030	0.000	16.4	33	1
05/18/19	2:31 p	-24.3	-24.3	-24.4	20.0	ESE	0.33	20.9	-39.4	721.5	0.030	0.000	16.4	33	1
05/18/19	2:32 p	-24.4	-24.4	-24.4	19.1	ESE	0.32	20.9	-39.2	721.6	0.030	0.000	16.4	33	1
05/18/19	2:33 p	-24.4	-24.4	-24.4	19.1	ESE	0.32	20.9	-39.3	721.5	0.030	0.000	16.4	33	1
05/18/19	2:34 p	-24.4	-24.4	-24.4	20.0	ESE	0.33	20.9	-39.5	721.4	0.030	0.000	16.4	33	1
05/18/19	2:35 p	-24.4	-24.4	-24.4	18.3	ESE	0.30	20.0	-39.0	721.5	0.030	0.000	16.4	33	1
05/18/19	2:36 p	-24.5	-24.4	-24.5	20.0	ESE	0.33	20.9	-39.6	721.5	0.030	0.000	16.4	33	1
05/18/19	2:37 p	-24.5	-24.5	-24.6	19.1	ESE	0.32	20.0	-39.3	721.5	0.030	0.000	16.4	33	1
05/18/19	2:38 p	-24.5	-24.5	-24.6	18.3	ESE	0.30	20.0	-39.1	721.5	0.030	0.000	16.4	32	1
05/18/19	2:39 p	-24.6	-24.5	-24.6	20.0	ESE	0.33	21.7	-39.7	721.5	0.030	0.000	16.4	32	1
05/18/19	2:40 p	-24.6	-24.5	-24.6	20.0	ESE	0.33	21.7	-39.7	721.5	0.030	0.000	16.4	31	1
05/18/19	2:41 p	-24.6	-24.6	-24.6	20.0	ESE	0.33	21.7	-39.7	721.5	0.030	0.000	16.4	31	1
05/18/19	2:42 p	-24.6	-24.5	-24.6	19.1	ESE	0.32	20.9	-39.4	721.6	0.030	0.000	16.4	30	1
05/18/19	2:43 p	-24.6	-24.5	-24.6	18.3	ESE	0.30	20.0	-39.1	721.4	0.030	0.000	16.4	30	1
05/18/19	2:44 p	-24.6	-24.5	-24.6	17.4	ESE	0.29	19.1	-38.8	721.5	0.030	0.000	16.4	30	1
05/18/19	2:45 p	-24.6	-24.5	-24.6	17.4	ESE	0.29	19.1	-38.8	721.5	0.030	0.000	16.4	33	1
05/18/19	2:46 p	-24.6	-24.5	-24.6	18.3	ESE	0.30	20.0	-39.1	721.5	0.030	0.000	16.4	34	1
05/18/19	2:47 p	-24.5	-24.5	-24.5	19.1	ESE	0.32	21.7	-39.3	721.4	0.030	0.000	16.4	34	1
05/18/19	2:48 p	-24.5	-24.5	-24.5	20.0	ESE	0.33	21.7	-39.6	721.5	0.030	0.000	16.4	34	1
05/18/19	2:49 p	-24.5	-24.5	-24.6	18.3	ESE	0.30	20.0	-39.1	721.5	0.030	0.000	16.4	31	1
05/18/19	2:50 p	-24.5	-24.4	-24.5	19.1	ESE	0.32	20.9	-39.3	721.5	0.030	0.000	16.4	31	1
05/18/19	2:51 p	-24.5	-24.4	-24.5	18.3	ESE	0.30	20.9	-39.1	721.5	0.030	0.000	16.4	33	1
05/18/19	2:52 p	-24.4	-24.4	-24.5	19.1	ESE	0.32	21.7	-39.3	721.5	0.030	0.000	16.4	33	1
05/18/19	2:53 p	-24.4	-24.4	-24.5	19.1	ESE	0.32	20.9	-39.3	721.4	0.030	0.000	16.4	33	1
05/18/19	2:54 p	-24.5	-24.4	-24.5	20.0	ESE	0.33	23.5	-39.6	721.4	0.030	0.000	16.4	33	1
05/18/19	2:55 p	-24.4	-24.4	-24.4	20.9	ESE	0.35	22.6	-39.8	721.4	0.030	0.000	16.4	33	1
05/18/19	2:56 p	-24.5	-24.5	-24.5	20.9	ESE	0.35	22.6	-39.8	721.4	0.030	0.000	16.4	33	1
05/18/19	2:57 p	-24.5	-24.5	-24.5	21.7	ESE	0.36	22.6	-40.1	721.3	0.030	0.000	16.4	33	1
05/18/19	2:58 p	-24.5	-24.4	-24.6	20.9	ESE	0.35	23.5	-39.8	721.4	0.030	0.000	16.4	33	1
05/18/19	2:59 p	-24.5	-24.5	-24.6	20.9	ESE	0.35	22.6	-39.8	721.3	0.030	0.000	16.4	33	1
05/18/19	3:00 p	-24.6	-24.5	-24.6	20.9	ESE	0.35	23.5	-39.9	721.3	0.030	0.000	16.4	32	1
05/18/19	3:01 p	-24.6	-24.6	-24.6	20.9	ESE	0.35	22.6	-39.9	721.3	0.030	0.000	16.4	33	1
05/18/19	3:02 p	-24.6	-24.6	-24.6	20.9	ESE	0.35	22.6	-39.9	721.2	0.030	0.000	16.4	32	1
05/18/19	3:03 p	-24.6	-24.6	-24.6	21.7	ESE	0.36	23.5	-40.2	721.3	0.030	0.000	16.4	33	1
05/18/19	3:04 p	-24.6	-24.6	-24.6	21.7	ESE	0.36	24.3	-40.2	721.3	0.030	0.000	16.4	33	1
05/18/19	3:05 p	-24.6	-24.6	-24.6	22.6	ESE	0.38	25.2	-40.4	721.3	0.030	0.000	16.4	33	1
05/18/19	3:06 p	-24.6	-24.6	-24.6	22.6	ESE	0.38	25.2	-40.4	721.3	0.030	0.000	16.4	33	1
05/18/19	3:07 p	-24.6	-24.6	-24.6	21.7	ESE	0.36	24.3	-40.2	721.2	0.030	0.000	16.5	33	1
05/18/19	3:08 p	-24.6	-24.6	-24.6	20.9	ESE	0.35	22.6	-40.0	721.2	0.030	0.000	16.5	33	1
05/18/19	3:09 p	-24.6	-24.6	-24.6	22.6	ESE	0.38	24.3	-40.5	721.2	0.030	0.000	16.5	33	1
05/18/19	3:10 p	-24.6	-24.6	-24.6	22.6	ESE	0.38	24.3	-40.4	721.2	0.030	0.000	16.5	34	1
05/18/19	3:11 p	-24.6	-24.6	-24.6	23.5	ESE	0.39	25.2	-40.7	721.2	0.030	0.000	16.5	34	1
05/18/19	3:12 p	-24.6	-24.6	-24.6	23.5	ESE	0.39	25.2	-40.7	721.2	0.030	0.000	16.5	34	1
05/18/19	3:13 p	-24.6	-24.5	-24.6	21.7	ESE	0.36	23.5	-40.2	721.2	0.030	0.000	16.5	34	1
05/18/19	3:14 p	-24.5	-24.5	-24.6	23.5	ESE	0.39	24.3	-40.6	721.2	0.030	0.000	16.5	35	1
05/18/19	3:15 p	-24.5	-24.5	-24.5	22.6	ESE	0.38	25.2	-40.3	721.2	0.030	0.000	16.5	35	1
05/18/19	3:16 p	-24.5	-24.4	-24.5	22.6	ESE	0.38	25.2	-40.3	721.2	0.030	0.000	16.5	35	1
05/18/19	3:17 p	-24.4	-24.4	-24.4	21.7	ESE	0.36	23.5	-40.0	721.2	0.030	0.000	16.5	35	1
05/18/19	3:18 p	-24.4	-24.4	-24.4	22.6	ESE	0.38	23.5	-40.3	721.2	0.030	0.000	16.5	35	1
05/18/19	3:19 p	-24.4	-24.4	-24.4	21.7	ESE	0.36	23.5	-39.9	721.2	0.030	0.000	16.5	36	1
05/18/19	3:20 p	-24.4	-24.4	-24.4	24.3	ESE	0.41	29.6	-40.7	721.1	0.030	0.000	16.5	34	1
05/18/19	3:21 p	-24.4	-24.3	-24.4	17.4	ESE	0.29	22.6	-38.6	721.2	0.030	0.000	16.5	35	1
05/18/19	3:22 p	-24.3	-24.3	-24.3	22.6	ESE	0.38	26.1	-40.1	721.1	0.030	0.000	16.5	35	1
05/18/19	3:23 p	-24.3	-24.3	-24.3	22.6	ESE	0.38	23.5	-40.1	721.2	0.030	0.000	16.5	35	1
05/18/19	3:24 p	-24.3	-24.2	-24.3	20.0	ESE	0.33	24.3	-39.3	721.2	0.030	0.000	16.5	34	1
05/18/19	3:25 p	-24.2	-24.2	-24.2	22.6	ESE	0.38	24.3	-39.9	721.2	0.030	0.000	16.5	34	1
05/18/19	3:26 p	-24.2	-24.2	-24.2	21.7	ESE	0.36	23.5	-39.7	721.2	0.030	0.000	16.5	34	1
05/18/19	3:27 p	-24.2	-24.2	-24.2	17.4	ESE	0.29	20.0	-38.3	721.2	0.030	0.000	16.6	34	1
05/18/19	3:28 p	-24.2	-24.1	-24.2	20.9	ESE	0.35	21.7	-39.4	721.2	0.030	0.000	16.6	34	1
05/18/19	3:29 p	-24.1	-24.1	-24.1	19.1	ESE	0.32	21.7	-38.8	721.2	0.029	0.000	16.6	34	1
05/18/19	3:30 p	-24.1	-24.1	-24.1	20.9	ESE	0.35	23.5	-39.3	721.2	0.029	0.000	16.6	33	1
05/18/19	3:31 p	-24.1	-24.0	-24.1	20.0	ESE	0.33	21.7	-39.0	721.2	0.029	0.000	16.6	33	1
05/18/19	3:32 p	-24.0	-23.9	-24.0	20.0	ESE	0.33	22.6	-38.9	721.1	0.029	0.000	16.6	33	1
05/18/19	3:33 p	-23.9	-23.9	-24.0	22.6	ESE	0.38	24.3	-39.6	721.1	0.029	0.000	16.6	33	1
05/18/19	3:34 p	-23.9	-23.9	-23.9	20.9	ESE	0.35	26.1	-39.1	721.0	0.029	0.000	16.6	33	1
05/18/19	3:35 p	-23.9	-23.9	-23.9	20.0	ESE	0.33	21.7	-38.8	721.1	0.029	0.000	16.6	33	1
05/18/19	3:36 p	-23.9	-23.9	-23.9	20.0	ESE	0.33	22.6	-38.8	721.1	0.029	0.000	16.6	33	1
05/18/19	3:37 p	-23.8	-23.8	-23.8	20.0	ESE	0.33	20.9	-38.7	721.1	0.029	0.000	16.6	33	1
05/18/19	3:38 p	-23.8	-23.8	-23.8	20.0	ESE	0.33	21.7	-38.6	721.1	0.029	0.000	16.6	33	1
05/18/19	3:39 p	-23.8	-23.8	-23.8	20.0	ESE	0.33	22.6	-38.6	721.1	0.029	0.000	16.6	33	1
05/18/19	3:40 p	-23.8	-23.8	-23.8	20.9	ESE	0.35	21.7	-38.9	721.1	0.029	0.000	16.6	33	1
05/18/19	3:41 p	-23.7	-23.7	-23.7	20.9	ESE	0.35	22.6	-38.8	721.1	0.029	0.000	16.6	33	1
05/18/19	3:42 p	-23.7	-23.7	-23.7	20.9	ESE	0.35	21.7	-38.8	721.1	0.029	0.000	16.6	33	1
05/18/19	3:43 p	-23.7	-23.7	-23.7	20.0	ESE	0.33	21.7	-38.5	721.1	0.029	0.000	16.6	33	1
05/18/19	3:44 p	-23.7	-23.7	-23.7	20.0	ESE	0.33	21.7	-38.5	721.1	0.029	0.000	16.6	33	1
05/18/19	3:45 p	-23.7	-23.6	-23.7	20.0	ESE	0.33	20.9	-38.5	721.1	0.029	0.000	16.6	33	1
05/18/19	3:46 p	-23.7	-23.6	-23.7	20.9	ESE	0.35	23.5	-38.7	721.1	0.029	0.000	16.6	33	1
05/18/19	3:47 p	-23.7	-23.6	-23.7	20.9	ESE	0.35	22.6	-38.7	721.2	0.029	0.000	16.6	33	1
05/18/19	3:48 p	-23.6	-23.6	-23.6	20.0	ESE	0.33	20.9	-38.4	721.1	0.029	0.000	16.6	34	1
05/18/19	3:49 p	-23.6	-23.6	-23.6	19.1	ESE	0.32	20.9	-38.2	721.2	0.029	0.000	16.6	34	1
05/18/19	3:50 p	-23.6	-23.6	-23.6	20.0	ESE	0.33	20.9	-38.3	721.2	0.029	0.000	16.6	34	1
05/18/19	3:51 p	-23.6	-23.6	-23.6	20.9	ESE	0.35	21.7	-38.6	721.1	0.029	0.000	16.6	33	1
05/18/19	3:52 p	-23.5	-23.5	-23.5	20.0	ESE	0.33	22.6	-38.3	721.1	0.029	0.000	16.6	33	1
05/18/19	3:53 p	-23.6	-23.5	-23.6	19.1	ESE	0.32	22.6	-38.1	721.1	0.029	0.000	16.6	34	1
05/18/19	3:54 p	-23.5	-23.4	-23.5	20.0	ESE	0.33	22.6	-38.3	721.1	0.029	0.000	16.6	35	1
05/18/19	3:55 p	-23.4	-23.4	-23.4	20.0	ESE	0.33	20.9	-38.2	721.2	0.029	0.000	16.6	33	1
05/18/19	3:56 p	-23.4	-23.4	-23.4	17.4	ESE	0.29	19.1	-37.4	721.2	0.029	0.000	16.6	33	1
05/18/19	3:57 p	-23.4	-23.4	-23.4	18.3	ESE	0.30	20.0	-37.7	721.1	0.029	0.000	16.6	33	1
05/18/19	3:58 p	-23.4	-23.4	-23.4	18.3	ESE	0.30	20.0	-37.6	721.1	0.029	0.000	16.7	33	1
05/18/19	3:59 p	-23.4	-23.3	-23.4	20.0	ESE	0.33	22.6	-38.1	721.1	0.029	0.000	16.7	33	1
05/18/19	4:00 p	-23.3	-23.3	-23.3	20.0	ESE	0.33	24.3	-38.1	721.2	0.029	0.000	16.7	33	1
05/18/19	4:01 p	-23.3	-23.3	-23.3	19.1	E	0.32	22.6	-37.7	721.1	0.029	0.000	16.7	32	1
05/18/19	4:02 p	-23.3	-23.3	-23.3	20.0	E	0.33	21.7	-37.9	721.2	0.029	0.000	16.7	32	1
05/18/19	4:03 p	-23.3	-23.3	-23.3	19.1	ESE	0.32	20.9	-37.7	721.2	0.029	0.000	16.7	31	1
05/18/19	4:04 p	-23.3	-23.2	-23.3	19.1	ESE	0.32	20.9	-37.7	721.1	0.029	0.000	16.7	31	1
05/18/19	4:05 p	-23.3	-23.2	-23.3	20.0	ESE	0.33	20.9	-37.9	721.1	0.029	0.000	16.7	32	1
05/18/19	4:06 p	-23.2	-23.2	-23.3	20.0	ESE	0.33	22.6	-37.9	721.1	0.029	0.000	16.7	33	1
05/18/19	4:07 p	-23.2	-23.2	-23.2	19.1	ESE	0.32	23.5	-37.6	721.1	0.029	0.000	16.7	32	1
05/18/19	4:08 p	-23.2	-23.2	-23.2	19.1	ESE	0.32	22.6	-37.6	721.1	0.029	0.000	16.7	33	1
05/18/19	4:09 p	-23.2	-23.2	-23.2	20.0	ESE	0.33	22.6	-37.8	721.1	0.029	0.000	16.7	33	1
05/18/19	4:10 p	-23.2	-23.2	-23.2	18.3	ESE	0.30	20.0	-37.3	721.1	0.029	0.000	16.7	32	1
05/18/19	4:11 p	-23.2	-23.1	-23.2	17.4	ESE	0.29	20.0	-37.0	721.1	0.029	0.000	16.7	32	1
05/18/19	4:12 p	-23.1	-23.1	-23.1	20.9	ESE	0.35	25.2	-38.0	721.1	0.029	0.000	16.7	33	1
05/18/19	4:13 p	-23.1	-23.1	-23.1	19.1	ESE	0.32	24.3	-37.5	721.2	0.029	0.000	16.7	33	1
05/18/19	4:14 p	-23.1	-23.1	-23.1	18.3	ESE	0.30	21.7	-37.2	721.2	0.029	0.000	16.7	35	1
05/18/19	4:15 p	-23.1	-23.1	-23.1	18.3	ESE	0.30	21.7	-37.2	721.2	0.029	0.000	16.7	36	1
05/18/19	4:16 p	-23.1	-23.1	-23.1	18.3	ESE	0.30	20.0	-37.2	721.2	0.029	0.000	16.7	36	1
05/18/19	4:17 p	-23.1	-23.0	-23.1	17.4	ESE	0.29	18.3	-36.9	721.2	0.029	0.000	16.7	37	1
05/18/19	4:18 p	-23.0	-23.0	-23.0	17.4	ESE	0.29	20.0	-36.8	721.1	0.029	0.000	16.7	36	1
05/18/19	4:19 p	-23.0	-23.0	-23.0	17.4	ESE	0.29	20.0	-36.8	721.1	0.029	0.000	16.7	36	1
05/18/19	4:20 p	-22.9	-22.9	-23.0	17.4	ESE	0.29	19.1	-36.7	721.0	0.029	0.000	16.7	35	1
05/18/19	4:21 p	-22.9	-22.9	-23.0	20.9	ESE	0.35	22.6	-37.8	721.0	0.029	0.000	16.8	36	1
05/18/19	4:22 p	-22.9	-22.9	-22.9	20.0	ESE	0.33	21.7	-37.5	720.9	0.029	0.000	16.8	36	1
05/18/19	4:23 p	-22.9	-22.9	-22.9	20.9	ESE	0.35	23.5	-37.8	721.0	0.029	0.000	16.8	37	1
05/18/19	4:24 p	-22.9	-22.9	-22.9	19.1	ESE	0.32	20.9	-37.3	721.0	0.029	0.000	16.8	37	1
05/18/19	4:25 p	-22.9	-22.9	-22.9	20.0	ESE	0.33	22.6	-37.5	721.0	0.029	0.000	16.8	35	1
05/18/19	4:26 p	-22.9	-22.9	-22.9	19.1	ESE	0.32	20.9	-37.2	721.0	0.029	0.000	16.8	35	1
05/18/19	4:27 p	-22.9	-22.9	-22.9	20.0	ESE	0.33	22.6	-37.4	720.9	0.029	0.000	16.8	36	1
05/18/19	4:28 p	-22.9	-22.9	-22.9	20.0	ESE	0.33	22.6	-37.4	720.9	0.029	0.000	16.8	36	1
05/18/19	4:29 p	-22.9	-22.8	-22.9	20.9	ESE	0.35	23.5	-37.7	721.0	0.029	0.000	16.8	36	1
05/18/19	4:30 p	-22.9	-22.9	-22.9	18.3	ESE	0.30	20.9	-36.9	720.9	0.029	0.000	16.8	36	1
05/18/19	4:31 p	-22.9	-22.9	-22.9	18.3	ESE	0.30	20.0	-36.9	721.0	0.029	0.000	16.8	37	1
05/18/19	4:32 p	-22.9	-22.8	-22.9	17.4	ESE	0.29	18.3	-36.7	721.1	0.029	0.000	16.8	37	1
05/18/19	4:33 p	-22.8	-22.8	-22.9	20.0	ESE	0.33	23.5	-37.4	720.9	0.029	0.000	16.8	36	1
05/18/19	4:34 p	-22.8	-22.8	-22.8	18.3	ESE	0.30	24.3	-36.8	720.9	0.029	0.000	16.8	37	1
05/18/19	4:35 p	-22.8	-22.8	-22.8	20.0	ESE	0.33	23.5	-37.4	720.9	0.029	0.000	16.8	36	1
05/18/19	4:36 p	-22.8	-22.8	-22.8	19.1	ESE	0.32	22.6	-37.1	720.9	0.029	0.000	16.8	37	1
05/18/19	4:37 p	-22.8	-22.8	-22.8	18.3	ESE	0.30	21.7	-36.8	720.9	0.029	0.000	16.8	37	1
05/18/19	4:38 p	-22.8	-22.8	-22.8	18.3	ESE	0.30	20.9	-36.8	720.9	0.029	0.000	16.8	37	1
05/18/19	4:39 p	-22.8	-22.7	-22.8	21.7	SE	0.36	23.5	-37.8	720.9	0.029	0.000	16.8	35	1
05/18/19	4:40 p	-22.7	-22.7	-22.7	20.0	ESE	0.33	22.6	-37.2	720.9	0.029	0.000	16.8	34	1
05/18/19	4:41 p	-22.7	-22.7	-22.7	20.0	ESE	0.33	21.7	-37.2	721.0	0.029	0.000	16.8	35	1
05/18/19	4:42 p	-22.7	-22.7	-22.7	20.0	ESE	0.33	21.7	-37.2	720.8	0.028	0.000	16.8	33	1
05/18/19	4:43 p	-22.7	-22.7	-22.7	20.9	ESE	0.35	23.5	-37.4	720.8	0.028	0.000	16.8	33	1
05/18/19	4:44 p	-22.7	-22.7	-22.7	20.0	ESE	0.33	23.5	-37.2	720.8	0.028	0.000	16.8	34	1
05/18/19	4:45 p	-22.7	-22.6	-22.7	20.0	ESE	0.33	22.6	-37.2	720.9	0.028	0.000	16.9	31	1
05/18/19	4:46 p	-22.6	-22.6	-22.6	20.0	ESE	0.33	22.6	-37.1	720.9	0.028	0.000	16.9	31	1
05/18/19	4:47 p	-22.6	-22.6	-22.6	19.1	ESE	0.32	21.7	-36.8	720.9	0.028	0.000	16.9	31	1
05/18/19	4:48 p	-22.6	-22.6	-22.6	20.0	ESE	0.33	22.6	-37.1	720.8	0.028	0.000	16.9	30	1
05/18/19	4:49 p	-22.6	-22.6	-22.6	19.1	ESE	0.32	21.7	-36.8	720.9	0.028	0.000	16.9	32	1
05/18/19	4:50 p	-22.6	-22.6	-22.6	18.3	ESE	0.30	20.9	-36.6	720.8	0.028	0.000	16.9	32	1
05/18/19	4:51 p	-22.6	-22.6	-22.6	20.0	ESE	0.33	20.9	-37.0	720.8	0.028	0.000	16.9	25	1
05/18/19	4:52 p	-22.6	-22.6	-22.6	20.0	ESE	0.33	20.9	-37.0	720.8	0.028	0.000	16.9	25	1
05/18/19	4:53 p	-22.6	-22.6	-22.6	17.4	ESE	0.29	19.1	-36.2	720.9	0.028	0.000	16.9	26	1
05/18/19	4:54 p	-22.6	-22.6	-22.6	20.9	ESE	0.35	22.6	-37.3	720.8	0.028	0.000	16.9	26	1
05/18/19	4:55 p	-22.6	-22.6	-22.6	18.3	ESE	0.30	23.5	-36.5	720.9	0.028	0.000	16.9	26	1
05/18/19	4:56 p	-22.6	-22.6	-22.6	17.4	ESE	0.29	19.1	-36.2	720.9	0.028	0.000	16.9	26	1
05/18/19	4:57 p	-22.6	-22.5	-22.6	18.3	ESE	0.30	22.6	-36.5	720.9	0.028	0.000	16.9	25	1
05/18/19	4:58 p	-22.5	-22.5	-22.6	19.1	SE	0.32	21.7	-36.7	721.0	0.028	0.000	16.9	26	1
05/18/19	4:59 p	-22.5	-22.4	-22.5	19.1	SE	0.32	21.7	-36.7	720.9	0.028	0.000	16.9	31	1
05/18/19	5:00 p	-22.5	-22.5	-22.5	17.4	ESE	0.29	20.0	-36.1	720.9	0.028	0.000	16.9	30	1
05/18/19	5:01 p	-22.4	-22.4	-22.5	16.5	ESE	0.28	20.9	-35.8	721.0	0.028	0.000	16.9	30	1
05/18/19	5:02 p	-22.5	-22.4	-22.5	16.5	ESE	0.28	20.0	-35.8	720.9	0.028	0.000	16.9	30	1
05/18/19	5:03 p	-22.4	-22.4	-22.5	17.4	ESE	0.29	20.0	-36.1	720.9	0.028	0.000	16.9	31	1
05/18/19	5:04 p	-22.4	-22.4	-22.4	18.3	ESE	0.30	19.1	-36.3	721.0	0.028	0.000	16.9	28	1
05/18/19	5:05 p	-22.4	-22.4	-22.4	19.1	ESE	0.32	22.6	-36.6	721.0	0.028	0.000	16.9	29	1
05/18/19	5:06 p	-22.4	-22.4	-22.4	16.5	SE	0.28	19.1	-35.7	721.0	0.028	0.000	16.9	31	1
05/18/19	5:07 p	-22.4	-22.4	-22.4	17.4	SE	0.29	20.9	-36.0	721.0	0.028	0.000	16.9	32	1
05/18/19	5:08 p	-22.4	-22.4	-22.4	17.4	SE	0.29	18.3	-36.0	721.0	0.028	0.000	16.9	32	1
05/18/19	5:09 p	-22.4	-22.3	-22.4	18.3	ESE	0.30	20.0	-36.3	721.1	0.028	0.000	16.9	32	1
05/18/19	5:10 p	-22.3	-22.3	-22.3	15.7	SE	0.26	18.3	-35.3	721.1	0.028	0.000	17.0	32	1
05/18/19	5:11 p	-22.3	-22.3	-22.3	15.7	SE	0.26	17.4	-35.3	721.1	0.028	0.000	17.0	32	1
05/18/19	5:12 p	-22.3	-22.3	-22.3	15.7	ESE	0.26	16.5	-35.3	721.1	0.028	0.000	17.0	32	1
05/18/19	5:13 p	-22.3	-22.3	-22.3	16.5	ESE	0.28	18.3	-35.6	721.0	0.028	0.000	17.0	32	1
05/18/19	5:14 p	-22.3	-22.3	-22.3	17.4	ESE	0.29	18.3	-35.9	721.0	0.028	0.000	17.0	31	1
05/18/19	5:15 p	-22.3	-22.3	-22.3	15.7	ESE	0.26	17.4	-35.3	721.0	0.028	0.000	17.0	31	1
05/18/19	5:16 p	-22.3	-22.2	-22.3	16.5	SE	0.28	18.3	-35.6	721.0	0.028	0.000	17.0	33	1
05/18/19	5:17 p	-22.3	-22.3	-22.3	14.8	SE	0.25	16.5	-34.9	721.1	0.028	0.000	17.0	33	1
05/18/19	5:18 p	-22.3	-22.3	-22.3	15.7	SE	0.26	17.4	-35.3	721.0	0.028	0.000	17.0	26	1
05/18/19	5:19 p	-22.3	-22.3	-22.3	15.7	SE	0.26	17.4	-35.3	721.0	0.028	0.000	17.0	30	1
05/18/19	5:20 p	-22.3	-22.3	-22.3	13.9	SE	0.23	14.8	-34.6	721.0	0.028	0.000	17.0	30	1
05/18/19	5:21 p	-22.3	-22.3	-22.3	17.4	SE	0.29	24.3	-35.9	721.0	0.028	0.000	17.0	30	1
05/18/19	5:22 p	-22.3	-22.3	-22.3	14.8	SE	0.25	18.3	-34.9	721.0	0.028	0.000	17.0	29	1
05/18/19	5:23 p	-22.3	-22.3	-22.3	17.4	SE	0.29	19.1	-35.9	721.0	0.028	0.000	17.0	27	1
05/18/19	5:24 p	-22.3	-22.3	-22.3	17.4	SE	0.29	18.3	-35.9	721.0	0.028	0.000	17.0	26	1
05/18/19	5:25 p	-22.3	-22.3	-22.3	15.7	SE	0.26	18.3	-35.3	721.0	0.028	0.000	17.0	26	1
05/18/19	5:26 p	-22.3	-22.3	-22.4	18.3	SE	0.30	21.7	-36.2	720.9	0.028	0.000	17.0	26	1
05/18/19	5:27 p	-22.3	-22.3	-22.3	15.7	SE	0.26	17.4	-35.3	721.0	0.028	0.000	17.0	25	1
05/18/19	5:28 p	-22.3	-22.3	-22.3	13.0	SE	0.22	16.5	-34.3	720.9	0.028	0.000	17.0	23	1
05/18/19	5:29 p	-22.3	-22.3	-22.3	16.5	SE	0.28	21.7	-35.6	720.9	0.028	0.000	17.0	23	1
05/18/19	5:30 p	-22.3	-22.3	-22.3	20.0	SE	0.33	23.5	-36.7	720.8	0.028	0.000	17.0	23	1
05/18/19	5:31 p	-22.3	-22.2	-22.3	18.3	SE	0.30	20.9	-36.1	720.9	0.028	0.000	17.1	23	1
05/18/19	5:32 p	-22.2	-22.2	-22.3	15.7	SE	0.26	19.1	-35.2	720.9	0.028	0.000	17.1	23	1
05/18/19	5:33 p	-22.2	-22.2	-22.2	15.7	SE	0.26	17.4	-35.2	720.9	0.028	0.000	17.1	22	1
05/18/19	5:34 p	-22.2	-22.1	-22.2	15.7	SE	0.26	17.4	-35.2	720.9	0.028	0.000	17.1	20	1
05/18/19	5:35 p	-22.2	-22.2	-22.2	14.8	SE	0.25	15.7	-34.8	720.9	0.028	0.000	17.1	26	1
05/18/19	5:36 p	-22.2	-22.1	-22.2	16.5	ESE	0.28	20.9	-35.4	720.7	0.028	0.000	17.1	28	1
05/18/19	5:37 p	-22.1	-22.1	-22.1	17.4	SE	0.29	19.1	-35.6	720.8	0.028	0.000	17.1	27	1
05/18/19	5:38 p	-22.1	-22.1	-22.1	15.7	SE	0.26	18.3	-35.1	720.8	0.028	0.000	17.1	23	1
05/18/19	5:39 p	-22.1	-22.1	-22.1	16.5	ESE	0.28	19.1	-35.3	720.7	0.028	0.000	17.1	31	1
05/18/19	5:40 p	-22.1	-22.1	-22.1	16.5	ESE	0.28	20.0	-35.3	720.8	0.028	0.000	17.1	20	1
05/18/19	5:41 p	-22.1	-22.0	-22.1	16.5	ESE	0.28	23.5	-35.3	720.8	0.028	0.000	17.1	20	1
05/18/19	5:42 p	-22.0	-22.0	-22.1	14.8	ESE	0.25	16.5	-34.6	720.8	0.028	0.000	17.1	21	1
05/18/19	5:43 p	-22.0	-22.0	-22.0	16.5	SE	0.28	19.1	-35.2	720.9	0.028	0.000	17.1	24	1
05/18/19	5:44 p	-22.0	-22.0	-22.0	15.7	SE	0.26	16.5	-34.9	720.9	0.028	0.000	17.1	28	1
05/18/19	5:45 p	-22.0	-21.9	-22.0	14.8	SE	0.25	17.4	-34.6	720.8	0.028	0.000	17.1	28	1
05/18/19	5:46 p	-22.0	-22.0	-22.0	15.7	ESE	0.26	16.5	-34.9	720.7	0.028	0.000	17.1	26	1
05/18/19	5:47 p	-22.0	-21.9	-22.0	16.5	ESE	0.28	17.4	-35.2	720.7	0.028	0.000	17.1	32	1
05/18/19	5:48 p	-22.0	-21.9	-22.0	16.5	ESE	0.28	19.1	-35.2	720.8	0.028	0.000	17.1	17	1
05/18/19	5:49 p	-22.0	-21.9	-22.0	15.7	SE	0.26	20.0	-34.9	720.8	0.028	0.000	17.1	17	1
05/18/19	5:50 p	-22.0	-21.9	-22.0	20.9	SE	0.35	22.6	-36.5	720.7	0.028	0.000	17.1	18	1
05/18/19	5:51 p	-22.0	-21.9	-22.0	19.1	SE	0.32	20.9	-36.0	720.8	0.028	0.000	17.1	18	1
05/18/19	5:52 p	-22.0	-21.9	-22.0	18.3	ESE	0.30	21.7	-35.8	720.6	0.028	0.000	17.1	23	1
05/18/19	5:53 p	-22.0	-22.0	-22.0	17.4	ESE	0.29	21.7	-35.5	720.7	0.028	0.000	17.1	31	1
05/18/19	5:54 p	-22.0	-22.0	-22.0	19.1	ESE	0.32	21.7	-36.0	720.7	0.028	0.000	17.1	24	1
05/18/19	5:55 p	-22.0	-22.0	-22.0	17.4	SE	0.29	21.7	-35.5	720.7	0.028	0.000	17.1	28	1
05/18/19	5:56 p	-22.0	-22.0	-22.0	16.5	ESE	0.28	19.1	-35.2	720.8	0.028	0.000	17.1	25	1
05/18/19	5:57 p	-22.0	-22.0	-22.0	17.4	SE	0.29	20.9	-35.5	720.9	0.028	0.000	17.1	31	1
05/18/19	5:58 p	-22.0	-22.0	-22.0	16.5	SE	0.28	18.3	-35.2	720.8	0.028	0.000	17.1	22	1
05/18/19	5:59 p	-22.0	-22.0	-22.0	17.4	SE	0.29	19.1	-35.5	720.7	0.028	0.000	17.1	21	1
05/18/19	6:00 p	-22.0	-22.0	-22.0	20.0	ESE	0.33	22.6	-36.3	720.8	0.028	0.000	17.1	28	1
05/18/19	6:01 p	-22.0	-21.9	-22.0	13.9	SE	0.23	16.5	-34.3	720.9	0.028	0.000	17.2	28	1
05/18/19	6:02 p	-21.9	-21.9	-22.0	17.4	SE	0.29	20.0	-35.4	720.9	0.028	0.000	17.2	28	1
05/18/19	6:03 p	-22.0	-21.9	-22.0	17.4	SE	0.29	20.0	-35.5	720.8	0.028	0.000	17.2	28	1
05/18/19	6:04 p	-22.0	-22.0	-22.0	19.1	SE	0.32	23.5	-36.0	720.7	0.028	0.000	17.2	28	1
05/18/19	6:05 p	-22.0	-22.0	-22.0	19.1	SE	0.32	22.6	-36.0	720.7	0.028	0.000	17.2	28	1
05/18/19	6:06 p	-22.0	-21.9	-22.0	18.3	SE	0.30	19.1	-35.8	720.6	0.028	0.000	17.2	29	1
05/18/19	6:07 p	-22.0	-22.0	-22.0	16.5	SE	0.28	18.3	-35.2	720.8	0.028	0.000	17.2	26	1
05/18/19	6:08 p	-22.0	-21.9	-22.0	17.4	SE	0.29	19.1	-35.5	720.8	0.028	0.000	17.2	32	1
05/18/19	6:09 p	-22.0	-21.9	-22.0	16.5	SE	0.28	17.4	-35.2	720.8	0.028	0.000	17.2	33	1
05/18/19	6:10 p	-22.0	-22.0	-22.0	17.4	ESE	0.29	20.0	-35.5	720.7	0.028	0.000	17.2	33	1
05/18/19	6:11 p	-22.0	-22.0	-22.0	18.3	SE	0.30	20.0	-35.8	720.7	0.028	0.000	17.2	34	1
05/18/19	6:12 p	-22.0	-22.0	-22.0	16.5	SE	0.28	17.4	-35.2	720.8	0.028	0.000	17.2	34	1
05/18/19	6:13 p	-22.0	-22.0	-22.1	17.4	SE	0.29	18.3	-35.5	720.7	0.028	0.000	17.2	34	1
05/18/19	6:14 p	-22.1	-22.1	-22.1	18.3	SE	0.30	19.1	-35.8	720.8	0.028	0.000	17.2	34	1
05/18/19	6:15 p	-22.1	-22.1	-22.1	17.4	ESE	0.29	18.3	-35.6	720.8	0.028	0.000	17.2	35	1
05/18/19	6:16 p	-22.1	-22.1	-22.1	16.5	SE	0.28	17.4	-35.3	720.8	0.028	0.000	17.2	35	1
05/18/19	6:17 p	-22.1	-22.1	-22.1	16.5	SE	0.28	18.3	-35.3	720.8	0.028	0.000	17.2	31	1
05/18/19	6:18 p	-22.1	-22.1	-22.2	17.4	SE	0.29	18.3	-35.6	720.8	0.028	0.000	17.2	33	1
05/18/19	6:19 p	-22.1	-22.1	-22.2	15.7	SE	0.26	17.4	-35.1	720.9	0.028	0.000	17.2	32	1
05/18/19	6:20 p	-22.2	-22.2	-22.2	13.9	SE	0.23	15.7	-34.4	720.9	0.028	0.000	17.2	32	1
05/18/19	6:21 p	-22.2	-22.2	-22.2	13.9	SE	0.23	14.8	-34.4	720.9	0.028	0.000	17.2	32	1
05/18/19	6:22 p	-22.2	-22.2	-22.2	14.8	SE	0.25	15.7	-34.9	720.8	0.028	0.000	17.2	31	1
05/18/19	6:23 p	-22.2	-22.2	-22.2	14.8	ESE	0.25	18.3	-34.9	720.8	0.028	0.000	17.2	24	1
05/18/19	6:24 p	-22.2	-22.2	-22.2	17.4	ESE	0.29	19.1	-35.8	720.8	0.028	0.000	17.2	21	1
05/18/19	6:25 p	-22.3	-22.2	-22.3	12.2	SE	0.20	15.7	-33.9	720.9	0.028	0.000	17.2	25	1
05/18/19	6:26 p	-22.2	-22.2	-22.3	13.9	SE	0.23	14.8	-34.6	721.0	0.028	0.000	17.2	25	1
05/18/19	6:27 p	-22.3	-22.2	-22.3	15.7	SE	0.26	19.1	-35.3	720.8	0.028	0.000	17.2	26	1
05/18/19	6:28 p	-22.3	-22.2	-22.3	16.5	SE	0.28	18.3	-35.6	720.8	0.028	0.000	17.2	22	1
05/18/19	6:29 p	-22.3	-22.2	-22.3	16.5	SE	0.28	18.3	-35.6	720.8	0.028	0.000	17.2	23	1
05/18/19	6:30 p	-22.3	-22.2	-22.3	15.7	SE	0.26	18.3	-35.3	720.8	0.028	0.000	17.3	23	1
05/18/19	6:31 p	-22.3	-22.2	-22.3	14.8	SE	0.25	15.7	-34.9	720.8	0.028	0.000	17.3	24	1
05/18/19	6:32 p	-22.3	-22.3	-22.3	16.5	SE	0.28	18.3	-35.6	720.8	0.028	0.000	17.3	25	1
05/18/19	6:33 p	-22.3	-22.2	-22.3	16.5	SE	0.28	20.0	-35.6	720.8	0.028	0.000	17.3	23	1
05/18/19	6:34 p	-22.2	-22.2	-22.2	18.3	SE	0.30	20.9	-36.1	720.7	0.028	0.000	17.3	24	1
05/18/19	6:35 p	-22.2	-22.2	-22.2	15.7	SE	0.26	20.0	-35.2	720.8	0.028	0.000	17.3	24	1
05/18/19	6:36 p	-22.2	-22.2	-22.2	15.7	SE	0.26	18.3	-35.2	720.8	0.028	0.000	17.3	24	1
05/18/19	6:37 p	-22.2	-22.2	-22.2	14.8	SE	0.25	18.3	-34.9	720.9	0.028	0.000	17.3	26	1
05/18/19	6:38 p	-22.2	-22.2	-22.2	11.3	SE	0.19	13.0	-33.4	720.8	0.028	0.000	17.3	27	1
05/18/19	6:39 p	-22.2	-22.2	-22.2	13.9	SE	0.23	16.5	-34.6	720.9	0.028	0.000	17.3	21	1
05/18/19	6:40 p	-22.2	-22.2	-22.2	14.8	SE	0.25	15.7	-34.8	720.8	0.028	0.000	17.3	22	1
05/18/19	6:41 p	-22.2	-22.1	-22.2	13.9	SE	0.23	15.7	-34.4	720.8	0.028	0.000	17.3	21	1
05/18/19	6:42 p	-22.2	-22.2	-22.2	16.5	SE	0.28	20.9	-35.4	720.7	0.028	0.000	17.3	20	1
05/18/19	6:43 p	-22.2	-22.2	-22.2	17.4	SE	0.29	19.1	-35.7	720.7	0.028	0.000	17.3	22	1
05/18/19	6:44 p	-22.2	-22.2	-22.2	17.4	SE	0.29	19.1	-35.7	720.6	0.028	0.000	17.3	22	1
05/18/19	6:45 p	-22.2	-22.1	-22.2	18.3	SE	0.30	21.7	-36.0	720.7	0.028	0.000	17.3	22	1
05/18/19	6:46 p	-22.1	-22.1	-22.2	15.7	SE	0.26	17.4	-35.1	720.8	0.028	0.000	17.3	22	1
05/18/19	6:47 p	-22.2	-22.1	-22.2	15.7	SE	0.26	16.5	-35.1	720.8	0.028	0.000	17.3	22	1
05/18/19	6:48 p	-22.2	-22.1	-22.2	15.7	SE	0.26	19.1	-35.1	720.7	0.028	0.000	17.3	32	1
05/18/19	6:49 p	-22.1	-22.1	-22.1	15.7	SE	0.26	18.3	-35.1	720.6	0.028	0.000	17.3	32	1
05/18/19	6:50 p	-22.1	-22.1	-22.1	13.9	ESE	0.23	16.5	-34.4	720.7	0.028	0.000	17.3	35	1
05/18/19	6:51 p	-22.1	-22.0	-22.1	17.4	SE	0.29	19.1	-35.6	720.7	0.028	0.000	17.3	26	1
05/18/19	6:52 p	-22.1	-22.1	-22.1	17.4	SE	0.29	19.1	-35.6	720.8	0.028	0.000	17.3	27	1
05/18/19	6:53 p	-22.1	-22.0	-22.1	17.4	SE	0.29	19.1	-35.6	720.8	0.028	0.000	17.3	27	1
05/18/19	6:54 p	-22.1	-22.0	-22.1	18.3	SE	0.30	19.1	-35.8	720.6	0.028	0.000	17.4	34	1
05/18/19	6:55 p	-22.1	-22.1	-22.1	18.3	SE	0.30	19.1	-35.8	720.6	0.028	0.000	17.3	33	1
05/18/19	6:56 p	-22.1	-22.1	-22.1	17.4	SE	0.29	19.1	-35.6	720.6	0.028	0.000	17.4	37	1
05/18/19	6:57 p	-22.1	-22.1	-22.1	17.4	SE	0.29	18.3	-35.6	720.6	0.028	0.000	17.4	38	1
05/18/19	6:58 p	-22.1	-22.1	-22.1	19.1	SE	0.32	20.9	-36.1	720.6	0.028	0.000	17.4	35	1
05/18/19	6:59 p	-22.1	-22.1	-22.1	19.1	SE	0.32	20.9	-36.1	720.7	0.028	0.000	17.4	30	1
05/18/19	7:00 p	-22.1	-22.1	-22.1	20.0	SE	0.33	20.9	-36.3	720.6	0.028	0.000	17.4	31	1
05/18/19	7:01 p	-22.1	-22.1	-22.1	19.1	SE	0.32	20.9	-36.2	720.5	0.028	0.000	17.4	29	1
05/18/19	7:02 p	-22.1	-22.1	-22.2	19.1	SE	0.32	20.9	-36.2	720.6	0.028	0.000	17.4	34	1
05/18/19	7:03 p	-22.2	-22.2	-22.2	18.3	SE	0.30	20.0	-36.0	720.6	0.028	0.000	17.4	27	1
05/18/19	7:04 p	-22.2	-22.2	-22.2	19.1	SE	0.32	20.9	-36.2	720.5	0.028	0.000	17.4	31	1
05/18/19	7:05 p	-22.2	-22.2	-22.2	20.0	SE	0.33	21.7	-36.5	720.5	0.028	0.000	17.4	32	1
05/18/19	7:07 p	-22.2	-22.2	-22.2	18.3	SE	0.30	19.1	-36.1	720.5	0.028	0.000	17.4	24	1
05/18/19	7:08 p	-22.2	-22.2	-22.3	18.3	SE	0.30	20.0	-36.1	720.5	0.028	0.000	17.4	34	1
05/18/19	7:09 p	-22.3	-22.2	-22.3	18.3	SE	0.30	19.1	-36.1	720.5	0.028	0.000	17.4	38	1
05/18/19	7:10 p	-22.3	-22.3	-22.3	18.3	SE	0.30	20.0	-36.1	720.5	0.028	0.000	17.4	33	1
05/18/19	7:11 p	-22.3	-22.3	-22.3	17.4	SE	0.29	19.1	-35.8	720.6	0.028	0.000	17.4	33	1
05/18/19	7:12 p	-22.3	-22.2	-22.3	18.3	SE	0.30	20.0	-36.1	720.6	0.028	0.000	17.4	33	1
05/18/19	7:13 p	-22.3	-22.3	-22.3	17.4	SE	0.29	20.0	-35.8	720.6	0.028	0.000	17.4	32	1
05/18/19	7:14 p	-22.3	-22.3	-22.3	16.5	ESE	0.28	18.3	-35.6	720.6	0.028	0.000	17.4	36	1
05/18/19	7:15 p	-22.3	-22.3	-22.3	16.5	ESE	0.28	18.3	-35.6	720.6	0.028	0.000	17.4	31	1
05/18/19	7:16 p	-22.3	-22.3	-22.3	19.1	SE	0.32	23.5	-36.4	720.6	0.028	0.000	17.4	33	1
05/18/19	7:17 p	-22.3	-22.3	-22.3	15.7	SE	0.26	17.4	-35.3	720.7	0.028	0.000	17.4	35	1
05/18/19	7:18 p	-22.3	-22.3	-22.3	16.5	SE	0.28	20.0	-35.6	720.7	0.028	0.000	17.4	34	1
05/18/19	7:19 p	-22.3	-22.3	-22.3	15.7	SE	0.26	19.1	-35.3	720.7	0.028	0.000	17.4	31	1
05/18/19	7:20 p	-22.3	-22.3	-22.3	16.5	SE	0.28	20.0	-35.6	720.6	0.028	0.000	17.4	32	1
05/18/19	7:21 p	-22.3	-22.3	-22.4	18.3	SE	0.30	20.9	-36.2	720.5	0.028	0.000	17.5	26	1
05/18/19	7:22 p	-22.4	-22.3	-22.4	20.0	ESE	0.33	24.3	-36.8	720.5	0.028	0.000	17.4	28	1
05/18/19	7:23 p	-22.4	-22.3	-22.4	16.5	ESE	0.28	20.9	-35.7	720.6	0.028	0.000	17.4	28	1
05/18/19	7:24 p	-22.3	-22.3	-22.4	13.9	SE	0.23	16.5	-34.7	720.5	0.028	0.000	17.5	30	1
05/18/19	7:25 p	-22.4	-22.3	-22.4	16.5	SE	0.28	17.4	-35.7	720.5	0.028	0.000	17.5	37	1
05/18/19	7:26 p	-22.3	-22.3	-22.3	19.1	SE	0.32	20.9	-36.4	720.5	0.028	0.000	17.5	37	1
05/18/19	7:27 p	-22.4	-22.3	-22.4	18.3	SE	0.30	20.0	-36.3	720.5	0.028	0.000	17.5	37	1
05/18/19	7:28 p	-22.4	-22.3	-22.4	20.0	SE	0.33	25.2	-36.8	720.3	0.028	0.000	17.5	36	1
05/18/19	7:29 p	-22.4	-22.3	-22.4	17.4	SE	0.29	20.0	-36.0	720.5	0.028	0.000	17.5	36	1
05/18/19	7:30 p	-22.4	-22.4	-22.4	17.4	SE	0.29	20.0	-36.0	720.5	0.028	0.000	17.5	36	1
05/18/19	7:31 p	-22.3	-22.3	-22.4	17.4	SE	0.29	17.4	-35.9	720.6	0.028	0.000	17.5	36	1
05/18/19	7:32 p	-22.4	-22.3	-22.4	17.4	SE	0.29	20.0	-36.0	720.6	0.028	0.000	17.5	36	1
05/18/19	7:33 p	-22.3	-22.3	-22.4	18.3	SE	0.30	20.0	-36.2	720.5	0.028	0.000	17.5	35	1
05/18/19	7:34 p	-22.4	-22.3	-22.4	17.4	SE	0.29	19.1	-36.0	720.5	0.028	0.000	17.5	35	1
05/18/19	7:35 p	-22.4	-22.3	-22.4	17.4	SE	0.29	20.0	-36.0	720.5	0.028	0.000	17.5	35	1
05/18/19	7:36 p	-22.4	-22.4	-22.4	18.3	SE	0.30	22.6	-36.3	720.6	0.028	0.000	17.5	35	1
05/18/19	7:37 p	-22.4	-22.3	-22.4	17.4	SE	0.29	18.3	-36.0	720.5	0.028	0.000	17.5	36	1
05/18/19	7:38 p	-22.4	-22.3	-22.4	20.9	SE	0.35	23.5	-37.1	720.4	0.028	0.000	17.5	34	1
05/18/19	7:39 p	-22.4	-22.4	-22.4	20.0	SE	0.33	25.2	-36.8	720.4	0.028	0.000	17.5	36	1
05/18/19	7:40 p	-22.4	-22.4	-22.4	19.1	SE	0.32	20.9	-36.6	720.5	0.028	0.000	17.5	34	1
05/18/19	7:41 p	-22.4	-22.4	-22.4	20.0	SE	0.33	21.7	-36.9	720.4	0.028	0.000	17.5	37	1
05/18/19	7:42 p	-22.4	-22.4	-22.4	20.0	SE	0.33	21.7	-36.9	720.4	0.028	0.000	17.6	21	1
05/18/19	7:43 p	-22.4	-22.4	-22.4	20.9	SE	0.35	23.5	-37.1	720.4	0.028	0.000	17.6	22	1
05/18/19	7:44 p	-22.4	-22.4	-22.4	20.0	SE	0.33	20.9	-36.9	720.5	0.028	0.000	17.6	23	1
05/18/19	7:45 p	-22.4	-22.4	-22.4	20.0	SE	0.33	20.9	-36.9	720.4	0.028	0.000	17.6	35	1
05/18/19	7:46 p	-22.4	-22.4	-22.4	20.9	ESE	0.35	21.7	-37.1	720.4	0.028	0.000	17.6	35	1
05/18/19	7:47 p	-22.4	-22.4	-22.5	20.0	SE	0.33	23.5	-36.9	720.5	0.028	0.000	17.6	35	1
05/18/19	7:48 p	-22.4	-22.4	-22.5	20.0	SE	0.33	23.5	-36.9	720.3	0.028	0.000	17.6	38	1
05/18/19	7:49 p	-22.4	-22.4	-22.5	20.0	SE	0.33	21.7	-36.9	720.4	0.028	0.000	17.6	35	1
05/18/19	7:50 p	-22.5	-22.5	-22.5	20.9	SE	0.35	21.7	-37.2	720.4	0.028	0.000	17.6	35	1
05/18/19	7:51 p	-22.5	-22.4	-22.5	20.0	SE	0.33	21.7	-36.9	720.4	0.028	0.000	17.6	36	1
05/18/19	7:52 p	-22.5	-22.5	-22.5	20.9	SE	0.35	23.5	-37.2	720.4	0.028	0.000	17.6	32	1
05/18/19	7:53 p	-22.6	-22.5	-22.6	20.9	SE	0.35	21.7	-37.3	720.4	0.028	0.000	17.6	21	1
05/18/19	7:54 p	-22.6	-22.5	-22.6	19.1	SE	0.32	20.9	-36.8	720.4	0.028	0.000	17.6	36	1
05/18/19	7:55 p	-22.6	-22.6	-22.6	20.9	SE	0.35	21.7	-37.3	720.3	0.028	0.000	17.6	35	1
05/18/19	7:56 p	-22.6	-22.6	-22.6	21.7	SE	0.36	23.5	-37.5	720.3	0.028	0.000	17.6	33	1
05/18/19	7:57 p	-22.6	-22.6	-22.6	23.5	SE	0.39	26.1	-38.0	720.2	0.028	0.000	17.6	36	1
05/18/19	7:58 p	-22.6	-22.6	-22.7	22.6	SE	0.38	23.5	-37.8	720.3	0.028	0.000	17.6	38	1
05/18/19	7:59 p	-22.6	-22.6	-22.7	21.7	SE	0.36	23.5	-37.6	720.3	0.028	0.000	17.6	36	1
05/18/19	8:00 p	-22.7	-22.7	-22.7	22.6	SE	0.38	25.2	-37.9	720.3	0.028	0.000	17.6	35	1
05/18/19	8:01 p	-22.7	-22.7	-22.7	21.7	SE	0.36	22.6	-37.7	720.3	0.028	0.000	17.6	35	1
05/18/19	8:02 p	-22.7	-22.6	-22.7	20.9	SE	0.35	21.7	-37.4	720.2	0.028	0.000	17.7	38	1
05/18/19	8:03 p	-22.7	-22.7	-22.7	24.3	SE	0.41	27.0	-38.4	720.2	0.029	0.000	17.6	38	1
05/18/19	8:04 p	-22.7	-22.7	-22.7	21.7	SE	0.36	22.6	-37.7	720.3	0.028	0.000	17.7	35	1
05/18/19	8:05 p	-22.7	-22.7	-22.7	20.9	SE	0.35	23.5	-37.4	720.3	0.028	0.000	17.7	38	1
05/18/19	8:06 p	-22.7	-22.7	-22.7	22.6	SE	0.38	26.1	-37.9	720.3	0.029	0.000	17.7	40	1
05/18/19	8:07 p	-22.7	-22.7	-22.7	21.7	SE	0.36	24.3	-37.7	720.4	0.029	0.000	17.7	37	1
05/18/19	8:08 p	-22.7	-22.7	-22.7	22.6	SE	0.38	25.2	-37.9	720.2	0.029	0.000	17.7	37	1
05/18/19	8:09 p	-22.8	-22.7	-22.8	21.7	SE	0.36	25.2	-37.8	720.2	0.029	0.000	17.7	38	1
05/18/19	8:10 p	-22.8	-22.7	-22.8	22.6	SE	0.38	25.2	-38.0	720.2	0.029	0.000	17.7	38	1
05/18/19	8:11 p	-22.8	-22.7	-22.8	21.7	SE	0.36	24.3	-37.8	720.3	0.029	0.000	17.7	38	1
05/18/19	8:12 p	-22.7	-22.7	-22.8	23.5	SE	0.39	25.2	-38.2	720.3	0.029	0.000	17.7	37	1
05/18/19	8:13 p	-22.8	-22.7	-22.8	21.7	SE	0.36	25.2	-37.8	720.3	0.029	0.000	17.7	38	1
05/18/19	8:14 p	-22.7	-22.7	-22.8	21.7	SE	0.36	24.3	-37.7	720.3	0.029	0.000	17.7	38	1
05/18/19	8:15 p	-22.7	-22.7	-22.7	21.7	SE	0.36	25.2	-37.7	720.3	0.029	0.000	17.7	38	1
05/18/19	8:16 p	-22.7	-22.7	-22.7	22.6	SE	0.38	26.1	-37.9	720.1	0.029	0.000	17.7	37	1
05/18/19	8:17 p	-22.7	-22.7	-22.8	20.0	SE	0.33	21.7	-37.2	720.2	0.029	0.000	17.7	38	1
05/18/19	8:18 p	-22.7	-22.7	-22.7	21.7	SE	0.36	23.5	-37.7	720.2	0.029	0.000	17.7	38	1
05/18/19	8:19 p	-22.7	-22.7	-22.7	22.6	SE	0.38	25.2	-37.9	720.2	0.029	0.000	17.7	38	1
05/18/19	8:20 p	-22.7	-22.7	-22.7	22.6	SE	0.38	25.2	-37.9	720.2	0.029	0.000	17.7	38	1
05/18/19	8:21 p	-22.7	-22.7	-22.7	22.6	SE	0.38	24.3	-37.9	720.1	0.029	0.000	17.7	38	1
05/18/19	8:22 p	-22.7	-22.7	-22.7	20.9	SE	0.35	23.5	-37.5	720.2	0.029	0.000	17.7	39	1
05/18/19	8:23 p	-22.7	-22.7	-22.7	22.6	SE	0.38	23.5	-37.9	720.2	0.029	0.000	17.7	36	1
05/18/19	8:24 p	-22.7	-22.7	-22.7	22.6	SE	0.38	24.3	-37.9	720.1	0.029	0.000	17.7	36	1
05/18/19	8:25 p	-22.7	-22.7	-22.7	22.6	SE	0.38	23.5	-37.9	720.1	0.029	0.000	17.7	35	1
05/18/19	8:26 p	-22.7	-22.7	-22.7	23.5	SE	0.39	24.3	-38.2	720.1	0.029	0.000	17.7	34	1
05/18/19	8:27 p	-22.7	-22.7	-22.8	23.5	SE	0.39	24.3	-38.2	720.1	0.029	0.000	17.7	34	1
05/18/19	8:28 p	-22.8	-22.7	-22.8	24.3	SE	0.41	26.1	-38.4	720.0	0.029	0.000	17.7	34	1
05/18/19	8:29 p	-22.8	-22.7	-22.8	23.5	SE	0.39	24.3	-38.2	720.1	0.029	0.000	17.7	36	1
05/18/19	8:30 p	-22.8	-22.7	-22.8	23.5	SE	0.39	24.3	-38.2	720.1	0.029	0.000	17.7	36	1
05/18/19	8:31 p	-22.8	-22.8	-22.8	23.5	SE	0.39	24.3	-38.2	720.1	0.029	0.000	17.7	37	1
05/18/19	8:32 p	-22.8	-22.8	-22.8	21.7	SE	0.36	23.5	-37.8	720.1	0.029	0.000	17.7	35	1
05/18/19	8:33 p	-22.8	-22.8	-22.8	22.6	SE	0.38	25.2	-38.0	720.1	0.029	0.000	17.7	36	1
05/18/19	8:34 p	-22.8	-22.8	-22.8	23.5	SE	0.39	24.3	-38.3	720.1	0.029	0.000	17.7	36	1
05/18/19	8:35 p	-22.8	-22.8	-22.8	23.5	SE	0.39	26.1	-38.3	720.0	0.029	0.000	17.7	37	1
05/18/19	8:36 p	-22.8	-22.8	-22.9	22.6	SE	0.38	24.3	-38.1	720.1	0.029	0.000	17.7	36	1
05/18/19	8:37 p	-22.9	-22.8	-22.9	22.6	SE	0.38	25.2	-38.2	720.1	0.029	0.000	17.7	36	1
05/18/19	8:38 p	-22.9	-22.8	-22.9	23.5	SE	0.39	25.2	-38.4	720.1	0.029	0.000	17.7	35	1
05/18/19	8:39 p	-22.9	-22.8	-22.9	23.5	SE	0.39	24.3	-38.4	720.1	0.029	0.000	17.8	36	1
05/18/19	8:40 p	-22.9	-22.9	-22.9	24.3	SE	0.41	26.1	-38.6	720.0	0.029	0.000	17.7	35	1
05/18/19	8:41 p	-22.9	-22.9	-22.9	24.3	SE	0.41	28.7	-38.6	720.1	0.029	0.000	17.7	34	1
05/18/19	8:42 p	-22.9	-22.9	-22.9	23.5	SE	0.39	25.2	-38.5	720.0	0.029	0.000	17.8	35	1
05/18/19	8:43 p	-22.9	-22.9	-22.9	23.5	SE	0.39	25.2	-38.5	720.0	0.029	0.000	17.7	35	1
05/18/19	8:44 p	-22.9	-22.9	-22.9	24.3	SE	0.41	26.1	-38.7	720.0	0.029	0.000	17.8	35	1
05/18/19	8:45 p	-22.9	-22.9	-22.9	27.0	SE	0.45	28.7	-39.3	719.9	0.029	0.000	17.8	35	1
05/18/19	8:46 p	-22.9	-22.9	-22.9	25.2	SE	0.42	27.8	-38.9	719.9	0.029	0.000	17.8	35	1
05/18/19	8:47 p	-22.9	-22.9	-22.9	24.3	SE	0.41	27.8	-38.7	719.9	0.029	0.000	17.8	35	1
05/18/19	8:48 p	-22.9	-22.9	-22.9	25.2	SE	0.42	27.0	-38.9	720.0	0.029	0.000	17.8	35	1
05/18/19	8:49 p	-22.9	-22.9	-22.9	25.2	SE	0.42	27.0	-38.9	719.9	0.029	0.000	17.8	36	1
05/18/19	8:50 p	-22.9	-22.9	-22.9	26.1	SE	0.43	27.8	-39.1	719.9	0.029	0.000	17.8	36	1
05/18/19	8:51 p	-22.9	-22.9	-22.9	27.0	SE	0.45	30.4	-39.3	719.8	0.029	0.000	17.8	36	1
05/18/19	8:52 p	-22.9	-22.9	-22.9	27.0	SE	0.45	29.6	-39.3	719.8	0.029	0.000	17.8	36	1
05/18/19	8:53 p	-22.9	-22.9	-22.9	28.7	SE	0.48	33.0	-39.7	719.6	0.029	0.000	17.8	36	1
05/18/19	8:54 p	-22.9	-22.9	-22.9	28.7	SE	0.48	33.0	-39.6	719.7	0.029	0.000	17.8	35	1
05/18/19	8:55 p	-22.9	-22.9	-22.9	28.7	SE	0.48	31.3	-39.6	719.7	0.029	0.000	17.8	37	1
05/18/19	8:56 p	-22.9	-22.9	-22.9	28.7	SE	0.48	31.3	-39.6	719.8	0.029	0.000	17.8	35	1
05/18/19	8:57 p	-22.9	-22.8	-22.9	26.1	SE	0.43	28.7	-39.1	719.9	0.029	0.000	17.8	38	1
05/18/19	8:58 p	-22.8	-22.8	-22.8	26.1	SE	0.43	28.7	-38.9	719.9	0.029	0.000	17.8	38	1
05/18/19	8:59 p	-22.8	-22.8	-22.8	25.2	SE	0.42	27.8	-38.8	719.9	0.029	0.000	17.8	35	1
05/18/19	9:00 p	-22.8	-22.8	-22.8	25.2	SE	0.42	27.8	-38.7	720.0	0.029	0.000	17.8	38	1
05/18/19	9:01 p	-22.8	-22.8	-22.8	26.1	SE	0.43	27.8	-38.9	719.9	0.029	0.000	17.8	38	1
05/18/19	9:02 p	-22.7	-22.7	-22.8	25.2	SE	0.42	27.8	-38.6	719.9	0.029	0.000	17.8	39	1
05/18/19	9:03 p	-22.7	-22.7	-22.7	23.5	SE	0.39	26.1	-38.2	719.9	0.029	0.000	17.8	38	1
05/18/19	9:04 p	-22.7	-22.7	-22.7	25.2	SE	0.42	28.7	-38.6	719.8	0.029	0.000	17.8	38	1
05/18/19	9:05 p	-22.7	-22.7	-22.7	25.2	SE	0.42	28.7	-38.5	719.9	0.028	0.000	17.8	38	1
05/18/19	9:06 p	-22.6	-22.6	-22.7	25.2	SE	0.42	27.8	-38.4	719.9	0.028	0.000	17.8	41	1
05/18/19	9:07 p	-22.6	-22.6	-22.6	26.1	SE	0.43	27.8	-38.7	720.0	0.028	0.000	17.8	41	1
05/18/19	9:08 p	-22.6	-22.6	-22.7	25.2	SE	0.42	28.7	-38.4	719.9	0.028	0.000	17.8	41	1
05/18/19	9:09 p	-22.7	-22.6	-22.7	23.5	SE	0.39	25.2	-38.1	720.0	0.028	0.000	17.8	41	1
05/18/19	9:10 p	-22.7	-22.6	-22.7	22.6	SE	0.38	24.3	-37.9	720.0	0.028	0.000	17.8	43	1
05/18/19	9:11 p	-22.7	-22.6	-22.7	22.6	SE	0.38	25.2	-37.9	720.0	0.028	0.000	17.8	43	1
05/18/19	9:12 p	-22.6	-22.6	-22.7	23.5	SE	0.39	26.1	-38.0	720.0	0.028	0.000	17.8	44	1
05/18/19	9:13 p	-22.7	-22.7	-22.7	23.5	SE	0.39	24.3	-38.1	720.0	0.028	0.000	17.8	44	1
05/18/19	9:14 p	-22.7	-22.7	-22.7	24.3	SE	0.41	27.0	-38.3	719.9	0.028	0.000	17.8	44	1
05/18/19	9:15 p	-22.7	-22.7	-22.7	24.3	SE	0.41	26.1	-38.3	720.0	0.028	0.000	17.8	44	1
05/18/19	9:16 p	-22.7	-22.6	-22.7	23.5	SE	0.39	26.1	-38.1	720.0	0.028	0.000	17.8	44	1
05/18/19	9:17 p	-22.7	-22.6	-22.7	26.1	SE	0.43	29.6	-38.7	719.8	0.028	0.000	17.8	43	1
05/18/19	9:18 p	-22.7	-22.7	-22.7	25.2	SE	0.42	27.8	-38.5	719.9	0.028	0.000	17.8	43	1
05/18/19	9:19 p	-22.7	-22.6	-22.7	23.5	SE	0.39	26.1	-38.1	719.9	0.028	0.000	17.8	44	1
05/18/19	9:20 p	-22.7	-22.7	-22.7	23.5	SE	0.39	26.1	-38.1	719.9	0.028	0.000	17.8	45	1
05/18/19	9:21 p	-22.6	-22.6	-22.7	23.5	SE	0.39	25.2	-38.0	719.8	0.028	0.000	17.8	43	1
05/18/19	9:22 p	-22.7	-22.6	-22.7	23.5	SE	0.39	26.1	-38.1	719.9	0.028	0.000	17.8	36	1
05/18/19	9:23 p	-22.7	-22.7	-22.7	22.6	SE	0.38	25.2	-37.9	719.9	0.028	0.000	17.8	36	1
05/18/19	9:24 p	-22.7	-22.7	-22.7	22.6	SE	0.38	26.1	-37.9	720.0	0.028	0.000	17.8	36	1
05/18/19	9:25 p	-22.7	-22.7	-22.7	23.5	SE	0.39	24.3	-38.1	720.0	0.028	0.000	17.8	36	1
05/18/19	9:26 p	-22.7	-22.6	-22.7	22.6	SE	0.38	26.1	-37.9	720.0	0.028	0.000	17.8	37	1
05/18/19	9:27 p	-22.6	-22.6	-22.7	25.2	SE	0.42	26.1	-38.4	719.9	0.028	0.000	17.8	37	1
05/18/19	9:28 p	-22.6	-22.6	-22.7	25.2	SE	0.42	27.0	-38.4	719.9	0.028	0.000	17.8	37	1
05/18/19	9:29 p	-22.6	-22.6	-22.7	24.3	SE	0.41	26.1	-38.2	720.0	0.028	0.000	17.8	37	1
05/18/19	9:30 p	-22.7	-22.6	-22.7	24.3	SE	0.41	27.0	-38.3	719.9	0.028	0.000	17.8	37	1
05/18/19	9:31 p	-22.6	-22.6	-22.6	25.2	SE	0.42	27.0	-38.4	720.0	0.028	0.000	17.8	37	1
05/18/19	9:32 p	-22.6	-22.6	-22.6	24.3	SE	0.41	26.1	-38.2	720.0	0.028	0.000	17.8	37	1
05/18/19	9:33 p	-22.6	-22.6	-22.6	25.2	SE	0.42	27.0	-38.4	720.0	0.028	0.000	17.9	37	1
05/18/19	9:34 p	-22.6	-22.6	-22.6	25.2	SE	0.42	27.0	-38.4	720.0	0.028	0.000	17.9	37	1
05/18/19	9:35 p	-22.6	-22.6	-22.6	25.2	SE	0.42	27.8	-38.4	719.9	0.028	0.000	17.9	37	1
05/18/19	9:36 p	-22.6	-22.6	-22.6	26.1	SE	0.43	27.8	-38.7	719.9	0.028	0.000	17.9	37	1
05/18/19	9:37 p	-22.6	-22.6	-22.6	26.1	SE	0.43	27.8	-38.7	719.9	0.028	0.000	17.9	37	1
05/18/19	9:38 p	-22.6	-22.6	-22.6	25.2	SE	0.42	27.0	-38.4	719.9	0.028	0.000	17.9	37	1
05/18/19	9:39 p	-22.6	-22.6	-22.7	25.2	SE	0.42	27.0	-38.4	719.9	0.028	0.000	17.9	37	1
05/18/19	9:40 p	-22.6	-22.6	-22.7	25.2	SE	0.42	27.0	-38.4	719.9	0.028	0.000	17.9	37	1
05/18/19	9:41 p	-22.6	-22.6	-22.7	24.3	SE	0.41	26.1	-38.2	720.0	0.028	0.000	17.9	37	1
05/18/19	9:42 p	-22.6	-22.6	-22.7	23.5	SE	0.39	25.2	-38.0	719.9	0.028	0.000	17.9	37	1
05/18/19	9:43 p	-22.6	-22.6	-22.7	24.3	SE	0.41	26.1	-38.2	720.0	0.028	0.000	17.9	37	1
05/18/19	9:44 p	-22.7	-22.6	-22.7	23.5	SE	0.39	24.3	-38.1	720.0	0.028	0.000	17.9	37	1
05/18/19	9:45 p	-22.6	-22.6	-22.7	22.6	SE	0.38	24.3	-37.8	720.1	0.028	0.000	17.9	37	1
05/18/19	9:46 p	-22.7	-22.6	-22.7	22.6	SE	0.38	24.3	-37.9	720.0	0.028	0.000	17.9	36	1
05/18/19	9:47 p	-22.7	-22.6	-22.7	21.7	SE	0.36	23.5	-37.7	720.1	0.028	0.000	17.9	37	1
05/18/19	9:48 p	-22.7	-22.6	-22.7	22.6	SE	0.38	25.2	-37.9	720.0	0.028	0.000	17.9	37	1
05/18/19	9:49 p	-22.7	-22.7	-22.7	24.3	SE	0.41	27.0	-38.3	720.0	0.028	0.000	17.9	38	1
05/18/19	9:50 p	-22.7	-22.7	-22.7	23.5	SE	0.39	27.8	-38.1	719.9	0.028	0.000	17.9	38	1
05/18/19	9:51 p	-22.7	-22.7	-22.7	23.5	ESE	0.39	24.3	-38.1	719.9	0.028	0.000	17.9	38	1
05/18/19	9:52 p	-22.7	-22.7	-22.7	24.3	SE	0.41	28.7	-38.3	719.9	0.028	0.000	17.9	35	1
05/18/19	9:53 p	-22.7	-22.7	-22.7	25.2	SE	0.42	27.0	-38.5	719.8	0.028	0.000	17.9	35	1
05/18/19	9:54 p	-22.7	-22.7	-22.7	24.3	SE	0.41	26.1	-38.3	719.9	0.028	0.000	17.9	36	1
05/18/19	9:55 p	-22.7	-22.7	-22.7	25.2	SE	0.42	27.0	-38.5	719.9	0.028	0.000	17.9	36	1
05/18/19	9:56 p	-22.7	-22.7	-22.7	21.7	SE	0.36	23.5	-37.7	720.0	0.028	0.000	17.9	36	1
05/18/19	9:57 p	-22.7	-22.7	-22.7	21.7	SE	0.36	23.5	-37.7	719.9	0.029	0.000	17.9	37	1
05/18/19	9:58 p	-22.7	-22.7	-22.7	22.6	SE	0.38	25.2	-37.9	719.9	0.029	0.000	17.9	38	1
05/18/19	9:59 p	-22.7	-22.7	-22.7	23.5	SE	0.39	25.2	-38.2	719.9	0.029	0.000	17.9	38	1
05/18/19	10:00 p	-22.7	-22.7	-22.7	22.6	ESE	0.38	27.0	-37.9	719.8	0.029	0.000	17.9	38	1
05/18/19	10:01 p	-22.7	-22.7	-22.7	25.2	ESE	0.42	30.4	-38.6	719.7	0.029	0.000	17.9	39	1
05/18/19	10:02 p	-22.7	-22.7	-22.7	25.2	ESE	0.42	27.8	-38.6	719.8	0.029	0.000	17.9	36	1
05/18/19	10:03 p	-22.7	-22.7	-22.7	26.1	ESE	0.43	31.3	-38.8	719.7	0.029	0.000	17.9	36	1
05/18/19	10:04 p	-22.7	-22.7	-22.8	22.6	SE	0.38	27.0	-37.9	719.8	0.029	0.000	17.9	36	1
05/18/19	10:05 p	-22.7	-22.7	-22.8	21.7	SE	0.36	25.2	-37.7	719.9	0.029	0.000	17.9	36	1
05/18/19	10:06 p	-22.8	-22.7	-22.8	21.7	SE	0.36	27.8	-37.8	719.8	0.029	0.000	17.9	40	1
05/18/19	10:07 p	-22.8	-22.7	-22.8	21.7	ESE	0.36	25.2	-37.8	719.9	0.029	0.000	17.9	36	1
05/18/19	10:08 p	-22.7	-22.7	-22.8	24.3	ESE	0.41	27.0	-38.4	719.8	0.029	0.000	17.9	36	1
05/18/19	10:09 p	-22.7	-22.7	-22.8	21.7	ESE	0.36	25.2	-37.7	719.9	0.029	0.000	17.9	36	1
05/18/19	10:10 p	-22.7	-22.7	-22.8	20.9	SE	0.35	22.6	-37.5	719.9	0.029	0.000	17.9	37	1
05/18/19	10:11 p	-22.8	-22.7	-22.8	20.9	ESE	0.35	24.3	-37.6	720.0	0.029	0.000	17.9	37	1
05/18/19	10:12 p	-22.8	-22.8	-22.8	20.0	SE	0.33	22.6	-37.3	720.0	0.029	0.000	17.9	36	1
05/18/19	10:13 p	-22.8	-22.7	-22.8	20.0	ESE	0.33	24.3	-37.3	719.8	0.029	0.000	17.9	36	1
05/18/19	10:14 p	-22.8	-22.7	-22.8	20.0	SE	0.33	23.5	-37.3	720.0	0.029	0.000	17.9	36	1
05/18/19	10:15 p	-22.8	-22.8	-22.8	19.1	ESE	0.32	22.6	-37.1	719.9	0.029	0.000	17.9	37	1
05/18/19	10:16 p	-22.8	-22.8	-22.8	19.1	ESE	0.32	20.9	-37.1	720.0	0.029	0.000	17.9	37	1
05/18/19	10:17 p	-22.8	-22.7	-22.8	20.9	SE	0.35	22.6	-37.6	720.1	0.029	0.000	17.9	37	1
05/18/19	10:18 p	-22.8	-22.7	-22.8	19.1	ESE	0.32	21.7	-37.1	720.0	0.029	0.000	17.9	37	1
05/18/19	10:19 p	-22.8	-22.8	-22.8	19.1	SE	0.32	21.7	-37.1	720.0	0.029	0.000	17.9	37	1
05/18/19	10:20 p	-22.8	-22.8	-22.8	19.1	SE	0.32	21.7	-37.1	720.0	0.029	0.000	17.9	37	1
05/18/19	10:21 p	-22.8	-22.8	-22.8	20.0	ESE	0.33	23.5	-37.3	719.9	0.029	0.000	17.9	41	1
05/18/19	10:22 p	-22.8	-22.7	-22.8	21.7	ESE	0.36	22.6	-37.8	719.9	0.029	0.000	17.9	41	1
05/18/19	10:23 p	-22.8	-22.7	-22.8	18.3	SE	0.30	21.7	-36.8	719.9	0.029	0.000	17.9	41	1
05/18/19	10:24 p	-22.8	-22.8	-22.8	23.5	ESE	0.39	26.1	-38.2	719.9	0.029	0.000	17.9	39	1
05/18/19	10:25 p	-22.8	-22.8	-22.8	20.9	ESE	0.35	22.6	-37.6	720.0	0.029	0.000	17.9	39	1
05/18/19	10:26 p	-22.8	-22.7	-22.8	19.1	ESE	0.32	23.5	-37.1	720.0	0.029	0.000	17.9	41	1
05/18/19	10:27 p	-22.8	-22.7	-22.8	23.5	ESE	0.39	31.3	-38.2	719.8	0.029	0.000	17.9	43	1
05/18/19	10:28 p	-22.8	-22.8	-22.8	21.7	SE	0.36	24.3	-37.8	719.9	0.029	0.000	17.9	35	1
05/18/19	10:29 p	-22.8	-22.7	-22.8	18.3	SE	0.30	24.3	-36.8	720.0	0.029	0.000	17.9	36	1
05/18/19	10:30 p	-22.8	-22.7	-22.8	20.0	SE	0.33	25.2	-37.3	720.0	0.029	0.000	17.9	37	1
05/18/19	10:31 p	-22.7	-22.7	-22.8	18.3	SE	0.30	26.1	-36.7	720.1	0.029	0.000	17.9	37	1
05/18/19	10:32 p	-22.7	-22.7	-22.7	21.7	SE	0.36	28.7	-37.7	719.9	0.029	0.000	17.9	38	1
05/18/19	10:33 p	-22.7	-22.7	-22.7	26.1	SSE	0.43	27.8	-38.7	719.8	0.028	0.000	17.9	37	1
05/18/19	10:34 p	-22.7	-22.7	-22.7	24.3	SSE	0.41	27.0	-38.3	720.0	0.028	0.000	17.9	37	1
05/18/19	10:35 p	-22.6	-22.6	-22.7	20.0	SE	0.33	25.2	-37.1	720.1	0.028	0.000	17.9	34	1
05/18/19	10:36 p	-22.6	-22.6	-22.6	20.0	SE	0.33	21.7	-37.1	720.0	0.028	0.000	17.9	37	1
05/18/19	10:37 p	-22.6	-22.5	-22.6	19.1	SE	0.32	23.5	-36.8	720.1	0.028	0.000	17.9	37	1
05/18/19	10:38 p	-22.5	-22.5	-22.6	15.7	SE	0.26	20.9	-35.6	720.1	0.028	0.000	17.9	41	1
05/18/19	10:39 p	-22.5	-22.4	-22.5	13.9	SSE	0.23	27.0	-34.9	720.0	0.028	0.000	17.9	41	1
05/18/19	10:40 p	-22.4	-22.4	-22.4	20.9	SSE	0.35	31.3	-37.1	720.2	0.028	0.000	17.9	36	1
05/18/19	10:41 p	-22.4	-22.3	-22.4	13.9	SSE	0.23	24.3	-34.8	720.1	0.028	0.000	17.9	36	1
05/18/19	10:42 p	-22.3	-22.3	-22.3	13.9	SSE	0.23	20.0	-34.7	720.2	0.028	0.000	17.9	38	1
05/18/19	10:43 p	-22.3	-22.2	-22.3	10.4	SSE	0.17	17.4	-33.1	720.2	0.028	0.000	17.9	42	1
05/18/19	10:44 p	-22.2	-22.2	-22.2	15.7	SSE	0.26	26.1	-35.2	720.3	0.028	0.000	17.9	39	1
05/18/19	10:45 p	-22.2	-22.1	-22.2	17.4	SE	0.29	23.5	-35.7	719.9	0.028	0.000	17.9	39	1
05/18/19	10:46 p	-22.1	-22.1	-22.1	20.0	ESE	0.33	28.7	-36.4	719.7	0.028	0.000	17.9	39	1
05/18/19	10:47 p	-22.1	-22.0	-22.1	18.3	SE	0.30	27.8	-35.8	720.1	0.028	0.000	17.9	41	1
05/18/19	10:48 p	-22.0	-22.0	-22.0	17.4	SE	0.29	23.5	-35.5	719.9	0.028	0.000	17.9	41	1
05/18/19	10:49 p	-21.9	-21.9	-22.0	14.8	SE	0.25	18.3	-34.5	720.1	0.028	0.000	17.9	41	1
05/18/19	10:50 p	-21.9	-21.9	-21.9	12.2	ESE	0.20	14.8	-33.4	719.9	0.028	0.000	17.9	41	1
05/18/19	10:51 p	-21.9	-21.8	-21.9	13.0	ESE	0.22	15.7	-33.8	720.1	0.028	0.000	17.9	42	1
05/18/19	10:52 p	-21.8	-21.8	-21.8	20.9	SE	0.35	27.8	-36.3	720.0	0.028	0.000	17.9	41	1
05/18/19	10:53 p	-21.8	-21.7	-21.8	13.0	SE	0.22	18.3	-33.6	720.1	0.028	0.000	17.9	42	1
05/18/19	10:54 p	-21.7	-21.7	-21.7	14.8	SE	0.25	20.0	-34.2	720.0	0.028	0.000	18.0	42	1
05/18/19	10:55 p	-21.7	-21.6	-21.7	17.4	SE	0.29	25.2	-35.1	719.9	0.028	0.000	18.0	41	1
05/18/19	10:56 p	-21.7	-21.7	-21.7	20.0	SE	0.33	25.2	-35.8	719.9	0.028	0.000	18.0	41	1
05/18/19	10:57 p	-21.7	-21.7	-21.7	20.0	SE	0.33	24.3	-35.8	720.0	0.028	0.000	18.0	41	1
05/18/19	10:58 p	-21.6	-21.6	-21.7	14.8	SSE	0.25	23.5	-34.1	719.9	0.028	0.000	18.0	44	1
05/18/19	10:59 p	-21.6	-21.6	-21.6	21.7	SE	0.36	26.1	-36.2	719.9	0.028	0.000	18.0	41	1
05/18/19	11:00 p	-21.6	-21.6	-21.6	20.0	SSE	0.33	24.3	-35.7	719.9	0.028	0.000	18.1	41	1
05/18/19	11:01 p	-21.6	-21.6	-21.6	17.4	SE	0.29	21.7	-34.9	720.0	0.028	0.000	18.1	41	1
05/18/19	11:02 p	-21.6	-21.6	-21.6	20.9	SE	0.35	26.1	-35.9	719.9	0.028	0.000	18.1	41	1
05/18/19	11:03 p	-21.6	-21.5	-21.6	20.0	SE	0.33	21.7	-35.7	719.9	0.028	0.000	18.1	41	1
05/18/19	11:04 p	-21.6	-21.6	-21.6	21.7	SE	0.36	26.1	-36.2	719.9	0.028	0.000	18.1	40	1
05/18/19	11:05 p	-21.6	-21.5	-21.6	18.3	SE	0.30	20.9	-35.2	719.8	0.028	0.000	18.1	41	1
05/18/19	11:06 p	-21.6	-21.6	-21.6	19.1	SE	0.32	21.7	-35.4	719.9	0.028	0.000	18.1	43	1
05/18/19	11:07 p	-21.6	-21.6	-21.6	21.7	SSE	0.36	25.2	-36.2	719.8	0.028	0.000	18.1	43	1
05/18/19	11:08 p	-21.5	-21.5	-21.6	18.3	SSE	0.30	25.2	-35.1	719.8	0.028	0.000	18.1	42	1
05/18/19	11:09 p	-21.6	-21.5	-21.6	22.6	SSE	0.38	26.1	-36.4	719.8	0.028	0.000	18.1	42	1
05/18/19	11:10 p	-21.6	-21.5	-21.6	19.1	SSE	0.32	21.7	-35.4	719.9	0.028	0.000	18.1	42	1
05/18/19	11:11 p	-21.6	-21.6	-21.6	23.5	SSE	0.39	27.0	-36.6	719.9	0.028	0.000	18.1	41	1
05/18/19	11:12 p	-21.6	-21.5	-21.6	20.9	SSE	0.35	23.5	-35.9	719.9	0.028	0.000	18.1	41	1
05/18/19	11:13 p	-21.6	-21.6	-21.6	20.9	SSE	0.35	24.3	-35.9	719.9	0.028	0.000	18.1	42	1
05/18/19	11:14 p	-21.6	-21.6	-21.6	20.9	SE	0.35	26.1	-35.9	719.9	0.028	0.000	18.1	42	1
05/18/19	11:15 p	-21.6	-21.6	-21.6	20.0	SSE	0.33	22.6	-35.7	719.9	0.028	0.000	18.1	42	1
05/18/19	11:16 p	-21.6	-21.6	-21.6	20.9	SSE	0.35	23.5	-36.0	719.9	0.028	0.000	18.1	42	1
05/18/19	11:17 p	-21.6	-21.6	-21.6	20.9	SSE	0.35	26.1	-36.0	719.9	0.028	0.000	18.1	42	1
05/18/19	11:18 p	-21.6	-21.6	-21.6	21.7	SSE	0.36	25.2	-36.2	719.9	0.028	0.000	18.2	42	1
05/18/19	11:19 p	-21.6	-21.6	-21.6	20.9	SSE	0.35	23.5	-36.0	719.9	0.028	0.000	18.1	42	1
05/18/19	11:20 p	-21.6	-21.6	-21.6	20.9	SSE	0.35	23.5	-35.9	719.8	0.028	0.000	18.2	42	1
05/18/19	11:21 p	-21.6	-21.6	-21.6	18.3	SE	0.30	21.7	-35.2	719.8	0.028	0.000	18.2	42	1
05/18/19	11:22 p	-21.6	-21.6	-21.7	20.9	SE	0.35	24.3	-36.0	719.9	0.028	0.000	18.2	42	1
05/18/19	11:23 p	-21.6	-21.6	-21.7	18.3	SE	0.30	20.0	-35.2	719.9	0.028	0.000	18.2	42	1
05/18/19	11:24 p	-21.6	-21.6	-21.7	17.4	SE	0.29	21.7	-34.9	720.0	0.028	0.000	18.2	42	1
05/18/19	11:25 p	-21.7	-21.6	-21.7	18.3	SE	0.30	21.7	-35.3	719.9	0.028	0.000	18.2	42	1
05/18/19	11:26 p	-21.6	-21.6	-21.6	17.4	SSE	0.29	20.0	-34.9	720.0	0.028	0.000	18.2	43	1
05/18/19	11:27 p	-21.6	-21.6	-21.7	13.9	SSE	0.23	17.4	-33.8	720.0	0.028	0.000	18.2	43	1
05/18/19	11:28 p	-21.6	-21.6	-21.7	19.1	SSE	0.32	20.9	-35.5	720.0	0.028	0.000	18.2	43	1
05/18/19	11:29 p	-21.6	-21.6	-21.7	16.5	SSE	0.28	20.0	-34.7	719.9	0.028	0.000	18.2	46	1
05/18/19	11:30 p	-21.6	-21.6	-21.6	18.3	SE	0.30	20.9	-35.2	719.9	0.028	0.000	18.2	43	1
05/18/19	11:31 p	-21.6	-21.6	-21.6	17.4	SE	0.29	19.1	-34.9	720.0	0.028	0.000	18.2	44	1
05/18/19	11:32 p	-21.6	-21.6	-21.6	16.5	SE	0.28	20.0	-34.7	720.1	0.028	0.000	18.2	41	1
05/18/19	11:33 p	-21.6	-21.6	-21.7	18.3	SE	0.30	23.5	-35.2	720.0	0.028	0.000	18.2	46	1
05/18/19	11:34 p	-21.6	-21.6	-21.6	21.7	SE	0.36	24.3	-36.2	720.0	0.028	0.000	18.2	45	1
05/18/19	11:35 p	-21.6	-21.6	-21.6	20.0	SE	0.33	27.0	-35.7	720.0	0.028	0.000	18.2	45	1
05/18/19	11:36 p	-21.6	-21.6	-21.6	20.9	SSE	0.35	22.6	-35.9	720.0	0.028	0.000	18.2	43	1
05/18/19	11:37 p	-21.6	-21.6	-21.6	19.1	SE	0.32	27.0	-35.5	720.0	0.028	0.000	18.2	43	1
05/18/19	11:38 p	-21.6	-21.6	-21.6	18.3	SE	0.30	23.5	-35.2	720.0	0.028	0.000	18.2	41	1
05/18/19	11:39 p	-21.6	-21.6	-21.6	20.0	SE	0.33	26.1	-35.7	720.1	0.028	0.000	18.2	42	1
05/18/19	11:40 p	-21.5	-21.5	-21.6	20.9	SE	0.35	27.0	-35.8	719.9	0.028	0.000	18.2	42	1
05/18/19	11:41 p	-21.6	-21.4	-21.6	26.1	ESE	0.43	33.0	-37.2	719.9	0.028	0.000	18.2	41	1
05/18/19	11:42 p	-21.5	-21.5	-21.5	22.6	SE	0.38	30.4	-36.3	720.0	0.028	0.000	18.2	41	1
05/18/19	11:43 p	-21.5	-21.4	-21.5	20.0	SE	0.33	27.0	-35.6	719.9	0.028	0.000	18.2	42	1
05/18/19	11:44 p	-21.5	-21.4	-21.5	26.1	SE	0.43	29.6	-37.2	719.9	0.028	0.000	18.3	42	1
05/18/19	11:45 p	-21.4	-21.4	-21.4	23.5	SE	0.39	30.4	-36.4	720.0	0.028	0.000	18.3	43	1
05/18/19	11:46 p	-21.4	-21.4	-21.4	26.1	SE	0.43	30.4	-37.1	719.7	0.028	0.000	18.3	43	1
05/18/19	11:47 p	-21.4	-21.4	-21.4	28.7	ESE	0.48	40.0	-37.7	719.5	0.028	0.000	18.3	43	1
05/18/19	11:48 p	-21.4	-21.4	-21.4	32.2	ESE	0.54	42.6	-38.3	719.8	0.028	0.000	18.3	43	1
05/18/19	11:49 p	-21.4	-21.3	-21.4	20.0	ESE	0.33	31.3	-35.4	720.0	0.028	0.000	18.3	43	1
05/18/19	11:50 p	-21.3	-21.3	-21.4	33.0	SE	0.55	47.0	-38.3	719.2	0.028	0.000	18.3	40	1
05/18/19	11:51 p	-21.3	-21.3	-21.3	27.0	SE	0.45	34.8	-37.1	720.0	0.028	0.000	18.3	42	1
05/18/19	11:52 p	-21.2	-21.2	-21.3	15.7	SE	0.26	21.7	-33.9	720.3	0.027	0.000	18.3	42	1
05/18/19	11:53 p	-21.2	-21.2	-21.2	14.8	SSE	0.25	17.4	-33.6	720.2	0.027	0.000	18.3	43	1
05/18/19	11:54 p	-21.2	-21.2	-21.2	20.0	SSE	0.33	25.2	-35.2	720.2	0.027	0.000	18.3	44	1
05/18/19	11:55 p	-21.1	-21.1	-21.2	8.7	S	0.14	20.9	-30.7	720.2	0.027	0.000	18.3	43	1
05/18/19	11:56 p	-21.1	-21.1	-21.1	9.6	S	0.16	19.1	-31.1	720.2	0.027	0.000	18.3	39	1
05/18/19	11:57 p	-21.1	-20.9	-21.1	10.4	SSE	0.17	16.5	-31.6	720.2	0.027	0.000	18.3	38	1
05/18/19	11:58 p	-20.9	-20.9	-21.0	7.0	S	0.12	19.1	-29.4	720.3	0.027	0.000	18.3	38	1
05/18/19	11:59 p	-20.9	-20.9	-20.9	20.9	SSE	0.35	25.2	-35.1	720.1	0.027	0.000	18.3	43	1
05/19/19	12:00 a	-20.9	-20.9	-20.9	20.0	SSE	0.33	23.5	-34.8	720.0	0.027	0.000	18.3	44	1
05/19/19	12:01 a	-20.9	-20.8	-20.9	7.0	SSE	0.12	16.5	-29.3	720.2	0.027	0.000	18.3	44	1
05/19/19	12:02 a	-20.8	-20.8	-20.8	13.0	SSE	0.22	20.9	-32.4	720.1	0.027	0.000	18.3	36	1
05/19/19	12:03 a	-20.8	-20.7	-20.8	13.9	S	0.23	23.5	-32.7	720.1	0.027	0.000	18.3	43	1
05/19/19	12:04 a	-20.7	-20.7	-20.8	19.1	SSE	0.32	25.2	-34.3	720.1	0.027	0.000	18.3	43	1
05/19/19	12:05 a	-20.7	-20.6	-20.7	12.2	SSE	0.20	19.1	-31.8	720.2	0.027	0.000	18.3	41	1
05/19/19	12:06 a	-20.7	-20.6	-20.7	10.4	SSE	0.17	19.1	-31.1	720.3	0.027	0.000	18.3	41	1
05/19/19	12:07 a	-20.6	-20.6	-20.6	15.7	SSE	0.26	26.1	-33.1	720.2	0.027	0.000	18.3	42	1
05/19/19	12:08 a	-20.6	-20.6	-20.6	9.6	S	0.16	20.9	-30.5	720.3	0.027	0.000	18.3	39	1
05/19/19	12:09 a	-20.5	-20.5	-20.6	18.3	SSE	0.30	29.6	-33.8	719.9	0.027	0.000	18.3	40	1
05/19/19	12:10 a	-20.5	-20.4	-20.5	27.0	SSE	0.45	38.3	-36.0	719.7	0.027	0.000	18.3	40	1
05/19/19	12:11 a	-20.4	-20.4	-20.5	13.9	SSE	0.23	18.3	-32.3	720.3	0.027	0.000	18.3	40	1
05/19/19	12:12 a	-20.4	-20.4	-20.4	9.6	S	0.16	22.6	-30.3	720.3	0.027	0.000	18.3	41	1
05/19/19	12:13 a	-20.4	-20.4	-20.4	10.4	SSE	0.17	17.4	-30.7	720.2	0.027	0.000	18.3	41	1
05/19/19	12:14 a	-20.4	-20.3	-20.4	13.9	SSE	0.23	26.1	-32.2	720.2	0.027	0.000	18.3	42	1
05/19/19	12:15 a	-20.3	-20.3	-20.3	5.2	S	0.09	13.0	-27.4	720.3	0.027	0.000	18.3	41	1
05/19/19	12:16 a	-20.3	-20.3	-20.3	14.8	SSE	0.25	17.4	-32.3	720.2	0.027	0.000	18.4	44	1
05/19/19	12:17 a	-20.3	-20.2	-20.3	16.5	SSE	0.28	18.3	-32.9	720.3	0.027	0.000	18.4	44	1
05/19/19	12:18 a	-20.3	-20.2	-20.3	16.5	SSE	0.28	19.1	-32.9	720.3	0.027	0.000	18.4	43	1
05/19/19	12:19 a	-20.2	-20.2	-20.2	17.4	SE	0.29	18.3	-33.2	720.3	0.027	0.000	18.4	44	1
05/19/19	12:20 a	-20.2	-20.2	-20.2	16.5	SE	0.28	18.3	-32.9	720.3	0.027	0.000	18.4	41	1
05/19/19	12:21 a	-20.2	-20.2	-20.2	16.5	SE	0.28	19.1	-32.8	720.2	0.027	0.000	18.4	43	1
05/19/19	12:22 a	-20.2	-20.2	-20.2	14.8	SSE	0.25	20.9	-32.3	720.1	0.027	0.000	18.4	43	1
05/19/19	12:23 a	-20.2	-20.2	-20.2	9.6	SSE	0.16	15.7	-30.1	720.2	0.027	0.000	18.4	42	1
05/19/19	12:24 a	-20.2	-20.2	-20.2	13.9	SSE	0.23	18.3	-31.9	720.2	0.027	0.000	18.4	42	1
05/19/19	12:25 a	-20.2	-20.2	-20.2	13.9	SSE	0.23	24.3	-31.9	720.2	0.027	0.000	18.4	43	1
05/19/19	12:26 a	-20.2	-20.2	-20.2	10.4	S	0.17	17.4	-30.4	720.2	0.027	0.000	18.4	43	1
05/19/19	12:27 a	-20.2	-20.2	-20.2	9.6	S	0.16	19.1	-30.1	720.1	0.027	0.000	18.4	41	1
05/19/19	12:28 a	-20.2	-20.2	-20.2	13.0	SSE	0.22	20.0	-31.6	720.2	0.027	0.000	18.4	41	1
05/19/19	12:29 a	-20.2	-20.2	-20.2	11.3	S	0.19	28.7	-30.9	720.1	0.027	0.000	18.4	41	1
05/19/19	12:30 a	-20.2	-20.1	-20.2	13.9	SSE	0.23	16.5	-31.9	720.2	0.027	0.000	18.4	40	1
05/19/19	12:31 a	-20.2	-20.2	-20.2	14.8	SSE	0.25	22.6	-32.2	720.2	0.027	0.000	18.4	41	1
05/19/19	12:32 a	-20.2	-20.1	-20.2	5.2	SSE	0.09	13.9	-27.2	720.2	0.027	0.000	18.4	41	1
05/19/19	12:33 a	-20.1	-20.1	-20.1	6.1	S	0.10	12.2	-27.8	720.2	0.027	0.000	18.5	41	1
05/19/19	12:34 a	-20.1	-20.1	-20.2	13.9	SSE	0.23	16.5	-31.8	720.2	0.027	0.000	18.5	43	1
05/19/19	12:35 a	-20.1	-20.1	-20.1	12.2	S	0.20	20.0	-31.1	720.2	0.027	0.000	18.5	45	1
05/19/19	12:36 a	-20.1	-20.1	-20.1	18.3	SSE	0.30	20.9	-33.3	720.2	0.027	0.000	18.5	44	1
05/19/19	12:37 a	-20.1	-20.1	-20.1	20.0	SE	0.33	20.9	-33.8	720.2	0.027	0.000	18.5	44	1
05/19/19	12:38 a	-20.1	-20.1	-20.1	16.5	SSE	0.28	18.3	-32.7	720.2	0.027	0.000	18.5	44	1
05/19/19	12:39 a	-20.1	-20.0	-20.1	20.9	SE	0.35	22.6	-33.9	720.1	0.027	0.000	18.5	38	1
05/19/19	12:40 a	-20.1	-20.1	-20.1	20.0	SE	0.33	23.5	-33.7	720.1	0.027	0.000	18.5	35	1
05/19/19	12:41 a	-20.1	-20.0	-20.1	18.3	SE	0.30	22.6	-33.2	720.1	0.027	0.000	18.5	39	1
05/19/19	12:42 a	-20.1	-20.1	-20.1	20.9	SSE	0.35	24.3	-33.9	720.1	0.027	0.000	18.6	39	1
05/19/19	12:43 a	-20.1	-20.1	-20.1	20.9	SE	0.35	23.5	-33.9	720.0	0.027	0.000	18.6	44	1
05/19/19	12:44 a	-20.1	-20.1	-20.1	20.9	SE	0.35	24.3	-34.0	720.1	0.027	0.000	18.6	45	1
05/19/19	12:45 a	-20.1	-20.1	-20.1	16.5	SSE	0.28	19.1	-32.7	720.1	0.027	0.000	18.6	46	1
05/19/19	12:46 a	-20.1	-20.1	-20.1	18.3	SE	0.30	19.1	-33.3	720.2	0.027	0.000	18.6	46	1
05/19/19	12:47 a	-20.1	-20.1	-20.1	20.0	SE	0.33	22.6	-33.8	720.2	0.027	0.000	18.6	43	1
05/19/19	12:48 a	-20.1	-20.1	-20.1	19.1	SE	0.32	22.6	-33.5	720.2	0.027	0.000	18.6	48	1
05/19/19	12:49 a	-20.2	-20.1	-20.2	18.3	SE	0.30	20.9	-33.3	720.1	0.027	0.000	18.6	44	1
05/19/19	12:50 a	-20.2	-20.2	-20.2	19.1	SE	0.32	20.9	-33.6	720.2	0.027	0.000	18.6	46	1
05/19/19	12:51 a	-20.2	-20.2	-20.2	17.4	SE	0.29	21.7	-33.1	720.2	0.027	0.000	18.6	51	1
05/19/19	12:52 a	-20.2	-20.2	-20.2	19.1	SSE	0.32	21.7	-33.6	720.1	0.027	0.000	18.6	47	1
05/19/19	12:53 a	-20.2	-20.2	-20.2	20.0	SSE	0.33	22.6	-33.9	720.2	0.027	0.000	18.7	48	1
05/19/19	12:54 a	-20.2	-20.2	-20.2	18.3	SSE	0.30	20.0	-33.4	720.2	0.027	0.000	18.7	49	1
05/19/19	12:55 a	-20.2	-20.2	-20.3	16.5	SSE	0.28	22.6	-32.9	720.2	0.027	0.000	18.7	52	1
05/19/19	12:56 a	-20.3	-20.3	-20.3	26.1	SE	0.43	31.3	-35.5	720.1	0.027	0.000	18.7	55	1
05/19/19	12:57 a	-20.3	-20.3	-20.3	20.9	SE	0.35	25.2	-34.2	720.1	0.027	0.000	18.7	48	1
05/19/19	12:58 a	-20.3	-20.3	-20.3	16.5	SE	0.28	18.3	-32.9	720.2	0.027	0.000	18.7	53	1
05/19/19	12:59 a	-20.3	-20.3	-20.3	19.1	SE	0.32	23.5	-33.7	720.2	0.027	0.000	18.7	55	1
05/19/19	1:00 a	-20.3	-20.3	-20.3	14.8	SSE	0.25	19.1	-32.3	720.2	0.027	0.000	18.7	52	1
05/19/19	1:01 a	-20.3	-20.3	-20.3	19.1	SE	0.32	24.3	-33.8	720.1	0.027	0.000	18.7	54	1
05/19/19	1:02 a	-20.3	-20.3	-20.3	16.5	SE	0.28	19.1	-33.0	720.2	0.027	0.000	18.7	50	1
05/19/19	1:03 a	-20.3	-20.3	-20.3	17.4	ESE	0.29	20.9	-33.2	720.2	0.027	0.000	18.7	52	1
05/19/19	1:04 a	-20.3	-20.3	-20.3	19.1	SE	0.32	20.9	-33.8	720.2	0.027	0.000	18.7	51	1
05/19/19	1:05 a	-20.3	-20.3	-20.3	20.0	ESE	0.33	24.3	-34.1	720.2	0.027	0.000	18.7	49	1
05/19/19	1:06 a	-20.3	-20.3	-20.4	16.5	ESE	0.28	19.1	-33.0	720.2	0.027	0.000	18.7	49	1
05/19/19	1:07 a	-20.4	-20.3	-20.4	18.3	ESE	0.30	23.5	-33.6	720.0	0.027	0.000	18.7	45	1
05/19/19	1:08 a	-20.4	-20.4	-20.4	16.5	ESE	0.28	20.0	-33.1	720.1	0.027	0.000	18.7	47	1
05/19/19	1:09 a	-20.3	-20.3	-20.4	18.3	SE	0.30	21.7	-33.6	720.1	0.027	0.000	18.8	48	1
05/19/19	1:10 a	-20.4	-20.4	-20.4	19.1	SE	0.32	21.7	-33.9	720.1	0.027	0.000	18.7	46	1
05/19/19	1:11 a	-20.4	-20.3	-20.4	23.5	SE	0.39	29.6	-35.1	720.0	0.027	0.000	18.7	47	1
05/19/19	1:12 a	-20.4	-20.4	-20.4	22.6	SE	0.38	26.1	-34.8	720.0	0.027	0.000	18.8	48	1
05/19/19	1:13 a	-20.4	-20.4	-20.4	22.6	SE	0.38	24.3	-34.9	720.0	0.027	0.000	18.8	49	1
05/19/19	1:14 a	-20.4	-20.4	-20.4	24.3	SE	0.41	27.0	-35.3	720.0	0.027	0.000	18.8	48	1
05/19/19	1:15 a	-20.4	-20.4	-20.4	19.1	ESE	0.32	27.8	-33.9	719.9	0.027	0.000	18.8	48	1
05/19/19	1:16 a	-20.4	-20.4	-20.4	20.9	SE	0.35	24.3	-34.4	719.9	0.027	0.000	18.8	49	1
05/19/19	1:17 a	-20.4	-20.4	-20.4	22.6	SSE	0.38	25.2	-34.9	719.9	0.027	0.000	18.8	48	1
05/19/19	1:18 a	-20.4	-20.4	-20.4	22.6	SSE	0.38	26.1	-34.9	719.9	0.027	0.000	18.8	48	1
05/19/19	1:19 a	-20.4	-20.4	-20.4	27.8	SSE	0.46	33.9	-36.1	719.8	0.027	0.000	18.8	48	1
05/19/19	1:20 a	-20.4	-20.4	-20.4	25.2	SE	0.42	29.6	-35.5	719.6	0.027	0.000	18.8	46	1
05/19/19	1:21 a	-20.4	-20.4	-20.4	24.3	SSE	0.41	28.7	-35.3	719.7	0.027	0.000	18.8	41	1
05/19/19	1:22 a	-20.4	-20.4	-20.4	28.7	SE	0.48	33.9	-36.3	719.6	0.027	0.000	18.8	45	1
05/19/19	1:23 a	-20.4	-20.4	-20.4	25.2	SE	0.42	27.8	-35.5	719.7	0.027	0.000	18.8	46	1
05/19/19	1:24 a	-20.4	-20.4	-20.4	26.1	SSE	0.43	27.8	-35.7	719.7	0.027	0.000	18.8	47	1
05/19/19	1:25 a	-20.4	-20.4	-20.4	30.4	SSE	0.51	35.7	-36.6	719.5	0.027	0.000	18.8	48	1
05/19/19	1:26 a	-20.4	-20.4	-20.4	27.0	SE	0.45	29.6	-35.8	719.5	0.027	0.000	18.8	49	1
05/19/19	1:27 a	-20.4	-20.4	-20.4	27.0	SE	0.45	31.3	-35.9	719.5	0.027	0.000	18.8	49	1
05/19/19	1:28 a	-20.4	-20.4	-20.4	28.7	SE	0.48	33.9	-36.2	719.5	0.027	0.000	18.8	50	1
05/19/19	1:29 a	-20.4	-20.4	-20.4	31.3	SE	0.52	34.8	-36.7	719.5	0.027	0.000	18.8	55	1
05/19/19	1:30 a	-20.4	-20.4	-20.4	26.1	SSE	0.43	33.0	-35.6	719.7	0.027	0.000	18.8	46	1
05/19/19	1:31 a	-20.4	-20.3	-20.4	27.8	SSE	0.46	33.0	-36.0	719.6	0.027	0.000	18.9	45	1
05/19/19	1:32 a	-20.4	-20.4	-20.4	28.7	SE	0.48	33.9	-36.2	719.6	0.027	0.000	18.9	44	1
05/19/19	1:33 a	-20.4	-20.4	-20.4	28.7	SE	0.48	33.0	-36.2	719.6	0.027	0.000	18.9	43	1
05/19/19	1:34 a	-20.4	-20.4	-20.4	29.6	SE	0.49	33.9	-36.4	719.7	0.027	0.000	18.9	47	1
05/19/19	1:35 a	-20.4	-20.3	-20.4	26.1	SE	0.43	29.6	-35.6	719.7	0.027	0.000	18.9	51	1
05/19/19	1:36 a	-20.3	-20.3	-20.3	22.6	SE	0.38	29.6	-34.7	719.9	0.027	0.000	18.9	47	1
05/19/19	1:37 a	-20.3	-20.3	-20.4	24.3	SE	0.41	27.8	-35.2	719.8	0.027	0.000	18.9	47	1
05/19/19	1:38 a	-20.3	-20.3	-20.4	29.6	SE	0.49	32.2	-36.3	719.7	0.027	0.000	18.9	46	1
05/19/19	1:39 a	-20.3	-20.3	-20.4	27.8	SE	0.46	30.4	-35.9	719.8	0.027	0.000	18.9	47	1
05/19/19	1:40 a	-20.3	-20.3	-20.3	29.6	SE	0.49	33.0	-36.3	719.8	0.027	0.000	18.9	48	1
05/19/19	1:41 a	-20.3	-20.3	-20.4	26.1	SE	0.43	29.6	-35.6	719.8	0.027	0.000	18.9	41	1
05/19/19	1:42 a	-20.4	-20.3	-20.4	25.2	SE	0.42	27.8	-35.4	719.8	0.027	0.000	18.9	45	1
05/19/19	1:43 a	-20.4	-20.3	-20.4	27.0	SE	0.45	30.4	-35.8	719.7	0.027	0.000	18.9	46	1
05/19/19	1:44 a	-20.3	-20.3	-20.3	25.2	SE	0.42	29.6	-35.4	719.9	0.027	0.000	18.9	47	1
05/19/19	1:45 a	-20.4	-20.3	-20.4	26.1	SSE	0.43	30.4	-35.6	719.9	0.027	0.000	18.9	51	1
05/19/19	1:46 a	-20.4	-20.4	-20.4	27.8	SSE	0.46	33.0	-36.0	719.8	0.027	0.000	18.9	46	1
05/19/19	1:47 a	-20.4	-20.4	-20.4	27.8	SSE	0.46	32.2	-36.0	719.8	0.027	0.000	18.9	48	1
05/19/19	1:48 a	-20.4	-20.4	-20.4	29.6	SSE	0.49	33.9	-36.4	719.8	0.027	0.000	18.9	47	1
05/19/19	1:49 a	-20.4	-20.4	-20.4	24.3	SSE	0.41	27.8	-35.2	720.0	0.027	0.000	18.9	49	1
05/19/19	1:50 a	-20.4	-20.4	-20.4	21.7	SSE	0.36	23.5	-34.6	720.0	0.027	0.000	18.9	48	1
05/19/19	1:51 a	-20.4	-20.4	-20.4	23.5	SE	0.39	26.1	-35.1	720.0	0.027	0.000	18.9	47	1
05/19/19	1:52 a	-20.4	-20.4	-20.4	24.3	SE	0.41	27.8	-35.2	719.8	0.027	0.000	18.9	49	1
05/19/19	1:53 a	-20.4	-20.4	-20.4	26.1	SE	0.43	33.0	-35.7	719.8	0.027	0.000	18.9	47	1
05/19/19	1:54 a	-20.4	-20.4	-20.4	28.7	SSE	0.48	33.0	-36.3	719.7	0.027	0.000	18.9	47	1
05/19/19	1:55 a	-20.4	-20.4	-20.4	27.0	SSE	0.45	29.6	-35.9	719.8	0.027	0.000	18.9	45	1
05/19/19	1:56 a	-20.4	-20.4	-20.4	22.6	SSE	0.38	25.2	-34.9	719.9	0.027	0.000	18.9	45	1
05/19/19	1:57 a	-20.4	-20.4	-20.4	26.1	SSE	0.43	31.3	-35.7	719.7	0.027	0.000	18.9	46	1
05/19/19	1:58 a	-20.4	-20.4	-20.4	27.8	SSE	0.46	34.8	-36.0	719.6	0.027	0.000	18.9	46	1
05/19/19	1:59 a	-20.4	-20.4	-20.4	28.7	SSE	0.48	33.9	-36.2	719.7	0.027	0.000	18.9	46	1
05/19/19	2:00 a	-20.4	-20.4	-20.4	27.0	SSE	0.45	33.9	-35.8	719.6	0.027	0.000	18.9	45	1
05/19/19	2:01 a	-20.4	-20.4	-20.4	26.1	SSE	0.43	30.4	-35.7	719.6	0.027	0.000	18.9	45	1
05/19/19	2:02 a	-20.4	-20.4	-20.4	29.6	SSE	0.49	33.9	-36.4	719.6	0.027	0.000	18.9	41	1
05/19/19	2:03 a	-20.4	-20.4	-20.4	29.6	SSE	0.49	34.8	-36.4	719.5	0.027	0.000	18.9	41	1
05/19/19	2:04 a	-20.4	-20.4	-20.4	29.6	SSE	0.49	34.8	-36.4	719.4	0.027	0.000	18.9	46	1
05/19/19	2:05 a	-20.4	-20.4	-20.4	34.8	SE	0.58	38.3	-37.4	719.3	0.027	0.000	18.9	46	1
05/19/19	2:06 a	-20.4	-20.4	-20.4	28.7	SE	0.48	31.3	-36.2	719.6	0.027	0.000	18.9	47	1
05/19/19	2:07 a	-20.4	-20.4	-20.4	28.7	SSE	0.48	32.2	-36.3	719.5	0.027	0.000	18.9	46	1
05/19/19	2:08 a	-20.4	-20.4	-20.4	28.7	SE	0.48	31.3	-36.3	719.4	0.027	0.000	18.9	46	1
05/19/19	2:09 a	-20.4	-20.4	-20.4	31.3	SSE	0.52	34.8	-36.8	719.4	0.027	0.000	18.9	48	1
05/19/19	2:10 a	-20.4	-20.4	-20.4	29.6	SSE	0.49	32.2	-36.4	719.5	0.027	0.000	18.9	46	1
05/19/19	2:11 a	-20.4	-20.4	-20.5	30.4	SSE	0.51	33.9	-36.6	719.4	0.027	0.000	18.9	46	1
05/19/19	2:12 a	-20.4	-20.4	-20.4	31.3	SE	0.52	33.9	-36.8	719.4	0.027	0.000	18.9	46	1
05/19/19	2:13 a	-20.4	-20.4	-20.4	31.3	SE	0.52	33.9	-36.8	719.4	0.027	0.000	19.0	45	1
05/19/19	2:14 a	-20.5	-20.4	-20.5	31.3	SSE	0.52	36.5	-36.9	719.2	0.027	0.000	19.0	43	1
05/19/19	2:15 a	-20.5	-20.5	-20.5	30.4	SSE	0.51	37.4	-36.7	719.2	0.027	0.000	19.0	43	1
05/19/19	2:16 a	-20.4	-20.4	-20.5	31.3	SSE	0.52	35.7	-36.8	719.2	0.027	0.000	19.0	46	1
05/19/19	2:17 a	-20.5	-20.5	-20.5	33.9	SSE	0.57	41.7	-37.3	719.0	0.027	0.000	19.0	46	1
05/19/19	2:18 a	-20.5	-20.5	-20.5	33.0	SSE	0.55	40.9	-37.2	719.0	0.027	0.000	19.0	42	1
05/19/19	2:19 a	-20.5	-20.5	-20.6	40.0	SSE	0.67	44.3	-38.3	718.9	0.027	0.000	19.0	43	1
05/19/19	2:20 a	-20.6	-20.6	-20.6	33.9	SSE	0.57	43.5	-37.4	719.0	0.027	0.000	19.0	44	1
05/19/19	2:21 a	-20.6	-20.5	-20.6	36.5	SSE	0.61	42.6	-37.9	719.2	0.027	0.000	19.0	45	1
05/19/19	2:22 a	-20.6	-20.5	-20.6	35.7	SSE	0.59	46.1	-37.7	719.2	0.027	0.000	19.0	46	1
05/19/19	2:23 a	-20.6	-20.6	-20.6	37.4	SSE	0.62	41.7	-38.0	719.3	0.027	0.000	19.0	46	1
05/19/19	2:24 a	-20.6	-20.5	-20.6	36.5	SSE	0.61	41.7	-37.9	719.2	0.027	0.000	19.0	46	1
05/19/19	2:25 a	-20.6	-20.6	-20.6	38.3	SE	0.64	43.5	-38.2	719.2	0.027	0.000	19.0	45	1
05/19/19	2:26 a	-20.6	-20.6	-20.6	33.9	SE	0.57	40.9	-37.4	719.2	0.027	0.000	19.0	48	1
05/19/19	2:27 a	-20.6	-20.6	-20.6	37.4	SSE	0.62	40.9	-38.0	719.2	0.027	0.000	19.0	47	1
05/19/19	2:28 a	-20.6	-20.6	-20.6	34.8	SSE	0.58	41.7	-37.7	719.3	0.027	0.000	19.0	47	1
05/19/19	2:29 a	-20.6	-20.6	-20.6	35.7	SSE	0.59	44.3	-37.8	719.2	0.027	0.000	19.0	46	1
05/19/19	2:30 a	-20.6	-20.6	-20.6	40.0	SE	0.67	50.4	-38.5	719.0	0.027	0.000	19.0	49	1
05/19/19	2:31 a	-20.6	-20.6	-20.6	34.8	SSE	0.58	40.9	-37.7	719.0	0.027	0.000	19.0	48	1
05/19/19	2:32 a	-20.6	-20.6	-20.6	35.7	SSE	0.59	42.6	-37.8	719.2	0.027	0.000	19.1	48	1
05/19/19	2:33 a	-20.6	-20.6	-20.6	38.3	SSE	0.64	42.6	-38.2	718.9	0.027	0.000	19.1	50	1
05/19/19	2:34 a	-20.6	-20.6	-20.6	38.3	SE	0.64	42.6	-38.2	719.0	0.027	0.000	19.1	45	1
05/19/19	2:35 a	-20.6	-20.6	-20.6	38.3	SE	0.64	43.5	-38.2	719.0	0.027	0.000	19.1	43	1
05/19/19	2:36 a	-20.6	-20.6	-20.6	36.5	SSE	0.61	43.5	-37.9	719.0	0.027	0.000	19.1	44	1
05/19/19	2:37 a	-20.6	-20.6	-20.6	38.3	SSE	0.64	40.9	-38.2	719.1	0.027	0.000	19.1	44	1
05/19/19	2:38 a	-20.6	-20.6	-20.6	34.8	SSE	0.58	39.1	-37.7	719.1	0.027	0.000	19.1	43	1
05/19/19	2:39 a	-20.6	-20.6	-20.6	32.2	SSE	0.54	40.0	-37.2	719.1	0.027	0.000	19.1	41	1
05/19/19	2:40 a	-20.6	-20.6	-20.6	36.5	SE	0.61	45.2	-37.9	719.3	0.027	0.000	19.1	41	1
05/19/19	2:41 a	-20.6	-20.6	-20.7	31.3	SE	0.52	41.7	-37.0	719.4	0.027	0.000	19.1	51	1
05/19/19	2:42 a	-20.6	-20.6	-20.7	31.3	SE	0.52	36.5	-37.0	719.3	0.027	0.000	19.1	51	1
05/19/19	2:43 a	-20.7	-20.7	-20.7	35.7	SE	0.59	39.1	-37.9	719.4	0.027	0.000	19.1	51	1
05/19/19	2:44 a	-20.7	-20.7	-20.7	32.2	SE	0.54	38.3	-37.3	719.2	0.027	0.000	19.1	51	1
05/19/19	2:45 a	-20.7	-20.7	-20.7	32.2	SE	0.54	38.3	-37.3	719.4	0.027	0.000	19.1	51	1
05/19/19	2:46 a	-20.7	-20.7	-20.7	28.7	SE	0.48	33.9	-36.6	719.6	0.027	0.000	19.1	50	1
05/19/19	2:47 a	-20.7	-20.7	-20.7	30.4	SE	0.51	35.7	-36.9	719.4	0.027	0.000	19.1	53	1
05/19/19	2:48 a	-20.7	-20.7	-20.7	33.0	SE	0.55	37.4	-37.4	719.3	0.027	0.000	19.1	54	1
05/19/19	2:49 a	-20.7	-20.7	-20.7	31.3	SE	0.52	38.3	-37.2	719.3	0.027	0.000	19.1	54	1
05/19/19	2:50 a	-20.7	-20.7	-20.8	37.4	SE	0.62	44.3	-38.2	719.2	0.027	0.000	19.1	54	1
05/19/19	2:51 a	-20.8	-20.8	-20.8	32.2	SE	0.54	39.1	-37.4	719.1	0.027	0.000	19.1	55	1
05/19/19	2:52 a	-20.8	-20.8	-20.8	31.3	SE	0.52	37.4	-37.3	719.3	0.027	0.000	19.1	52	1
05/19/19	2:53 a	-20.8	-20.8	-20.8	32.2	SE	0.54	36.5	-37.5	719.3	0.027	0.000	19.1	53	1
05/19/19	2:54 a	-20.9	-20.8	-20.9	33.9	SE	0.57	39.1	-37.9	719.2	0.027	0.000	19.1	54	1
05/19/19	2:55 a	-20.9	-20.9	-20.9	33.0	SE	0.55	35.7	-37.7	719.3	0.027	0.000	19.1	54	1
05/19/19	2:56 a	-20.9	-20.9	-20.9	31.3	SE	0.52	34.8	-37.5	719.3	0.027	0.000	19.1	54	1
05/19/19	2:57 a	-20.9	-20.9	-20.9	32.2	SE	0.54	35.7	-37.7	719.3	0.027	0.000	19.1	54	1
05/19/19	2:58 a	-20.9	-20.9	-21.0	33.0	SE	0.55	38.3	-37.8	719.2	0.027	0.000	19.1	56	1
05/19/19	2:59 a	-21.0	-21.0	-21.0	30.4	ESE	0.51	36.5	-37.4	719.3	0.027	0.000	19.1	57	1
05/19/19	3:00 a	-21.0	-21.0	-21.1	31.3	ESE	0.52	33.9	-37.6	719.3	0.027	0.000	19.1	56	1
05/19/19	3:01 a	-21.1	-21.1	-21.1	31.3	SE	0.52	37.4	-37.6	719.2	0.027	0.000	19.1	56	1
05/19/19	3:02 a	-21.1	-21.1	-21.1	30.4	SE	0.51	33.9	-37.4	719.3	0.027	0.000	19.1	54	1
05/19/19	3:03 a	-21.1	-21.1	-21.1	30.4	SE	0.51	33.9	-37.6	719.2	0.027	0.000	19.1	53	1
05/19/19	3:04 a	-21.1	-21.1	-21.1	33.9	SE	0.57	36.5	-38.2	719.1	0.027	0.000	19.1	55	1
05/19/19	3:05 a	-21.2	-21.1	-21.2	28.7	SE	0.48	32.2	-37.3	719.4	0.027	0.000	19.1	56	1
05/19/19	3:06 a	-21.2	-21.1	-21.2	31.3	SE	0.52	33.9	-37.8	719.2	0.027	0.000	19.1	53	1
05/19/19	3:07 a	-21.2	-21.2	-21.2	29.6	SE	0.49	33.0	-37.5	719.3	0.027	0.000	19.1	56	1
05/19/19	3:08 a	-21.2	-21.2	-21.3	31.3	SE	0.52	34.8	-37.8	719.3	0.027	0.000	19.1	56	1
05/19/19	3:09 a	-21.3	-21.3	-21.3	30.4	SE	0.51	34.8	-37.8	719.3	0.028	0.000	19.1	56	1
05/19/19	3:10 a	-21.3	-21.2	-21.3	31.3	SE	0.52	37.4	-37.9	719.2	0.028	0.000	19.1	60	1
05/19/19	3:11 a	-21.3	-21.2	-21.3	30.4	SE	0.51	33.9	-37.8	719.2	0.028	0.000	19.1	55	1
05/19/19	3:12 a	-21.3	-21.3	-21.3	33.0	SE	0.55	36.5	-38.3	718.9	0.028	0.000	19.1	55	1
05/19/19	3:13 a	-21.3	-21.3	-21.3	33.0	SE	0.55	36.5	-38.3	719.0	0.028	0.000	19.1	51	1
05/19/19	3:14 a	-21.3	-21.3	-21.3	33.9	SE	0.57	37.4	-38.5	719.0	0.028	0.000	19.1	54	1
05/19/19	3:15 a	-21.3	-21.3	-21.4	30.4	SE	0.51	34.8	-37.8	719.1	0.028	0.000	19.1	54	1
05/19/19	3:16 a	-21.3	-21.3	-21.4	32.2	SE	0.54	36.5	-38.2	719.1	0.028	0.000	19.1	53	1
05/19/19	3:17 a	-21.4	-21.4	-21.4	33.0	SE	0.55	36.5	-38.4	719.1	0.028	0.000	19.1	55	1
05/19/19	3:18 a	-21.4	-21.3	-21.4	32.2	SE	0.54	34.8	-38.3	719.2	0.028	0.000	19.1	54	1
05/19/19	3:19 a	-21.4	-21.3	-21.4	30.4	SE	0.51	33.9	-37.9	719.2	0.028	0.000	19.1	58	1
05/19/19	3:20 a	-21.4	-21.4	-21.4	28.7	SE	0.48	32.2	-37.6	719.3	0.028	0.000	19.1	57	1
05/19/19	3:21 a	-21.4	-21.4	-21.4	28.7	SE	0.48	30.4	-37.6	719.2	0.028	0.000	19.1	53	1
05/19/19	3:22 a	-21.4	-21.4	-21.4	27.8	SE	0.46	32.2	-37.4	719.3	0.028	0.000	19.1	54	1
05/19/19	3:23 a	-21.4	-21.4	-21.4	29.6	ESE	0.49	32.2	-37.8	719.2	0.028	0.000	19.1	61	1
05/19/19	3:24 a	-21.4	-21.4	-21.4	31.3	ESE	0.52	36.5	-38.2	719.2	0.028	0.000	19.1	60	1
05/19/19	3:25 a	-21.4	-21.4	-21.4	30.4	ESE	0.51	33.0	-38.0	719.2	0.028	0.000	19.1	61	1
05/19/19	3:26 a	-21.4	-21.4	-21.5	29.6	ESE	0.49	33.0	-37.8	719.2	0.028	0.000	19.1	60	1
05/19/19	3:27 a	-21.4	-21.4	-21.5	31.3	ESE	0.52	34.8	-38.2	719.2	0.028	0.000	19.1	59	1
05/19/19	3:28 a	-21.5	-21.4	-21.5	30.4	SE	0.51	33.0	-38.1	719.3	0.028	0.000	19.1	58	1
05/19/19	3:29 a	-21.5	-21.4	-21.5	30.4	SE	0.51	33.9	-38.1	719.2	0.028	0.000	19.1	62	1
05/19/19	3:30 a	-21.5	-21.4	-21.5	32.2	SE	0.54	34.8	-38.4	719.0	0.028	0.000	19.1	62	1
05/19/19	3:31 a	-21.5	-21.4	-21.6	31.3	SE	0.52	33.0	-38.2	719.2	0.028	0.000	19.1	64	1
05/19/19	3:32 a	-21.5	-21.5	-21.6	32.2	SE	0.54	33.9	-38.4	719.2	0.028	0.000	19.1	63	1
05/19/19	3:33 a	-21.6	-21.5	-21.6	31.3	SE	0.52	33.0	-38.3	719.2	0.028	0.000	19.1	56	1
05/19/19	3:34 a	-21.5	-21.5	-21.6	30.4	ESE	0.51	33.0	-38.1	719.2	0.028	0.000	19.1	55	1
05/19/19	3:35 a	-21.6	-21.5	-21.6	31.3	SE	0.52	34.8	-38.3	719.1	0.028	0.000	19.1	50	1
05/19/19	3:36 a	-21.6	-21.6	-21.6	31.3	SE	0.52	35.7	-38.3	719.2	0.028	0.000	19.1	52	1
05/19/19	3:37 a	-21.6	-21.6	-21.6	32.2	ESE	0.54	36.5	-38.5	719.2	0.028	0.000	19.1	54	1
05/19/19	3:38 a	-21.6	-21.5	-21.6	35.7	SE	0.59	39.1	-39.1	718.9	0.028	0.000	19.1	61	1
05/19/19	3:39 a	-21.6	-21.5	-21.6	35.7	SE	0.59	38.3	-39.1	719.0	0.028	0.000	19.1	60	1
05/19/19	3:40 a	-21.6	-21.6	-21.6	33.0	ESE	0.55	34.8	-38.7	719.0	0.028	0.000	19.1	65	1
05/19/19	3:41 a	-21.6	-21.6	-21.6	33.9	SE	0.57	37.4	-38.8	719.1	0.028	0.000	19.1	64	1
05/19/19	3:42 a	-21.6	-21.6	-21.6	31.3	ESE	0.52	33.9	-38.3	719.1	0.028	0.000	19.1	63	1
05/19/19	3:43 a	-21.6	-21.6	-21.6	32.2	ESE	0.54	35.7	-38.5	719.2	0.028	0.000	19.1	63	1
05/19/19	3:44 a	-21.6	-21.6	-21.6	30.4	ESE	0.51	33.0	-38.2	719.2	0.028	0.000	19.1	63	1
05/19/19	3:45 a	-21.6	-21.5	-21.6	32.2	ESE	0.54	34.8	-38.5	719.1	0.028	0.000	19.0	64	1
05/19/19	3:46 a	-21.5	-21.4	-21.6	32.2	SE	0.54	36.5	-38.4	719.1	0.028	0.000	19.1	66	1
05/19/19	3:47 a	-21.5	-21.5	-21.6	31.3	SE	0.52	34.8	-38.2	719.3	0.028	0.000	19.1	67	1
05/19/19	3:48 a	-21.5	-21.4	-21.5	30.4	SE	0.51	33.0	-38.1	719.3	0.028	0.000	19.1	66	1
05/19/19	3:49 a	-21.5	-21.5	-21.5	30.4	SE	0.51	36.5	-38.1	719.3	0.028	0.000	19.1	68	1
05/19/19	3:50 a	-21.5	-21.4	-21.5	28.7	SE	0.48	31.3	-37.7	719.4	0.028	0.000	19.1	68	1
05/19/19	3:51 a	-21.5	-21.4	-21.5	27.0	SE	0.45	30.4	-37.3	719.4	0.028	0.000	19.1	68	1
05/19/19	3:52 a	-21.5	-21.5	-21.5	27.8	SE	0.46	30.4	-37.6	719.4	0.028	0.000	19.1	65	1
05/19/19	3:53 a	-21.5	-21.5	-21.5	27.0	SE	0.45	30.4	-37.3	719.4	0.028	0.000	19.0	62	1
05/19/19	3:54 a	-21.5	-21.4	-21.5	28.7	SE	0.48	32.2	-37.7	719.4	0.028	0.000	19.1	65	1
05/19/19	3:55 a	-21.5	-21.4	-21.5	27.0	SE	0.45	30.4	-37.3	719.5	0.028	0.000	19.1	67	1
05/19/19	3:56 a	-21.5	-21.4	-21.5	25.2	SE	0.42	27.8	-36.9	719.5	0.028	0.000	19.1	67	1
05/19/19	3:57 a	-21.5	-21.4	-21.5	26.1	SE	0.43	28.7	-37.2	719.6	0.028	0.000	19.0	64	1
05/19/19	3:58 a	-21.4	-21.4	-21.5	26.1	SE	0.43	27.8	-37.1	719.7	0.028	0.000	19.1	64	1
05/19/19	3:59 a	-21.4	-21.4	-21.4	25.2	SE	0.42	27.8	-36.9	719.7	0.028	0.000	19.1	64	1
05/19/19	4:00 a	-21.4	-21.4	-21.5	26.1	SE	0.43	30.4	-37.1	719.7	0.028	0.000	19.1	63	1
05/19/19	4:01 a	-21.4	-21.4	-21.5	26.1	SE	0.43	30.4	-37.1	719.7	0.028	0.000	19.1	66	1
05/19/19	4:02 a	-21.4	-21.4	-21.4	24.3	SE	0.41	27.0	-36.7	719.7	0.028	0.000	19.1	62	1
05/19/19	4:03 a	-21.4	-21.4	-21.4	27.8	SE	0.46	33.0	-37.4	719.5	0.028	0.000	19.1	68	1
05/19/19	4:04 a	-21.4	-21.4	-21.4	28.7	SE	0.48	34.8	-37.7	719.7	0.028	0.000	19.1	71	1
05/19/19	4:05 a	-21.4	-21.4	-21.4	26.1	SE	0.43	29.6	-37.0	719.6	0.028	0.000	19.1	72	1
05/19/19	4:06 a	-21.4	-21.4	-21.4	26.1	SSE	0.43	28.7	-37.0	719.7	0.028	0.000	19.1	70	1
05/19/19	4:07 a	-21.4	-21.3	-21.4	26.1	SE	0.43	33.0	-37.0	719.6	0.028	0.000	19.1	69	1
05/19/19	4:08 a	-21.4	-21.4	-21.4	24.3	SSE	0.41	26.1	-36.6	719.7	0.028	0.000	19.1	70	1
05/19/19	4:09 a	-21.3	-21.3	-21.3	27.0	SSE	0.45	31.3	-37.1	719.7	0.028	0.000	19.1	71	1
05/19/19	4:10 a	-21.3	-21.3	-21.3	27.8	SSE	0.46	32.2	-37.3	719.7	0.028	0.000	19.1	71	1
05/19/19	4:11 a	-21.3	-21.3	-21.3	27.8	SSE	0.46	33.0	-37.3	719.9	0.028	0.000	19.1	71	1
05/19/19	4:12 a	-21.3	-21.3	-21.3	23.5	SSE	0.39	32.2	-36.2	719.8	0.028	0.000	19.1	71	1
05/19/19	4:13 a	-21.3	-21.3	-21.3	24.3	SE	0.41	33.0	-36.4	719.8	0.028	0.000	19.1	71	1
05/19/19	4:14 a	-21.2	-21.2	-21.2	25.2	SSE	0.42	28.7	-36.6	720.0	0.027	0.000	19.1	73	1
05/19/19	4:15 a	-21.2	-21.2	-21.2	22.6	SE	0.38	25.2	-35.9	719.9	0.027	0.000	19.1	74	1
05/19/19	4:16 a	-21.2	-21.2	-21.2	25.2	SE	0.42	30.4	-36.6	719.7	0.027	0.000	19.1	73	1
05/19/19	4:17 a	-21.2	-21.2	-21.2	18.3	ESE	0.30	26.1	-34.7	719.7	0.027	0.000	19.1	70	1
05/19/19	4:18 a	-21.1	-21.1	-21.2	27.0	SE	0.45	30.4	-36.8	719.5	0.027	0.000	19.1	69	1
05/19/19	4:19 a	-21.1	-21.1	-21.2	27.8	SE	0.46	30.4	-37.0	719.7	0.027	0.000	19.1	69	1
05/19/19	4:20 a	-21.1	-21.1	-21.1	26.1	SE	0.43	29.6	-36.6	719.7	0.027	0.000	19.1	68	1
05/19/19	4:21 a	-21.1	-21.1	-21.1	23.5	SE	0.39	27.0	-36.0	719.7	0.027	0.000	19.1	66	1
05/19/19	4:22 a	-21.1	-21.1	-21.1	24.3	SE	0.41	27.8	-36.2	719.9	0.027	0.000	19.1	66	1
05/19/19	4:23 a	-21.1	-21.1	-21.1	27.0	SE	0.45	33.9	-36.7	719.8	0.027	0.000	19.1	66	1
05/19/19	4:24 a	-21.1	-21.1	-21.1	25.2	SE	0.42	27.8	-36.3	719.8	0.027	0.000	19.1	65	1
05/19/19	4:25 a	-21.1	-21.1	-21.1	24.3	SSE	0.41	32.2	-36.2	719.9	0.027	0.000	19.1	69	1
05/19/19	4:26 a	-21.1	-21.0	-21.1	27.8	SSE	0.46	31.3	-36.9	719.8	0.027	0.000	19.1	68	1
05/19/19	4:27 a	-21.1	-21.0	-21.1	22.6	SSE	0.38	27.0	-35.7	719.8	0.027	0.000	19.1	68	1
05/19/19	4:28 a	-21.0	-21.0	-21.0	27.8	SE	0.46	30.4	-36.8	719.7	0.027	0.000	19.1	68	1
05/19/19	4:29 a	-21.0	-21.0	-21.0	29.6	SE	0.49	33.0	-37.2	719.7	0.027	0.000	19.1	69	1
05/19/19	4:30 a	-21.0	-20.9	-21.1	29.6	SE	0.49	33.9	-37.2	719.6	0.027	0.000	19.1	69	1
05/19/19	4:31 a	-21.1	-21.0	-21.1	25.2	SSE	0.42	28.7	-36.3	719.7	0.027	0.000	19.1	69	1
05/19/19	4:32 a	-21.0	-20.9	-21.0	26.1	SSE	0.43	30.4	-36.4	719.8	0.027	0.000	19.1	71	1
05/19/19	4:33 a	-21.0	-21.0	-21.0	28.7	SSE	0.48	31.3	-37.1	719.6	0.027	0.000	19.1	71	1
05/19/19	4:34 a	-20.9	-20.9	-21.0	27.8	SSE	0.46	31.3	-36.8	719.6	0.027	0.000	19.1	71	1
05/19/19	4:35 a	-21.0	-20.9	-21.0	27.0	SSE	0.45	29.6	-36.7	719.6	0.027	0.000	19.1	70	1
05/19/19	4:36 a	-20.9	-20.9	-20.9	28.7	SSE	0.48	31.3	-36.9	719.6	0.027	0.000	19.1	70	1
05/19/19	4:37 a	-20.9	-20.9	-21.0	27.0	SSE	0.45	29.6	-36.6	719.7	0.027	0.000	19.1	70	1
05/19/19	4:38 a	-20.9	-20.9	-20.9	26.1	SSE	0.43	27.8	-36.4	719.5	0.027	0.000	19.1	70	1
05/19/19	4:39 a	-20.9	-20.9	-20.9	25.2	SSE	0.42	27.8	-36.2	719.6	0.027	0.000	19.1	70	1
05/19/19	4:40 a	-20.9	-20.9	-20.9	27.8	SSE	0.46	33.0	-36.7	719.5	0.027	0.000	19.1	69	1
05/19/19	4:41 a	-20.9	-20.9	-20.9	27.8	SSE	0.46	32.2	-36.7	719.6	0.027	0.000	19.1	72	1
05/19/19	4:42 a	-20.9	-20.9	-20.9	23.5	SSE	0.39	27.0	-35.7	719.6	0.027	0.000	19.1	75	1
05/19/19	4:43 a	-20.8	-20.8	-20.9	25.2	SSE	0.42	30.4	-36.1	719.6	0.027	0.000	19.1	75	1
05/19/19	4:44 a	-20.8	-20.8	-20.8	26.1	SSE	0.43	30.4	-36.2	719.6	0.027	0.000	19.1	77	1
05/19/19	4:45 a	-20.8	-20.8	-20.8	26.1	SSE	0.43	30.4	-36.2	719.5	0.027	0.000	19.1	77	1
05/19/19	4:46 a	-20.8	-20.8	-20.8	25.2	SSE	0.42	28.7	-35.9	719.5	0.027	0.000	19.1	69	1
05/19/19	4:47 a	-20.8	-20.8	-20.8	29.6	SSE	0.49	33.0	-36.9	719.4	0.027	0.000	19.1	67	1
05/19/19	4:48 a	-20.8	-20.7	-20.8	27.8	SSE	0.46	33.0	-36.6	719.4	0.027	0.000	19.2	68	1
05/19/19	4:49 a	-20.8	-20.7	-20.8	27.0	SSE	0.45	31.3	-36.3	719.4	0.027	0.000	19.2	66	1
05/19/19	4:50 a	-20.8	-20.8	-20.8	27.0	SSE	0.45	30.4	-36.3	719.3	0.027	0.000	19.2	63	1
05/19/19	4:51 a	-20.8	-20.7	-20.8	27.0	SSE	0.45	33.9	-36.3	719.3	0.027	0.000	19.1	63	1
05/19/19	4:52 a	-20.8	-20.7	-20.8	27.8	SSE	0.46	31.3	-36.6	719.2	0.027	0.000	19.1	59	1
05/19/19	4:53 a	-20.8	-20.7	-20.8	16.5	SSE	0.28	33.0	-33.6	719.3	0.027	0.000	19.1	59	1
05/19/19	4:54 a	-20.7	-20.7	-20.7	27.8	SSE	0.46	36.5	-36.4	719.3	0.027	0.000	19.1	60	1
05/19/19	4:55 a	-20.7	-20.7	-20.7	31.3	SSE	0.52	36.5	-37.2	719.1	0.027	0.000	19.1	53	1
05/19/19	4:56 a	-20.7	-20.7	-20.7	28.7	SSE	0.48	32.2	-36.7	719.3	0.027	0.000	19.2	57	1
05/19/19	4:57 a	-20.7	-20.7	-20.7	25.2	SSE	0.42	34.8	-35.8	719.2	0.027	0.000	19.2	67	1
05/19/19	4:58 a	-20.7	-20.7	-20.7	24.3	SSE	0.41	33.0	-35.7	719.3	0.027	0.000	19.2	69	1
05/19/19	4:59 a	-20.7	-20.7	-20.7	21.7	SSE	0.36	27.8	-34.9	719.5	0.027	0.000	19.2	66	1
05/19/19	5:00 a	-20.7	-20.7	-20.7	13.9	SSE	0.23	23.5	-32.6	719.5	0.027	0.000	19.2	64	1
05/19/19	5:01 a	-20.7	-20.7	-20.7	22.6	SSE	0.38	34.8	-35.2	719.5	0.027	0.000	19.2	66	1
05/19/19	5:02 a	-20.7	-20.6	-20.7	17.4	SE	0.29	22.6	-33.7	719.7	0.027	0.000	19.2	66	1
05/19/19	5:03 a	-20.7	-20.6	-20.7	26.1	ESE	0.43	33.0	-36.0	719.4	0.027	0.000	19.2	67	1
05/19/19	5:04 a	-20.7	-20.6	-20.7	19.1	ESE	0.32	24.3	-34.3	719.5	0.027	0.000	19.2	56	1
05/19/19	5:05 a	-20.7	-20.7	-20.7	19.1	ESE	0.32	25.2	-34.3	719.6	0.027	0.000	19.2	57	1
05/19/19	5:06 a	-20.7	-20.6	-20.7	23.5	ESE	0.39	33.0	-35.4	719.5	0.027	0.000	19.2	58	1
05/19/19	5:07 a	-20.7	-20.7	-20.7	17.4	ESE	0.29	20.9	-33.7	719.5	0.027	0.000	19.2	60	1
05/19/19	5:08 a	-20.7	-20.6	-20.7	16.5	ESE	0.28	20.9	-33.4	719.5	0.027	0.000	19.2	60	1
05/19/19	5:09 a	-20.7	-20.6	-20.7	19.1	SE	0.32	21.7	-34.3	719.6	0.027	0.000	19.2	60	1
05/19/19	5:10 a	-20.7	-20.7	-20.7	18.3	SE	0.30	22.6	-34.0	719.5	0.027	0.000	19.2	56	1
05/19/19	5:11 a	-20.7	-20.6	-20.7	20.0	SE	0.33	24.3	-34.5	719.6	0.027	0.000	19.2	56	1
05/19/19	5:12 a	-20.7	-20.7	-20.7	20.9	SE	0.35	26.1	-34.7	719.5	0.027	0.000	19.2	65	1
05/19/19	5:13 a	-20.7	-20.7	-20.7	21.7	SE	0.36	23.5	-34.9	719.5	0.027	0.000	19.2	61	1
05/19/19	5:14 a	-20.7	-20.7	-20.7	20.0	SE	0.33	21.7	-34.5	719.5	0.027	0.000	19.2	55	1
05/19/19	5:15 a	-20.7	-20.7	-20.7	20.9	SE	0.35	24.3	-34.7	719.5	0.027	0.000	19.2	68	1
05/19/19	5:16 a	-20.7	-20.7	-20.7	20.9	SE	0.35	22.6	-34.7	719.5	0.027	0.000	19.2	70	1
05/19/19	5:17 a	-20.7	-20.7	-20.7	21.7	SE	0.36	25.2	-35.1	719.4	0.027	0.000	19.3	69	1
05/19/19	5:18 a	-20.7	-20.7	-20.7	21.7	SSE	0.36	25.2	-35.1	719.4	0.027	0.000	19.3	65	1
05/19/19	5:19 a	-20.7	-20.7	-20.7	24.3	SSE	0.41	28.7	-35.7	719.4	0.027	0.000	19.3	75	1
05/19/19	5:20 a	-20.7	-20.7	-20.7	20.0	SSE	0.33	23.5	-34.6	719.5	0.027	0.000	19.3	73	1
05/19/19	5:21 a	-20.7	-20.7	-20.8	21.7	SSE	0.36	27.0	-35.1	719.4	0.027	0.000	19.3	69	1
05/19/19	5:22 a	-20.8	-20.8	-20.8	25.2	SSE	0.42	30.4	-35.9	719.3	0.027	0.000	19.3	61	1
05/19/19	5:23 a	-20.8	-20.8	-20.8	22.6	SSE	0.38	29.6	-35.3	719.3	0.027	0.000	19.3	50	1
05/19/19	5:24 a	-20.8	-20.8	-20.8	22.6	SSE	0.38	29.6	-35.3	719.1	0.027	0.000	19.2	57	1
05/19/19	5:25 a	-20.8	-20.8	-20.8	27.0	SSE	0.45	31.3	-36.3	719.1	0.027	0.000	19.3	59	1
05/19/19	5:26 a	-20.8	-20.8	-20.8	20.9	SSE	0.35	29.6	-34.9	719.2	0.027	0.000	19.3	58	1
05/19/19	5:27 a	-20.8	-20.8	-20.8	26.1	SSE	0.43	31.3	-36.2	719.1	0.027	0.000	19.3	55	1
05/19/19	5:28 a	-20.8	-20.8	-20.8	25.2	SSE	0.42	29.6	-35.9	719.1	0.027	0.000	19.3	54	1
05/19/19	5:29 a	-20.8	-20.8	-20.8	20.0	SSE	0.33	27.0	-34.7	719.0	0.027	0.000	19.3	56	1
05/19/19	5:30 a	-20.8	-20.7	-20.8	17.4	SSE	0.29	27.8	-33.9	719.1	0.027	0.000	19.3	54	1
05/19/19	5:31 a	-20.7	-20.7	-20.8	19.1	SSE	0.32	27.8	-34.3	719.1	0.027	0.000	19.3	53	1
05/19/19	5:32 a	-20.7	-20.7	-20.8	20.9	SSE	0.35	31.3	-34.8	719.0	0.027	0.000	19.3	52	1
05/19/19	5:33 a	-20.8	-20.7	-20.8	19.1	SSE	0.32	33.9	-34.4	719.0	0.027	0.000	19.3	52	1
05/19/19	5:34 a	-20.7	-20.7	-20.8	21.7	SSE	0.36	30.4	-35.1	719.0	0.027	0.000	19.3	51	1
05/19/19	5:35 a	-20.7	-20.7	-20.7	24.3	SSE	0.41	33.0	-35.7	719.0	0.027	0.000	19.3	50	1
05/19/19	5:36 a	-20.7	-20.7	-20.7	22.6	SSE	0.38	32.2	-35.3	718.9	0.027	0.000	19.3	50	1
05/19/19	5:37 a	-20.7	-20.7	-20.7	21.7	SSE	0.36	35.7	-34.9	719.1	0.027	0.000	19.3	50	1
05/19/19	5:38 a	-20.7	-20.6	-20.7	20.9	SSE	0.35	28.7	-34.7	719.1	0.027	0.000	19.3	50	1
05/19/19	5:39 a	-20.6	-20.6	-20.6	25.2	SSE	0.42	32.2	-35.7	719.1	0.027	0.000	19.3	49	1
05/19/19	5:40 a	-20.6	-20.6	-20.6	23.5	SSE	0.39	27.8	-35.3	719.1	0.027	0.000	19.3	50	1
05/19/19	5:41 a	-20.6	-20.6	-20.6	22.6	SSE	0.38	34.8	-35.1	719.2	0.027	0.000	19.3	49	1
05/19/19	5:42 a	-20.6	-20.6	-20.6	27.0	SSE	0.45	33.9	-36.1	718.9	0.027	0.000	19.3	49	1
05/19/19	5:43 a	-20.6	-20.6	-20.6	27.8	SSE	0.46	35.7	-36.2	719.0	0.027	0.000	19.3	50	1
05/19/19	5:44 a	-20.6	-20.6	-20.6	28.7	SSE	0.48	33.0	-36.4	719.0	0.027	0.000	19.3	51	1
05/19/19	5:45 a	-20.6	-20.6	-20.6	29.6	SSE	0.49	33.9	-36.6	719.1	0.027	0.000	19.3	48	1
05/19/19	5:46 a	-20.5	-20.5	-20.6	28.7	SSE	0.48	33.0	-36.3	719.0	0.027	0.000	19.3	50	1
05/19/19	5:47 a	-20.5	-20.5	-20.6	28.7	SSE	0.48	32.2	-36.3	719.1	0.027	0.000	19.3	51	1
05/19/19	5:48 a	-20.5	-20.5	-20.5	27.0	SSE	0.45	30.4	-36.0	719.1	0.027	0.000	19.4	52	1
05/19/19	5:49 a	-20.5	-20.5	-20.5	26.1	SSE	0.43	31.3	-35.8	719.2	0.027	0.000	19.4	53	1
05/19/19	5:50 a	-20.5	-20.4	-20.5	29.6	SSE	0.49	35.7	-36.5	719.0	0.027	0.000	19.4	58	1
05/19/19	5:51 a	-20.4	-20.4	-20.5	28.7	SSE	0.48	34.8	-36.3	718.9	0.027	0.000	19.4	77	1
05/19/19	5:52 a	-20.5	-20.5	-20.5	29.6	SSE	0.49	33.9	-36.5	719.0	0.027	0.000	19.4	78	1
05/19/19	5:53 a	-20.5	-20.5	-20.5	28.7	SSE	0.48	33.9	-36.3	719.1	0.027	0.000	19.4	80	1
05/19/19	5:54 a	-20.5	-20.5	-20.5	24.3	SSE	0.41	28.7	-35.4	719.2	0.027	0.000	19.4	80	1
05/19/19	5:55 a	-20.5	-20.4	-20.5	27.0	SSE	0.45	29.6	-36.0	719.1	0.027	0.000	19.4	75	1
05/19/19	5:56 a	-20.4	-20.4	-20.4	28.7	SSE	0.48	32.2	-36.3	719.0	0.027	0.000	19.4	79	1
05/19/19	5:57 a	-20.4	-20.4	-20.4	31.3	SSE	0.52	35.7	-36.8	718.9	0.027	0.000	19.4	81	1
05/19/19	5:58 a	-20.4	-20.4	-20.4	33.0	SSE	0.55	36.5	-37.1	718.9	0.027	0.000	19.4	79	1
05/19/19	5:59 a	-20.4	-20.4	-20.4	33.0	SSE	0.55	35.7	-37.1	719.0	0.027	0.000	19.4	83	1
05/19/19	6:00 a	-20.4	-20.4	-20.4	32.2	SSE	0.54	35.7	-36.9	718.9	0.027	0.000	19.4	85	1
05/19/19	6:01 a	-20.4	-20.4	-20.4	29.6	SSE	0.49	33.0	-36.4	719.1	0.027	0.000	19.4	87	1
05/19/19	6:02 a	-20.4	-20.4	-20.4	30.4	SSE	0.51	34.8	-36.6	719.1	0.027	0.000	19.4	87	1
05/19/19	6:03 a	-20.4	-20.4	-20.4	31.3	SSE	0.52	34.8	-36.7	719.1	0.027	0.000	19.4	88	1
05/19/19	6:04 a	-20.4	-20.4	-20.4	30.4	SSE	0.51	33.9	-36.6	719.0	0.027	0.000	19.4	89	1
05/19/19	6:05 a	-20.4	-20.4	-20.4	27.8	SSE	0.46	33.9	-36.1	719.3	0.027	0.000	19.5	88	1
05/19/19	6:06 a	-20.4	-20.4	-20.4	28.7	SSE	0.48	32.2	-36.3	719.1	0.027	0.000	19.5	85	1
05/19/19	6:07 a	-20.5	-20.4	-20.5	27.0	SSE	0.45	29.6	-36.0	719.2	0.027	0.000	19.5	89	1
05/19/19	6:08 a	-20.5	-20.4	-20.5	29.6	SSE	0.49	33.9	-36.5	719.1	0.027	0.000	19.5	87	1
05/19/19	6:09 a	-20.4	-20.4	-20.5	29.6	SSE	0.49	33.0	-36.4	719.1	0.027	0.000	19.5	80	1
05/19/19	6:10 a	-20.5	-20.5	-20.5	28.7	SSE	0.48	31.3	-36.3	719.2	0.027	0.000	19.5	80	1
05/19/19	6:11 a	-20.5	-20.5	-20.5	29.6	SSE	0.49	33.0	-36.5	719.1	0.027	0.000	19.5	79	1
05/19/19	6:12 a	-20.5	-20.5	-20.6	30.4	SE	0.51	33.9	-36.7	719.2	0.027	0.000	19.5	78	1
05/19/19	6:13 a	-20.5	-20.5	-20.6	27.8	SSE	0.46	29.6	-36.2	719.3	0.027	0.000	19.5	73	1
05/19/19	6:14 a	-20.6	-20.5	-20.6	27.0	SSE	0.45	30.4	-36.1	719.3	0.027	0.000	19.5	73	1
05/19/19	6:15 a	-20.6	-20.6	-20.6	26.1	SSE	0.43	29.6	-35.9	719.3	0.027	0.000	19.5	81	1
05/19/19	6:16 a	-20.6	-20.6	-20.6	27.8	SE	0.46	29.6	-36.2	719.2	0.027	0.000	19.5	87	1
05/19/19	6:17 a	-20.6	-20.6	-20.6	28.7	SE	0.48	29.6	-36.4	719.3	0.027	0.000	19.5	88	1
05/19/19	6:18 a	-20.6	-20.6	-20.6	27.0	SSE	0.45	28.7	-36.1	719.3	0.027	0.000	19.6	83	1
05/19/19	6:19 a	-20.6	-20.6	-20.6	30.4	SE	0.51	33.9	-36.8	719.2	0.027	0.000	19.5	87	1
05/19/19	6:20 a	-20.6	-20.5	-20.6	30.4	SE	0.51	34.8	-36.8	719.2	0.027	0.000	19.6	82	1
05/19/19	6:21 a	-20.6	-20.6	-20.6	31.3	SE	0.52	35.7	-37.0	719.1	0.027	0.000	19.6	82	1
05/19/19	6:22 a	-20.6	-20.6	-20.6	30.4	SE	0.51	35.7	-36.8	719.2	0.027	0.000	19.6	81	1
05/19/19	6:23 a	-20.6	-20.6	-20.6	28.7	SE	0.48	30.4	-36.5	719.2	0.027	0.000	19.6	86	1
05/19/19	6:24 a	-20.6	-20.6	-20.6	30.4	SSE	0.51	34.8	-36.8	719.2	0.027	0.000	19.6	75	1
05/19/19	6:25 a	-20.6	-20.6	-20.6	31.3	SE	0.52	34.8	-37.0	719.1	0.027	0.000	19.6	73	1
05/19/19	6:26 a	-20.6	-20.6	-20.6	31.3	SSE	0.52	35.7	-37.0	719.2	0.027	0.000	19.6	73	1
05/19/19	6:27 a	-20.6	-20.6	-20.6	30.4	SSE	0.51	33.0	-36.8	719.2	0.027	0.000	19.6	55	1
05/19/19	6:28 a	-20.6	-20.6	-20.6	30.4	SE	0.51	34.8	-36.8	719.2	0.027	0.000	19.6	55	1
05/19/19	6:29 a	-20.6	-20.6	-20.6	29.6	SSE	0.49	32.2	-36.7	719.2	0.027	0.000	19.6	62	1
05/19/19	6:30 a	-20.6	-20.6	-20.6	29.6	SSE	0.49	33.0	-36.7	719.3	0.027	0.000	19.6	53	1
05/19/19	6:31 a	-20.6	-20.6	-20.6	27.8	SSE	0.46	31.3	-36.2	719.2	0.027	0.000	19.6	55	1
05/19/19	6:32 a	-20.6	-20.5	-20.6	29.6	SSE	0.49	32.2	-36.6	719.2	0.027	0.000	19.6	54	1
05/19/19	6:33 a	-20.6	-20.6	-20.6	28.7	SSE	0.48	32.2	-36.4	719.3	0.027	0.000	19.6	58	1
05/19/19	6:34 a	-20.6	-20.6	-20.6	28.7	SSE	0.48	34.8	-36.4	719.2	0.027	0.000	19.6	56	1
05/19/19	6:35 a	-20.6	-20.6	-20.6	28.7	SSE	0.48	31.3	-36.5	719.3	0.027	0.000	19.6	55	1
05/19/19	6:36 a	-20.6	-20.6	-20.6	27.8	SSE	0.46	30.4	-36.2	719.3	0.027	0.000	19.6	70	1
05/19/19	6:37 a	-20.6	-20.6	-20.6	27.8	SSE	0.46	31.3	-36.2	719.2	0.027	0.000	19.6	74	1
05/19/19	6:38 a	-20.6	-20.5	-20.6	28.7	SE	0.48	32.2	-36.4	719.2	0.027	0.000	19.6	79	1
05/19/19	6:39 a	-20.6	-20.5	-20.6	27.8	SSE	0.46	32.2	-36.2	719.3	0.027	0.000	19.6	81	1
05/19/19	6:40 a	-20.6	-20.6	-20.6	27.0	SSE	0.45	32.2	-36.1	719.3	0.027	0.000	19.6	87	1
05/19/19	6:41 a	-20.6	-20.6	-20.6	29.6	SSE	0.49	32.2	-36.6	719.4	0.027	0.000	19.6	86	1
05/19/19	6:42 a	-20.5	-20.5	-20.6	30.4	SSE	0.51	36.5	-36.7	719.3	0.027	0.000	19.6	88	1
05/19/19	6:43 a	-20.6	-20.5	-20.6	30.4	SE	0.51	33.9	-36.8	719.2	0.027	0.000	19.6	88	1
05/19/19	6:44 a	-20.5	-20.4	-20.6	27.8	SSE	0.46	33.9	-36.2	719.4	0.027	0.000	19.6	87	1
05/19/19	6:45 a	-20.5	-20.5	-20.5	27.0	SSE	0.45	29.6	-36.0	719.4	0.027	0.000	19.6	88	1
05/19/19	6:46 a	-20.5	-20.4	-20.5	27.0	SSE	0.45	30.4	-36.0	719.5	0.027	0.000	19.6	87	1
05/19/19	6:47 a	-20.5	-20.5	-20.5	27.0	SSE	0.45	29.6	-36.0	719.4	0.027	0.000	19.6	83	1
05/19/19	6:48 a	-20.5	-20.5	-20.5	27.0	SSE	0.45	29.6	-36.0	719.4	0.027	0.000	19.6	82	1
05/19/19	6:49 a	-20.4	-20.4	-20.4	27.0	SSE	0.45	31.3	-35.9	719.4	0.027	0.000	19.6	77	1
05/19/19	6:50 a	-20.4	-20.4	-20.4	28.7	SSE	0.48	33.0	-36.3	719.3	0.027	0.000	19.6	73	1
05/19/19	6:51 a	-20.4	-20.4	-20.4	27.8	SSE	0.46	31.3	-36.1	719.2	0.027	0.000	19.6	61	1
05/19/19	6:52 a	-20.4	-20.4	-20.4	30.4	SSE	0.51	32.2	-36.6	719.4	0.027	0.000	19.6	57	1
05/19/19	6:53 a	-20.4	-20.4	-20.4	30.4	SE	0.51	33.9	-36.6	719.2	0.027	0.000	19.6	54	1
05/19/19	6:54 a	-20.4	-20.4	-20.4	33.0	SSE	0.55	35.7	-37.1	719.3	0.027	0.000	19.6	53	1
05/19/19	6:55 a	-20.3	-20.3	-20.4	30.4	SSE	0.51	33.9	-36.4	719.3	0.027	0.000	19.6	50	1
05/19/19	6:56 a	-20.3	-20.3	-20.4	30.4	SSE	0.51	34.8	-36.4	719.3	0.027	0.000	19.6	50	1
05/19/19	6:57 a	-20.3	-20.3	-20.3	28.7	SSE	0.48	32.2	-36.1	719.4	0.027	0.000	19.6	49	1
05/19/19	6:58 a	-20.3	-20.3	-20.3	28.7	SSE	0.48	33.9	-36.1	719.3	0.027	0.000	19.6	49	1
05/19/19	6:59 a	-20.3	-20.3	-20.3	27.8	SSE	0.46	34.8	-35.9	719.1	0.027	0.000	19.6	49	1
05/19/19	7:00 a	-20.3	-20.3	-20.3	27.8	SSE	0.46	36.5	-35.9	719.2	0.027	0.000	19.6	49	1
05/19/19	7:01 a	-20.2	-20.2	-20.3	37.4	SSE	0.62	46.1	-37.6	719.0	0.027	0.000	19.6	49	1
05/19/19	7:02 a	-20.2	-20.2	-20.2	31.3	SSE	0.52	36.5	-36.5	719.2	0.027	0.000	19.6	49	1
05/19/19	7:03 a	-20.2	-20.1	-20.2	30.4	SSE	0.51	36.5	-36.2	719.1	0.027	0.000	19.6	50	1
05/19/19	7:04 a	-20.1	-20.1	-20.1	33.0	SSE	0.55	41.7	-36.7	719.1	0.027	0.000	19.6	50	1
05/19/19	7:05 a	-20.0	-20.0	-20.1	30.4	SSE	0.51	38.3	-36.0	719.2	0.027	0.000	19.7	49	1
05/19/19	7:06 a	-20.0	-20.0	-20.0	28.7	SSE	0.48	33.9	-35.7	719.4	0.027	0.000	19.7	49	1
05/19/19	7:07 a	-19.9	-19.9	-19.9	31.3	SE	0.52	33.9	-36.1	719.2	0.027	0.000	19.7	49	1
05/19/19	7:08 a	-19.9	-19.8	-19.9	23.5	SSE	0.39	32.2	-34.3	719.5	0.027	0.000	19.7	49	1
05/19/19	7:09 a	-19.8	-19.8	-19.8	25.2	SSE	0.42	30.4	-34.6	719.4	0.026	0.000	19.7	50	1
05/19/19	7:10 a	-19.8	-19.8	-19.8	22.6	SSE	0.38	30.4	-34.0	719.4	0.026	0.000	19.7	49	1
05/19/19	7:11 a	-19.7	-19.7	-19.7	23.5	SSE	0.39	29.6	-34.1	719.3	0.026	0.000	19.6	50	1
05/19/19	7:12 a	-19.7	-19.6	-19.7	13.0	S	0.22	27.0	-30.9	719.2	0.026	0.000	19.7	49	1
05/19/19	7:13 a	-19.7	-19.6	-19.7	15.7	S	0.26	36.5	-31.9	719.1	0.026	0.000	19.7	49	1
05/19/19	7:14 a	-19.6	-19.6	-19.6	11.3	S	0.19	23.5	-30.1	719.3	0.026	0.000	19.7	49	1
05/19/19	7:15 a	-19.6	-19.5	-19.6	22.6	SSE	0.38	33.0	-33.7	719.3	0.026	0.000	19.6	49	1
05/19/19	7:16 a	-19.4	-19.4	-19.4	15.7	S	0.26	31.3	-31.6	719.3	0.026	0.000	19.6	50	1
05/19/19	7:17 a	-19.4	-19.4	-19.4	28.7	SSE	0.48	33.0	-34.8	719.3	0.026	0.000	19.7	50	1
05/19/19	7:18 a	-19.3	-19.3	-19.4	20.0	SSE	0.33	28.7	-32.7	719.4	0.026	0.000	19.6	50	1
05/19/19	7:19 a	-19.2	-19.2	-19.3	25.2	SSE	0.42	33.0	-33.9	719.3	0.026	0.000	19.7	50	1
05/19/19	7:20 a	-19.2	-19.2	-19.2	12.2	S	0.20	25.2	-30.0	719.4	0.026	0.000	19.6	49	1
05/19/19	7:21 a	-19.2	-19.1	-19.2	26.1	SSE	0.43	36.5	-34.0	719.2	0.026	0.000	19.7	49	1
05/19/19	7:22 a	-19.1	-19.1	-19.2	29.6	SSE	0.49	33.9	-34.6	719.2	0.026	0.000	19.7	49	1
05/19/19	7:23 a	-19.1	-19.0	-19.1	19.1	SSE	0.32	33.9	-32.1	719.3	0.026	0.000	19.7	50	1
05/19/19	7:24 a	-19.0	-19.0	-19.1	22.6	SSE	0.38	32.2	-32.9	719.2	0.026	0.000	19.7	49	1
05/19/19	7:25 a	-18.9	-18.9	-18.9	15.7	SSE	0.26	27.0	-30.9	719.3	0.026	0.000	19.7	50	1
05/19/19	7:26 a	-18.9	-18.9	-18.9	24.3	SSE	0.41	31.3	-33.3	719.3	0.026	0.000	19.7	50	1
05/19/19	7:27 a	-18.9	-18.9	-18.9	20.9	SSE	0.35	36.5	-32.4	719.3	0.026	0.000	19.7	50	1
05/19/19	7:28 a	-18.8	-18.8	-18.9	23.5	SSE	0.39	35.7	-32.9	719.3	0.026	0.000	19.7	51	1
05/19/19	7:29 a	-18.8	-18.8	-18.8	25.2	SSE	0.42	39.1	-33.3	719.1	0.026	0.000	19.7	51	1
05/19/19	7:30 a	-18.8	-18.8	-18.8	27.8	SSE	0.46	34.8	-33.8	719.1	0.026	0.000	19.7	51	1
05/19/19	7:31 a	-18.8	-18.8	-18.8	24.3	SSE	0.41	33.9	-33.1	719.3	0.026	0.000	19.7	51	1
05/19/19	7:32 a	-18.7	-18.7	-18.8	29.6	SSE	0.49	40.9	-34.1	719.2	0.026	0.000	19.7	52	1
05/19/19	7:33 a	-18.7	-18.7	-18.7	15.7	SSE	0.26	27.0	-30.6	719.2	0.026	0.000	19.7	52	1
05/19/19	7:34 a	-18.7	-18.7	-18.7	15.7	SSE	0.26	33.0	-30.6	719.4	0.026	0.000	19.7	66	1
05/19/19	7:35 a	-18.7	-18.7	-18.7	30.4	SSE	0.51	40.9	-34.2	719.1	0.026	0.000	19.7	88	1
05/19/19	7:36 a	-18.7	-18.6	-18.7	19.1	SSE	0.32	36.5	-31.6	719.2	0.026	0.000	19.7	87	1
05/19/19	7:37 a	-18.7	-18.6	-18.7	25.2	SSE	0.42	36.5	-33.1	719.2	0.026	0.000	19.7	84	1
05/19/19	7:38 a	-18.7	-18.6	-18.7	16.5	SSE	0.28	24.3	-30.8	719.3	0.026	0.000	19.7	79	1
05/19/19	7:39 a	-18.6	-18.6	-18.6	23.5	SSE	0.39	29.6	-32.7	719.4	0.026	0.000	19.7	68	1
05/19/19	7:40 a	-18.6	-18.6	-18.6	27.8	SSE	0.46	36.5	-33.6	719.4	0.026	0.000	19.7	68	1
05/19/19	7:41 a	-18.6	-18.6	-18.6	26.1	SSE	0.43	30.4	-33.2	719.4	0.026	0.000	19.7	72	1
05/19/19	7:42 a	-18.6	-18.6	-18.6	24.3	SSE	0.41	33.9	-32.8	719.4	0.026	0.000	19.7	67	1
05/19/19	7:43 a	-18.6	-18.6	-18.6	20.9	SSE	0.35	39.1	-31.9	719.3	0.026	0.000	19.8	73	1
05/19/19	7:44 a	-18.6	-18.6	-18.6	20.0	SSE	0.33	31.3	-31.7	719.3	0.026	0.000	19.8	70	1
05/19/19	7:45 a	-18.6	-18.6	-18.6	23.5	SSE	0.39	34.8	-32.7	719.5	0.026	0.000	19.7	80	1
05/19/19	7:46 a	-18.6	-18.6	-18.6	25.2	SSE	0.42	35.7	-33.1	719.3	0.026	0.000	19.8	85	1
05/19/19	7:47 a	-18.6	-18.6	-18.6	25.2	SSE	0.42	33.0	-32.9	719.4	0.026	0.000	19.8	89	1
05/19/19	7:48 a	-18.6	-18.6	-18.6	27.8	SSE	0.46	30.4	-33.5	719.4	0.026	0.000	19.8	90	1
05/19/19	7:49 a	-18.6	-18.5	-18.6	28.7	SSE	0.48	35.7	-33.7	719.2	0.026	0.000	19.8	87	1
05/19/19	7:50 a	-18.6	-18.6	-18.6	29.6	SSE	0.49	35.7	-33.8	719.4	0.026	0.000	19.8	84	1
05/19/19	7:51 a	-18.6	-18.5	-18.6	25.2	SSE	0.42	34.8	-32.9	719.4	0.026	0.000	19.8	79	1
05/19/19	7:52 a	-18.5	-18.5	-18.5	32.2	SSE	0.54	39.1	-34.3	719.2	0.026	0.000	19.8	82	1
05/19/19	7:53 a	-18.5	-18.5	-18.5	31.3	SSE	0.52	35.7	-34.1	719.3	0.026	0.000	19.8	80	1
05/19/19	7:54 a	-18.5	-18.5	-18.5	31.3	SSE	0.52	36.5	-34.1	719.2	0.026	0.000	19.8	77	1
05/19/19	7:55 a	-18.5	-18.5	-18.5	35.7	SSE	0.59	39.1	-34.8	719.3	0.026	0.000	19.8	73	1
05/19/19	7:56 a	-18.5	-18.5	-18.5	31.3	SSE	0.52	39.1	-34.1	719.3	0.026	0.000	19.8	73	1
05/19/19	7:57 a	-18.5	-18.4	-18.5	28.7	SSE	0.48	33.9	-33.6	719.3	0.026	0.000	19.8	73	1
05/19/19	7:58 a	-18.5	-18.5	-18.5	29.6	SSE	0.49	40.0	-33.8	719.2	0.026	0.000	19.8	72	1
05/19/19	7:59 a	-18.5	-18.4	-18.5	23.5	SSE	0.39	39.1	-32.5	719.3	0.026	0.000	19.8	73	1
05/19/19	8:00 a	-18.4	-18.4	-18.5	30.4	SSE	0.51	38.3	-33.9	719.3	0.026	0.000	19.8	74	1
05/19/19	8:01 a	-18.4	-18.4	-18.4	33.9	SSE	0.57	40.9	-34.5	719.0	0.026	0.000	19.8	78	1
05/19/19	8:02 a	-18.4	-18.4	-18.4	27.8	SSE	0.46	36.5	-33.3	719.3	0.026	0.000	19.8	83	1
05/19/19	8:03 a	-18.4	-18.4	-18.4	32.2	SSE	0.54	40.0	-34.2	718.9	0.026	0.000	19.8	85	1
05/19/19	8:04 a	-18.3	-18.3	-18.4	35.7	SSE	0.59	43.5	-34.6	719.1	0.025	0.000	19.8	88	1
05/19/19	8:05 a	-18.3	-18.3	-18.4	34.8	SSE	0.58	40.0	-34.5	719.0	0.025	0.000	19.8	86	1
05/19/19	8:07 a	-18.3	-18.3	-18.3	24.3	SSE	0.41	33.0	-32.4	719.4	0.025	0.000	19.8	75	1
05/19/19	8:08 a	-18.3	-18.3	-18.3	31.3	SSE	0.52	37.4	-33.9	719.2	0.025	0.000	19.8	77	1
05/19/19	8:09 a	-18.3	-18.3	-18.3	28.7	SSE	0.48	37.4	-33.3	719.2	0.025	0.000	19.8	73	1
05/19/19	8:10 a	-18.3	-18.3	-18.3	34.8	SSE	0.58	40.9	-34.4	719.0	0.025	0.000	19.9	78	1
05/19/19	8:11 a	-18.2	-18.2	-18.3	33.0	SSE	0.55	40.9	-34.0	719.4	0.025	0.000	19.8	85	1
05/19/19	8:12 a	-18.3	-18.2	-18.3	29.6	SSE	0.49	35.7	-33.4	719.3	0.025	0.000	19.9	89	1
05/19/19	8:13 a	-18.3	-18.2	-18.3	30.4	SSE	0.51	35.7	-33.6	719.4	0.025	0.000	19.9	88	1
05/19/19	8:14 a	-18.2	-18.2	-18.3	27.8	SSE	0.46	33.0	-33.1	719.5	0.025	0.000	19.9	88	1
05/19/19	8:15 a	-18.2	-18.2	-18.3	23.5	SSE	0.39	32.2	-32.1	719.3	0.025	0.000	19.9	89	1
05/19/19	8:16 a	-18.2	-18.2	-18.3	30.4	SSE	0.51	35.7	-33.6	719.3	0.025	0.000	19.9	89	1
05/19/19	8:17 a	-18.2	-18.2	-18.2	27.8	SSE	0.46	33.0	-33.1	719.3	0.025	0.000	19.9	89	1
05/19/19	8:18 a	-18.2	-18.2	-18.2	33.0	SSE	0.55	38.3	-34.0	719.3	0.025	0.000	19.9	90	1
05/19/19	8:19 a	-18.2	-18.2	-18.2	29.6	SSE	0.49	36.5	-33.4	719.3	0.025	0.000	19.9	91	1
05/19/19	8:20 a	-18.2	-18.2	-18.2	31.3	SSE	0.52	37.4	-33.7	719.4	0.025	0.000	19.9	89	1
05/19/19	8:21 a	-18.2	-18.2	-18.2	33.0	SSE	0.55	38.3	-34.0	719.2	0.025	0.000	19.9	86	1
05/19/19	8:22 a	-18.2	-18.2	-18.2	38.3	SSE	0.64	43.5	-34.9	719.1	0.025	0.000	19.9	76	1
05/19/19	8:23 a	-18.2	-18.2	-18.2	31.3	SSE	0.52	40.9	-33.7	719.1	0.025	0.000	19.9	82	1
05/19/19	8:24 a	-18.2	-18.2	-18.2	27.0	SSE	0.45	35.7	-32.9	719.2	0.025	0.000	19.9	79	1
05/19/19	8:25 a	-18.2	-18.2	-18.2	28.7	SSE	0.48	40.9	-33.2	719.2	0.025	0.000	19.9	86	1
05/19/19	8:26 a	-18.2	-18.2	-18.2	29.6	SSE	0.49	40.9	-33.3	719.2	0.025	0.000	19.9	85	1
05/19/19	8:27 a	-18.2	-18.1	-18.2	21.7	SSE	0.36	33.0	-31.6	719.4	0.025	0.000	19.9	86	1
05/19/19	8:28 a	-18.1	-18.1	-18.2	27.0	SSE	0.45	35.7	-32.7	719.3	0.025	0.000	19.9	87	1
05/19/19	8:29 a	-18.1	-18.1	-18.1	24.3	SSE	0.41	36.5	-32.2	719.2	0.025	0.000	19.9	87	1
05/19/19	8:30 a	-18.1	-18.1	-18.1	25.2	SSE	0.42	38.3	-32.3	719.3	0.025	0.000	19.9	88	1
05/19/19	8:31 a	-18.1	-18.0	-18.1	30.4	SSE	0.51	34.8	-33.3	719.3	0.025	0.000	19.9	87	1
05/19/19	8:32 a	-18.0	-18.0	-18.1	23.5	SSE	0.39	36.5	-31.8	719.3	0.025	0.000	19.9	88	1
05/19/19	8:33 a	-18.0	-18.0	-18.0	20.9	SSE	0.35	30.4	-31.2	719.6	0.025	0.000	19.9	88	1
05/19/19	8:34 a	-18.0	-17.9	-18.0	15.7	SSE	0.26	25.2	-29.7	719.5	0.025	0.000	19.9	91	1
05/19/19	8:35 a	-17.9	-17.9	-17.9	24.3	SSE	0.41	32.2	-31.9	719.6	0.025	0.000	19.9	93	1
05/19/19	8:36 a	-17.9	-17.9	-17.9	25.2	SSE	0.42	28.7	-32.1	719.5	0.025	0.000	19.9	93	1
05/19/19	8:37 a	-17.9	-17.9	-17.9	22.6	SSE	0.38	28.7	-31.4	719.6	0.025	0.000	19.9	93	1
05/19/19	8:38 a	-17.9	-17.8	-17.9	24.3	SSE	0.41	29.6	-31.9	719.6	0.025	0.000	19.9	93	1
05/19/19	8:39 a	-17.9	-17.9	-17.9	26.1	SSE	0.43	34.8	-32.2	719.4	0.025	0.000	19.9	93	1
05/19/19	8:40 a	-17.8	-17.8	-17.9	28.7	SSE	0.48	33.0	-32.7	719.6	0.025	0.000	19.9	93	1
05/19/19	8:41 a	-17.8	-17.8	-17.8	26.1	SSE	0.43	28.7	-32.2	719.4	0.025	0.000	19.9	93	1
05/19/19	8:42 a	-17.8	-17.8	-17.8	27.8	SSE	0.46	35.7	-32.5	719.5	0.025	0.000	19.9	93	1
05/19/19	8:43 a	-17.8	-17.8	-17.8	26.1	SSE	0.43	29.6	-32.2	719.5	0.025	0.000	19.9	93	1
05/19/19	8:44 a	-17.8	-17.8	-17.8	25.2	SSE	0.42	36.5	-32.0	719.5	0.025	0.000	19.9	93	1
05/19/19	8:45 a	-17.8	-17.8	-17.8	25.2	SSE	0.42	33.9	-32.0	719.5	0.025	0.000	20.0	93	1
05/19/19	8:46 a	-17.8	-17.8	-17.8	24.3	SSE	0.41	31.3	-31.8	719.7	0.025	0.000	20.0	93	1
05/19/19	8:47 a	-17.8	-17.8	-17.8	20.9	SSE	0.35	28.7	-30.9	719.7	0.025	0.000	20.0	92	1
05/19/19	8:48 a	-17.8	-17.8	-17.8	22.6	SSE	0.38	26.1	-31.3	719.7	0.025	0.000	20.0	92	1
05/19/19	8:49 a	-17.8	-17.8	-17.8	25.2	SSE	0.42	28.7	-31.9	719.5	0.025	0.000	20.0	93	1
05/19/19	8:50 a	-17.8	-17.8	-17.8	30.4	SE	0.51	34.8	-32.9	719.5	0.025	0.000	20.0	92	1
05/19/19	8:51 a	-17.8	-17.8	-17.8	29.6	SE	0.49	33.9	-32.8	719.5	0.025	0.000	20.0	92	1
05/19/19	8:52 a	-17.8	-17.7	-17.8	29.6	SE	0.49	34.8	-32.8	719.2	0.025	0.000	20.1	88	1
05/19/19	8:53 a	-17.8	-17.7	-17.8	30.4	SE	0.51	35.7	-32.9	719.6	0.025	0.000	20.1	86	1
05/19/19	8:54 a	-17.8	-17.8	-17.8	26.1	SSE	0.43	33.9	-32.1	719.7	0.025	0.000	20.1	86	1
05/19/19	8:55 a	-17.8	-17.8	-17.8	22.6	SE	0.38	27.0	-31.3	719.7	0.025	0.000	20.1	86	1
05/19/19	8:56 a	-17.8	-17.7	-17.8	23.5	SSE	0.39	27.0	-31.5	719.8	0.025	0.000	20.1	87	1
05/19/19	8:57 a	-17.8	-17.8	-17.8	26.1	SE	0.43	32.2	-32.1	719.5	0.025	0.000	20.1	86	1
05/19/19	8:58 a	-17.8	-17.8	-17.8	27.0	SE	0.45	32.2	-32.3	719.6	0.025	0.000	20.1	85	1
05/19/19	8:59 a	-17.8	-17.8	-17.8	29.6	SE	0.49	36.5	-32.8	719.4	0.025	0.000	20.1	84	1
05/19/19	9:00 a	-17.8	-17.8	-17.8	32.2	SE	0.54	34.8	-33.3	719.6	0.025	0.000	20.1	84	1
05/19/19	9:01 a	-17.8	-17.8	-17.8	30.4	SE	0.51	34.8	-33.0	719.5	0.025	0.000	20.1	84	1
05/19/19	9:02 a	-17.8	-17.8	-17.8	29.6	SE	0.49	34.8	-32.8	719.8	0.025	0.000	20.1	88	1
05/19/19	9:03 a	-17.8	-17.8	-17.9	25.2	SSE	0.42	33.0	-32.0	719.8	0.025	0.000	20.1	88	1
05/19/19	9:04 a	-17.9	-17.9	-17.9	23.5	SE	0.39	27.0	-31.7	719.5	0.025	0.000	20.1	87	1
05/19/19	9:05 a	-17.9	-17.9	-17.9	27.0	SE	0.45	31.3	-32.4	719.6	0.025	0.000	20.1	83	1
05/19/19	9:06 a	-17.9	-17.9	-17.9	27.0	SE	0.45	30.4	-32.5	719.5	0.025	0.000	20.1	87	1
05/19/19	9:07 a	-17.9	-17.9	-18.0	32.2	SE	0.54	37.4	-33.5	719.3	0.025	0.000	20.1	88	1
05/19/19	9:08 a	-18.0	-17.9	-18.0	32.2	SE	0.54	33.9	-33.6	719.3	0.025	0.000	20.1	89	1
05/19/19	9:09 a	-18.0	-18.0	-18.0	32.2	SE	0.54	36.5	-33.6	719.3	0.025	0.000	20.1	89	1
05/19/19	9:10 a	-18.1	-18.1	-18.1	31.3	SE	0.52	35.7	-33.5	719.2	0.025	0.000	20.1	71	1
05/19/19	9:11 a	-18.1	-18.1	-18.1	31.3	SE	0.52	37.4	-33.5	719.0	0.025	0.000	20.1	87	1
05/19/19	9:12 a	-18.1	-18.0	-18.1	32.2	SE	0.54	34.8	-33.7	719.2	0.025	0.000	20.1	91	1
05/19/19	9:13 a	-18.1	-18.1	-18.1	33.0	SE	0.55	40.0	-33.9	719.3	0.025	0.000	20.1	89	1
05/19/19	9:14 a	-18.2	-18.1	-18.2	28.7	SE	0.48	31.3	-33.2	719.3	0.025	0.000	20.1	89	1
05/19/19	9:15 a	-18.2	-18.2	-18.2	28.7	SE	0.48	31.3	-33.2	719.4	0.025	0.000	20.1	91	1
05/19/19	9:16 a	-18.2	-18.2	-18.2	27.0	SE	0.45	27.8	-32.8	719.4	0.025	0.000	20.1	90	1
05/19/19	9:17 a	-18.2	-18.2	-18.2	29.6	SE	0.49	33.0	-33.4	719.4	0.025	0.000	20.1	93	1
05/19/19	9:18 a	-18.2	-18.2	-18.3	31.3	SE	0.52	33.9	-33.7	719.3	0.025	0.000	20.1	88	1
05/19/19	9:19 a	-18.3	-18.3	-18.3	33.0	SE	0.55	35.7	-34.1	719.0	0.025	0.000	20.1	86	1
05/19/19	9:20 a	-18.3	-18.3	-18.3	33.9	SE	0.57	37.4	-34.3	719.2	0.025	0.000	20.1	52	1
05/19/19	9:21 a	-18.3	-18.3	-18.3	33.9	SE	0.57	38.3	-34.3	719.2	0.025	0.000	20.1	67	1
05/19/19	9:22 a	-18.3	-18.3	-18.4	30.4	SE	0.51	33.0	-33.7	719.3	0.025	0.000	20.1	59	1
05/19/19	9:23 a	-18.4	-18.4	-18.4	33.0	SE	0.55	36.5	-34.3	719.4	0.026	0.000	20.1	61	1
05/19/19	9:24 a	-18.4	-18.3	-18.4	34.8	SE	0.58	38.3	-34.6	719.4	0.026	0.000	20.1	39	1
05/19/19	9:25 a	-18.4	-18.4	-18.4	29.6	SE	0.49	33.0	-33.6	719.3	0.026	0.000	20.1	36	1
05/19/19	9:26 a	-18.4	-18.4	-18.4	32.2	SE	0.54	38.3	-34.1	719.3	0.026	0.000	20.1	36	1
05/19/19	9:27 a	-18.4	-18.4	-18.4	34.8	SE	0.58	40.0	-34.6	719.4	0.026	0.000	20.2	34	1
05/19/19	9:28 a	-18.4	-18.4	-18.4	33.9	SE	0.57	38.3	-34.4	719.2	0.026	0.000	20.1	34	1
05/19/19	9:29 a	-18.4	-18.4	-18.4	31.3	SE	0.52	33.9	-33.9	719.4	0.026	0.000	20.1	35	1
05/19/19	9:30 a	-18.4	-18.4	-18.4	33.9	SE	0.57	38.3	-34.4	719.3	0.026	0.000	20.1	37	1
05/19/19	9:31 a	-18.4	-18.3	-18.4	38.3	SE	0.64	40.9	-35.1	719.2	0.026	0.000	20.1	35	1
05/19/19	9:32 a	-18.3	-18.3	-18.4	38.3	SE	0.64	41.7	-35.1	719.3	0.025	0.000	20.1	34	1
05/19/19	9:33 a	-18.3	-18.3	-18.3	36.5	SSE	0.61	40.0	-34.8	719.2	0.025	0.000	20.1	34	1
05/19/19	9:34 a	-18.3	-18.3	-18.3	35.7	SSE	0.59	40.9	-34.6	719.3	0.025	0.000	20.2	34	1
05/19/19	9:35 a	-18.3	-18.3	-18.3	34.8	SSE	0.58	37.4	-34.5	719.3	0.025	0.000	20.1	34	1
05/19/19	9:36 a	-18.3	-18.3	-18.3	33.9	SSE	0.57	37.4	-34.3	719.3	0.025	0.000	20.1	34	1
05/19/19	9:37 a	-18.3	-18.3	-18.3	33.0	SSE	0.55	36.5	-34.1	719.5	0.025	0.000	20.2	34	1
05/19/19	9:38 a	-18.3	-18.3	-18.3	30.4	SSE	0.51	34.8	-33.6	719.5	0.025	0.000	20.2	34	1
05/19/19	9:39 a	-18.3	-18.3	-18.3	30.4	SSE	0.51	33.0	-33.6	719.4	0.025	0.000	20.1	34	1
05/19/19	9:40 a	-18.3	-18.3	-18.3	30.4	SSE	0.51	33.0	-33.6	719.3	0.025	0.000	20.1	34	1
05/19/19	9:41 a	-18.3	-18.3	-18.3	29.6	SSE	0.49	33.9	-33.6	719.4	0.025	0.000	20.1	34	1
05/19/19	9:42 a	-18.3	-18.3	-18.3	27.8	SSE	0.46	33.0	-33.1	719.5	0.025	0.000	20.1	34	1
05/19/19	9:43 a	-18.3	-18.3	-18.3	31.3	SSE	0.52	33.9	-33.9	719.4	0.025	0.000	20.1	34	1
05/19/19	9:44 a	-18.3	-18.3	-18.3	33.0	SSE	0.55	36.5	-34.2	719.4	0.025	0.000	20.1	34	1
05/19/19	9:45 a	-18.3	-18.3	-18.3	29.6	SSE	0.49	34.8	-33.4	719.5	0.025	0.000	20.1	34	1
05/19/19	9:46 a	-18.3	-18.3	-18.3	32.2	SSE	0.54	35.7	-33.9	719.4	0.025	0.000	20.1	34	1
05/19/19	9:47 a	-18.3	-18.3	-18.3	32.2	SSE	0.54	35.7	-34.1	719.4	0.025	0.000	20.1	34	1
05/19/19	9:48 a	-18.3	-18.3	-18.3	28.7	SSE	0.48	30.4	-33.4	719.5	0.025	0.000	20.1	34	1
05/19/19	9:49 a	-18.3	-18.3	-18.3	29.6	SSE	0.49	34.8	-33.6	719.5	0.025	0.000	20.1	34	1
05/19/19	9:50 a	-18.3	-18.3	-18.3	33.0	SSE	0.55	37.4	-34.2	719.4	0.025	0.000	20.2	34	1
05/19/19	9:51 a	-18.3	-18.3	-18.3	33.0	SSE	0.55	39.1	-34.2	719.3	0.025	0.000	20.1	34	1
05/19/19	9:52 a	-18.3	-18.3	-18.3	30.4	SSE	0.51	33.0	-33.7	719.4	0.025	0.000	20.2	34	1
05/19/19	9:53 a	-18.3	-18.3	-18.3	32.2	SSE	0.54	35.7	-34.1	719.1	0.025	0.000	20.2	34	1
05/19/19	9:54 a	-18.3	-18.3	-18.3	34.8	SSE	0.58	38.3	-34.5	719.3	0.025	0.000	20.2	34	1
05/19/19	9:55 a	-18.3	-18.3	-18.4	32.2	SSE	0.54	35.7	-34.1	719.2	0.025	0.000	20.2	34	1
05/19/19	9:56 a	-18.4	-18.3	-18.4	33.0	SSE	0.55	36.5	-34.3	719.3	0.026	0.000	20.2	34	1
05/19/19	9:57 a	-18.4	-18.3	-18.4	32.2	SSE	0.54	39.1	-34.1	719.2	0.026	0.000	20.2	34	1
05/19/19	9:58 a	-18.3	-18.3	-18.3	34.8	SSE	0.58	36.5	-34.5	719.2	0.025	0.000	20.2	34	1
05/19/19	9:59 a	-18.3	-18.3	-18.4	34.8	SSE	0.58	40.0	-34.5	719.1	0.025	0.000	20.2	34	1
05/19/19	10:00 a	-18.3	-18.3	-18.4	33.9	SSE	0.57	36.5	-34.3	719.2	0.025	0.000	20.2	34	1
05/19/19	10:01 a	-18.3	-18.3	-18.4	33.9	SSE	0.57	37.4	-34.3	719.2	0.025	0.000	20.2	35	1
05/19/19	10:02 a	-18.3	-18.3	-18.3	32.2	SSE	0.54	33.9	-34.1	719.4	0.025	0.000	20.2	36	1
05/19/19	10:03 a	-18.3	-18.3	-18.3	29.6	SSE	0.49	33.9	-33.6	719.3	0.025	0.000	20.2	37	1
05/19/19	10:04 a	-18.3	-18.3	-18.3	34.8	SSE	0.58	38.3	-34.4	719.2	0.025	0.000	20.2	39	1
05/19/19	10:05 a	-18.3	-18.3	-18.3	34.8	SE	0.58	40.0	-34.4	719.0	0.025	0.000	20.2	40	1
05/19/19	10:06 a	-18.3	-18.3	-18.3	37.4	SE	0.62	40.9	-34.8	719.2	0.025	0.000	20.2	89	1
05/19/19	10:07 a	-18.3	-18.3	-18.3	34.8	SE	0.58	39.1	-34.4	719.2	0.025	0.000	20.2	94	1
05/19/19	10:08 a	-18.3	-18.3	-18.3	33.0	SE	0.55	36.5	-34.1	719.2	0.025	0.000	20.2	94	1
05/19/19	10:09 a	-18.2	-18.2	-18.3	33.0	SE	0.55	35.7	-34.0	719.3	0.025	0.000	20.2	94	1
05/19/19	10:10 a	-18.2	-18.2	-18.3	33.9	SSE	0.57	37.4	-34.2	719.2	0.025	0.000	20.2	94	1
05/19/19	10:11 a	-18.2	-18.2	-18.3	36.5	SE	0.61	40.9	-34.6	719.2	0.025	0.000	20.2	93	1
05/19/19	10:12 a	-18.2	-18.2	-18.2	33.9	SE	0.57	36.5	-34.2	719.2	0.025	0.000	20.2	95	1
05/19/19	10:13 a	-18.2	-18.2	-18.3	34.8	SE	0.58	37.4	-34.3	719.3	0.025	0.000	20.2	92	1
05/19/19	10:14 a	-18.2	-18.2	-18.2	32.2	SE	0.54	34.8	-33.9	719.2	0.025	0.000	20.2	90	1
05/19/19	10:15 a	-18.2	-18.2	-18.2	34.8	SE	0.58	38.3	-34.3	719.2	0.025	0.000	20.2	93	1
05/19/19	10:16 a	-18.2	-18.2	-18.2	30.4	SE	0.51	33.0	-33.5	719.4	0.025	0.000	20.2	93	1
05/19/19	10:17 a	-18.2	-18.2	-18.2	33.0	SE	0.55	36.5	-33.9	719.4	0.025	0.000	20.2	78	1
05/19/19	10:18 a	-18.2	-18.2	-18.2	33.0	SE	0.55	37.4	-33.9	719.4	0.025	0.000	20.2	88	1
05/19/19	10:19 a	-18.1	-18.1	-18.2	30.4	SE	0.51	33.0	-33.4	719.4	0.025	0.000	20.2	84	1
05/19/19	10:20 a	-18.1	-18.1	-18.2	31.3	SE	0.52	35.7	-33.6	719.3	0.025	0.000	20.2	87	1
05/19/19	10:21 a	-18.1	-18.1	-18.2	33.0	SE	0.55	35.7	-33.9	719.3	0.025	0.000	20.2	83	1
05/19/19	10:22 a	-18.1	-18.1	-18.1	33.9	SE	0.57	36.5	-34.0	719.4	0.025	0.000	20.2	70	1
05/19/19	10:23 a	-18.1	-18.1	-18.1	32.2	SE	0.54	34.8	-33.7	719.5	0.025	0.000	20.2	76	1
05/19/19	10:24 a	-18.1	-18.1	-18.1	29.6	SSE	0.49	32.2	-33.2	719.4	0.025	0.000	20.2	80	1
05/19/19	10:25 a	-18.1	-18.1	-18.1	29.6	SSE	0.49	33.9	-33.2	719.5	0.025	0.000	20.2	96	1
05/19/19	10:26 a	-18.1	-18.1	-18.1	31.3	SE	0.52	33.9	-33.5	719.4	0.025	0.000	20.2	97	1
05/19/19	10:27 a	-18.1	-18.1	-18.1	29.6	SE	0.49	32.2	-33.2	719.5	0.025	0.000	20.2	97	1
05/19/19	10:28 a	-18.1	-18.1	-18.1	28.7	SE	0.48	32.2	-33.0	719.5	0.025	0.000	20.2	98	1
05/19/19	10:29 a	-18.1	-18.1	-18.1	30.4	SE	0.51	33.0	-33.3	719.3	0.025	0.000	20.2	97	1
05/19/19	10:30 a	-18.1	-18.1	-18.1	33.0	SE	0.55	34.8	-33.8	719.3	0.025	0.000	20.2	97	1
05/19/19	10:31 a	-18.1	-18.0	-18.1	32.2	SE	0.54	35.7	-33.7	719.3	0.025	0.000	20.2	97	1
05/19/19	10:32 a	-18.1	-18.0	-18.1	33.0	SE	0.55	37.4	-33.8	719.2	0.025	0.000	20.3	98	1
05/19/19	10:33 a	-18.1	-18.0	-18.1	32.2	SE	0.54	33.9	-33.7	719.3	0.025	0.000	20.2	97	1
05/19/19	10:34 a	-18.0	-18.0	-18.1	33.0	SE	0.55	35.7	-33.7	719.2	0.025	0.000	20.3	97	1
05/19/19	10:35 a	-18.0	-18.0	-18.0	29.6	SE	0.49	34.8	-33.1	719.3	0.025	0.000	20.3	97	1
05/19/19	10:36 a	-18.0	-17.9	-18.0	30.4	SE	0.51	33.0	-33.3	719.4	0.025	0.000	20.3	97	1
05/19/19	10:37 a	-18.0	-17.9	-18.0	31.3	SE	0.52	35.7	-33.4	719.2	0.025	0.000	20.3	97	1
05/19/19	10:38 a	-18.0	-17.9	-18.0	33.0	SE	0.55	35.7	-33.7	719.2	0.025	0.000	20.3	97	1
05/19/19	10:39 a	-17.9	-17.9	-17.9	33.0	SE	0.55	37.4	-33.7	719.2	0.025	0.000	20.3	97	1
05/19/19	10:40 a	-18.0	-17.9	-18.0	33.0	SE	0.55	36.5	-33.7	719.2	0.025	0.000	20.3	97	1
05/19/19	10:41 a	-18.0	-17.9	-18.0	32.2	SE	0.54	34.8	-33.6	719.1	0.025	0.000	20.3	97	1
05/19/19	10:42 a	-18.0	-17.9	-18.0	33.0	SE	0.55	36.5	-33.7	719.2	0.025	0.000	20.3	97	1
05/19/19	10:43 a	-17.9	-17.9	-18.0	33.9	SE	0.57	37.4	-33.8	719.2	0.025	0.000	20.3	97	1
05/19/19	10:44 a	-17.9	-17.9	-18.0	33.9	SE	0.57	37.4	-33.8	719.2	0.025	0.000	20.3	97	1
05/19/19	10:45 a	-17.9	-17.9	-17.9	33.9	SE	0.57	37.4	-33.8	719.3	0.025	0.000	20.3	97	1
05/19/19	10:46 a	-17.9	-17.9	-18.0	33.0	SSE	0.55	38.3	-33.7	719.2	0.025	0.000	20.3	97	1
05/19/19	10:47 a	-17.9	-17.9	-17.9	35.7	SE	0.59	40.0	-34.1	719.1	0.025	0.000	20.3	97	1
05/19/19	10:48 a	-17.9	-17.9	-17.9	34.8	SE	0.58	40.0	-33.9	719.1	0.025	0.000	20.3	97	1
05/19/19	10:49 a	-17.9	-17.9	-17.9	34.8	SE	0.58	38.3	-33.9	719.0	0.025	0.000	20.3	97	1
05/19/19	10:50 a	-17.9	-17.9	-18.0	33.9	SSE	0.57	37.4	-33.8	719.2	0.025	0.000	20.3	97	1
05/19/19	10:51 a	-17.9	-17.9	-17.9	35.7	SE	0.59	40.9	-34.1	719.1	0.025	0.000	20.3	97	1
05/19/19	10:52 a	-17.9	-17.9	-17.9	36.5	SE	0.61	40.9	-34.2	719.2	0.025	0.000	20.3	97	1
05/19/19	10:53 a	-17.9	-17.9	-17.9	36.5	SE	0.61	38.3	-34.2	719.1	0.025	0.000	20.3	98	1
05/19/19	10:54 a	-17.9	-17.9	-17.9	37.4	SE	0.62	40.9	-34.3	719.1	0.025	0.000	20.3	97	1
05/19/19	10:55 a	-17.9	-17.9	-17.9	36.5	SE	0.61	40.0	-34.2	719.1	0.025	0.000	20.3	97	1
05/19/19	10:56 a	-17.9	-17.9	-17.9	35.7	SE	0.59	40.0	-34.1	719.2	0.025	0.000	20.3	97	1
05/19/19	10:57 a	-17.9	-17.9	-17.9	35.7	SSE	0.59	39.1	-34.1	719.2	0.025	0.000	20.3	97	1
05/19/19	10:58 a	-17.9	-17.9	-17.9	35.7	SE	0.59	38.3	-34.1	719.1	0.025	0.000	20.3	97	1
05/19/19	10:59 a	-17.9	-17.9	-17.9	37.4	SSE	0.62	40.9	-34.3	719.0	0.025	0.000	20.3	97	1
05/19/19	11:00 a	-17.9	-17.9	-17.9	37.4	SE	0.62	40.9	-34.3	719.0	0.025	0.000	20.3	95	1
05/19/19	11:01 a	-17.9	-17.9	-17.9	34.8	SE	0.58	38.3	-33.9	719.0	0.025	0.000	20.3	91	1
05/19/19	11:02 a	-17.9	-17.9	-17.9	40.9	SE	0.68	44.3	-34.9	718.8	0.025	0.000	20.3	94	1
05/19/19	11:03 a	-17.9	-17.9	-17.9	39.1	SE	0.65	42.6	-34.6	719.2	0.025	0.000	20.3	95	1
05/19/19	11:04 a	-17.9	-17.9	-17.9	37.4	SE	0.62	42.6	-34.3	719.1	0.025	0.000	20.3	97	1
05/19/19	11:05 a	-17.9	-17.9	-17.9	38.3	SE	0.64	40.0	-34.5	719.0	0.025	0.000	20.3	98	1
05/19/19	11:06 a	-17.9	-17.9	-17.9	39.1	SE	0.65	41.7	-34.6	719.0	0.025	0.000	20.3	98	1
05/19/19	11:07 a	-17.9	-17.9	-17.9	36.5	SE	0.61	40.0	-34.2	719.2	0.025	0.000	20.3	95	1
05/19/19	11:08 a	-17.9	-17.9	-17.9	36.5	SE	0.61	39.1	-34.2	719.1	0.025	0.000	20.3	95	1
05/19/19	11:09 a	-17.9	-17.9	-17.9	35.7	SSE	0.59	38.3	-34.1	719.2	0.025	0.000	20.3	90	1
05/19/19	11:10 a	-17.9	-17.9	-17.9	34.8	SSE	0.58	38.3	-33.9	719.2	0.025	0.000	20.3	81	1
05/19/19	11:11 a	-17.9	-17.9	-17.9	35.7	SE	0.59	39.1	-34.0	719.1	0.025	0.000	20.3	76	1
05/19/19	11:12 a	-17.9	-17.9	-17.9	33.9	SSE	0.57	35.7	-33.8	719.3	0.025	0.000	20.3	70	1
05/19/19	11:13 a	-17.9	-17.9	-17.9	34.8	SSE	0.58	39.1	-33.9	719.2	0.025	0.000	20.3	70	1
05/19/19	11:14 a	-17.9	-17.9	-17.9	34.8	SSE	0.58	38.3	-33.9	719.3	0.025	0.000	20.3	69	1
05/19/19	11:15 a	-17.9	-17.9	-17.9	34.8	SSE	0.58	36.5	-33.9	719.2	0.025	0.000	20.3	69	1
05/19/19	11:16 a	-17.9	-17.9	-17.9	34.8	SSE	0.58	37.4	-33.9	719.2	0.025	0.000	20.3	70	1
05/19/19	11:17 a	-17.9	-17.9	-17.9	37.4	SSE	0.62	40.9	-34.3	719.0	0.025	0.000	20.3	69	1
05/19/19	11:18 a	-17.9	-17.9	-17.9	36.5	SSE	0.61	39.1	-34.2	719.2	0.025	0.000	20.3	69	1
05/19/19	11:19 a	-17.9	-17.9	-17.9	36.5	SE	0.61	38.3	-34.2	719.2	0.025	0.000	20.3	69	1
05/19/19	11:20 a	-17.9	-17.9	-17.9	35.7	SSE	0.59	38.3	-34.0	719.2	0.025	0.000	20.3	72	1
05/19/19	11:21 a	-17.9	-17.9	-17.9	33.0	SSE	0.55	37.4	-33.6	719.3	0.025	0.000	20.3	70	1
05/19/19	11:22 a	-17.9	-17.9	-17.9	32.2	SSE	0.54	36.5	-33.4	719.3	0.025	0.000	20.3	71	1
05/19/19	11:23 a	-17.9	-17.9	-17.9	35.7	SSE	0.59	39.1	-34.0	719.2	0.025	0.000	20.3	71	1
05/19/19	11:24 a	-17.9	-17.9	-17.9	33.9	SSE	0.57	36.5	-33.7	719.3	0.025	0.000	20.3	69	1
05/19/19	11:25 a	-17.9	-17.8	-17.9	33.0	SSE	0.55	36.5	-33.6	719.2	0.025	0.000	20.4	69	1
05/19/19	11:26 a	-17.9	-17.9	-17.9	34.8	SE	0.58	38.3	-33.9	719.2	0.025	0.000	20.3	69	1
05/19/19	11:27 a	-17.9	-17.9	-17.9	36.5	SE	0.61	40.9	-34.2	719.1	0.025	0.000	20.4	69	1
05/19/19	11:28 a	-17.9	-17.9	-17.9	37.4	SE	0.62	42.6	-34.3	719.0	0.025	0.000	20.4	69	1
05/19/19	11:29 a	-17.9	-17.9	-17.9	35.7	SE	0.59	37.4	-34.0	719.0	0.025	0.000	20.4	69	1
05/19/19	11:30 a	-17.9	-17.9	-17.9	35.7	SE	0.59	40.0	-34.0	719.0	0.025	0.000	20.4	70	1
05/19/19	11:31 a	-17.9	-17.9	-17.9	35.7	SE	0.59	39.1	-34.0	719.2	0.025	0.000	20.4	69	1
05/19/19	11:32 a	-17.9	-17.9	-17.9	32.2	SSE	0.54	35.7	-33.5	719.2	0.025	0.000	20.3	70	1
05/19/19	11:33 a	-17.9	-17.9	-17.9	33.9	SSE	0.57	37.4	-33.7	719.1	0.025	0.000	20.4	70	1
05/19/19	11:34 a	-17.9	-17.9	-17.9	33.0	SSE	0.55	37.4	-33.7	719.1	0.025	0.000	20.4	70	1
05/19/19	11:35 a	-17.9	-17.9	-17.9	34.8	SSE	0.58	36.5	-33.9	719.0	0.025	0.000	20.4	69	1
05/19/19	11:36 a	-17.9	-17.9	-17.9	35.7	SE	0.59	39.1	-34.1	719.0	0.025	0.000	20.4	70	1
05/19/19	11:37 a	-17.9	-17.9	-17.9	34.8	SSE	0.58	38.3	-33.9	719.0	0.025	0.000	20.4	69	1
05/19/19	11:38 a	-17.9	-17.9	-17.9	36.5	SE	0.61	41.7	-34.2	718.9	0.025	0.000	20.4	70	1
05/19/19	11:39 a	-17.9	-17.9	-17.9	35.7	SE	0.59	40.0	-34.1	719.0	0.025	0.000	20.4	69	1
05/19/19	11:40 a	-17.9	-17.9	-17.9	39.1	SE	0.65	44.3	-34.6	718.8	0.025	0.000	20.4	70	1
05/19/19	11:41 a	-17.9	-17.9	-17.9	37.4	SE	0.62	40.0	-34.3	718.8	0.025	0.000	20.4	69	1
05/19/19	11:42 a	-17.9	-17.9	-17.9	36.5	SE	0.61	39.1	-34.2	719.0	0.025	0.000	20.4	69	1
05/19/19	11:43 a	-17.9	-17.9	-17.9	33.9	SE	0.57	38.3	-33.8	719.2	0.025	0.000	20.4	69	1
05/19/19	11:44 a	-17.9	-17.9	-17.9	29.6	SSE	0.49	32.2	-32.9	719.2	0.025	0.000	20.4	69	1
05/19/19	11:45 a	-17.9	-17.8	-17.9	33.9	SSE	0.57	38.3	-33.7	719.0	0.025	0.000	20.4	69	1
05/19/19	11:46 a	-17.9	-17.9	-17.9	38.3	SE	0.64	40.9	-34.4	718.8	0.025	0.000	20.4	69	1
05/19/19	11:47 a	-17.9	-17.9	-17.9	36.5	SSE	0.61	41.7	-34.2	719.0	0.025	0.000	20.4	70	1
05/19/19	11:48 a	-17.9	-17.8	-17.9	33.0	SSE	0.55	36.5	-33.6	719.0	0.025	0.000	20.4	69	1
05/19/19	11:49 a	-17.9	-17.9	-17.9	31.3	SSE	0.52	33.9	-33.3	718.9	0.025	0.000	20.4	69	1
05/19/19	11:50 a	-17.9	-17.8	-17.9	33.9	SSE	0.57	37.4	-33.7	719.0	0.025	0.000	20.4	69	1
05/19/19	11:51 a	-17.9	-17.8	-17.9	33.0	SSE	0.55	40.0	-33.6	718.9	0.025	0.000	20.4	69	1
05/19/19	11:52 a	-17.8	-17.8	-17.9	32.2	SSE	0.54	36.5	-33.3	719.0	0.025	0.000	20.4	69	1
05/19/19	11:53 a	-17.9	-17.8	-17.9	34.8	SSE	0.58	40.0	-33.8	718.9	0.025	0.000	20.4	70	1
05/19/19	11:54 a	-17.8	-17.8	-17.9	34.8	SSE	0.58	38.3	-33.8	718.8	0.025	0.000	20.4	69	1
05/19/19	11:55 a	-17.9	-17.8	-17.9	35.7	SSE	0.59	38.3	-34.0	718.9	0.025	0.000	20.4	69	1
05/19/19	11:56 a	-17.8	-17.8	-17.9	32.2	SSE	0.54	36.5	-33.3	718.9	0.025	0.000	20.4	69	1
05/19/19	11:57 a	-17.8	-17.8	-17.9	36.5	SSE	0.61	41.7	-34.1	718.9	0.025	0.000	20.4	69	1
05/19/19	11:58 a	-17.8	-17.8	-17.9	37.4	SSE	0.62	40.9	-34.2	718.9	0.025	0.000	20.4	69	1
05/19/19	11:59 a	-17.8	-17.8	-17.8	33.9	SSE	0.57	38.3	-33.6	719.0	0.025	0.000	20.4	69	1
05/19/19	12:00 p	-17.8	-17.8	-17.9	32.2	SSE	0.54	36.5	-33.3	718.9	0.025	0.000	20.4	69	1
05/19/19	12:01 p	-17.8	-17.8	-17.9	32.2	SSE	0.54	35.7	-33.3	718.8	0.025	0.000	20.4	70	1
05/19/19	12:02 p	-17.8	-17.8	-17.8	35.7	SSE	0.59	42.6	-33.9	718.8	0.025	0.000	20.4	69	1
05/19/19	12:03 p	-17.8	-17.8	-17.8	34.8	SSE	0.58	37.4	-33.8	718.9	0.025	0.000	20.4	69	1
05/19/19	12:04 p	-17.8	-17.8	-17.8	32.2	SSE	0.54	38.3	-33.3	719.0	0.025	0.000	20.4	69	1
05/19/19	12:05 p	-17.8	-17.8	-17.8	28.7	SSE	0.48	38.3	-32.7	719.1	0.025	0.000	20.4	69	1
05/19/19	12:06 p	-17.8	-17.8	-17.8	33.9	SSE	0.57	38.3	-33.6	719.0	0.025	0.000	20.4	69	1
05/19/19	12:07 p	-17.8	-17.8	-17.8	33.9	SSE	0.57	38.3	-33.6	719.0	0.025	0.000	20.4	69	1
05/19/19	12:08 p	-17.8	-17.8	-17.8	34.8	SSE	0.58	36.5	-33.8	719.0	0.025	0.000	20.4	69	1
05/19/19	12:09 p	-17.8	-17.8	-17.8	30.4	SSE	0.51	36.5	-33.0	719.1	0.025	0.000	20.4	69	1
05/19/19	12:10 p	-17.8	-17.8	-17.8	30.4	SSE	0.51	35.7	-32.9	719.1	0.025	0.000	20.4	69	1
05/19/19	12:11 p	-17.8	-17.8	-17.8	29.6	SSE	0.49	38.3	-32.8	719.2	0.025	0.000	20.4	69	1
05/19/19	12:12 p	-17.8	-17.8	-17.8	31.3	SSE	0.52	39.1	-33.1	719.1	0.025	0.000	20.4	69	1
05/19/19	12:13 p	-17.8	-17.8	-17.8	27.8	SSE	0.46	36.5	-32.4	719.1	0.025	0.000	20.4	69	1
05/19/19	12:14 p	-17.8	-17.7	-17.8	37.4	SSE	0.62	44.3	-34.1	719.2	0.025	0.000	20.4	68	1
05/19/19	12:15 p	-17.7	-17.7	-17.7	27.8	SSE	0.46	38.3	-32.4	719.1	0.025	0.000	20.4	68	1
05/19/19	12:16 p	-17.7	-17.7	-17.7	27.8	SSE	0.46	38.3	-32.4	719.1	0.025	0.000	20.4	66	1
05/19/19	12:17 p	-17.7	-17.7	-17.7	27.0	SSE	0.45	33.9	-32.1	719.3	0.025	0.000	20.4	64	1
05/19/19	12:18 p	-17.7	-17.6	-17.7	27.0	SSE	0.45	35.7	-32.1	719.2	0.025	0.000	20.4	62	1
05/19/19	12:19 p	-17.6	-17.6	-17.6	31.3	SSE	0.52	40.9	-32.9	719.0	0.025	0.000	20.4	62	1
05/19/19	12:20 p	-17.6	-17.6	-17.6	26.1	SSE	0.43	37.4	-31.9	719.1	0.025	0.000	20.4	61	1
05/19/19	12:21 p	-17.6	-17.6	-17.6	21.7	SSE	0.36	33.0	-30.8	719.3	0.025	0.000	20.4	60	1
05/19/19	12:22 p	-17.6	-17.5	-17.6	14.8	S	0.25	35.7	-28.8	719.0	0.025	0.000	20.4	58	1
05/19/19	12:23 p	-17.5	-17.5	-17.6	19.1	SSE	0.32	41.7	-30.1	718.8	0.025	0.000	20.5	56	1
05/19/19	12:24 p	-17.5	-17.4	-17.5	19.1	SSE	0.32	29.6	-30.1	719.0	0.025	0.000	20.4	52	1
05/19/19	12:25 p	-17.4	-17.4	-17.4	18.3	SSE	0.30	34.8	-29.7	719.0	0.025	0.000	20.4	59	1
05/19/19	12:26 p	-17.4	-17.4	-17.4	26.1	SSE	0.43	44.3	-31.6	718.8	0.025	0.000	20.4	57	1
05/19/19	12:27 p	-17.3	-17.3	-17.4	24.3	SSE	0.41	33.0	-31.1	718.9	0.025	0.000	20.4	56	1
05/19/19	12:28 p	-17.3	-17.3	-17.3	33.0	SSE	0.55	43.5	-32.8	718.9	0.025	0.000	20.4	65	1
05/19/19	12:29 p	-17.2	-17.2	-17.3	30.4	SSE	0.51	41.7	-32.2	719.2	0.025	0.000	20.5	66	1
05/19/19	12:30 p	-17.2	-17.2	-17.3	25.2	SSE	0.42	40.9	-31.2	718.8	0.025	0.000	20.4	68	1
05/19/19	12:31 p	-17.2	-17.2	-17.2	34.8	SSE	0.58	44.3	-32.9	718.7	0.025	0.000	20.4	68	1
05/19/19	12:32 p	-17.2	-17.2	-17.2	30.4	SSE	0.51	39.1	-32.1	718.9	0.025	0.000	20.4	69	1
05/19/19	12:33 p	-17.1	-17.1	-17.1	31.3	SSE	0.52	41.7	-32.2	719.0	0.025	0.000	20.5	69	1
05/19/19	12:34 p	-17.1	-17.1	-17.1	23.5	SSE	0.39	40.9	-30.6	719.1	0.025	0.000	20.5	69	1
05/19/19	12:35 p	-17.1	-17.1	-17.1	26.1	SSE	0.43	39.1	-31.1	719.0	0.025	0.000	20.5	69	1
05/19/19	12:36 p	-17.1	-17.0	-17.1	27.8	SSE	0.46	40.9	-31.4	719.1	0.025	0.000	20.5	69	1
05/19/19	12:37 p	-17.0	-16.9	-17.0	15.7	SSE	0.26	32.2	-28.4	719.3	0.025	0.000	20.5	69	1
05/19/19	12:38 p	-17.0	-16.9	-17.0	16.5	S	0.28	51.3	-28.7	719.2	0.025	0.000	20.5	69	1
05/19/19	12:39 p	-16.9	-16.9	-16.9	28.7	SSE	0.48	47.0	-31.5	719.0	0.024	0.000	20.5	69	1
05/19/19	12:40 p	-16.9	-16.9	-16.9	14.8	S	0.25	27.0	-28.1	719.1	0.024	0.000	20.5	69	1
05/19/19	12:41 p	-16.9	-16.8	-16.9	24.3	SSE	0.41	40.0	-30.5	719.2	0.024	0.000	20.5	69	1
05/19/19	12:42 p	-16.8	-16.8	-16.9	27.8	SSE	0.46	39.1	-31.2	719.0	0.024	0.000	20.5	69	1
05/19/19	12:43 p	-16.8	-16.8	-16.8	22.6	SSE	0.38	33.0	-30.0	719.1	0.024	0.000	20.5	69	1
05/19/19	12:44 p	-16.8	-16.8	-16.8	22.6	SSE	0.38	30.4	-30.0	719.3	0.024	0.000	20.6	69	1
05/19/19	12:45 p	-16.8	-16.7	-16.8	22.6	SSE	0.38	35.7	-30.0	719.1	0.024	0.000	20.5	69	1
05/19/19	12:46 p	-16.8	-16.7	-16.8	18.3	S	0.30	35.7	-28.9	718.8	0.024	0.000	20.5	69	1
05/19/19	12:47 p	-16.7	-16.7	-16.8	20.0	SSE	0.33	28.7	-29.3	719.2	0.024	0.000	20.6	69	1
05/19/19	12:48 p	-16.7	-16.7	-16.8	20.9	SSE	0.35	30.4	-29.5	719.1	0.024	0.000	20.6	69	1
05/19/19	12:49 p	-16.7	-16.7	-16.8	23.5	SSE	0.39	38.3	-30.1	719.2	0.024	0.000	20.6	69	1
05/19/19	12:50 p	-16.7	-16.7	-16.7	23.5	SSE	0.39	37.4	-30.1	719.0	0.024	0.000	20.6	69	1
05/19/19	12:51 p	-16.7	-16.7	-16.7	20.9	SSE	0.35	38.3	-29.5	719.1	0.024	0.000	20.6	69	1
05/19/19	12:52 p	-16.7	-16.7	-16.7	27.8	SSE	0.46	35.7	-30.9	719.1	0.024	0.000	20.6	69	1
05/19/19	12:53 p	-16.7	-16.7	-16.7	29.6	SSE	0.49	40.9	-31.3	719.2	0.024	0.000	20.6	69	1
05/19/19	12:54 p	-16.7	-16.7	-16.7	27.0	SSE	0.45	34.8	-30.8	719.2	0.024	0.000	20.6	69	1
05/19/19	12:55 p	-16.7	-16.7	-16.7	20.9	SSE	0.35	32.2	-29.5	719.2	0.024	0.000	20.6	69	1
05/19/19	12:56 p	-16.7	-16.7	-16.7	30.4	SSE	0.51	38.3	-31.5	719.2	0.024	0.000	20.6	68	1
05/19/19	12:57 p	-16.7	-16.7	-16.7	35.7	SSE	0.59	45.2	-32.3	719.0	0.024	0.000	20.6	68	1
05/19/19	12:58 p	-16.7	-16.7	-16.7	27.0	SSE	0.45	35.7	-30.8	719.2	0.024	0.000	20.6	67	1
05/19/19	12:59 p	-16.7	-16.7	-16.7	33.0	SSE	0.55	40.9	-31.9	719.3	0.024	0.000	20.6	67	1
05/19/19	1:00 p	-16.7	-16.7	-16.7	28.7	SSE	0.48	38.3	-31.1	719.3	0.024	0.000	20.6	53	1
05/19/19	1:01 p	-16.7	-16.7	-16.7	27.0	SSE	0.45	43.5	-30.8	719.3	0.024	0.000	20.6	34	1
05/19/19	1:02 p	-16.7	-16.7	-16.7	28.7	SSE	0.48	41.7	-31.2	719.1	0.024	0.000	20.6	74	1
05/19/19	1:03 p	-16.7	-16.7	-16.7	27.8	SSE	0.46	46.1	-30.9	719.4	0.024	0.000	20.7	74	1
05/19/19	1:04 p	-16.7	-16.7	-16.7	32.2	SSE	0.54	38.3	-31.7	719.2	0.024	0.000	20.7	79	1
05/19/19	1:05 p	-16.7	-16.7	-16.7	27.8	SSE	0.46	36.5	-31.0	719.3	0.024	0.000	20.7	79	1
05/19/19	1:06 p	-16.7	-16.7	-16.7	32.2	SSE	0.54	40.0	-31.7	719.6	0.024	0.000	20.7	63	1
05/19/19	1:07 p	-16.7	-16.7	-16.7	28.7	SSE	0.48	40.0	-31.1	719.4	0.024	0.000	20.7	67	1
05/19/19	1:08 p	-16.7	-16.7	-16.7	29.6	SSE	0.49	38.3	-31.3	719.4	0.024	0.000	20.7	65	1
05/19/19	1:09 p	-16.7	-16.7	-16.7	31.3	SSE	0.52	35.7	-31.7	719.5	0.024	0.000	20.7	57	1
05/19/19	1:10 p	-16.7	-16.7	-16.7	29.6	SSE	0.49	33.9	-31.3	719.4	0.024	0.000	20.7	87	1
05/19/19	1:11 p	-16.7	-16.7	-16.7	23.5	SSE	0.39	40.0	-30.1	719.3	0.024	0.000	20.8	93	1
05/19/19	1:12 p	-16.7	-16.7	-16.7	31.3	SSE	0.52	42.6	-31.7	719.3	0.024	0.000	20.8	88	1
05/19/19	1:13 p	-16.7	-16.7	-16.7	31.3	SSE	0.52	38.3	-31.7	719.5	0.024	0.000	20.8	84	1
05/19/19	1:14 p	-16.7	-16.7	-16.7	29.6	SSE	0.49	40.0	-31.3	719.4	0.024	0.000	20.8	93	1
05/19/19	1:15 p	-16.7	-16.7	-16.7	32.2	SSE	0.54	36.5	-31.8	719.4	0.024	0.000	20.8	96	1
05/19/19	1:16 p	-16.7	-16.7	-16.7	32.2	SSE	0.54	37.4	-31.8	719.5	0.024	0.000	20.8	97	1
05/19/19	1:17 p	-16.7	-16.7	-16.7	32.2	SSE	0.54	42.6	-31.8	719.5	0.024	0.000	20.8	98	1
05/19/19	1:18 p	-16.7	-16.7	-16.8	31.3	SSE	0.52	37.4	-31.7	719.6	0.024	0.000	20.8	98	1
05/19/19	1:19 p	-16.7	-16.7	-16.8	27.0	SSE	0.45	33.9	-30.8	719.4	0.024	0.000	20.8	98	1
05/19/19	1:20 p	-16.8	-16.7	-16.8	30.4	SSE	0.51	37.4	-31.6	719.5	0.024	0.000	20.9	98	1
05/19/19	1:21 p	-16.8	-16.7	-16.8	33.9	SSE	0.57	40.0	-32.2	719.3	0.024	0.000	20.9	98	1
05/19/19	1:22 p	-16.8	-16.7	-16.8	31.3	SSE	0.52	40.0	-31.7	719.6	0.024	0.000	20.9	98	1
05/19/19	1:23 p	-16.8	-16.8	-16.8	29.6	SSE	0.49	34.8	-31.4	719.6	0.024	0.000	20.9	98	1
05/19/19	1:24 p	-16.7	-16.7	-16.8	31.3	SSE	0.52	36.5	-31.7	719.4	0.024	0.000	20.9	95	1
05/19/19	1:25 p	-16.8	-16.7	-16.8	27.8	SSE	0.46	32.2	-31.1	719.7	0.024	0.000	20.9	58	1
05/19/19	1:26 p	-16.8	-16.7	-16.8	23.5	SSE	0.39	33.9	-30.2	719.6	0.024	0.000	20.9	57	1
05/19/19	1:27 p	-16.8	-16.8	-16.8	28.7	SSE	0.48	34.8	-31.2	719.7	0.024	0.000	20.9	65	1
05/19/19	1:28 p	-16.8	-16.7	-16.8	33.9	SSE	0.57	40.0	-32.2	719.6	0.024	0.000	20.9	59	1
05/19/19	1:29 p	-16.8	-16.7	-16.8	34.8	SSE	0.58	40.9	-32.3	719.3	0.024	0.000	20.9	73	1
05/19/19	1:30 p	-16.8	-16.8	-16.8	36.5	SSE	0.61	41.7	-32.6	719.5	0.024	0.000	20.9	80	1
05/19/19	1:31 p	-16.8	-16.8	-16.8	39.1	SE	0.65	44.3	-33.0	719.0	0.024	0.000	20.9	77	1
05/19/19	1:32 p	-16.8	-16.8	-16.8	38.3	SE	0.64	47.8	-32.8	719.3	0.024	0.000	20.9	88	1
05/19/19	1:33 p	-16.8	-16.8	-16.8	39.1	SE	0.65	43.5	-33.0	719.4	0.024	0.000	20.9	79	1
05/19/19	1:34 p	-16.8	-16.8	-16.8	38.3	SE	0.64	45.2	-32.8	719.1	0.024	0.000	20.9	76	1
05/19/19	1:35 p	-16.8	-16.8	-16.8	36.5	SE	0.61	42.6	-32.6	719.3	0.024	0.000	20.9	84	1
05/19/19	1:36 p	-16.8	-16.8	-16.8	33.9	SE	0.57	39.1	-32.2	719.3	0.024	0.000	20.9	83	1
05/19/19	1:37 p	-16.8	-16.8	-16.8	31.3	SE	0.52	34.8	-31.7	719.4	0.024	0.000	20.9	75	1
05/19/19	1:38 p	-16.8	-16.8	-16.8	33.0	SE	0.55	36.5	-32.0	719.4	0.024	0.000	20.9	77	1
05/19/19	1:39 p	-16.8	-16.8	-16.8	35.7	SE	0.59	40.9	-32.4	719.2	0.024	0.000	20.9	73	1
05/19/19	1:40 p	-16.8	-16.8	-16.8	34.8	SE	0.58	40.0	-32.3	719.3	0.024	0.000	20.9	74	1
05/19/19	1:41 p	-16.8	-16.8	-16.8	34.8	SE	0.58	39.1	-32.3	719.4	0.024	0.000	20.9	73	1
05/19/19	1:42 p	-16.8	-16.8	-16.8	34.8	SE	0.58	41.7	-32.4	719.3	0.024	0.000	20.9	75	1
05/19/19	1:43 p	-16.8	-16.8	-16.8	37.4	SE	0.62	40.9	-32.7	719.3	0.024	0.000	20.9	74	1
05/19/19	1:44 p	-16.8	-16.8	-16.8	36.5	SE	0.61	43.5	-32.7	719.3	0.024	0.000	20.9	73	1
05/19/19	1:45 p	-16.8	-16.8	-16.8	38.3	SE	0.64	42.6	-32.9	719.2	0.024	0.000	20.9	76	1
05/19/19	1:46 p	-16.9	-16.8	-16.9	34.8	SE	0.58	40.9	-32.4	719.2	0.024	0.000	20.9	82	1
05/19/19	1:47 p	-16.9	-16.9	-16.9	37.4	SE	0.62	42.6	-32.9	719.0	0.024	0.000	20.9	89	1
05/19/19	1:48 p	-16.9	-16.9	-16.9	40.0	SE	0.67	46.1	-33.3	719.2	0.024	0.000	20.9	89	1
05/19/19	1:49 p	-16.9	-16.9	-16.9	36.5	SE	0.61	41.7	-32.7	719.4	0.024	0.000	20.9	72	1
05/19/19	1:50 p	-16.9	-16.9	-16.9	39.1	SE	0.65	43.5	-33.2	719.1	0.024	0.000	20.9	72	1
05/19/19	1:51 p	-16.9	-16.9	-16.9	37.4	SE	0.62	41.7	-32.9	719.2	0.024	0.000	20.9	71	1
05/19/19	1:52 p	-16.9	-16.9	-17.0	37.4	SE	0.62	42.6	-32.9	719.2	0.024	0.000	20.9	70	1
05/19/19	1:53 p	-17.0	-16.9	-17.0	36.5	SE	0.61	40.9	-32.9	719.1	0.025	0.000	20.9	71	1
05/19/19	1:54 p	-17.0	-17.0	-17.0	35.7	ESE	0.59	42.6	-32.8	719.3	0.025	0.000	20.9	70	1
05/19/19	1:55 p	-17.0	-17.0	-17.1	35.7	SE	0.59	39.1	-32.8	719.3	0.025	0.000	20.9	70	1
05/19/19	1:56 p	-17.1	-17.0	-17.1	34.8	ESE	0.58	38.3	-32.7	719.3	0.025	0.000	20.9	70	1
05/19/19	1:57 p	-17.1	-17.1	-17.1	36.5	SE	0.61	40.0	-33.0	719.3	0.025	0.000	20.9	70	1
05/19/19	1:58 p	-17.1	-17.1	-17.1	37.4	ESE	0.62	41.7	-33.1	719.2	0.025	0.000	20.9	70	1
05/19/19	1:59 p	-17.1	-17.1	-17.1	38.3	SE	0.64	40.9	-33.3	719.4	0.025	0.000	20.9	70	1
05/19/19	2:00 p	-17.1	-17.1	-17.1	36.5	SE	0.61	43.5	-33.1	719.5	0.025	0.000	20.9	70	1
05/19/19	2:01 p	-17.1	-17.1	-17.2	35.7	SE	0.59	40.0	-32.9	719.5	0.025	0.000	20.9	70	1
05/19/19	2:02 p	-17.2	-17.2	-17.2	38.3	SE	0.64	40.9	-33.4	719.3	0.025	0.000	20.9	70	1
05/19/19	2:03 p	-17.2	-17.2	-17.2	40.0	ESE	0.67	43.5	-33.7	719.2	0.025	0.000	20.9	70	1
05/19/19	2:04 p	-17.2	-17.2	-17.2	37.4	ESE	0.62	40.9	-33.3	719.2	0.025	0.000	20.9	70	1
05/19/19	2:05 p	-17.2	-17.2	-17.2	37.4	SE	0.62	39.1	-33.3	719.3	0.025	0.000	20.9	70	1
05/19/19	2:06 p	-17.2	-17.2	-17.2	38.3	SE	0.64	44.3	-33.5	719.4	0.025	0.000	20.9	70	1
05/19/19	2:07 p	-17.2	-17.2	-17.2	38.3	ESE	0.64	41.7	-33.5	719.3	0.025	0.000	20.9	70	1
05/19/19	2:08 p	-17.2	-17.2	-17.3	38.3	SE	0.64	43.5	-33.5	719.3	0.025	0.000	20.9	70	1
05/19/19	2:09 p	-17.3	-17.3	-17.3	37.4	ESE	0.62	43.5	-33.4	719.4	0.025	0.000	20.9	70	1
05/19/19	2:10 p	-17.3	-17.3	-17.3	36.5	ESE	0.61	40.9	-33.3	719.3	0.025	0.000	20.9	70	1
05/19/19	2:11 p	-17.3	-17.3	-17.3	37.4	ESE	0.62	47.0	-33.4	719.3	0.025	0.000	20.9	70	1
05/19/19	2:12 p	-17.3	-17.3	-17.3	37.4	SE	0.62	40.0	-33.4	719.5	0.025	0.000	20.9	69	1
05/19/19	2:13 p	-17.3	-17.3	-17.3	35.7	SE	0.59	40.0	-33.2	719.7	0.025	0.000	20.9	69	1
05/19/19	2:14 p	-17.3	-17.3	-17.3	37.4	SE	0.62	40.0	-33.5	719.5	0.025	0.000	20.9	69	1
05/19/19	2:15 p	-17.3	-17.3	-17.3	35.7	SE	0.59	40.0	-33.2	719.7	0.025	0.000	20.9	69	1
05/19/19	2:16 p	-17.3	-17.3	-17.3	33.0	ESE	0.55	38.3	-32.8	719.6	0.025	0.000	20.9	58	1
05/19/19	2:17 p	-17.3	-17.3	-17.3	35.7	SE	0.59	46.1	-33.2	719.6	0.025	0.000	20.9	62	1
05/19/19	2:18 p	-17.3	-17.3	-17.4	34.8	ESE	0.58	41.7	-33.1	719.5	0.025	0.000	20.9	65	1
05/19/19	2:19 p	-17.3	-17.3	-17.4	34.8	ESE	0.58	40.0	-33.1	719.6	0.025	0.000	20.9	61	1
05/19/19	2:20 p	-17.4	-17.3	-17.4	35.7	ESE	0.59	44.3	-33.3	719.4	0.025	0.000	20.9	63	1
05/19/19	2:21 p	-17.3	-17.3	-17.4	35.7	SE	0.59	40.9	-33.2	719.6	0.025	0.000	20.9	60	1
05/19/19	2:22 p	-17.4	-17.3	-17.4	34.8	SE	0.58	40.0	-33.2	719.7	0.025	0.000	20.9	65	1
05/19/19	2:23 p	-17.4	-17.4	-17.4	33.0	SE	0.55	36.5	-32.9	719.8	0.025	0.000	20.9	66	1
05/19/19	2:24 p	-17.4	-17.4	-17.4	31.3	ESE	0.52	34.8	-32.6	719.8	0.025	0.000	20.9	65	1
05/19/19	2:25 p	-17.4	-17.3	-17.4	32.2	ESE	0.54	36.5	-32.7	719.8	0.025	0.000	20.9	61	1
05/19/19	2:26 p	-17.4	-17.4	-17.4	30.4	SE	0.51	33.9	-32.4	720.0	0.025	0.000	20.9	65	1
05/19/19	2:27 p	-17.4	-17.3	-17.4	32.2	SE	0.54	38.3	-32.7	720.0	0.025	0.000	20.9	69	1
05/19/19	2:28 p	-17.4	-17.3	-17.4	31.3	SE	0.52	40.0	-32.6	720.0	0.025	0.000	20.9	69	1
05/19/19	2:29 p	-17.4	-17.3	-17.4	33.0	SE	0.55	36.5	-32.9	719.7	0.025	0.000	20.9	70	1
05/19/19	2:30 p	-17.3	-17.3	-17.4	31.3	SE	0.52	38.3	-32.5	720.0	0.025	0.000	20.9	70	1
05/19/19	2:31 p	-17.3	-17.3	-17.4	32.2	SE	0.54	42.6	-32.7	719.5	0.025	0.000	20.9	70	1
05/19/19	2:32 p	-17.3	-17.3	-17.3	29.6	ESE	0.49	47.0	-32.2	720.1	0.025	0.000	20.9	70	1
05/19/19	2:33 p	-17.3	-17.3	-17.4	27.8	SE	0.46	40.0	-31.8	719.9	0.025	0.000	20.9	70	1
05/19/19	2:34 p	-17.3	-17.3	-17.4	29.6	ESE	0.49	34.8	-32.2	719.8	0.025	0.000	20.9	70	1
05/19/19	2:35 p	-17.3	-17.3	-17.3	29.6	SE	0.49	33.9	-32.2	720.1	0.025	0.000	20.9	70	1
05/19/19	2:36 p	-17.3	-17.3	-17.3	27.0	ESE	0.45	32.2	-31.7	719.9	0.025	0.000	20.9	70	1
05/19/19	2:37 p	-17.3	-17.3	-17.3	29.6	SE	0.49	36.5	-32.2	720.0	0.025	0.000	20.9	70	1
05/19/19	2:38 p	-17.3	-17.3	-17.3	27.0	SE	0.45	30.4	-31.6	720.1	0.025	0.000	20.9	70	1
05/19/19	2:39 p	-17.3	-17.3	-17.3	30.4	SE	0.51	36.5	-32.3	719.9	0.025	0.000	20.9	70	1
05/19/19	2:40 p	-17.3	-17.3	-17.3	29.6	SE	0.49	33.0	-32.1	719.9	0.025	0.000	20.9	70	1
05/19/19	2:41 p	-17.3	-17.2	-17.3	32.2	SE	0.54	40.0	-32.6	719.7	0.025	0.000	20.9	70	1
05/19/19	2:42 p	-17.2	-17.2	-17.3	32.2	SE	0.54	40.0	-32.5	719.9	0.025	0.000	20.9	70	1
05/19/19	2:43 p	-17.2	-17.2	-17.3	30.4	SE	0.51	32.2	-32.2	719.8	0.025	0.000	20.9	70	1
05/19/19	2:44 p	-17.2	-17.2	-17.3	31.3	SE	0.52	37.4	-32.3	719.9	0.025	0.000	20.9	70	1
05/19/19	2:45 p	-17.2	-17.2	-17.2	33.9	SE	0.57	37.4	-32.8	719.7	0.025	0.000	20.9	70	1
05/19/19	2:46 p	-17.2	-17.2	-17.2	33.0	SE	0.55	40.9	-32.7	719.8	0.025	0.000	20.9	70	1
05/19/19	2:47 p	-17.2	-17.2	-17.2	32.2	SSE	0.54	40.9	-32.5	719.9	0.025	0.000	20.9	70	1
05/19/19	2:48 p	-17.2	-17.2	-17.2	29.6	SSE	0.49	33.9	-31.9	719.8	0.025	0.000	20.9	70	1
05/19/19	2:49 p	-17.2	-17.2	-17.2	30.4	SSE	0.51	33.9	-32.1	719.9	0.025	0.000	20.9	70	1
05/19/19	2:50 p	-17.1	-17.1	-17.2	30.4	SSE	0.51	35.7	-32.1	719.7	0.025	0.000	20.9	70	1
05/19/19	2:51 p	-17.2	-17.1	-17.2	31.3	SSE	0.52	38.3	-32.3	719.8	0.025	0.000	20.9	70	1
05/19/19	2:52 p	-17.1	-17.1	-17.1	30.4	SSE	0.51	35.7	-32.1	719.7	0.025	0.000	20.9	70	1
05/19/19	2:53 p	-17.1	-17.1	-17.1	31.3	SSE	0.52	37.4	-32.2	719.8	0.025	0.000	20.9	70	1
05/19/19	2:54 p	-17.1	-17.1	-17.1	33.0	SSE	0.55	37.4	-32.5	719.7	0.025	0.000	20.9	70	1
05/19/19	2:55 p	-17.1	-17.1	-17.1	31.3	SSE	0.52	33.0	-32.1	719.7	0.025	0.000	20.9	70	1
05/19/19	2:56 p	-17.1	-17.1	-17.1	34.8	SSE	0.58	38.3	-32.7	719.7	0.025	0.000	20.9	70	1
05/19/19	2:57 p	-17.1	-17.0	-17.1	33.9	SSE	0.57	40.0	-32.6	719.6	0.025	0.000	20.9	70	1
05/19/19	2:58 p	-17.1	-17.0	-17.1	36.5	SSE	0.61	43.5	-33.0	719.6	0.025	0.000	20.9	70	1
05/19/19	2:59 p	-17.1	-17.0	-17.1	36.5	SE	0.61	41.7	-33.0	719.5	0.025	0.000	20.9	69	1
05/19/19	3:00 p	-17.1	-17.1	-17.1	36.5	SE	0.61	40.9	-33.0	719.6	0.025	0.000	20.9	69	1
05/19/19	3:01 p	-17.1	-17.0	-17.1	37.4	SSE	0.62	41.7	-33.1	719.6	0.025	0.000	20.9	69	1
05/19/19	3:02 p	-17.1	-17.1	-17.1	38.3	SE	0.64	40.0	-33.2	719.3	0.025	0.000	20.9	69	1
05/19/19	3:03 p	-17.0	-17.0	-17.1	39.1	SE	0.65	43.5	-33.3	719.3	0.025	0.000	20.9	67	1
05/19/19	3:04 p	-17.0	-17.0	-17.0	40.9	SE	0.68	47.0	-33.6	719.2	0.025	0.000	20.9	60	1
05/19/19	3:05 p	-17.1	-17.0	-17.1	40.0	SE	0.67	46.1	-33.5	719.3	0.025	0.000	20.9	63	1
05/19/19	3:06 p	-17.1	-17.0	-17.1	42.6	SE	0.71	46.1	-33.9	719.0	0.025	0.000	20.9	63	1
05/19/19	3:07 p	-17.1	-17.0	-17.1	40.9	SE	0.68	45.2	-33.6	719.3	0.025	0.000	20.9	56	1
05/19/19	3:08 p	-17.1	-17.0	-17.1	42.6	SE	0.71	47.8	-33.9	719.4	0.025	0.000	20.9	59	1
05/19/19	3:09 p	-17.1	-17.1	-17.1	44.3	SE	0.74	50.4	-34.1	719.0	0.025	0.000	20.9	55	1
05/19/19	3:10 p	-17.1	-17.1	-17.1	45.2	SE	0.75	49.6	-34.2	719.1	0.025	0.000	20.9	54	1
05/19/19	3:11 p	-17.1	-17.1	-17.1	47.8	SE	0.80	52.2	-34.6	718.9	0.025	0.000	20.9	50	1
05/19/19	3:12 p	-17.1	-17.1	-17.1	46.1	SE	0.77	50.4	-34.3	718.9	0.025	0.000	20.9	60	1
05/19/19	3:13 p	-17.1	-17.1	-17.1	40.0	SE	0.67	43.5	-33.6	719.2	0.025	0.000	20.9	57	1
05/19/19	3:14 p	-17.1	-17.1	-17.1	39.1	SE	0.65	44.3	-33.4	719.3	0.025	0.000	20.9	55	1
05/19/19	3:15 p	-17.1	-17.1	-17.1	40.9	SE	0.68	46.1	-33.7	719.3	0.025	0.000	20.9	45	1
05/19/19	3:16 p	-17.1	-17.1	-17.1	40.9	SE	0.68	46.1	-33.7	719.2	0.025	0.000	20.9	50	1
05/19/19	3:17 p	-17.1	-17.1	-17.2	40.9	SE	0.68	42.6	-33.7	719.0	0.025	0.000	20.9	48	1
05/19/19	3:18 p	-17.1	-17.1	-17.2	38.3	SE	0.64	43.5	-33.3	719.4	0.025	0.000	20.9	40	1
05/19/19	3:19 p	-17.1	-17.1	-17.1	42.6	SE	0.71	47.0	-33.9	719.0	0.025	0.000	20.9	37	1
05/19/19	3:20 p	-17.1	-17.1	-17.2	40.0	SE	0.67	44.3	-33.6	719.5	0.025	0.000	20.9	34	1
05/19/19	3:21 p	-17.2	-17.2	-17.2	40.0	SE	0.67	44.3	-33.7	719.2	0.025	0.000	20.9	40	1
05/19/19	3:22 p	-17.2	-17.2	-17.2	43.5	SE	0.72	48.7	-34.1	719.2	0.025	0.000	20.9	20	1
05/19/19	3:23 p	-17.2	-17.2	-17.2	40.9	SE	0.68	45.2	-33.8	719.2	0.025	0.000	20.9	22	1
05/19/19	3:24 p	-17.2	-17.2	-17.2	42.6	SE	0.71	47.8	-34.1	719.4	0.025	0.000	20.9	28	1
05/19/19	3:25 p	-17.2	-17.2	-17.2	40.9	SE	0.68	47.8	-33.8	719.5	0.025	0.000	20.9	28	1
05/19/19	3:26 p	-17.2	-17.2	-17.2	39.1	SE	0.65	41.7	-33.6	719.5	0.025	0.000	20.9	34	1
05/19/19	3:27 p	-17.2	-17.2	-17.2	40.0	SE	0.67	46.1	-33.7	719.5	0.025	0.000	20.9	16	1
05/19/19	3:28 p	-17.2	-17.2	-17.3	40.9	SE	0.68	43.5	-33.8	719.4	0.025	0.000	20.9	17	1
05/19/19	3:29 p	-17.2	-17.2	-17.3	43.5	SE	0.72	49.6	-34.2	719.2	0.025	0.000	20.9	15	1
05/19/19	3:30 p	-17.3	-17.3	-17.3	44.3	SE	0.74	51.3	-34.4	719.6	0.025	0.000	20.9	15	1
05/19/19	3:31 p	-17.3	-17.3	-17.3	41.7	SE	0.70	47.8	-34.1	719.5	0.025	0.000	20.9	32	1
05/19/19	3:32 p	-17.3	-17.3	-17.3	39.1	SE	0.65	44.3	-33.7	719.7	0.025	0.000	20.9	48	1
05/19/19	3:33 p	-17.3	-17.3	-17.3	41.7	SE	0.70	47.8	-34.1	719.4	0.025	0.000	20.9	34	1
05/19/19	3:34 p	-17.3	-17.3	-17.3	47.0	SE	0.78	53.0	-34.8	719.1	0.025	0.000	20.9	48	1
05/19/19	3:35 p	-17.3	-17.3	-17.3	47.0	SE	0.78	53.0	-34.8	719.2	0.025	0.000	20.9	39	1
05/19/19	3:36 p	-17.3	-17.3	-17.3	45.2	SE	0.75	51.3	-34.6	719.5	0.025	0.000	20.9	47	1
05/19/19	3:37 p	-17.3	-17.3	-17.3	40.0	SE	0.67	43.5	-33.9	719.7	0.025	0.000	20.9	47	1
05/19/19	3:38 p	-17.3	-17.3	-17.3	36.5	SSE	0.61	40.9	-33.4	719.9	0.025	0.000	20.9	38	1
05/19/19	3:39 p	-17.3	-17.3	-17.3	38.3	SE	0.64	44.3	-33.6	719.7	0.025	0.000	20.9	56	1
05/19/19	3:40 p	-17.3	-17.3	-17.4	41.7	SE	0.70	45.2	-34.1	719.5	0.025	0.000	20.9	65	1
05/19/19	3:41 p	-17.4	-17.3	-17.4	44.3	SE	0.74	49.6	-34.6	719.3	0.025	0.000	20.9	62	1
05/19/19	3:42 p	-17.3	-17.3	-17.4	44.3	SE	0.74	48.7	-34.5	719.5	0.025	0.000	20.9	69	1
05/19/19	3:43 p	-17.4	-17.4	-17.4	44.3	SE	0.74	47.0	-34.6	719.6	0.025	0.000	20.9	64	1
05/19/19	3:44 p	-17.4	-17.4	-17.4	42.6	SE	0.71	45.2	-34.3	719.6	0.025	0.000	20.9	70	1
05/19/19	3:45 p	-17.4	-17.4	-17.4	47.0	SE	0.78	53.0	-34.9	719.1	0.025	0.000	20.9	70	1
05/19/19	3:46 p	-17.4	-17.4	-17.4	47.8	SE	0.80	53.9	-35.0	719.4	0.025	0.000	20.9	71	1
05/19/19	3:47 p	-17.4	-17.4	-17.4	46.1	SE	0.77	50.4	-34.9	719.3	0.025	0.000	20.9	71	1
05/19/19	3:48 p	-17.4	-17.4	-17.5	43.5	SE	0.72	47.8	-34.6	719.4	0.025	0.000	20.9	71	1
05/19/19	3:49 p	-17.4	-17.4	-17.5	41.7	SE	0.70	47.0	-34.3	719.7	0.025	0.000	20.9	71	1
05/19/19	3:50 p	-17.5	-17.5	-17.5	42.6	SE	0.71	47.8	-34.5	719.4	0.025	0.000	20.9	71	1
05/19/19	3:51 p	-17.5	-17.5	-17.5	41.7	SE	0.70	44.3	-34.4	719.6	0.025	0.000	20.9	71	1
05/19/19	3:52 p	-17.6	-17.5	-17.6	40.0	SE	0.67	44.3	-34.2	719.5	0.025	0.000	20.9	71	1
05/19/19	3:53 p	-17.6	-17.6	-17.6	40.9	SE	0.68	48.7	-34.3	719.7	0.025	0.000	20.9	71	1
05/19/19	3:54 p	-17.6	-17.6	-17.6	41.7	SE	0.70	46.1	-34.4	719.4	0.025	0.000	20.9	71	1
05/19/19	3:55 p	-17.6	-17.6	-17.6	42.6	SE	0.71	46.1	-34.6	719.5	0.025	0.000	20.9	71	1
05/19/19	3:56 p	-17.6	-17.6	-17.6	42.6	SE	0.71	49.6	-34.7	719.7	0.025	0.000	20.9	71	1
05/19/19	3:57 p	-17.6	-17.6	-17.6	40.9	SE	0.68	44.3	-34.4	719.6	0.025	0.000	20.9	71	1
05/19/19	3:58 p	-17.6	-17.6	-17.6	40.9	SE	0.68	45.2	-34.4	719.6	0.025	0.000	20.9	71	1
05/19/19	3:59 p	-17.6	-17.6	-17.7	40.9	SE	0.68	46.1	-34.4	719.6	0.025	0.000	20.9	71	1
05/19/19	4:00 p	-17.7	-17.6	-17.7	42.6	SE	0.71	46.1	-34.7	719.6	0.025	0.000	20.9	71	1
05/19/19	4:01 p	-17.7	-17.6	-17.7	39.1	SE	0.65	45.2	-34.2	719.7	0.025	0.000	20.9	71	1
05/19/19	4:02 p	-17.7	-17.7	-17.7	42.6	SE	0.71	44.3	-34.7	719.5	0.025	0.000	20.9	71	1
05/19/19	4:03 p	-17.7	-17.7	-17.7	39.1	SE	0.65	43.5	-34.3	719.6	0.025	0.000	20.9	71	1
05/19/19	4:04 p	-17.7	-17.7	-17.7	40.9	SE	0.68	43.5	-34.6	719.7	0.025	0.000	20.9	71	1
05/19/19	4:05 p	-17.8	-17.7	-17.8	38.3	SE	0.64	42.6	-34.3	719.8	0.025	0.000	20.9	71	1
05/19/19	4:06 p	-17.8	-17.8	-17.8	39.1	SE	0.65	43.5	-34.4	719.7	0.025	0.000	20.9	71	1
05/19/19	4:07 p	-17.8	-17.7	-17.8	39.1	SE	0.65	44.3	-34.4	719.7	0.025	0.000	20.9	71	1
05/19/19	4:08 p	-17.8	-17.8	-17.8	39.1	SE	0.65	43.5	-34.4	719.6	0.025	0.000	20.9	71	1
05/19/19	4:09 p	-17.8	-17.8	-17.8	37.4	SE	0.62	42.6	-34.2	719.6	0.025	0.000	20.9	71	1
05/19/19	4:10 p	-17.8	-17.8	-17.8	37.4	SE	0.62	40.9	-34.2	719.6	0.025	0.000	20.8	71	1
05/19/19	4:11 p	-17.8	-17.8	-17.9	40.0	SE	0.67	45.2	-34.6	719.8	0.025	0.000	20.8	71	1
05/19/19	4:12 p	-17.9	-17.9	-17.9	37.4	ESE	0.62	41.7	-34.3	719.6	0.025	0.000	20.8	71	1
05/19/19	4:13 p	-17.9	-17.9	-17.9	38.3	SE	0.64	41.7	-34.4	719.7	0.025	0.000	20.8	72	1
05/19/19	4:14 p	-17.9	-17.9	-17.9	38.3	SE	0.64	42.6	-34.4	719.8	0.025	0.000	20.8	71	1
05/19/19	4:15 p	-17.9	-17.9	-17.9	40.0	SE	0.67	43.5	-34.7	719.6	0.025	0.000	20.8	71	1
05/19/19	4:16 p	-17.9	-17.9	-17.9	38.3	SE	0.64	45.2	-34.5	719.8	0.025	0.000	20.8	71	1
05/19/19	4:17 p	-17.9	-17.9	-17.9	36.5	SE	0.61	40.0	-34.2	719.5	0.025	0.000	20.8	71	1
05/19/19	4:18 p	-17.9	-17.9	-18.0	36.5	SE	0.61	42.6	-34.2	719.6	0.025	0.000	20.8	71	1
05/19/19	4:19 p	-17.9	-17.9	-18.0	37.4	SE	0.62	40.9	-34.3	719.6	0.025	0.000	20.8	71	1
05/19/19	4:20 p	-18.0	-17.9	-18.0	36.5	SE	0.61	43.5	-34.3	719.6	0.025	0.000	20.8	71	1
05/19/19	4:21 p	-17.9	-17.9	-18.0	40.9	SE	0.68	43.5	-34.9	719.5	0.025	0.000	20.8	71	1
05/19/19	4:22 p	-18.0	-18.0	-18.0	38.3	SE	0.64	45.2	-34.6	719.6	0.025	0.000	20.8	71	1
05/19/19	4:23 p	-18.0	-18.0	-18.0	40.9	SE	0.68	44.3	-34.9	719.6	0.025	0.000	20.8	71	1
05/19/19	4:24 p	-18.0	-17.9	-18.0	40.9	SE	0.68	44.3	-34.9	719.7	0.025	0.000	20.8	71	1
05/19/19	4:25 p	-18.0	-18.0	-18.0	38.3	SE	0.64	41.7	-34.6	719.7	0.025	0.000	20.8	71	1
05/19/19	4:26 p	-18.0	-18.0	-18.0	39.1	SSE	0.65	43.5	-34.7	719.5	0.025	0.000	20.8	71	1
05/19/19	4:27 p	-18.0	-18.0	-18.1	41.7	SE	0.70	45.2	-35.1	719.5	0.025	0.000	20.8	71	1
05/19/19	4:28 p	-18.0	-18.0	-18.0	43.5	SE	0.72	52.2	-35.3	719.4	0.025	0.000	20.8	71	1
05/19/19	4:29 p	-18.0	-18.0	-18.0	42.6	SE	0.71	46.1	-35.2	719.3	0.025	0.000	20.9	71	1
05/19/19	4:30 p	-18.0	-18.0	-18.1	38.3	SE	0.64	42.6	-34.6	719.4	0.025	0.000	20.8	71	1
05/19/19	4:31 p	-18.1	-18.0	-18.1	42.6	SE	0.71	45.2	-35.3	719.3	0.025	0.000	20.8	71	1
05/19/19	4:32 p	-18.0	-17.9	-18.0	42.6	SE	0.71	47.0	-35.2	719.4	0.025	0.000	20.8	71	1
05/19/19	4:33 p	-18.0	-18.0	-18.1	41.7	SE	0.70	46.1	-35.1	719.5	0.025	0.000	20.8	71	1
05/19/19	4:34 p	-18.0	-18.0	-18.0	42.6	SE	0.71	48.7	-35.2	719.4	0.025	0.000	20.8	71	1
05/19/19	4:35 p	-18.0	-18.0	-18.1	45.2	SE	0.75	50.4	-35.6	719.4	0.025	0.000	20.8	71	1
05/19/19	4:36 p	-18.0	-18.0	-18.1	40.0	SE	0.67	44.3	-34.8	719.5	0.025	0.000	20.8	71	1
05/19/19	4:37 p	-18.0	-18.0	-18.0	41.7	SE	0.70	44.3	-35.1	719.4	0.025	0.000	20.8	71	1
05/19/19	4:38 p	-18.0	-18.0	-18.0	41.7	SE	0.70	46.1	-35.1	719.4	0.025	0.000	20.8	71	1
05/19/19	4:39 p	-18.0	-18.0	-18.1	40.9	SE	0.68	45.2	-34.9	719.4	0.025	0.000	20.8	71	1
05/19/19	4:40 p	-18.0	-18.0	-18.1	40.0	SE	0.67	43.5	-34.8	719.4	0.025	0.000	20.8	72	1
05/19/19	4:41 p	-18.0	-18.0	-18.1	44.3	SE	0.74	48.7	-35.4	719.2	0.025	0.000	20.8	71	1
05/19/19	4:42 p	-18.0	-18.0	-18.1	44.3	SE	0.74	48.7	-35.4	719.4	0.025	0.000	20.8	72	1
05/19/19	4:43 p	-18.0	-18.0	-18.1	43.5	SE	0.72	46.1	-35.3	719.2	0.025	0.000	20.8	71	1
05/19/19	4:44 p	-18.1	-18.0	-18.1	45.2	SE	0.75	48.7	-35.6	719.1	0.025	0.000	20.8	72	1
05/19/19	4:45 p	-18.1	-18.0	-18.1	45.2	SE	0.75	49.6	-35.6	719.3	0.025	0.000	20.8	71	1
05/19/19	4:46 p	-18.1	-18.0	-18.1	46.1	SE	0.77	52.2	-35.8	719.3	0.025	0.000	20.8	71	1
05/19/19	4:47 p	-18.1	-18.0	-18.1	42.6	SE	0.71	47.8	-35.3	719.3	0.025	0.000	20.8	71	1
05/19/19	4:48 p	-18.1	-18.0	-18.1	44.3	SE	0.74	49.6	-35.5	719.2	0.025	0.000	20.8	71	1
05/19/19	4:49 p	-18.1	-18.1	-18.1	47.0	SE	0.78	51.3	-35.9	719.3	0.025	0.000	20.8	71	1
05/19/19	4:50 p	-18.1	-18.0	-18.1	44.3	SE	0.74	49.6	-35.5	719.2	0.025	0.000	20.8	71	1
05/19/19	4:51 p	-18.0	-18.0	-18.1	47.0	SE	0.78	51.3	-35.8	719.3	0.025	0.000	20.8	72	1
05/19/19	4:52 p	-18.0	-18.0	-18.0	41.7	SE	0.70	47.0	-35.1	719.4	0.025	0.000	20.8	71	1
05/19/19	4:53 p	-18.0	-18.0	-18.0	42.6	SE	0.71	46.1	-35.2	719.1	0.025	0.000	20.8	71	1
05/19/19	4:54 p	-18.0	-17.9	-18.0	43.5	SE	0.72	47.8	-35.3	719.4	0.025	0.000	20.8	72	1
05/19/19	4:55 p	-18.0	-18.0	-18.0	42.6	SE	0.71	48.7	-35.2	719.5	0.025	0.000	20.8	71	1
05/19/19	4:56 p	-18.0	-17.9	-18.0	40.0	SE	0.67	43.5	-34.8	719.7	0.025	0.000	20.8	71	1
05/19/19	4:57 p	-18.0	-17.9	-18.0	38.3	SE	0.64	40.0	-34.6	719.7	0.025	0.000	20.8	71	1
05/19/19	4:58 p	-17.9	-17.9	-18.0	39.1	SE	0.65	44.3	-34.6	719.6	0.025	0.000	20.8	72	1
05/19/19	4:59 p	-17.9	-17.9	-17.9	39.1	SE	0.65	43.5	-34.6	719.6	0.025	0.000	20.8	71	1
05/19/19	5:00 p	-17.9	-17.9	-17.9	40.9	SE	0.68	46.1	-34.9	719.8	0.025	0.000	20.8	71	1
05/19/19	5:01 p	-17.9	-17.9	-17.9	40.0	SE	0.67	43.5	-34.7	719.7	0.025	0.000	20.8	71	1
05/19/19	5:02 p	-17.9	-17.9	-17.9	37.4	SE	0.62	40.9	-34.3	719.7	0.025	0.000	20.8	72	1
05/19/19	5:03 p	-17.9	-17.9	-17.9	39.1	SE	0.65	43.5	-34.6	719.7	0.025	0.000	20.8	72	1
05/19/19	5:04 p	-17.9	-17.8	-17.9	38.3	SE	0.64	42.6	-34.4	719.8	0.025	0.000	20.8	71	1
05/19/19	5:05 p	-17.9	-17.8	-17.9	40.9	SE	0.68	45.2	-34.8	719.5	0.025	0.000	20.8	72	1
05/19/19	5:06 p	-17.9	-17.8	-17.9	41.7	SE	0.70	45.2	-34.9	719.7	0.025	0.000	20.8	72	1
05/19/19	5:07 p	-17.8	-17.8	-17.9	40.0	SE	0.67	44.3	-34.6	719.7	0.025	0.000	20.8	72	1
05/19/19	5:08 p	-17.8	-17.8	-17.8	38.3	SE	0.64	40.9	-34.3	719.8	0.025	0.000	20.8	71	1
05/19/19	5:09 p	-17.8	-17.8	-17.8	39.1	SE	0.65	41.7	-34.4	719.6	0.025	0.000	20.8	71	1
05/19/19	5:10 p	-17.8	-17.8	-17.8	37.4	SE	0.62	41.7	-34.2	719.7	0.025	0.000	20.8	71	1
05/19/19	5:11 p	-17.8	-17.8	-17.8	34.8	SE	0.58	39.1	-33.8	719.9	0.025	0.000	20.8	71	1
05/19/19	5:12 p	-17.8	-17.8	-17.8	35.7	SE	0.59	38.3	-33.8	719.9	0.025	0.000	20.8	72	1
05/19/19	5:13 p	-17.8	-17.8	-17.8	37.4	SE	0.62	40.0	-34.1	719.9	0.025	0.000	20.8	72	1
05/19/19	5:14 p	-17.8	-17.8	-17.8	36.5	SE	0.61	40.0	-34.0	719.9	0.025	0.000	20.8	71	1
05/19/19	5:15 p	-17.8	-17.8	-17.8	37.4	SE	0.62	40.9	-34.1	719.7	0.025	0.000	20.8	72	1
05/19/19	5:16 p	-17.8	-17.8	-17.8	34.8	SE	0.58	38.3	-33.7	719.8	0.025	0.000	20.8	72	1
05/19/19	5:17 p	-17.8	-17.7	-17.8	36.5	SE	0.61	40.0	-34.0	719.7	0.025	0.000	20.8	72	1
05/19/19	5:18 p	-17.7	-17.7	-17.8	36.5	SE	0.61	40.0	-33.9	719.7	0.025	0.000	20.8	72	1
05/19/19	5:19 p	-17.7	-17.7	-17.7	35.7	ESE	0.59	38.3	-33.8	719.6	0.025	0.000	20.8	72	1
05/19/19	5:20 p	-17.7	-17.7	-17.7	35.7	ESE	0.59	38.3	-33.8	719.7	0.025	0.000	20.8	72	1
05/19/19	5:21 p	-17.7	-17.7	-17.7	37.4	SE	0.62	41.7	-34.1	719.8	0.025	0.000	20.8	72	1
05/19/19	5:22 p	-17.7	-17.7	-17.7	33.9	SE	0.57	37.4	-33.5	720.0	0.025	0.000	20.8	72	1
05/19/19	5:23 p	-17.7	-17.7	-17.7	33.9	ESE	0.57	35.7	-33.4	719.9	0.025	0.000	20.8	72	1
05/19/19	5:24 p	-17.7	-17.7	-17.7	35.7	SE	0.59	38.3	-33.8	719.8	0.025	0.000	20.8	72	1
05/19/19	5:25 p	-17.7	-17.7	-17.7	33.9	SE	0.57	36.5	-33.5	720.0	0.025	0.000	20.8	72	1
05/19/19	5:26 p	-17.7	-17.7	-17.7	36.5	ESE	0.61	40.0	-33.8	719.9	0.025	0.000	20.8	72	1
05/19/19	5:27 p	-17.7	-17.7	-17.7	38.3	SE	0.64	42.6	-34.1	719.9	0.025	0.000	20.8	71	1
05/19/19	5:28 p	-17.7	-17.7	-17.7	35.7	ESE	0.59	39.1	-33.7	720.0	0.025	0.000	20.8	71	1
05/19/19	5:29 p	-17.7	-17.7	-17.7	37.4	SE	0.62	40.0	-33.9	719.8	0.025	0.000	20.8	71	1
05/19/19	5:30 p	-17.7	-17.6	-17.7	35.7	SE	0.59	39.1	-33.7	719.8	0.025	0.000	20.8	71	1
05/19/19	5:31 p	-17.7	-17.7	-17.7	34.8	ESE	0.58	45.2	-33.6	719.7	0.025	0.000	20.8	71	1
05/19/19	5:32 p	-17.6	-17.6	-17.7	33.0	SE	0.55	36.5	-33.2	720.2	0.025	0.000	20.8	71	1
05/19/19	5:33 p	-17.7	-17.6	-17.7	29.6	SE	0.49	31.3	-32.6	720.4	0.025	0.000	20.8	71	1
05/19/19	5:34 p	-17.6	-17.6	-17.6	27.8	SE	0.46	33.9	-32.2	720.5	0.025	0.000	20.8	71	1
05/19/19	5:35 p	-17.6	-17.6	-17.6	29.6	SE	0.49	37.4	-32.6	720.6	0.025	0.000	20.8	71	1
05/19/19	5:36 p	-17.6	-17.6	-17.6	34.8	SE	0.58	38.3	-33.4	720.2	0.025	0.000	20.8	71	1
05/19/19	5:37 p	-17.6	-17.6	-17.6	29.6	SE	0.49	34.8	-32.6	720.4	0.025	0.000	20.8	71	1
05/19/19	5:38 p	-17.6	-17.6	-17.6	27.8	SE	0.46	32.2	-32.2	720.4	0.025	0.000	20.8	71	1
05/19/19	5:39 p	-17.6	-17.5	-17.6	30.4	SSE	0.51	35.7	-32.7	720.5	0.025	0.000	20.8	72	1
05/19/19	5:40 p	-17.6	-17.5	-17.6	27.8	SSE	0.46	33.0	-32.2	720.6	0.025	0.000	20.8	72	1
05/19/19	5:41 p	-17.5	-17.5	-17.5	30.4	SSE	0.51	36.5	-32.6	720.6	0.025	0.000	20.8	72	1
05/19/19	5:42 p	-17.4	-17.4	-17.5	22.6	SSE	0.38	29.6	-30.9	720.6	0.025	0.000	20.8	72	1
05/19/19	5:43 p	-17.4	-17.4	-17.4	19.1	SSE	0.32	31.3	-30.0	720.4	0.025	0.000	20.8	72	1
05/19/19	5:44 p	-17.4	-17.4	-17.4	22.6	SSE	0.38	31.3	-30.8	720.5	0.025	0.000	20.8	72	1
05/19/19	5:45 p	-17.3	-17.3	-17.4	26.1	SSE	0.43	31.3	-31.5	720.5	0.025	0.000	20.8	72	1
05/19/19	5:46 p	-17.3	-17.3	-17.3	25.2	SSE	0.42	37.4	-31.3	720.4	0.025	0.000	20.8	72	1
05/19/19	5:47 p	-17.2	-17.2	-17.2	25.2	SSE	0.42	33.0	-31.2	720.2	0.025	0.000	20.8	72	1
05/19/19	5:48 p	-17.2	-17.2	-17.2	27.0	SSE	0.45	38.3	-31.4	720.4	0.025	0.000	20.8	71	1
05/19/19	5:49 p	-17.2	-17.1	-17.2	30.4	SSE	0.51	41.7	-32.1	720.1	0.025	0.000	20.8	72	1
05/19/19	5:50 p	-17.1	-17.1	-17.1	33.9	SSE	0.57	40.0	-32.6	720.0	0.025	0.000	20.8	71	1
05/19/19	5:51 p	-17.1	-17.1	-17.1	34.8	SSE	0.58	39.1	-32.7	720.2	0.025	0.000	20.8	71	1
05/19/19	5:52 p	-17.0	-16.9	-17.1	29.6	SSE	0.49	45.2	-31.7	720.5	0.025	0.000	20.8	71	1
05/19/19	5:53 p	-16.9	-16.9	-16.9	23.5	SSE	0.39	33.9	-30.4	720.3	0.024	0.000	20.8	71	1
05/19/19	5:54 p	-16.9	-16.9	-16.9	23.5	SSE	0.39	36.5	-30.4	720.2	0.024	0.000	20.8	71	1
05/19/19	5:55 p	-16.8	-16.8	-16.8	24.3	SSE	0.41	36.5	-30.4	720.1	0.024	0.000	20.8	72	1
05/19/19	5:56 p	-16.8	-16.8	-16.8	31.3	SSE	0.52	43.5	-31.8	720.2	0.024	0.000	20.8	72	1
05/19/19	5:57 p	-16.8	-16.8	-16.8	18.3	SSE	0.30	37.4	-28.9	720.2	0.024	0.000	20.8	72	1
05/19/19	5:58 p	-16.8	-16.7	-16.8	18.3	SSE	0.30	32.2	-28.9	720.4	0.024	0.000	20.8	72	1
05/19/19	5:59 p	-16.7	-16.7	-16.7	20.0	SSE	0.33	31.3	-29.3	720.2	0.024	0.000	20.8	72	1
05/19/19	6:00 p	-16.7	-16.7	-16.7	18.3	S	0.30	40.0	-28.7	720.4	0.024	0.000	20.8	72	1
05/19/19	6:01 p	-16.7	-16.7	-16.7	17.4	SSE	0.29	23.5	-28.5	720.3	0.024	0.000	20.8	72	1
05/19/19	6:02 p	-16.6	-16.6	-16.6	22.6	SSE	0.38	33.9	-29.8	720.2	0.024	0.000	20.8	72	1
05/19/19	6:03 p	-16.6	-16.6	-16.6	29.6	SSE	0.49	35.7	-31.2	720.2	0.024	0.000	20.8	72	1
05/19/19	6:04 p	-16.6	-16.6	-16.6	24.3	SSE	0.41	33.9	-30.1	720.2	0.024	0.000	20.8	72	1
05/19/19	6:05 p	-16.5	-16.5	-16.6	25.2	SSE	0.42	36.5	-30.2	720.1	0.024	0.000	20.9	72	1
05/19/19	6:06 p	-16.6	-16.5	-16.6	25.2	SSE	0.42	40.9	-30.3	720.0	0.024	0.000	20.9	72	1
05/19/19	6:07 p	-16.5	-16.5	-16.6	33.9	SSE	0.57	43.5	-31.8	720.0	0.024	0.000	20.9	72	1
05/19/19	6:08 p	-16.5	-16.4	-16.5	23.5	SSE	0.39	33.9	-29.8	720.2	0.024	0.000	20.9	72	1
05/19/19	6:09 p	-16.5	-16.4	-16.5	22.6	SSE	0.38	33.0	-29.6	720.0	0.024	0.000	20.9	72	1
05/19/19	6:10 p	-16.5	-16.5	-16.5	25.2	SSE	0.42	37.4	-30.2	720.1	0.024	0.000	20.9	72	1
05/19/19	6:11 p	-16.5	-16.4	-16.5	24.3	SSE	0.41	35.7	-30.0	720.1	0.024	0.000	20.9	72	1
05/19/19	6:12 p	-16.5	-16.4	-16.5	21.7	SSE	0.36	33.0	-29.4	720.0	0.024	0.000	20.9	72	1
05/19/19	6:13 p	-16.5	-16.5	-16.5	26.1	SSE	0.43	36.5	-30.3	720.1	0.024	0.000	20.9	72	1
05/19/19	6:14 p	-16.5	-16.5	-16.5	27.8	SSE	0.46	40.9	-30.7	720.2	0.024	0.000	20.9	71	1
05/19/19	6:15 p	-16.5	-16.4	-16.5	25.2	SSE	0.42	41.7	-30.2	720.3	0.024	0.000	20.9	72	1
05/19/19	6:16 p	-16.5	-16.5	-16.5	24.3	SSE	0.41	40.0	-30.0	720.4	0.024	0.000	20.9	72	1
05/19/19	6:17 p	-16.5	-16.5	-16.5	26.1	SSE	0.43	36.5	-30.3	720.1	0.024	0.000	20.9	72	1
05/19/19	6:18 p	-16.5	-16.5	-16.6	21.7	S	0.36	33.0	-29.4	720.3	0.024	0.000	20.9	72	1
05/19/19	6:19 p	-16.6	-16.6	-16.6	20.0	SSE	0.33	32.2	-29.1	720.2	0.024	0.000	20.9	72	1
05/19/19	6:20 p	-16.6	-16.6	-16.6	19.1	SSE	0.32	30.4	-28.8	720.3	0.024	0.000	20.9	72	1
05/19/19	6:21 p	-16.6	-16.6	-16.6	21.7	SSE	0.36	37.4	-29.5	720.2	0.024	0.000	20.9	72	1
05/19/19	6:22 p	-16.6	-16.6	-16.6	23.5	SSE	0.39	39.1	-29.9	720.2	0.024	0.000	20.9	72	1
05/19/19	6:23 p	-16.6	-16.6	-16.6	30.4	SSE	0.51	42.6	-31.3	720.3	0.024	0.000	20.9	72	1
05/19/19	6:24 p	-16.6	-16.6	-16.7	34.8	SSE	0.58	41.7	-32.1	720.3	0.024	0.000	20.9	72	1
05/19/19	6:25 p	-16.6	-16.6	-16.7	30.4	SSE	0.51	41.7	-31.3	720.3	0.024	0.000	20.9	72	1
05/19/19	6:26 p	-16.6	-16.6	-16.7	25.2	SSE	0.42	36.5	-30.3	720.4	0.024	0.000	20.9	72	1
05/19/19	6:27 p	-16.6	-16.6	-16.7	23.5	SSE	0.39	35.7	-29.9	720.4	0.024	0.000	20.9	72	1
05/19/19	6:28 p	-16.6	-16.6	-16.6	21.7	SSE	0.36	33.0	-29.6	720.2	0.024	0.000	21.0	72	1
05/19/19	6:29 p	-16.7	-16.7	-16.7	19.1	S	0.32	29.6	-28.9	720.0	0.024	0.000	21.0	72	1
05/19/19	6:30 p	-16.7	-16.6	-16.7	27.8	SSE	0.46	40.9	-30.9	720.0	0.024	0.000	21.0	72	1
05/19/19	6:31 p	-16.6	-16.6	-16.7	23.5	SSE	0.39	44.3	-29.9	720.0	0.024	0.000	21.0	72	1
05/19/19	6:32 p	-16.6	-16.6	-16.7	31.3	S	0.52	65.2	-31.5	720.2	0.024	0.000	21.0	72	1
05/19/19	6:33 p	-16.6	-16.6	-16.6	23.5	SSE	0.39	33.9	-29.9	720.1	0.024	0.000	21.0	72	1
05/19/19	6:34 p	-16.6	-16.6	-16.6	19.1	S	0.32	25.2	-28.9	720.1	0.024	0.000	21.0	72	1
05/19/19	6:35 p	-16.6	-16.6	-16.6	27.8	SSE	0.46	45.2	-30.8	720.1	0.024	0.000	21.0	72	1
05/19/19	6:36 p	-16.6	-16.6	-16.6	27.8	SSE	0.46	46.1	-30.8	720.2	0.024	0.000	21.0	72	1
05/19/19	6:37 p	-16.6	-16.5	-16.6	25.2	SSE	0.42	46.1	-30.3	720.2	0.024	0.000	21.0	72	1
05/19/19	6:38 p	-16.4	-16.4	-16.5	20.0	S	0.33	28.7	-28.9	720.4	0.024	0.000	21.0	72	1
05/19/19	6:39 p	-16.5	-16.4	-16.5	24.3	S	0.41	48.7	-30.0	719.8	0.024	0.000	21.0	72	1
05/19/19	6:40 p	-16.4	-16.4	-16.5	23.5	S	0.39	34.8	-29.7	720.2	0.024	0.000	21.0	72	1
05/19/19	6:41 p	-16.4	-16.4	-16.4	22.6	SSE	0.38	40.0	-29.6	720.2	0.024	0.000	21.0	72	1
05/19/19	6:42 p	-16.4	-16.4	-16.4	20.9	SSE	0.35	34.8	-29.1	720.2	0.024	0.000	21.0	71	1
05/19/19	6:43 p	-16.4	-16.4	-16.4	21.7	SSE	0.36	38.3	-29.3	720.4	0.024	0.000	21.0	72	1
05/19/19	6:44 p	-16.4	-16.4	-16.4	26.1	SSE	0.43	41.7	-30.3	720.4	0.024	0.000	21.0	71	1
05/19/19	6:45 p	-16.4	-16.4	-16.4	23.5	SSE	0.39	35.7	-29.7	720.7	0.024	0.000	21.0	72	1
05/19/19	6:46 p	-16.4	-16.4	-16.4	17.4	SSE	0.29	26.1	-28.1	720.7	0.024	0.000	21.0	71	1
05/19/19	6:47 p	-16.4	-16.4	-16.4	28.7	SSE	0.48	43.5	-30.7	720.5	0.024	0.000	21.0	72	1
05/19/19	6:48 p	-16.4	-16.4	-16.4	27.8	SSE	0.46	41.7	-30.6	720.7	0.024	0.000	21.0	72	1
05/19/19	6:49 p	-16.4	-16.4	-16.4	23.5	SSE	0.39	39.1	-29.7	720.8	0.024	0.000	21.1	72	1
05/19/19	6:50 p	-16.4	-16.4	-16.4	15.7	S	0.26	25.2	-27.7	720.7	0.024	0.000	21.1	71	1
05/19/19	6:51 p	-16.4	-16.4	-16.4	19.1	SSE	0.32	28.7	-28.7	720.7	0.024	0.000	21.1	72	1
05/19/19	6:52 p	-16.4	-16.4	-16.4	19.1	SSE	0.32	32.2	-28.7	720.6	0.024	0.000	21.1	70	1
05/19/19	6:53 p	-16.4	-16.4	-16.4	22.6	SSE	0.38	35.7	-29.6	720.7	0.024	0.000	21.1	39	1
05/19/19	6:54 p	-16.4	-16.4	-16.5	29.6	SSE	0.49	42.6	-30.9	720.4	0.024	0.000	21.1	54	1
05/19/19	6:55 p	-16.4	-16.4	-16.5	27.8	SSE	0.46	42.6	-30.6	720.6	0.024	0.000	21.1	71	1
05/19/19	6:56 p	-16.5	-16.4	-16.5	28.7	SSE	0.48	40.9	-30.9	720.8	0.024	0.000	21.1	73	1
05/19/19	6:57 p	-16.4	-16.4	-16.5	18.3	SSE	0.30	33.9	-28.4	720.7	0.024	0.000	21.1	89	1
05/19/19	6:58 p	-16.5	-16.5	-16.6	20.9	SSE	0.35	34.8	-29.2	720.7	0.024	0.000	21.1	98	1
05/19/19	6:59 p	-16.5	-16.5	-16.5	21.7	SSE	0.36	27.8	-29.4	720.7	0.024	0.000	21.1	98	1
05/19/19	7:00 p	-16.6	-16.6	-16.6	19.1	SSE	0.32	37.4	-28.8	720.8	0.024	0.000	21.1	100	1
05/19/19	7:01 p	-16.6	-16.6	-16.6	21.7	SSE	0.36	33.9	-29.5	720.7	0.024	0.000	21.1	99	1
05/19/19	7:02 p	-16.6	-16.6	-16.6	16.5	SSE	0.28	29.6	-28.1	720.9	0.024	0.000	21.1	93	1
05/19/19	7:03 p	-16.6	-16.6	-16.6	25.2	SSE	0.42	39.1	-30.3	720.9	0.024	0.000	21.1	89	1
05/19/19	7:04 p	-16.6	-16.6	-16.6	31.3	SSE	0.52	43.5	-31.5	720.9	0.024	0.000	21.1	96	1
05/19/19	7:05 p	-16.6	-16.6	-16.6	32.2	SSE	0.54	36.5	-31.7	720.8	0.024	0.000	21.1	98	1
05/19/19	7:06 p	-16.6	-16.6	-16.6	26.1	SSE	0.43	35.7	-30.5	720.9	0.024	0.000	21.2	97	1
05/19/19	7:07 p	-16.7	-16.6	-16.7	33.9	SSE	0.57	40.0	-32.0	720.7	0.024	0.000	21.2	94	1
05/19/19	7:08 p	-16.7	-16.6	-16.7	31.3	SSE	0.52	38.3	-31.6	720.9	0.024	0.000	21.2	73	1
05/19/19	7:09 p	-16.7	-16.6	-16.7	31.3	SSE	0.52	37.4	-31.6	720.9	0.024	0.000	21.2	72	1
05/19/19	7:10 p	-16.7	-16.7	-16.7	29.6	SSE	0.49	37.4	-31.3	720.9	0.024	0.000	21.2	72	1
05/19/19	7:11 p	-16.7	-16.7	-16.8	30.4	SSE	0.51	39.1	-31.5	720.9	0.024	0.000	21.2	73	1
05/19/19	7:12 p	-16.7	-16.7	-16.8	25.2	SSE	0.42	37.4	-30.5	720.8	0.024	0.000	21.2	73	1
05/19/19	7:13 p	-16.8	-16.8	-16.8	27.0	SSE	0.45	36.5	-30.9	720.9	0.024	0.000	21.2	79	1
05/19/19	7:14 p	-16.8	-16.8	-16.8	21.7	SSE	0.36	31.3	-29.8	721.1	0.024	0.000	21.2	100	1
05/19/19	7:15 p	-16.8	-16.8	-16.9	27.8	SSE	0.46	36.5	-31.2	720.9	0.024	0.000	21.2	100	1
05/19/19	7:16 p	-16.9	-16.9	-16.9	27.8	SSE	0.46	39.1	-31.2	720.8	0.024	0.000	21.2	100	1
05/19/19	7:17 p	-16.9	-16.9	-16.9	29.6	SSE	0.49	40.9	-31.6	721.0	0.024	0.000	21.2	100	1
05/19/19	7:18 p	-16.9	-16.9	-16.9	32.2	SSE	0.54	39.1	-32.1	720.6	0.024	0.000	21.2	100	1
05/19/19	7:19 p	-16.9	-16.9	-17.0	33.9	SSE	0.57	39.1	-32.4	720.7	0.024	0.000	21.2	100	1
05/19/19	7:20 p	-17.0	-16.9	-17.0	33.9	SSE	0.57	41.7	-32.5	720.5	0.025	0.000	21.2	100	1
05/19/19	7:21 p	-17.0	-17.0	-17.0	33.9	SSE	0.57	46.1	-32.5	720.6	0.025	0.000	21.2	100	1
05/19/19	7:22 p	-17.1	-17.0	-17.1	31.3	SSE	0.52	40.0	-32.1	720.5	0.025	0.000	21.2	100	1
05/19/19	7:23 p	-17.1	-17.1	-17.1	36.5	SSE	0.61	46.1	-33.0	720.6	0.025	0.000	21.2	100	1
05/19/19	7:24 p	-17.1	-17.1	-17.2	29.6	SSE	0.49	41.7	-31.9	720.7	0.025	0.000	21.2	100	1
05/19/19	7:25 p	-17.1	-17.1	-17.2	28.7	SSE	0.48	38.3	-31.7	720.4	0.025	0.000	21.3	100	1
05/19/19	7:26 p	-17.2	-17.2	-17.2	38.3	SSE	0.64	50.4	-33.4	720.4	0.025	0.000	21.2	85	1
05/19/19	7:27 p	-17.2	-17.2	-17.2	38.3	SSE	0.64	45.2	-33.5	720.4	0.025	0.000	21.3	75	1
05/19/19	7:28 p	-17.2	-17.2	-17.3	36.5	SSE	0.61	42.6	-33.2	720.5	0.025	0.000	21.3	48	1
05/19/19	7:29 p	-17.2	-17.2	-17.3	38.3	SSE	0.64	45.2	-33.5	720.3	0.025	0.000	21.3	29	1
05/19/19	7:30 p	-17.3	-17.3	-17.3	34.8	SSE	0.58	43.5	-33.0	720.7	0.025	0.000	21.3	26	1
05/19/19	7:31 p	-17.3	-17.3	-17.3	34.8	SSE	0.58	40.9	-33.1	720.6	0.025	0.000	21.3	24	1
05/19/19	7:32 p	-17.4	-17.3	-17.4	38.3	SSE	0.64	43.5	-33.7	720.5	0.025	0.000	21.3	22	1
05/19/19	7:33 p	-17.4	-17.4	-17.4	44.3	SSE	0.74	47.8	-34.6	720.6	0.025	0.000	21.3	22	1
05/19/19	7:34 p	-17.4	-17.4	-17.4	44.3	SSE	0.74	48.7	-34.7	720.5	0.025	0.000	21.3	22	1
05/19/19	7:35 p	-17.5	-17.4	-17.5	46.1	SE	0.77	49.6	-34.9	720.5	0.025	0.000	21.3	22	1
05/19/19	7:36 p	-17.5	-17.5	-17.5	47.0	SE	0.78	50.4	-35.1	720.2	0.025	0.000	21.3	21	1
05/19/19	7:37 p	-17.6	-17.5	-17.6	44.3	SE	0.74	51.3	-34.8	720.6	0.025	0.000	21.3	21	1
05/19/19	7:38 p	-17.6	-17.6	-17.6	43.5	SE	0.72	48.7	-34.7	720.5	0.025	0.000	21.3	21	1
05/19/19	7:39 p	-17.6	-17.6	-17.6	42.6	SE	0.71	47.0	-34.6	720.6	0.025	0.000	21.3	21	1
05/19/19	7:40 p	-17.6	-17.6	-17.7	41.7	SE	0.70	48.7	-34.6	720.4	0.025	0.000	21.3	21	1
05/19/19	7:41 p	-17.7	-17.6	-17.7	43.5	SE	0.72	48.7	-34.8	720.5	0.025	0.000	21.3	21	1
05/19/19	7:42 p	-17.7	-17.7	-17.7	43.5	SE	0.72	49.6	-34.8	720.5	0.025	0.000	21.3	21	1
05/19/19	7:43 p	-17.7	-17.7	-17.8	41.7	SE	0.70	47.8	-34.7	720.4	0.025	0.000	21.3	21	1
05/19/19	7:44 p	-17.8	-17.7	-17.8	43.5	SE	0.72	46.1	-35.0	720.5	0.025	0.000	21.3	21	1
05/19/19	7:45 p	-17.8	-17.8	-17.8	42.6	SE	0.71	44.3	-34.9	720.5	0.025	0.000	21.3	21	1
05/19/19	7:46 p	-17.8	-17.8	-17.8	44.3	SE	0.74	47.0	-35.2	720.4	0.025	0.000	21.3	21	1
05/19/19	7:47 p	-17.9	-17.8	-17.9	44.3	SE	0.74	49.6	-35.3	720.5	0.025	0.000	21.3	21	1
05/19/19	7:48 p	-17.9	-17.8	-17.9	42.6	SE	0.71	48.7	-35.1	720.5	0.025	0.000	21.3	21	1
05/19/19	7:49 p	-17.9	-17.9	-17.9	43.5	SSE	0.72	52.2	-35.2	720.5	0.025	0.000	21.3	21	1
05/19/19	7:50 p	-17.9	-17.9	-17.9	47.0	SE	0.78	49.6	-35.7	720.4	0.025	0.000	21.3	21	1
05/19/19	7:51 p	-17.9	-17.9	-18.0	47.0	SE	0.78	51.3	-35.7	720.3	0.025	0.000	21.3	21	1
05/19/19	7:52 p	-18.0	-18.0	-18.0	47.0	SE	0.78	53.0	-35.8	720.4	0.025	0.000	21.3	21	1
05/19/19	7:53 p	-18.0	-18.0	-18.0	43.5	SE	0.72	47.0	-35.3	720.3	0.025	0.000	21.3	21	1
05/19/19	7:54 p	-18.0	-18.0	-18.1	46.1	SE	0.77	52.2	-35.7	720.4	0.025	0.000	21.3	21	1
05/19/19	7:55 p	-18.1	-18.1	-18.1	47.0	SE	0.78	52.2	-35.9	720.3	0.025	0.000	21.3	21	1
05/19/19	7:56 p	-18.1	-18.1	-18.1	47.8	SE	0.80	55.7	-36.0	720.3	0.025	0.000	21.3	21	1
05/19/19	7:57 p	-18.1	-18.1	-18.1	47.8	SE	0.80	52.2	-36.1	720.2	0.025	0.000	21.3	21	1
05/19/19	7:58 p	-18.1	-18.1	-18.1	47.8	SE	0.80	55.7	-36.1	720.1	0.025	0.000	21.3	21	1
05/19/19	7:59 p	-18.1	-18.1	-18.1	46.1	SE	0.77	53.9	-35.8	720.2	0.025	0.000	21.3	21	1
05/19/19	8:00 p	-18.1	-18.1	-18.1	45.2	SE	0.75	48.7	-35.7	720.5	0.025	0.000	21.3	21	1
05/19/19	8:01 p	-18.1	-18.1	-18.1	44.3	SE	0.74	53.0	-35.6	720.3	0.025	0.000	21.3	22	1
05/19/19	8:02 p	-18.1	-18.1	-18.1	47.0	SE	0.78	55.7	-35.9	720.1	0.025	0.000	21.3	21	1
05/19/19	8:03 p	-18.1	-18.1	-18.1	44.3	SE	0.74	48.7	-35.5	720.3	0.025	0.000	21.3	22	1
05/19/19	8:04 p	-18.1	-18.0	-18.1	43.5	SE	0.72	48.7	-35.4	720.4	0.025	0.000	21.3	22	1
05/19/19	8:05 p	-18.1	-18.1	-18.1	42.6	SE	0.71	47.8	-35.3	720.6	0.025	0.000	21.3	22	1
05/19/19	8:06 p	-18.1	-18.0	-18.1	38.3	SE	0.64	41.7	-34.7	720.7	0.025	0.000	21.3	22	1
05/19/19	8:07 p	-18.0	-18.0	-18.0	42.6	SE	0.71	47.0	-35.2	720.6	0.025	0.000	21.3	22	1
05/19/19	8:08 p	-18.0	-18.0	-18.0	40.0	SE	0.67	46.1	-34.8	720.8	0.025	0.000	21.3	22	1
05/19/19	8:09 p	-18.0	-17.9	-18.0	39.1	SE	0.65	42.6	-34.7	720.8	0.025	0.000	21.3	22	1
05/19/19	8:10 p	-18.0	-17.9	-18.0	37.4	SE	0.62	45.2	-34.4	720.8	0.025	0.000	21.3	22	1
05/19/19	8:11 p	-18.0	-17.9	-18.0	34.8	SE	0.58	39.1	-34.0	720.9	0.025	0.000	21.3	23	1
05/19/19	8:12 p	-17.9	-17.9	-18.0	36.5	SE	0.61	40.9	-34.2	721.0	0.025	0.000	21.3	23	1
05/19/19	8:13 p	-17.9	-17.9	-17.9	33.9	SE	0.57	37.4	-33.8	721.1	0.025	0.000	21.3	24	1
05/19/19	8:14 p	-17.9	-17.9	-17.9	34.8	SE	0.58	37.4	-33.9	721.0	0.025	0.000	21.3	23	1
05/19/19	8:15 p	-17.9	-17.9	-17.9	35.7	SE	0.59	37.4	-34.1	720.9	0.025	0.000	21.3	24	1
05/19/19	8:16 p	-17.9	-17.9	-17.9	35.7	SE	0.59	40.9	-34.1	720.8	0.025	0.000	21.3	26	1
05/19/19	8:17 p	-17.9	-17.9	-17.9	34.8	SE	0.58	39.1	-33.9	721.0	0.025	0.000	21.3	32	1
05/19/19	8:18 p	-17.9	-17.9	-17.9	33.9	SE	0.57	37.4	-33.7	721.0	0.025	0.000	21.3	44	1
05/19/19	8:19 p	-17.9	-17.9	-17.9	35.7	SE	0.59	39.1	-34.0	720.9	0.025	0.000	21.3	51	1
05/19/19	8:20 p	-17.9	-17.8	-17.9	33.0	SE	0.55	37.4	-33.6	720.9	0.025	0.000	21.3	90	1
05/19/19	8:21 p	-17.9	-17.8	-17.9	34.8	SE	0.58	39.1	-33.8	721.1	0.025	0.000	21.3	100	1
05/19/19	8:22 p	-17.8	-17.8	-17.8	36.5	SE	0.61	45.2	-34.1	721.1	0.025	0.000	21.3	100	1
05/19/19	8:23 p	-17.8	-17.8	-17.8	37.4	SE	0.62	40.9	-34.2	721.0	0.025	0.000	21.3	100	1
05/19/19	8:24 p	-17.8	-17.8	-17.8	33.0	SE	0.55	38.3	-33.5	720.8	0.025	0.000	21.3	100	1
05/19/19	8:25 p	-17.8	-17.8	-17.8	33.0	SE	0.55	34.8	-33.4	721.2	0.025	0.000	21.3	100	1
05/19/19	8:26 p	-17.8	-17.7	-17.8	33.0	SE	0.55	39.1	-33.4	721.1	0.025	0.000	21.3	100	1
05/19/19	8:27 p	-17.8	-17.7	-17.8	33.0	SE	0.55	35.7	-33.4	721.1	0.025	0.000	21.3	100	1
05/19/19	8:28 p	-17.7	-17.7	-17.7	32.2	SE	0.54	36.5	-33.2	721.2	0.025	0.000	21.3	100	1
05/19/19	8:29 p	-17.7	-17.7	-17.7	33.0	SE	0.55	36.5	-33.3	721.1	0.025	0.000	21.3	100	1
05/19/19	8:30 p	-17.7	-17.7	-17.7	31.3	SE	0.52	33.0	-33.1	721.1	0.025	0.000	21.3	100	1
05/19/19	8:31 p	-17.7	-17.7	-17.7	32.2	SE	0.54	35.7	-33.2	721.0	0.025	0.000	21.3	100	1
05/19/19	8:32 p	-17.7	-17.7	-17.7	31.3	SE	0.52	33.9	-32.9	721.1	0.025	0.000	21.3	100	1
05/19/19	8:33 p	-17.7	-17.7	-17.7	32.2	SE	0.54	35.7	-33.1	721.1	0.025	0.000	21.3	100	1
05/19/19	8:34 p	-17.7	-17.7	-17.7	33.9	ESE	0.57	37.4	-33.4	721.0	0.025	0.000	21.3	100	1
05/19/19	8:35 p	-17.7	-17.7	-17.7	32.2	ESE	0.54	36.5	-33.2	721.0	0.025	0.000	21.3	100	1
05/19/19	8:36 p	-17.7	-17.7	-17.7	33.0	ESE	0.55	37.4	-33.3	721.0	0.025	0.000	21.3	100	1
05/19/19	8:37 p	-17.7	-17.7	-17.7	33.9	ESE	0.57	35.7	-33.5	721.0	0.025	0.000	21.3	100	1
05/19/19	8:38 p	-17.7	-17.7	-17.7	33.9	SE	0.57	36.5	-33.5	721.0	0.025	0.000	21.3	100	1
05/19/19	8:39 p	-17.7	-17.7	-17.7	32.2	SE	0.54	34.8	-33.2	721.0	0.025	0.000	21.3	100	1
05/19/19	8:40 p	-17.7	-17.7	-17.7	31.3	ESE	0.52	33.9	-33.1	721.0	0.025	0.000	21.3	100	1
05/19/19	8:41 p	-17.7	-17.7	-17.7	33.0	ESE	0.55	36.5	-33.3	721.0	0.025	0.000	21.3	100	1
05/19/19	8:42 p	-17.7	-17.7	-17.7	35.7	ESE	0.59	39.1	-33.8	720.9	0.025	0.000	21.3	100	1
05/19/19	8:43 p	-17.7	-17.7	-17.7	33.9	ESE	0.57	39.1	-33.5	720.9	0.025	0.000	21.3	100	1
05/19/19	8:44 p	-17.7	-17.7	-17.8	33.0	ESE	0.55	37.4	-33.3	721.0	0.025	0.000	21.3	100	1
05/19/19	8:45 p	-17.8	-17.8	-17.8	33.9	ESE	0.57	38.3	-33.6	721.1	0.025	0.000	21.3	100	1
05/19/19	8:46 p	-17.8	-17.7	-17.8	31.3	ESE	0.52	35.7	-33.1	720.9	0.025	0.000	21.3	100	1
05/19/19	8:47 p	-17.8	-17.8	-17.8	33.9	ESE	0.57	36.5	-33.6	720.9	0.025	0.000	21.3	100	1
05/19/19	8:48 p	-17.8	-17.8	-17.8	32.2	ESE	0.54	35.7	-33.3	721.0	0.025	0.000	21.3	100	1
05/19/19	8:49 p	-17.8	-17.8	-17.8	32.2	ESE	0.54	35.7	-33.3	720.9	0.025	0.000	21.3	100	1
05/19/19	8:50 p	-17.8	-17.8	-17.8	33.0	ESE	0.55	35.7	-33.4	720.9	0.025	0.000	21.3	100	1
05/19/19	8:51 p	-17.8	-17.8	-17.8	33.0	ESE	0.55	36.5	-33.4	721.0	0.025	0.000	21.3	100	1
05/19/19	8:52 p	-17.8	-17.8	-17.8	32.2	ESE	0.54	36.5	-33.3	720.8	0.025	0.000	21.3	100	1
05/19/19	8:53 p	-17.8	-17.8	-17.8	37.4	SE	0.62	42.6	-34.2	720.9	0.025	0.000	21.3	100	1
05/19/19	8:54 p	-17.8	-17.8	-17.8	34.8	SE	0.58	37.4	-33.8	720.9	0.025	0.000	21.3	100	1
05/19/19	8:55 p	-17.8	-17.8	-17.8	33.0	SE	0.55	35.7	-33.4	720.9	0.025	0.000	21.3	100	1
05/19/19	8:56 p	-17.8	-17.8	-17.8	34.8	SE	0.58	37.4	-33.7	720.9	0.025	0.000	21.3	100	1
05/19/19	8:57 p	-17.8	-17.8	-17.8	34.8	SE	0.58	37.4	-33.8	720.6	0.025	0.000	21.3	100	1
05/19/19	8:58 p	-17.8	-17.8	-17.8	36.5	SE	0.61	40.9	-34.1	720.5	0.025	0.000	21.3	100	1
05/19/19	8:59 p	-17.8	-17.8	-17.8	36.5	SE	0.61	41.7	-34.0	720.5	0.025	0.000	21.3	100	1
05/19/19	9:00 p	-17.8	-17.8	-17.8	37.4	SE	0.62	40.9	-34.1	720.5	0.025	0.000	21.3	100	1
05/19/19	9:01 p	-17.8	-17.8	-17.8	37.4	SE	0.62	41.7	-34.1	720.6	0.025	0.000	21.3	100	1
05/19/19	9:02 p	-17.8	-17.8	-17.8	36.5	SE	0.61	40.0	-34.0	720.6	0.025	0.000	21.3	100	1
05/19/19	9:03 p	-17.8	-17.7	-17.8	35.7	SE	0.59	38.3	-33.8	720.5	0.025	0.000	21.3	100	1
05/19/19	9:04 p	-17.7	-17.7	-17.8	35.7	SE	0.59	41.7	-33.8	720.6	0.025	0.000	21.3	100	1
05/19/19	9:05 p	-17.7	-17.7	-17.7	36.5	SE	0.61	40.9	-33.9	720.5	0.025	0.000	21.3	100	1
05/19/19	9:06 p	-17.7	-17.7	-17.7	37.4	SE	0.62	40.0	-34.1	720.6	0.025	0.000	21.3	100	1
05/19/19	9:07 p	-17.7	-17.7	-17.7	36.5	SE	0.61	40.9	-33.9	720.6	0.025	0.000	21.3	100	1
05/19/19	9:08 p	-17.7	-17.7	-17.7	39.1	ESE	0.65	45.2	-34.2	720.5	0.025	0.000	21.3	100	1
05/19/19	9:09 p	-17.7	-17.7	-17.7	38.3	SE	0.64	41.7	-34.1	720.6	0.025	0.000	21.3	100	1
05/19/19	9:10 p	-17.7	-17.6	-17.7	37.4	SE	0.62	40.0	-33.9	720.7	0.025	0.000	21.3	100	1
05/19/19	9:11 p	-17.6	-17.6	-17.7	34.8	SE	0.58	38.3	-33.4	720.9	0.025	0.000	21.3	100	1
05/19/19	9:12 p	-17.6	-17.6	-17.6	33.9	SE	0.57	36.5	-33.3	720.8	0.025	0.000	21.3	100	1
05/19/19	9:13 p	-17.6	-17.6	-17.6	34.8	ESE	0.58	37.4	-33.4	720.8	0.025	0.000	21.3	100	1
05/19/19	9:14 p	-17.6	-17.6	-17.6	35.7	SE	0.59	39.1	-33.6	720.6	0.025	0.000	21.3	100	1
05/19/19	9:15 p	-17.6	-17.6	-17.6	37.4	ESE	0.62	41.7	-33.8	720.5	0.025	0.000	21.3	100	1
05/19/19	9:16 p	-17.5	-17.5	-17.6	36.5	SE	0.61	40.9	-33.6	720.9	0.025	0.000	21.3	100	1
05/19/19	9:17 p	-17.5	-17.4	-17.5	33.9	SE	0.57	37.4	-33.2	720.8	0.025	0.000	21.3	100	1
05/19/19	9:18 p	-17.5	-17.4	-17.5	32.2	SE	0.54	37.4	-32.9	720.9	0.025	0.000	21.3	100	1
05/19/19	9:19 p	-17.4	-17.4	-17.4	33.9	SE	0.57	40.9	-33.1	720.7	0.025	0.000	21.3	100	1
05/19/19	9:20 p	-17.4	-17.4	-17.4	34.8	SE	0.58	37.4	-33.2	720.8	0.025	0.000	21.3	100	1
05/19/19	9:21 p	-17.4	-17.4	-17.4	37.4	SE	0.62	42.6	-33.6	720.6	0.025	0.000	21.3	100	1
05/19/19	9:22 p	-17.4	-17.3	-17.4	35.7	SE	0.59	38.3	-33.3	720.8	0.025	0.000	21.3	100	1
05/19/19	9:23 p	-17.3	-17.3	-17.4	33.9	SE	0.57	37.4	-32.9	720.8	0.025	0.000	21.3	100	1
05/19/19	9:24 p	-17.3	-17.3	-17.3	34.8	SE	0.58	38.3	-33.1	720.6	0.025	0.000	21.3	100	1
05/19/19	9:25 p	-17.3	-17.3	-17.3	35.7	SE	0.59	37.4	-33.2	720.9	0.025	0.000	21.3	100	1
05/19/19	9:26 p	-17.3	-17.3	-17.3	34.8	SE	0.58	38.3	-33.0	720.8	0.025	0.000	21.3	100	1
05/19/19	9:27 p	-17.3	-17.2	-17.3	35.7	SE	0.59	38.3	-33.2	720.7	0.025	0.000	21.3	100	1
05/19/19	9:28 p	-17.2	-17.2	-17.2	37.4	SE	0.62	40.0	-33.3	720.6	0.025	0.000	21.3	100	1
05/19/19	9:29 p	-17.2	-17.2	-17.2	36.5	SE	0.61	40.9	-33.2	720.7	0.025	0.000	21.3	100	1
05/19/19	9:30 p	-17.2	-17.2	-17.2	35.7	SE	0.59	37.4	-33.0	720.6	0.025	0.000	21.3	100	1
05/19/19	9:31 p	-17.2	-17.2	-17.2	35.7	SE	0.59	42.6	-33.0	720.5	0.025	0.000	21.3	100	1
05/19/19	9:32 p	-17.1	-17.1	-17.2	36.5	SE	0.61	40.0	-33.1	720.7	0.025	0.000	21.3	100	1
05/19/19	9:33 p	-17.1	-17.1	-17.1	36.5	SE	0.61	38.3	-33.1	720.6	0.025	0.000	21.3	100	1
05/19/19	9:34 p	-17.1	-17.1	-17.1	36.5	SE	0.61	38.3	-33.0	720.7	0.025	0.000	21.3	100	1
05/19/19	9:35 p	-17.1	-17.1	-17.1	37.4	SE	0.62	39.1	-33.1	720.6	0.025	0.000	21.3	100	1
05/19/19	9:36 p	-17.0	-17.0	-17.1	33.9	SE	0.57	36.5	-32.5	720.8	0.025	0.000	21.3	100	1
05/19/19	9:37 p	-17.0	-17.0	-17.0	34.8	SE	0.58	37.4	-32.6	720.8	0.025	0.000	21.3	100	1
05/19/19	9:38 p	-17.0	-16.9	-17.0	36.5	SE	0.61	40.0	-32.9	720.8	0.025	0.000	21.3	100	1
05/19/19	9:39 p	-16.9	-16.9	-16.9	35.7	SE	0.59	37.4	-32.7	720.8	0.024	0.000	21.3	100	1
05/19/19	9:40 p	-16.9	-16.9	-16.9	33.9	SE	0.57	36.5	-32.4	720.7	0.024	0.000	21.3	100	1
05/19/19	9:41 p	-16.9	-16.9	-16.9	37.4	SE	0.62	40.9	-32.9	720.6	0.024	0.000	21.3	100	1
05/19/19	9:42 p	-16.9	-16.9	-16.9	38.3	SE	0.64	40.0	-33.0	720.6	0.024	0.000	21.3	100	1
05/19/19	9:43 p	-16.8	-16.8	-16.9	34.8	SE	0.58	37.4	-32.4	720.8	0.024	0.000	21.3	100	1
05/19/19	9:44 p	-16.8	-16.8	-16.8	33.9	SE	0.57	37.4	-32.2	720.9	0.024	0.000	21.3	100	1
05/19/19	9:45 p	-16.8	-16.8	-16.8	33.0	SE	0.55	36.5	-32.0	720.8	0.024	0.000	21.3	100	1
05/19/19	9:46 p	-16.8	-16.8	-16.8	33.0	SE	0.55	35.7	-32.0	720.9	0.024	0.000	21.3	100	1
05/19/19	9:47 p	-16.8	-16.7	-16.8	35.7	SE	0.59	38.3	-32.4	720.6	0.024	0.000	21.3	100	1
05/19/19	9:48 p	-16.7	-16.7	-16.8	37.4	SE	0.62	47.8	-32.7	720.7	0.024	0.000	21.3	100	1
05/19/19	9:49 p	-16.7	-16.7	-16.8	36.5	SE	0.61	39.1	-32.5	720.6	0.024	0.000	21.3	100	1
05/19/19	9:50 p	-16.7	-16.7	-16.7	38.3	SE	0.64	40.9	-32.8	720.7	0.024	0.000	21.3	100	1
05/19/19	9:51 p	-16.7	-16.7	-16.7	39.1	SE	0.65	42.6	-32.8	720.7	0.024	0.000	21.3	100	1
05/19/19	9:52 p	-16.7	-16.7	-16.7	42.6	SE	0.71	46.1	-33.3	720.5	0.024	0.000	21.3	100	1
05/19/19	9:53 p	-16.6	-16.6	-16.7	43.5	SE	0.72	47.0	-33.3	720.5	0.024	0.000	21.3	100	1
05/19/19	9:54 p	-16.6	-16.6	-16.6	41.7	SE	0.70	45.2	-33.1	720.5	0.024	0.000	21.3	100	1
05/19/19	9:55 p	-16.6	-16.6	-16.6	41.7	SE	0.70	47.0	-33.1	720.5	0.024	0.000	21.3	100	1
05/19/19	9:56 p	-16.5	-16.5	-16.5	44.3	SE	0.74	50.4	-33.3	720.4	0.024	0.000	21.4	100	1
05/19/19	9:57 p	-16.5	-16.4	-16.5	42.6	SE	0.71	45.2	-33.1	720.6	0.024	0.000	21.3	100	1
05/19/19	9:58 p	-16.4	-16.4	-16.4	38.3	SE	0.64	41.7	-32.4	720.6	0.024	0.000	21.4	100	1
05/19/19	9:59 p	-16.4	-16.3	-16.4	40.0	SE	0.67	45.2	-32.6	720.5	0.024	0.000	21.4	100	1
05/19/19	10:00 p	-16.3	-16.3	-16.4	41.7	SE	0.70	44.3	-32.7	720.5	0.024	0.000	21.4	100	1
05/19/19	10:01 p	-16.3	-16.3	-16.3	41.7	SE	0.70	47.0	-32.7	720.4	0.024	0.000	21.4	100	1
05/19/19	10:02 p	-16.3	-16.2	-16.3	41.7	SE	0.70	44.3	-32.7	720.5	0.024	0.000	21.3	100	1
05/19/19	10:03 p	-16.2	-16.2	-16.2	44.3	SE	0.74	48.7	-32.8	720.4	0.024	0.000	21.3	100	1
05/19/19	10:04 p	-16.1	-16.1	-16.2	41.7	SE	0.70	47.0	-32.4	720.4	0.024	0.000	21.4	100	1
05/19/19	10:05 p	-16.1	-16.1	-16.1	41.7	SE	0.70	45.2	-32.4	720.5	0.024	0.000	21.3	100	1
05/19/19	10:06 p	-16.1	-16.1	-16.1	43.5	SE	0.72	51.3	-32.6	720.4	0.024	0.000	21.3	100	1
05/19/19	10:07 p	-16.1	-16.0	-16.1	44.3	SE	0.74	48.7	-32.7	720.4	0.024	0.000	21.4	100	1
05/19/19	10:08 p	-16.0	-15.9	-16.0	43.5	SE	0.72	48.7	-32.5	720.4	0.024	0.000	21.3	100	1
05/19/19	10:09 p	-15.9	-15.9	-15.9	42.6	SE	0.71	46.1	-32.3	720.4	0.024	0.000	21.4	100	1
05/19/19	10:10 p	-15.9	-15.9	-15.9	42.6	SE	0.71	46.1	-32.3	720.6	0.024	0.000	21.4	100	1
05/19/19	10:11 p	-15.9	-15.8	-15.9	42.6	SE	0.71	47.8	-32.2	720.4	0.024	0.000	21.4	100	1
05/19/19	10:12 p	-15.9	-15.8	-15.9	43.5	SE	0.72	49.6	-32.3	720.4	0.024	0.000	21.4	100	1
05/19/19	10:13 p	-15.8	-15.8	-15.8	45.2	SSE	0.75	48.7	-32.4	720.4	0.024	0.000	21.4	100	1
05/19/19	10:14 p	-15.8	-15.8	-15.8	42.6	SSE	0.71	45.2	-32.1	720.6	0.024	0.000	21.4	100	1
05/19/19	10:15 p	-15.8	-15.8	-15.8	40.9	SSE	0.68	45.2	-31.8	720.5	0.024	0.000	21.4	100	1
05/19/19	10:16 p	-15.8	-15.8	-15.8	42.6	SSE	0.71	47.0	-32.1	720.5	0.024	0.000	21.4	100	1
05/19/19	10:17 p	-15.8	-15.7	-15.8	43.5	SSE	0.72	47.0	-32.2	720.5	0.024	0.000	21.4	100	1
05/19/19	10:18 p	-15.7	-15.7	-15.8	44.3	SE	0.74	52.2	-32.2	720.2	0.024	0.000	21.4	100	1
05/19/19	10:19 p	-15.7	-15.7	-15.7	43.5	SE	0.72	47.0	-32.1	720.4	0.024	0.000	21.4	100	1
05/19/19	10:20 p	-15.7	-15.7	-15.7	45.2	SE	0.75	51.3	-32.3	720.4	0.024	0.000	21.4	100	1
05/19/19	10:21 p	-15.7	-15.7	-15.7	45.2	SE	0.75	47.8	-32.3	720.3	0.024	0.000	21.4	100	1
05/19/19	10:22 p	-15.7	-15.7	-15.7	46.1	SE	0.77	49.6	-32.3	720.3	0.024	0.000	21.4	100	1
05/19/19	10:23 p	-15.7	-15.7	-15.7	47.0	SE	0.78	53.0	-32.4	720.1	0.024	0.000	21.4	100	1
05/19/19	10:24 p	-15.7	-15.7	-15.7	47.0	SE	0.78	50.4	-32.4	720.2	0.024	0.000	21.4	100	1
05/19/19	10:25 p	-15.7	-15.7	-15.7	47.0	SE	0.78	53.9	-32.4	720.2	0.024	0.000	21.4	100	1
05/19/19	10:26 p	-15.7	-15.7	-15.7	46.1	SE	0.77	49.6	-32.3	720.2	0.024	0.000	21.4	100	1
05/19/19	10:27 p	-15.7	-15.7	-15.7	44.3	SSE	0.74	48.7	-32.1	720.3	0.024	0.000	21.4	100	1
05/19/19	10:28 p	-15.7	-15.7	-15.7	46.1	SE	0.77	51.3	-32.3	720.4	0.024	0.000	21.4	100	1
05/19/19	10:29 p	-15.7	-15.7	-15.7	44.3	SE	0.74	47.8	-32.1	720.3	0.024	0.000	21.4	100	1
05/19/19	10:30 p	-15.7	-15.6	-15.7	46.1	SE	0.77	49.6	-32.3	720.2	0.024	0.000	21.4	100	1
05/19/19	10:31 p	-15.7	-15.6	-15.7	44.3	SE	0.74	49.6	-32.1	720.4	0.024	0.000	21.4	100	1
05/19/19	10:32 p	-15.6	-15.6	-15.7	45.2	SE	0.75	49.6	-32.2	720.3	0.024	0.000	21.4	100	1
05/19/19	10:33 p	-15.7	-15.6	-15.7	44.3	SE	0.74	49.6	-32.1	720.3	0.024	0.000	21.4	100	1
05/19/19	10:34 p	-15.6	-15.6	-15.7	45.2	SE	0.75	48.7	-32.2	720.2	0.024	0.000	21.4	100	1
05/19/19	10:35 p	-15.6	-15.6	-15.6	47.0	SE	0.78	49.6	-32.4	720.3	0.024	0.000	21.4	100	1
05/19/19	10:36 p	-15.6	-15.6	-15.6	45.2	SE	0.75	47.8	-32.2	720.3	0.024	0.000	21.4	100	1
05/19/19	10:37 p	-15.6	-15.6	-15.6	45.2	SE	0.75	50.4	-32.2	720.3	0.024	0.000	21.4	100	1
05/19/19	10:38 p	-15.6	-15.6	-15.6	44.3	SE	0.74	47.8	-32.1	720.3	0.024	0.000	21.4	100	1
05/19/19	10:39 p	-15.6	-15.6	-15.6	46.1	SE	0.77	50.4	-32.3	720.2	0.024	0.000	21.4	100	1
05/19/19	10:40 p	-15.6	-15.6	-15.6	46.1	SE	0.77	52.2	-32.2	720.3	0.024	0.000	21.4	100	1
05/19/19	10:41 p	-15.6	-15.6	-15.6	44.3	SE	0.74	49.6	-31.9	720.5	0.024	0.000	21.4	100	1
05/19/19	10:42 p	-15.6	-15.6	-15.6	42.6	SE	0.71	46.1	-31.7	720.3	0.024	0.000	21.4	100	1
05/19/19	10:43 p	-15.6	-15.6	-15.6	40.0	SE	0.67	43.5	-31.4	720.5	0.024	0.000	21.4	100	1
05/19/19	10:44 p	-15.6	-15.6	-15.6	45.2	SE	0.75	47.8	-32.1	720.3	0.024	0.000	21.4	100	1
05/19/19	10:45 p	-15.6	-15.5	-15.6	43.5	SE	0.72	48.7	-31.8	720.5	0.024	0.000	21.4	100	1
05/19/19	10:46 p	-15.6	-15.5	-15.6	41.7	SE	0.70	45.2	-31.6	720.5	0.024	0.000	21.4	100	1
05/19/19	10:47 p	-15.5	-15.4	-15.6	41.7	SE	0.70	49.6	-31.6	720.6	0.023	0.000	21.4	100	1
05/19/19	10:48 p	-15.5	-15.5	-15.5	40.9	SE	0.68	44.3	-31.4	720.5	0.023	0.000	21.4	100	1
05/19/19	10:49 p	-15.5	-15.5	-15.5	43.5	SE	0.72	48.7	-31.8	720.6	0.023	0.000	21.4	100	1
05/19/19	10:50 p	-15.4	-15.4	-15.5	41.7	SE	0.70	45.2	-31.4	720.8	0.023	0.000	21.4	100	1
05/19/19	10:51 p	-15.5	-15.4	-15.5	39.1	SE	0.65	44.3	-31.2	720.7	0.023	0.000	21.4	100	1
05/19/19	10:52 p	-15.5	-15.4	-15.5	41.7	SE	0.70	47.0	-31.6	720.7	0.023	0.000	21.4	100	1
05/19/19	10:53 p	-15.4	-15.4	-15.4	40.0	SE	0.67	43.5	-31.2	720.7	0.023	0.000	21.4	100	1
05/19/19	10:54 p	-15.4	-15.4	-15.4	40.0	SE	0.67	44.3	-31.2	720.8	0.023	0.000	21.4	100	1
05/19/19	10:55 p	-15.4	-15.4	-15.4	40.9	SE	0.68	46.1	-31.3	720.9	0.023	0.000	21.4	100	1
05/19/19	10:56 p	-15.4	-15.4	-15.4	40.0	SE	0.67	44.3	-31.2	720.8	0.023	0.000	21.4	100	1
05/19/19	10:57 p	-15.4	-15.4	-15.4	41.7	SE	0.70	45.2	-31.4	720.8	0.023	0.000	21.4	100	1
05/19/19	10:58 p	-15.4	-15.4	-15.4	39.1	SE	0.65	42.6	-31.0	721.0	0.023	0.000	21.4	100	1
05/19/19	10:59 p	-15.4	-15.4	-15.4	35.7	SSE	0.59	46.1	-30.5	721.1	0.023	0.000	21.4	100	1
05/19/19	11:00 p	-15.4	-15.4	-15.4	32.2	SSE	0.54	38.3	-29.9	721.1	0.023	0.000	21.4	100	1
05/19/19	11:01 p	-15.4	-15.4	-15.4	33.0	SSE	0.55	38.3	-30.1	721.0	0.023	0.000	21.4	100	1
05/19/19	11:02 p	-15.4	-15.4	-15.4	32.2	SE	0.54	41.7	-29.9	721.1	0.023	0.000	21.4	100	1
05/19/19	11:03 p	-15.3	-15.3	-15.4	30.4	SSE	0.51	34.8	-29.6	721.1	0.023	0.000	21.4	100	1
05/19/19	11:04 p	-15.4	-15.3	-15.4	33.9	SSE	0.57	39.1	-30.2	720.9	0.023	0.000	21.4	100	1
05/19/19	11:05 p	-15.4	-15.3	-15.4	27.8	SSE	0.46	40.9	-29.2	720.7	0.023	0.000	21.4	100	1
05/19/19	11:06 p	-15.3	-15.3	-15.3	21.7	SSE	0.36	37.4	-27.8	720.9	0.023	0.000	21.4	100	1
05/19/19	11:07 p	-15.3	-15.3	-15.3	29.6	SSE	0.49	34.8	-29.4	720.9	0.023	0.000	21.4	100	1
05/19/19	11:08 p	-15.3	-15.3	-15.3	30.4	SSE	0.51	34.8	-29.5	721.0	0.023	0.000	21.4	100	1
05/19/19	11:09 p	-15.3	-15.3	-15.3	25.2	SSE	0.42	34.8	-28.6	720.8	0.023	0.000	21.4	100	1
05/19/19	11:10 p	-15.3	-15.3	-15.3	16.5	SSE	0.28	33.9	-26.4	720.8	0.023	0.000	21.4	100	1
05/19/19	11:11 p	-15.3	-15.2	-15.3	19.1	SSE	0.32	33.0	-27.1	720.8	0.023	0.000	21.4	100	1
05/19/19	11:12 p	-15.3	-15.2	-15.3	27.0	SSE	0.45	37.4	-28.9	720.8	0.023	0.000	21.4	100	1
05/19/19	11:13 p	-15.2	-15.2	-15.2	30.4	SSE	0.51	36.5	-29.4	720.8	0.023	0.000	21.4	100	1
05/19/19	11:14 p	-15.2	-15.2	-15.2	33.0	SSE	0.55	40.0	-29.9	720.8	0.023	0.000	21.4	100	1
05/19/19	11:15 p	-15.2	-15.2	-15.2	33.9	SSE	0.57	38.3	-30.0	720.6	0.023	0.000	21.4	100	1
05/19/19	11:16 p	-15.2	-15.2	-15.2	24.3	SSE	0.41	33.9	-28.2	720.6	0.023	0.000	21.4	100	1
05/19/19	11:17 p	-15.2	-15.2	-15.2	29.6	SSE	0.49	40.0	-29.2	720.5	0.023	0.000	21.4	100	1
05/19/19	11:18 p	-15.1	-15.1	-15.2	28.7	SSE	0.48	33.0	-28.9	720.8	0.023	0.000	21.4	100	1
05/19/19	11:19 p	-15.1	-15.1	-15.2	27.8	SSE	0.46	38.3	-28.8	720.7	0.023	0.000	21.4	100	1
05/19/19	11:20 p	-15.1	-15.1	-15.1	20.9	SSE	0.35	33.9	-27.3	720.7	0.023	0.000	21.4	100	1
05/19/19	11:21 p	-15.1	-15.1	-15.1	33.0	SSE	0.55	40.9	-29.6	720.6	0.023	0.000	21.4	100	1
05/19/19	11:22 p	-15.1	-15.1	-15.1	22.6	SSE	0.38	33.0	-27.7	720.6	0.023	0.000	21.4	100	1
05/19/19	11:23 p	-15.1	-15.0	-15.1	26.1	SSE	0.43	39.1	-28.4	720.8	0.023	0.000	21.4	100	1
05/19/19	11:24 p	-15.0	-15.0	-15.0	20.9	S	0.35	33.0	-27.2	720.5	0.023	0.000	21.4	100	1
05/19/19	11:25 p	-15.0	-14.9	-15.0	26.1	SSE	0.43	37.4	-28.3	720.5	0.023	0.000	21.4	100	1
05/19/19	11:26 p	-14.9	-14.9	-15.0	21.7	SSE	0.36	30.4	-27.3	720.5	0.023	0.000	21.5	100	1
05/19/19	11:27 p	-14.9	-14.9	-14.9	26.1	SSE	0.43	47.0	-28.2	720.3	0.023	0.000	21.5	100	1
05/19/19	11:28 p	-14.9	-14.9	-14.9	24.3	SSE	0.41	36.5	-27.8	720.5	0.023	0.000	21.5	100	1
05/19/19	11:29 p	-14.9	-14.8	-14.9	24.3	SSE	0.41	33.9	-27.8	720.7	0.023	0.000	21.5	100	1
05/19/19	11:30 p	-14.8	-14.8	-14.8	28.7	SSE	0.48	40.9	-28.6	720.8	0.023	0.000	21.5	100	1
05/19/19	11:31 p	-14.8	-14.8	-14.8	23.5	SSE	0.39	34.8	-27.5	720.6	0.023	0.000	21.5	100	1
05/19/19	11:32 p	-14.8	-14.8	-14.8	25.2	SSE	0.42	47.0	-27.8	720.4	0.023	0.000	21.5	100	1
05/19/19	11:33 p	-14.7	-14.7	-14.8	14.8	S	0.25	21.7	-25.2	720.5	0.023	0.000	21.5	100	1
05/19/19	11:34 p	-14.7	-14.7	-14.7	21.7	S	0.36	34.8	-27.0	720.5	0.023	0.000	21.5	100	1
05/19/19	11:35 p	-14.7	-14.7	-14.7	27.8	SSE	0.46	46.1	-28.2	720.3	0.023	0.000	21.5	100	1
05/19/19	11:36 p	-14.7	-14.6	-14.7	27.8	SSE	0.46	39.1	-28.2	720.5	0.023	0.000	21.5	100	1
05/19/19	11:37 p	-14.6	-14.6	-14.7	30.4	SSE	0.51	38.3	-28.6	720.5	0.023	0.000	21.5	100	1
05/19/19	11:38 p	-14.6	-14.6	-14.6	27.8	SSE	0.46	40.0	-28.1	720.6	0.023	0.000	21.6	100	1
05/19/19	11:39 p	-14.6	-14.6	-14.6	23.5	SSE	0.39	38.3	-27.3	720.5	0.023	0.000	21.6	100	1
05/19/19	11:40 p	-14.6	-14.6	-14.6	25.2	SSE	0.42	35.7	-27.6	720.6	0.023	0.000	21.6	100	1
05/19/19	11:41 p	-14.6	-14.6	-14.6	27.8	SSE	0.46	36.5	-28.1	720.8	0.023	0.000	21.6	100	1
05/19/19	11:42 p	-14.6	-14.5	-14.6	31.3	SSE	0.52	42.6	-28.7	720.7	0.023	0.000	21.6	100	1
05/19/19	11:43 p	-14.6	-14.5	-14.6	26.1	SSE	0.43	37.4	-27.7	720.7	0.023	0.000	21.6	100	1
05/19/19	11:44 p	-14.6	-14.5	-14.6	28.7	SSE	0.48	35.7	-28.2	720.6	0.023	0.000	21.6	96	1
05/19/19	11:45 p	-14.5	-14.5	-14.6	27.0	SSE	0.45	33.9	-27.8	720.7	0.023	0.000	21.6	100	1
05/19/19	11:46 p	-14.6	-14.5	-14.6	19.1	S	0.32	30.4	-26.2	720.6	0.023	0.000	21.6	100	1
05/19/19	11:47 p	-14.6	-14.5	-14.6	25.2	SSE	0.42	33.9	-27.6	720.6	0.023	0.000	21.6	100	1
05/19/19	11:48 p	-14.6	-14.6	-14.6	29.6	SSE	0.49	41.7	-28.3	720.5	0.023	0.000	21.6	100	1
05/19/19	11:49 p	-14.6	-14.6	-14.6	22.6	SSE	0.38	33.9	-27.0	720.5	0.023	0.000	21.6	100	1
05/19/19	11:50 p	-14.6	-14.6	-14.6	22.6	SSE	0.38	49.6	-27.1	720.6	0.023	0.000	21.6	100	1
05/19/19	11:51 p	-14.6	-14.6	-14.6	18.3	S	0.30	28.7	-26.0	720.7	0.023	0.000	21.6	100	1
05/19/19	11:52 p	-14.6	-14.6	-14.6	14.8	S	0.25	21.7	-24.9	720.5	0.023	0.000	21.6	100	1
05/19/19	11:53 p	-14.6	-14.6	-14.6	29.6	SSE	0.49	42.6	-28.4	720.5	0.023	0.000	21.6	100	1
05/19/19	11:54 p	-14.6	-14.6	-14.6	24.3	SSE	0.41	34.8	-27.4	720.6	0.023	0.000	21.6	100	1
05/19/19	11:55 p	-14.6	-14.6	-14.6	25.2	SSE	0.42	37.4	-27.6	720.6	0.023	0.000	21.6	100	1
05/19/19	11:56 p	-14.6	-14.6	-14.6	27.8	SSE	0.46	36.5	-28.1	720.6	0.023	0.000	21.6	100	1
05/19/19	11:57 p	-14.6	-14.6	-14.7	21.7	SSE	0.36	33.0	-26.9	720.6	0.023	0.000	21.6	97	1
05/19/19	11:58 p	-14.7	-14.6	-14.7	22.6	SSE	0.38	34.8	-27.2	720.8	0.023	0.000	21.6	88	1
05/19/19	11:59 p	-14.6	-14.6	-14.7	24.3	SSE	0.41	36.5	-27.4	720.7	0.023	0.000	21.6	87	1
05/20/19	12:00 a	-14.6	-14.6	-14.7	22.6	SSE	0.38	40.9	-27.1	720.6	0.023	0.000	21.7	85	1